<?xml version="1.0" encoding="UTF-8"?><gpx version="1.0" creator="dbj" xmlns="http://www.topografix.com/GPX/1/0"><time>2020-02-23T08:00:34Z</time><bounds minlat="44.00270498" minlon="10.03087196" maxlat="44.05363703" maxlon="10.10745197"/><wpt lat="44.038351038" lon="10.043198979"><name>Start Lat:44.0384, Lon:10.0432</name><sym>Start</sym><ele>7</ele></wpt><trk><trkseg><trkpt lat="44.038351038" lon="10.043198979"><ele>7</ele><time>2020-02-23T08:00:34Z</time></trkpt>
<trkpt lat="44.038333017" lon="10.043226974"><ele>7</ele><time>2020-02-23T08:00:35Z</time></trkpt>
<trkpt lat="44.038316002" lon="10.043255975"><ele>7</ele><time>2020-02-23T08:00:36Z</time></trkpt>
<trkpt lat="44.038298987" lon="10.043285983"><ele>7</ele><time>2020-02-23T08:00:37Z</time></trkpt>
<trkpt lat="44.038281972" lon="10.043316996"><ele>7</ele><time>2020-02-23T08:00:38Z</time></trkpt>
<trkpt lat="44.038265962" lon="10.043349015"><ele>7</ele><time>2020-02-23T08:00:39Z</time></trkpt>
<trkpt lat="44.038250037" lon="10.043382039"><ele>7</ele><time>2020-02-23T08:00:40Z</time></trkpt>
<trkpt lat="44.038234027" lon="10.043416992"><ele>7</ele><time>2020-02-23T08:00:41Z</time></trkpt>
<trkpt lat="44.038219023" lon="10.043452028"><ele>7</ele><time>2020-02-23T08:00:42Z</time></trkpt>
<trkpt lat="44.03820402" lon="10.043488992"><ele>7</ele><time>2020-02-23T08:00:43Z</time></trkpt>
<trkpt lat="44.038190022" lon="10.04352604"><ele>7</ele><time>2020-02-23T08:00:44Z</time></trkpt>
<trkpt lat="44.038176024" lon="10.043565016"><ele>7</ele><time>2020-02-23T08:00:45Z</time></trkpt>
<trkpt lat="44.038149035" lon="10.043646991"><ele>7</ele><time>2020-02-23T08:00:47Z</time></trkpt>
<trkpt lat="44.038135959" lon="10.043687979"><ele>7</ele><time>2020-02-23T08:00:48Z</time></trkpt>
<trkpt lat="44.038121961" lon="10.043729972"><ele>7</ele><time>2020-02-23T08:00:49Z</time></trkpt>
<trkpt lat="44.038108969" lon="10.043771965"><ele>7</ele><time>2020-02-23T08:00:50Z</time></trkpt>
<trkpt lat="44.038094971" lon="10.043812031"><ele>7</ele><time>2020-02-23T08:00:51Z</time></trkpt>
<trkpt lat="44.038080974" lon="10.043851007"><ele>7</ele><time>2020-02-23T08:00:52Z</time></trkpt>
<trkpt lat="44.03806597" lon="10.043887971"><ele>7</ele><time>2020-02-23T08:00:53Z</time></trkpt>
<trkpt lat="44.038049961" lon="10.043923007"><ele>7</ele><time>2020-02-23T08:00:54Z</time></trkpt>
<trkpt lat="44.038034035" lon="10.04395796"><ele>7</ele><time>2020-02-23T08:00:55Z</time></trkpt>
<trkpt lat="44.038018025" lon="10.04399199"><ele>7</ele><time>2020-02-23T08:00:56Z</time></trkpt>
<trkpt lat="44.038000004" lon="10.044026021"><ele>7</ele><time>2020-02-23T08:00:57Z</time></trkpt>
<trkpt lat="44.037982989" lon="10.044061979"><ele>7</ele><time>2020-02-23T08:00:58Z</time></trkpt>
<trkpt lat="44.037964968" lon="10.044099027"><ele>7</ele><time>2020-02-23T08:00:59Z</time></trkpt>
<trkpt lat="44.037928004" lon="10.044176979"><ele>7</ele><time>2020-02-23T08:01:01Z</time></trkpt>
<trkpt lat="44.037910989" lon="10.044216961"><ele>6</ele><time>2020-02-23T08:01:02Z</time></trkpt>
<trkpt lat="44.037893973" lon="10.044258032"><ele>6</ele><time>2020-02-23T08:01:03Z</time></trkpt>
<trkpt lat="44.037877964" lon="10.044298014"><ele>6</ele><time>2020-02-23T08:01:04Z</time></trkpt>
<trkpt lat="44.037863966" lon="10.04433699"><ele>6</ele><time>2020-02-23T08:01:05Z</time></trkpt>
<trkpt lat="44.037850974" lon="10.044375965"><ele>6</ele><time>2020-02-23T08:01:06Z</time></trkpt>
<trkpt lat="44.037838988" lon="10.044415025"><ele>6</ele><time>2020-02-23T08:01:07Z</time></trkpt>
<trkpt lat="44.037825996" lon="10.044452995"><ele>6</ele><time>2020-02-23T08:01:08Z</time></trkpt>
<trkpt lat="44.03781401" lon="10.044489959"><ele>6</ele><time>2020-02-23T08:01:09Z</time></trkpt>
<trkpt lat="44.037802024" lon="10.044527007"><ele>6</ele><time>2020-02-23T08:01:10Z</time></trkpt>
<trkpt lat="44.037789032" lon="10.044563971"><ele>6</ele><time>2020-02-23T08:01:11Z</time></trkpt>
<trkpt lat="44.037775034" lon="10.044600014"><ele>6</ele><time>2020-02-23T08:01:12Z</time></trkpt>
<trkpt lat="44.03776003" lon="10.044635972"><ele>6</ele><time>2020-02-23T08:01:13Z</time></trkpt>
<trkpt lat="44.037745027" lon="10.04467302"><ele>6</ele><time>2020-02-23T08:01:14Z</time></trkpt>
<trkpt lat="44.037729017" lon="10.044709984"><ele>6</ele><time>2020-02-23T08:01:15Z</time></trkpt>
<trkpt lat="44.037713008" lon="10.044747032"><ele>6</ele><time>2020-02-23T08:01:16Z</time></trkpt>
<trkpt lat="44.037696999" lon="10.044785002"><ele>6</ele><time>2020-02-23T08:01:17Z</time></trkpt>
<trkpt lat="44.037680989" lon="10.044823978"><ele>6</ele><time>2020-02-23T08:01:18Z</time></trkpt>
<trkpt lat="44.037666991" lon="10.044863038"><ele>6</ele><time>2020-02-23T08:01:19Z</time></trkpt>
<trkpt lat="44.037656011" lon="10.044902014"><ele>6</ele><time>2020-02-23T08:01:20Z</time></trkpt>
<trkpt lat="44.037647964" lon="10.044939984"><ele>6</ele><time>2020-02-23T08:01:21Z</time></trkpt>
<trkpt lat="44.037645031" lon="10.044977032"><ele>6</ele><time>2020-02-23T08:01:22Z</time></trkpt>
<trkpt lat="44.037655005" lon="10.045047021"><ele>6</ele><time>2020-02-23T08:01:24Z</time></trkpt>
<trkpt lat="44.037670009" lon="10.045079961"><ele>6</ele><time>2020-02-23T08:01:25Z</time></trkpt>
<trkpt lat="44.037692975" lon="10.04511198"><ele>6</ele><time>2020-02-23T08:01:26Z</time></trkpt>
<trkpt lat="44.037722982" lon="10.045141988"><ele>6</ele><time>2020-02-23T08:01:27Z</time></trkpt>
<trkpt lat="44.037827002" lon="10.045219017"><ele>6</ele><time>2020-02-23T08:01:30Z</time></trkpt>
<trkpt lat="44.037859021" lon="10.045239972"><ele>6</ele><time>2020-02-23T08:01:31Z</time></trkpt>
<trkpt lat="44.037888022" lon="10.045258999"><ele>6</ele><time>2020-02-23T08:01:32Z</time></trkpt>
<trkpt lat="44.037916018" lon="10.045276014"><ele>6</ele><time>2020-02-23T08:01:33Z</time></trkpt>
<trkpt lat="44.037943007" lon="10.045294035"><ele>6</ele><time>2020-02-23T08:01:34Z</time></trkpt>
<trkpt lat="44.037969997" lon="10.045310967"><ele>6</ele><time>2020-02-23T08:01:35Z</time></trkpt>
<trkpt lat="44.037996987" lon="10.045328988"><ele>6</ele><time>2020-02-23T08:01:36Z</time></trkpt>
<trkpt lat="44.038023977" lon="10.045347009"><ele>6</ele><time>2020-02-23T08:01:37Z</time></trkpt>
<trkpt lat="44.038050966" lon="10.045366036"><ele>6</ele><time>2020-02-23T08:01:38Z</time></trkpt>
<trkpt lat="44.03807804" lon="10.045385985"><ele>6</ele><time>2020-02-23T08:01:39Z</time></trkpt>
<trkpt lat="44.03810503" lon="10.045406017"><ele>6</ele><time>2020-02-23T08:01:40Z</time></trkpt>
<trkpt lat="44.038132019" lon="10.045426972"><ele>6</ele><time>2020-02-23T08:01:41Z</time></trkpt>
<trkpt lat="44.038159009" lon="10.045448011"><ele>6</ele><time>2020-02-23T08:01:42Z</time></trkpt>
<trkpt lat="44.038185999" lon="10.045469971"><ele>6</ele><time>2020-02-23T08:01:43Z</time></trkpt>
<trkpt lat="44.038213994" lon="10.04549101"><ele>6</ele><time>2020-02-23T08:01:44Z</time></trkpt>
<trkpt lat="44.038240984" lon="10.045513976"><ele>6</ele><time>2020-02-23T08:01:45Z</time></trkpt>
<trkpt lat="44.038267974" lon="10.045536021"><ele>6</ele><time>2020-02-23T08:01:46Z</time></trkpt>
<trkpt lat="44.038295969" lon="10.045557981"><ele>6</ele><time>2020-02-23T08:01:47Z</time></trkpt>
<trkpt lat="44.038322959" lon="10.045581032"><ele>6</ele><time>2020-02-23T08:01:48Z</time></trkpt>
<trkpt lat="44.038351038" lon="10.045603998"><ele>6</ele><time>2020-02-23T08:01:49Z</time></trkpt>
<trkpt lat="44.038378028" lon="10.045626964"><ele>7</ele><time>2020-02-23T08:01:50Z</time></trkpt>
<trkpt lat="44.038406024" lon="10.045650015"><ele>7</ele><time>2020-02-23T08:01:51Z</time></trkpt>
<trkpt lat="44.038433013" lon="10.045672981"><ele>7</ele><time>2020-02-23T08:01:52Z</time></trkpt>
<trkpt lat="44.038461009" lon="10.045695025"><ele>7</ele><time>2020-02-23T08:01:53Z</time></trkpt>
<trkpt lat="44.038542984" lon="10.045764009"><ele>7</ele><time>2020-02-23T08:01:56Z</time></trkpt>
<trkpt lat="44.038569974" lon="10.045785969"><ele>7</ele><time>2020-02-23T08:01:57Z</time></trkpt>
<trkpt lat="44.038596964" lon="10.045809019"><ele>7</ele><time>2020-02-23T08:01:58Z</time></trkpt>
<trkpt lat="44.038624959" lon="10.04583098"><ele>7</ele><time>2020-02-23T08:01:59Z</time></trkpt>
<trkpt lat="44.038652033" lon="10.045853024"><ele>7</ele><time>2020-02-23T08:02:00Z</time></trkpt>
<trkpt lat="44.038678017" lon="10.045873979"><ele>7</ele><time>2020-02-23T08:02:01Z</time></trkpt>
<trkpt lat="44.038705006" lon="10.045894012"><ele>7</ele><time>2020-02-23T08:02:02Z</time></trkpt>
<trkpt lat="44.038729984" lon="10.045913961"><ele>6</ele><time>2020-02-23T08:02:03Z</time></trkpt>
<trkpt lat="44.038754962" lon="10.045931982"><ele>6</ele><time>2020-02-23T08:02:04Z</time></trkpt>
<trkpt lat="44.038824029" lon="10.045974981"><ele>6</ele><time>2020-02-23T08:02:07Z</time></trkpt>
<trkpt lat="44.03884599" lon="10.045987973"><ele>6</ele><time>2020-02-23T08:02:08Z</time></trkpt>
<trkpt lat="44.038868034" lon="10.045999959"><ele>6</ele><time>2020-02-23T08:02:09Z</time></trkpt>
<trkpt lat="44.038889995" lon="10.046014041"><ele>6</ele><time>2020-02-23T08:02:10Z</time></trkpt>
<trkpt lat="44.038913967" lon="10.046029966"><ele>6</ele><time>2020-02-23T08:02:11Z</time></trkpt>
<trkpt lat="44.038940035" lon="10.046047987"><ele>6</ele><time>2020-02-23T08:02:12Z</time></trkpt>
<trkpt lat="44.038967025" lon="10.04606802"><ele>6</ele><time>2020-02-23T08:02:13Z</time></trkpt>
<trkpt lat="44.03899502" lon="10.046088975"><ele>6</ele><time>2020-02-23T08:02:14Z</time></trkpt>
<trkpt lat="44.039025027" lon="10.046112025"><ele>6</ele><time>2020-02-23T08:02:15Z</time></trkpt>
<trkpt lat="44.039055035" lon="10.046135997"><ele>6</ele><time>2020-02-23T08:02:16Z</time></trkpt>
<trkpt lat="44.039085964" lon="10.04615997"><ele>6</ele><time>2020-02-23T08:02:17Z</time></trkpt>
<trkpt lat="44.039117983" lon="10.046184026"><ele>6</ele><time>2020-02-23T08:02:18Z</time></trkpt>
<trkpt lat="44.039151007" lon="10.046206992"><ele>6</ele><time>2020-02-23T08:02:19Z</time></trkpt>
<trkpt lat="44.039183026" lon="10.046229959"><ele>6</ele><time>2020-02-23T08:02:20Z</time></trkpt>
<trkpt lat="44.039214961" lon="10.046252003"><ele>6</ele><time>2020-02-23T08:02:21Z</time></trkpt>
<trkpt lat="44.03924698" lon="10.046273042"><ele>6</ele><time>2020-02-23T08:02:22Z</time></trkpt>
<trkpt lat="44.039278999" lon="10.046293996"><ele>6</ele><time>2020-02-23T08:02:23Z</time></trkpt>
<trkpt lat="44.039309006" lon="10.046315035"><ele>6</ele><time>2020-02-23T08:02:24Z</time></trkpt>
<trkpt lat="44.039339013" lon="10.046334984"><ele>6</ele><time>2020-02-23T08:02:25Z</time></trkpt>
<trkpt lat="44.039368015" lon="10.046354011"><ele>6</ele><time>2020-02-23T08:02:26Z</time></trkpt>
<trkpt lat="44.03939601" lon="10.04637396"><ele>6</ele><time>2020-02-23T08:02:27Z</time></trkpt>
<trkpt lat="44.039423" lon="10.046391981"><ele>6</ele><time>2020-02-23T08:02:28Z</time></trkpt>
<trkpt lat="44.039450996" lon="10.046411008"><ele>6</ele><time>2020-02-23T08:02:29Z</time></trkpt>
<trkpt lat="44.039477985" lon="10.046430035"><ele>6</ele><time>2020-02-23T08:02:30Z</time></trkpt>
<trkpt lat="44.039561972" lon="10.046487032"><ele>6</ele><time>2020-02-23T08:02:33Z</time></trkpt>
<trkpt lat="44.039590973" lon="10.046505975"><ele>6</ele><time>2020-02-23T08:02:34Z</time></trkpt>
<trkpt lat="44.039620981" lon="10.046526007"><ele>6</ele><time>2020-02-23T08:02:35Z</time></trkpt>
<trkpt lat="44.039652999" lon="10.04654604"><ele>6</ele><time>2020-02-23T08:02:36Z</time></trkpt>
<trkpt lat="44.039685018" lon="10.046566995"><ele>6</ele><time>2020-02-23T08:02:37Z</time></trkpt>
<trkpt lat="44.039717959" lon="10.046588033"><ele>6</ele><time>2020-02-23T08:02:38Z</time></trkpt>
<trkpt lat="44.03975199" lon="10.046608988"><ele>6</ele><time>2020-02-23T08:02:39Z</time></trkpt>
<trkpt lat="44.039784009" lon="10.046630027"><ele>6</ele><time>2020-02-23T08:02:40Z</time></trkpt>
<trkpt lat="44.039815022" lon="10.046650982"><ele>6</ele><time>2020-02-23T08:02:41Z</time></trkpt>
<trkpt lat="44.039844023" lon="10.046671014"><ele>6</ele><time>2020-02-23T08:02:42Z</time></trkpt>
<trkpt lat="44.039871013" lon="10.046690041"><ele>6</ele><time>2020-02-23T08:02:43Z</time></trkpt>
<trkpt lat="44.039894985" lon="10.046707978"><ele>6</ele><time>2020-02-23T08:02:44Z</time></trkpt>
<trkpt lat="44.039919041" lon="10.046727005"><ele>6</ele><time>2020-02-23T08:02:45Z</time></trkpt>
<trkpt lat="44.039942008" lon="10.046746032"><ele>6</ele><time>2020-02-23T08:02:46Z</time></trkpt>
<trkpt lat="44.039964974" lon="10.046765981"><ele>6</ele><time>2020-02-23T08:02:47Z</time></trkpt>
<trkpt lat="44.03998903" lon="10.04678702"><ele>6</ele><time>2020-02-23T08:02:48Z</time></trkpt>
<trkpt lat="44.040015014" lon="10.046809986"><ele>6</ele><time>2020-02-23T08:02:49Z</time></trkpt>
<trkpt lat="44.040042004" lon="10.046834964"><ele>6</ele><time>2020-02-23T08:02:50Z</time></trkpt>
<trkpt lat="44.040069999" lon="10.046860026"><ele>6</ele><time>2020-02-23T08:02:51Z</time></trkpt>
<trkpt lat="44.040096989" lon="10.046887016"><ele>6</ele><time>2020-02-23T08:02:52Z</time></trkpt>
<trkpt lat="44.040124984" lon="10.046913"><ele>6</ele><time>2020-02-23T08:02:53Z</time></trkpt>
<trkpt lat="44.040150968" lon="10.04693999"><ele>6</ele><time>2020-02-23T08:02:54Z</time></trkpt>
<trkpt lat="44.04017603" lon="10.046965973"><ele>6</ele><time>2020-02-23T08:02:55Z</time></trkpt>
<trkpt lat="44.040201008" lon="10.046991035"><ele>6</ele><time>2020-02-23T08:02:56Z</time></trkpt>
<trkpt lat="44.040252976" lon="10.04703898"><ele>6</ele><time>2020-02-23T08:02:58Z</time></trkpt>
<trkpt lat="44.040280972" lon="10.047060018"><ele>6</ele><time>2020-02-23T08:02:59Z</time></trkpt>
<trkpt lat="44.040308967" lon="10.047079967"><ele>6</ele><time>2020-02-23T08:03:00Z</time></trkpt>
<trkpt lat="44.040336041" lon="10.047098994"><ele>6</ele><time>2020-02-23T08:03:01Z</time></trkpt>
<trkpt lat="44.040363031" lon="10.047117015"><ele>6</ele><time>2020-02-23T08:03:02Z</time></trkpt>
<trkpt lat="44.040480964" lon="10.047203014"><ele>7</ele><time>2020-02-23T08:03:06Z</time></trkpt>
<trkpt lat="44.040512983" lon="10.047227992"><ele>7</ele><time>2020-02-23T08:03:07Z</time></trkpt>
<trkpt lat="44.040545002" lon="10.047251964"><ele>7</ele><time>2020-02-23T08:03:08Z</time></trkpt>
<trkpt lat="44.040578026" lon="10.04727602"><ele>7</ele><time>2020-02-23T08:03:09Z</time></trkpt>
<trkpt lat="44.040609961" lon="10.047298986"><ele>7</ele><time>2020-02-23T08:03:10Z</time></trkpt>
<trkpt lat="44.040640974" lon="10.047322037"><ele>7</ele><time>2020-02-23T08:03:11Z</time></trkpt>
<trkpt lat="44.040732002" lon="10.047389008"><ele>8</ele><time>2020-02-23T08:03:14Z</time></trkpt>
<trkpt lat="44.040759997" lon="10.047409963"><ele>8</ele><time>2020-02-23T08:03:15Z</time></trkpt>
<trkpt lat="44.040786987" lon="10.047432007"><ele>8</ele><time>2020-02-23T08:03:16Z</time></trkpt>
<trkpt lat="44.040813977" lon="10.047452962"><ele>8</ele><time>2020-02-23T08:03:17Z</time></trkpt>
<trkpt lat="44.040839961" lon="10.047474001"><ele>8</ele><time>2020-02-23T08:03:18Z</time></trkpt>
<trkpt lat="44.040866029" lon="10.047494033"><ele>8</ele><time>2020-02-23T08:03:19Z</time></trkpt>
<trkpt lat="44.040892012" lon="10.047514988"><ele>8</ele><time>2020-02-23T08:03:20Z</time></trkpt>
<trkpt lat="44.04091699" lon="10.047534015"><ele>8</ele><time>2020-02-23T08:03:21Z</time></trkpt>
<trkpt lat="44.040942974" lon="10.047553964"><ele>8</ele><time>2020-02-23T08:03:22Z</time></trkpt>
<trkpt lat="44.04099402" lon="10.047592018"><ele>8</ele><time>2020-02-23T08:03:24Z</time></trkpt>
<trkpt lat="44.04102101" lon="10.047610039"><ele>8</ele><time>2020-02-23T08:03:25Z</time></trkpt>
<trkpt lat="44.041102985" lon="10.047664018"><ele>8</ele><time>2020-02-23T08:03:28Z</time></trkpt>
<trkpt lat="44.041131986" lon="10.047682039"><ele>8</ele><time>2020-02-23T08:03:29Z</time></trkpt>
<trkpt lat="44.041160988" lon="10.047699977"><ele>8</ele><time>2020-02-23T08:03:30Z</time></trkpt>
<trkpt lat="44.041190995" lon="10.047717998"><ele>8</ele><time>2020-02-23T08:03:31Z</time></trkpt>
<trkpt lat="44.041219996" lon="10.047737025"><ele>8</ele><time>2020-02-23T08:03:32Z</time></trkpt>
<trkpt lat="44.041251009" lon="10.047756974"><ele>7</ele><time>2020-02-23T08:03:33Z</time></trkpt>
<trkpt lat="44.041281017" lon="10.047778012"><ele>7</ele><time>2020-02-23T08:03:34Z</time></trkpt>
<trkpt lat="44.04131203" lon="10.047798967"><ele>7</ele><time>2020-02-23T08:03:35Z</time></trkpt>
<trkpt lat="44.041342959" lon="10.047822017"><ele>7</ele><time>2020-02-23T08:03:36Z</time></trkpt>
<trkpt lat="44.041374978" lon="10.047846995"><ele>7</ele><time>2020-02-23T08:03:37Z</time></trkpt>
<trkpt lat="44.041406997" lon="10.047872979"><ele>7</ele><time>2020-02-23T08:03:38Z</time></trkpt>
<trkpt lat="44.04143801" lon="10.047899969"><ele>7</ele><time>2020-02-23T08:03:39Z</time></trkpt>
<trkpt lat="44.041470028" lon="10.047926959"><ele>7</ele><time>2020-02-23T08:03:40Z</time></trkpt>
<trkpt lat="44.041501042" lon="10.047954032"><ele>7</ele><time>2020-02-23T08:03:41Z</time></trkpt>
<trkpt lat="44.041531971" lon="10.047981022"><ele>7</ele><time>2020-02-23T08:03:42Z</time></trkpt>
<trkpt lat="44.041562984" lon="10.048006"><ele>7</ele><time>2020-02-23T08:03:43Z</time></trkpt>
<trkpt lat="44.041592991" lon="10.048029972"><ele>7</ele><time>2020-02-23T08:03:44Z</time></trkpt>
<trkpt lat="44.041621992" lon="10.048052017"><ele>7</ele><time>2020-02-23T08:03:45Z</time></trkpt>
<trkpt lat="44.041650994" lon="10.048073977"><ele>7</ele><time>2020-02-23T08:03:46Z</time></trkpt>
<trkpt lat="44.041678989" lon="10.04809401"><ele>6</ele><time>2020-02-23T08:03:47Z</time></trkpt>
<trkpt lat="44.041757025" lon="10.048156036"><ele>7</ele><time>2020-02-23T08:03:50Z</time></trkpt>
<trkpt lat="44.041782003" lon="10.048176991"><ele>7</ele><time>2020-02-23T08:03:51Z</time></trkpt>
<trkpt lat="44.041804969" lon="10.048199035"><ele>7</ele><time>2020-02-23T08:03:52Z</time></trkpt>
<trkpt lat="44.041829025" lon="10.048220996"><ele>7</ele><time>2020-02-23T08:03:53Z</time></trkpt>
<trkpt lat="44.041851992" lon="10.048244968"><ele>7</ele><time>2020-02-23T08:03:54Z</time></trkpt>
<trkpt lat="44.041874958" lon="10.048269024"><ele>7</ele><time>2020-02-23T08:03:55Z</time></trkpt>
<trkpt lat="44.041899014" lon="10.048295008"><ele>7</ele><time>2020-02-23T08:03:56Z</time></trkpt>
<trkpt lat="44.041921981" lon="10.048320992"><ele>7</ele><time>2020-02-23T08:03:57Z</time></trkpt>
<trkpt lat="44.041945031" lon="10.048347982"><ele>7</ele><time>2020-02-23T08:03:58Z</time></trkpt>
<trkpt lat="44.041969003" lon="10.048375977"><ele>7</ele><time>2020-02-23T08:03:59Z</time></trkpt>
<trkpt lat="44.04199197" lon="10.048404979"><ele>7</ele><time>2020-02-23T08:04:00Z</time></trkpt>
<trkpt lat="44.04201502" lon="10.048432974"><ele>7</ele><time>2020-02-23T08:04:01Z</time></trkpt>
<trkpt lat="44.04203698" lon="10.048459964"><ele>6</ele><time>2020-02-23T08:04:02Z</time></trkpt>
<trkpt lat="44.042058019" lon="10.048487959"><ele>6</ele><time>2020-02-23T08:04:03Z</time></trkpt>
<trkpt lat="44.042078974" lon="10.048514027"><ele>6</ele><time>2020-02-23T08:04:04Z</time></trkpt>
<trkpt lat="44.042100012" lon="10.048541017"><ele>6</ele><time>2020-02-23T08:04:05Z</time></trkpt>
<trkpt lat="44.042187016" lon="10.048643025"><ele>6</ele><time>2020-02-23T08:04:09Z</time></trkpt>
<trkpt lat="44.042209983" lon="10.048668003"><ele>6</ele><time>2020-02-23T08:04:10Z</time></trkpt>
<trkpt lat="44.042234039" lon="10.048692981"><ele>6</ele><time>2020-02-23T08:04:11Z</time></trkpt>
<trkpt lat="44.042258011" lon="10.048717959"><ele>6</ele><time>2020-02-23T08:04:12Z</time></trkpt>
<trkpt lat="44.042282989" lon="10.048743021"><ele>6</ele><time>2020-02-23T08:04:13Z</time></trkpt>
<trkpt lat="44.042357001" lon="10.048820972"><ele>6</ele><time>2020-02-23T08:04:16Z</time></trkpt>
<trkpt lat="44.04238198" lon="10.04884704"><ele>6</ele><time>2020-02-23T08:04:17Z</time></trkpt>
<trkpt lat="44.042407041" lon="10.048873024"><ele>6</ele><time>2020-02-23T08:04:18Z</time></trkpt>
<trkpt lat="44.042456998" lon="10.048925998"><ele>5</ele><time>2020-02-23T08:04:20Z</time></trkpt>
<trkpt lat="44.042481976" lon="10.048952987"><ele>5</ele><time>2020-02-23T08:04:21Z</time></trkpt>
<trkpt lat="44.042506032" lon="10.048979977"><ele>5</ele><time>2020-02-23T08:04:22Z</time></trkpt>
<trkpt lat="44.04253101" lon="10.049006967"><ele>5</ele><time>2020-02-23T08:04:23Z</time></trkpt>
<trkpt lat="44.042556994" lon="10.049034962"><ele>5</ele><time>2020-02-23T08:04:24Z</time></trkpt>
<trkpt lat="44.042581972" lon="10.049062036"><ele>5</ele><time>2020-02-23T08:04:25Z</time></trkpt>
<trkpt lat="44.042607034" lon="10.049090032"><ele>5</ele><time>2020-02-23T08:04:26Z</time></trkpt>
<trkpt lat="44.042632012" lon="10.049118027"><ele>5</ele><time>2020-02-23T08:04:27Z</time></trkpt>
<trkpt lat="44.04265699" lon="10.049145017"><ele>5</ele><time>2020-02-23T08:04:28Z</time></trkpt>
<trkpt lat="44.042681968" lon="10.049173012"><ele>5</ele><time>2020-02-23T08:04:29Z</time></trkpt>
<trkpt lat="44.04270703" lon="10.049201008"><ele>5</ele><time>2020-02-23T08:04:30Z</time></trkpt>
<trkpt lat="44.042733014" lon="10.049229003"><ele>5</ele><time>2020-02-23T08:04:31Z</time></trkpt>
<trkpt lat="44.042757992" lon="10.049256999"><ele>5</ele><time>2020-02-23T08:04:32Z</time></trkpt>
<trkpt lat="44.04278297" lon="10.049283989"><ele>5</ele><time>2020-02-23T08:04:33Z</time></trkpt>
<trkpt lat="44.042807026" lon="10.049311984"><ele>5</ele><time>2020-02-23T08:04:34Z</time></trkpt>
<trkpt lat="44.042832004" lon="10.049338974"><ele>5</ele><time>2020-02-23T08:04:35Z</time></trkpt>
<trkpt lat="44.042856982" lon="10.049365964"><ele>5</ele><time>2020-02-23T08:04:36Z</time></trkpt>
<trkpt lat="44.042881038" lon="10.049393037"><ele>5</ele><time>2020-02-23T08:04:37Z</time></trkpt>
<trkpt lat="44.04290501" lon="10.049420027"><ele>5</ele><time>2020-02-23T08:04:38Z</time></trkpt>
<trkpt lat="44.042928983" lon="10.049446011"><ele>5</ele><time>2020-02-23T08:04:39Z</time></trkpt>
<trkpt lat="44.042952033" lon="10.049471995"><ele>5</ele><time>2020-02-23T08:04:40Z</time></trkpt>
<trkpt lat="44.042976005" lon="10.049497979"><ele>5</ele><time>2020-02-23T08:04:41Z</time></trkpt>
<trkpt lat="44.042998971" lon="10.049523041"><ele>5</ele><time>2020-02-23T08:04:42Z</time></trkpt>
<trkpt lat="44.043022022" lon="10.049549025"><ele>5</ele><time>2020-02-23T08:04:43Z</time></trkpt>
<trkpt lat="44.043045994" lon="10.049575008"><ele>5</ele><time>2020-02-23T08:04:44Z</time></trkpt>
<trkpt lat="44.04306896" lon="10.049600992"><ele>5</ele><time>2020-02-23T08:04:45Z</time></trkpt>
<trkpt lat="44.043092011" lon="10.049626976"><ele>5</ele><time>2020-02-23T08:04:46Z</time></trkpt>
<trkpt lat="44.043114977" lon="10.049653966"><ele>5</ele><time>2020-02-23T08:04:47Z</time></trkpt>
<trkpt lat="44.043139033" lon="10.04968104"><ele>5</ele><time>2020-02-23T08:04:48Z</time></trkpt>
<trkpt lat="44.043161999" lon="10.049709035"><ele>5</ele><time>2020-02-23T08:04:49Z</time></trkpt>
<trkpt lat="44.043185972" lon="10.049737031"><ele>5</ele><time>2020-02-23T08:04:50Z</time></trkpt>
<trkpt lat="44.043210028" lon="10.049766032"><ele>5</ele><time>2020-02-23T08:04:51Z</time></trkpt>
<trkpt lat="44.043234" lon="10.049796039"><ele>5</ele><time>2020-02-23T08:04:52Z</time></trkpt>
<trkpt lat="44.043258978" lon="10.049825963"><ele>5</ele><time>2020-02-23T08:04:53Z</time></trkpt>
<trkpt lat="44.043283034" lon="10.04985597"><ele>5</ele><time>2020-02-23T08:04:54Z</time></trkpt>
<trkpt lat="44.043308012" lon="10.049885977"><ele>5</ele><time>2020-02-23T08:04:55Z</time></trkpt>
<trkpt lat="44.04333299" lon="10.049913973"><ele>5</ele><time>2020-02-23T08:04:56Z</time></trkpt>
<trkpt lat="44.043408008" lon="10.049993014"><ele>5</ele><time>2020-02-23T08:04:59Z</time></trkpt>
<trkpt lat="44.043431981" lon="10.050016986"><ele>5</ele><time>2020-02-23T08:05:00Z</time></trkpt>
<trkpt lat="44.043456959" lon="10.050041964"><ele>5</ele><time>2020-02-23T08:05:01Z</time></trkpt>
<trkpt lat="44.043483026" lon="10.050067026"><ele>5</ele><time>2020-02-23T08:05:02Z</time></trkpt>
<trkpt lat="44.043508004" lon="10.050094016"><ele>5</ele><time>2020-02-23T08:05:03Z</time></trkpt>
<trkpt lat="44.043532982" lon="10.050123017"><ele>5</ele><time>2020-02-23T08:05:04Z</time></trkpt>
<trkpt lat="44.043557961" lon="10.050153024"><ele>5</ele><time>2020-02-23T08:05:05Z</time></trkpt>
<trkpt lat="44.043583022" lon="10.050184038"><ele>5</ele><time>2020-02-23T08:05:06Z</time></trkpt>
<trkpt lat="44.043609006" lon="10.050214967"><ele>5</ele><time>2020-02-23T08:05:07Z</time></trkpt>
<trkpt lat="44.043633984" lon="10.05024598"><ele>5</ele><time>2020-02-23T08:05:08Z</time></trkpt>
<trkpt lat="44.043658962" lon="10.050275987"><ele>5</ele><time>2020-02-23T08:05:09Z</time></trkpt>
<trkpt lat="44.043684024" lon="10.050303983"><ele>5</ele><time>2020-02-23T08:05:10Z</time></trkpt>
<trkpt lat="44.043707997" lon="10.050330972"><ele>5</ele><time>2020-02-23T08:05:11Z</time></trkpt>
<trkpt lat="44.043731969" lon="10.050356034"><ele>5</ele><time>2020-02-23T08:05:12Z</time></trkpt>
<trkpt lat="44.043755019" lon="10.050380006"><ele>5</ele><time>2020-02-23T08:05:13Z</time></trkpt>
<trkpt lat="44.04377698" lon="10.050403979"><ele>5</ele><time>2020-02-23T08:05:14Z</time></trkpt>
<trkpt lat="44.043798018" lon="10.050426023"><ele>5</ele><time>2020-02-23T08:05:15Z</time></trkpt>
<trkpt lat="44.043816961" lon="10.050447984"><ele>5</ele><time>2020-02-23T08:05:16Z</time></trkpt>
<trkpt lat="44.043834982" lon="10.050469022"><ele>5</ele><time>2020-02-23T08:05:17Z</time></trkpt>
<trkpt lat="44.043894997" lon="10.05053197"><ele>5</ele><time>2020-02-23T08:05:20Z</time></trkpt>
<trkpt lat="44.043919975" lon="10.050557032"><ele>5</ele><time>2020-02-23T08:05:21Z</time></trkpt>
<trkpt lat="44.04394797" lon="10.050587039"><ele>5</ele><time>2020-02-23T08:05:22Z</time></trkpt>
<trkpt lat="44.043977978" lon="10.05061998"><ele>5</ele><time>2020-02-23T08:05:23Z</time></trkpt>
<trkpt lat="44.044008991" lon="10.050654011"><ele>5</ele><time>2020-02-23T08:05:24Z</time></trkpt>
<trkpt lat="44.04404101" lon="10.050688041"><ele>5</ele><time>2020-02-23T08:05:25Z</time></trkpt>
<trkpt lat="44.044161038" lon="10.050815027"><ele>5</ele><time>2020-02-23T08:05:29Z</time></trkpt>
<trkpt lat="44.044188028" lon="10.050844029"><ele>5</ele><time>2020-02-23T08:05:30Z</time></trkpt>
<trkpt lat="44.044215018" lon="10.05087303"><ele>5</ele><time>2020-02-23T08:05:31Z</time></trkpt>
<trkpt lat="44.044239996" lon="10.050901026"><ele>5</ele><time>2020-02-23T08:05:32Z</time></trkpt>
<trkpt lat="44.044264974" lon="10.050928015"><ele>5</ele><time>2020-02-23T08:05:33Z</time></trkpt>
<trkpt lat="44.04428903" lon="10.050955005"><ele>5</ele><time>2020-02-23T08:05:34Z</time></trkpt>
<trkpt lat="44.044311997" lon="10.050980989"><ele>5</ele><time>2020-02-23T08:05:35Z</time></trkpt>
<trkpt lat="44.044335969" lon="10.051007979"><ele>5</ele><time>2020-02-23T08:05:36Z</time></trkpt>
<trkpt lat="44.044359019" lon="10.051033041"><ele>5</ele><time>2020-02-23T08:05:37Z</time></trkpt>
<trkpt lat="44.044381985" lon="10.051059024"><ele>5</ele><time>2020-02-23T08:05:38Z</time></trkpt>
<trkpt lat="44.044406042" lon="10.051085008"><ele>5</ele><time>2020-02-23T08:05:39Z</time></trkpt>
<trkpt lat="44.044429008" lon="10.051110992"><ele>5</ele><time>2020-02-23T08:05:40Z</time></trkpt>
<trkpt lat="44.04445298" lon="10.051136976"><ele>5</ele><time>2020-02-23T08:05:41Z</time></trkpt>
<trkpt lat="44.044477958" lon="10.05116296"><ele>5</ele><time>2020-02-23T08:05:42Z</time></trkpt>
<trkpt lat="44.044502014" lon="10.051189028"><ele>5</ele><time>2020-02-23T08:05:43Z</time></trkpt>
<trkpt lat="44.044526992" lon="10.051215012"><ele>5</ele><time>2020-02-23T08:05:44Z</time></trkpt>
<trkpt lat="44.04455197" lon="10.051240996"><ele>5</ele><time>2020-02-23T08:05:45Z</time></trkpt>
<trkpt lat="44.044577032" lon="10.051266979"><ele>5</ele><time>2020-02-23T08:05:46Z</time></trkpt>
<trkpt lat="44.04460201" lon="10.051293969"><ele>5</ele><time>2020-02-23T08:05:47Z</time></trkpt>
<trkpt lat="44.044626988" lon="10.051320037"><ele>5</ele><time>2020-02-23T08:05:48Z</time></trkpt>
<trkpt lat="44.044652972" lon="10.051346021"><ele>5</ele><time>2020-02-23T08:05:49Z</time></trkpt>
<trkpt lat="44.044678034" lon="10.051373011"><ele>5</ele><time>2020-02-23T08:05:50Z</time></trkpt>
<trkpt lat="44.044703012" lon="10.051398994"><ele>5</ele><time>2020-02-23T08:05:51Z</time></trkpt>
<trkpt lat="44.04472799" lon="10.051424978"><ele>6</ele><time>2020-02-23T08:05:52Z</time></trkpt>
<trkpt lat="44.044751963" lon="10.051450962"><ele>6</ele><time>2020-02-23T08:05:53Z</time></trkpt>
<trkpt lat="44.044777025" lon="10.05147703"><ele>6</ele><time>2020-02-23T08:05:54Z</time></trkpt>
<trkpt lat="44.044800997" lon="10.051503014"><ele>6</ele><time>2020-02-23T08:05:55Z</time></trkpt>
<trkpt lat="44.044825975" lon="10.051528998"><ele>6</ele><time>2020-02-23T08:05:56Z</time></trkpt>
<trkpt lat="44.044850031" lon="10.051554982"><ele>6</ele><time>2020-02-23T08:05:57Z</time></trkpt>
<trkpt lat="44.044874003" lon="10.051580966"><ele>6</ele><time>2020-02-23T08:05:58Z</time></trkpt>
<trkpt lat="44.044898981" lon="10.051608039"><ele>6</ele><time>2020-02-23T08:05:59Z</time></trkpt>
<trkpt lat="44.044923959" lon="10.051635029"><ele>6</ele><time>2020-02-23T08:06:00Z</time></trkpt>
<trkpt lat="44.044948015" lon="10.051663024"><ele>6</ele><time>2020-02-23T08:06:01Z</time></trkpt>
<trkpt lat="44.044973999" lon="10.05169102"><ele>6</ele><time>2020-02-23T08:06:02Z</time></trkpt>
<trkpt lat="44.044998977" lon="10.051719015"><ele>6</ele><time>2020-02-23T08:06:03Z</time></trkpt>
<trkpt lat="44.045024961" lon="10.051748017"><ele>6</ele><time>2020-02-23T08:06:04Z</time></trkpt>
<trkpt lat="44.045051029" lon="10.051778024"><ele>6</ele><time>2020-02-23T08:06:05Z</time></trkpt>
<trkpt lat="44.045078019" lon="10.051808031"><ele>6</ele><time>2020-02-23T08:06:06Z</time></trkpt>
<trkpt lat="44.045104003" lon="10.051838038"><ele>6</ele><time>2020-02-23T08:06:07Z</time></trkpt>
<trkpt lat="44.045129986" lon="10.051867962"><ele>6</ele><time>2020-02-23T08:06:08Z</time></trkpt>
<trkpt lat="44.04515597" lon="10.051896041"><ele>6</ele><time>2020-02-23T08:06:09Z</time></trkpt>
<trkpt lat="44.045182038" lon="10.051924037"><ele>6</ele><time>2020-02-23T08:06:10Z</time></trkpt>
<trkpt lat="44.045207016" lon="10.051950021"><ele>6</ele><time>2020-02-23T08:06:11Z</time></trkpt>
<trkpt lat="44.045279017" lon="10.052025039"><ele>6</ele><time>2020-02-23T08:06:14Z</time></trkpt>
<trkpt lat="44.045301983" lon="10.052049011"><ele>6</ele><time>2020-02-23T08:06:15Z</time></trkpt>
<trkpt lat="44.045325033" lon="10.052073989"><ele>6</ele><time>2020-02-23T08:06:16Z</time></trkpt>
<trkpt lat="44.045349006" lon="10.052099973"><ele>6</ele><time>2020-02-23T08:06:17Z</time></trkpt>
<trkpt lat="44.045371972" lon="10.052126041"><ele>6</ele><time>2020-02-23T08:06:18Z</time></trkpt>
<trkpt lat="44.045395022" lon="10.05215303"><ele>6</ele><time>2020-02-23T08:06:19Z</time></trkpt>
<trkpt lat="44.045418995" lon="10.052181026"><ele>6</ele><time>2020-02-23T08:06:20Z</time></trkpt>
<trkpt lat="44.045441961" lon="10.052209022"><ele>6</ele><time>2020-02-23T08:06:21Z</time></trkpt>
<trkpt lat="44.045465011" lon="10.052238023"><ele>5</ele><time>2020-02-23T08:06:22Z</time></trkpt>
<trkpt lat="44.045488983" lon="10.052266018"><ele>5</ele><time>2020-02-23T08:06:23Z</time></trkpt>
<trkpt lat="44.045512034" lon="10.052294014"><ele>5</ele><time>2020-02-23T08:06:24Z</time></trkpt>
<trkpt lat="44.045535" lon="10.052323015"><ele>5</ele><time>2020-02-23T08:06:25Z</time></trkpt>
<trkpt lat="44.045557966" lon="10.052351011"><ele>5</ele><time>2020-02-23T08:06:26Z</time></trkpt>
<trkpt lat="44.045580011" lon="10.052378001"><ele>5</ele><time>2020-02-23T08:06:27Z</time></trkpt>
<trkpt lat="44.045602977" lon="10.05240499"><ele>5</ele><time>2020-02-23T08:06:28Z</time></trkpt>
<trkpt lat="44.045625022" lon="10.05243198"><ele>5</ele><time>2020-02-23T08:06:29Z</time></trkpt>
<trkpt lat="44.045646982" lon="10.052457964"><ele>5</ele><time>2020-02-23T08:06:30Z</time></trkpt>
<trkpt lat="44.045669027" lon="10.052483026"><ele>5</ele><time>2020-02-23T08:06:31Z</time></trkpt>
<trkpt lat="44.045690987" lon="10.052508004"><ele>5</ele><time>2020-02-23T08:06:32Z</time></trkpt>
<trkpt lat="44.045757959" lon="10.052582016"><ele>5</ele><time>2020-02-23T08:06:35Z</time></trkpt>
<trkpt lat="44.045781009" lon="10.052605988"><ele>5</ele><time>2020-02-23T08:06:36Z</time></trkpt>
<trkpt lat="44.045803975" lon="10.052629961"><ele>5</ele><time>2020-02-23T08:06:37Z</time></trkpt>
<trkpt lat="44.045827026" lon="10.052655023"><ele>5</ele><time>2020-02-23T08:06:38Z</time></trkpt>
<trkpt lat="44.045850998" lon="10.052678995"><ele>5</ele><time>2020-02-23T08:06:39Z</time></trkpt>
<trkpt lat="44.04587497" lon="10.052703973"><ele>5</ele><time>2020-02-23T08:06:40Z</time></trkpt>
<trkpt lat="44.045900032" lon="10.052729035"><ele>5</ele><time>2020-02-23T08:06:41Z</time></trkpt>
<trkpt lat="44.04592501" lon="10.052755019"><ele>5</ele><time>2020-02-23T08:06:42Z</time></trkpt>
<trkpt lat="44.045952" lon="10.052781003"><ele>5</ele><time>2020-02-23T08:06:43Z</time></trkpt>
<trkpt lat="44.045979995" lon="10.052808998"><ele>5</ele><time>2020-02-23T08:06:44Z</time></trkpt>
<trkpt lat="44.046008997" lon="10.052836994"><ele>5</ele><time>2020-02-23T08:06:45Z</time></trkpt>
<trkpt lat="44.046041016" lon="10.052867001"><ele>5</ele><time>2020-02-23T08:06:46Z</time></trkpt>
<trkpt lat="44.04607404" lon="10.052898014"><ele>5</ele><time>2020-02-23T08:06:47Z</time></trkpt>
<trkpt lat="44.046105975" lon="10.052929027"><ele>5</ele><time>2020-02-23T08:06:48Z</time></trkpt>
<trkpt lat="44.046135982" lon="10.05296004"><ele>5</ele><time>2020-02-23T08:06:49Z</time></trkpt>
<trkpt lat="44.046184011" lon="10.053015025"><ele>5</ele><time>2020-02-23T08:06:51Z</time></trkpt>
<trkpt lat="44.046204966" lon="10.053042015"><ele>5</ele><time>2020-02-23T08:06:52Z</time></trkpt>
<trkpt lat="44.046273027" lon="10.053127008"><ele>5</ele><time>2020-02-23T08:06:55Z</time></trkpt>
<trkpt lat="44.046296999" lon="10.053156009"><ele>5</ele><time>2020-02-23T08:06:56Z</time></trkpt>
<trkpt lat="44.046321977" lon="10.05318501"><ele>5</ele><time>2020-02-23T08:06:57Z</time></trkpt>
<trkpt lat="44.046347039" lon="10.053215018"><ele>5</ele><time>2020-02-23T08:06:58Z</time></trkpt>
<trkpt lat="44.046372017" lon="10.053244019"><ele>4</ele><time>2020-02-23T08:06:59Z</time></trkpt>
<trkpt lat="44.046398001" lon="10.05327302"><ele>4</ele><time>2020-02-23T08:07:00Z</time></trkpt>
<trkpt lat="44.046422979" lon="10.053302022"><ele>4</ele><time>2020-02-23T08:07:01Z</time></trkpt>
<trkpt lat="44.046448041" lon="10.053331023"><ele>4</ele><time>2020-02-23T08:07:02Z</time></trkpt>
<trkpt lat="44.046473019" lon="10.053358013"><ele>4</ele><time>2020-02-23T08:07:03Z</time></trkpt>
<trkpt lat="44.046496991" lon="10.053385003"><ele>4</ele><time>2020-02-23T08:07:04Z</time></trkpt>
<trkpt lat="44.046520963" lon="10.053410986"><ele>4</ele><time>2020-02-23T08:07:05Z</time></trkpt>
<trkpt lat="44.046544014" lon="10.053435965"><ele>4</ele><time>2020-02-23T08:07:06Z</time></trkpt>
<trkpt lat="44.04656698" lon="10.053461026"><ele>4</ele><time>2020-02-23T08:07:07Z</time></trkpt>
<trkpt lat="44.04659003" lon="10.053486004"><ele>4</ele><time>2020-02-23T08:07:08Z</time></trkpt>
<trkpt lat="44.046612997" lon="10.053510983"><ele>4</ele><time>2020-02-23T08:07:09Z</time></trkpt>
<trkpt lat="44.046636969" lon="10.053537972"><ele>4</ele><time>2020-02-23T08:07:10Z</time></trkpt>
<trkpt lat="44.046660019" lon="10.053564962"><ele>4</ele><time>2020-02-23T08:07:11Z</time></trkpt>
<trkpt lat="44.046684997" lon="10.053593963"><ele>4</ele><time>2020-02-23T08:07:12Z</time></trkpt>
<trkpt lat="44.046709975" lon="10.053623971"><ele>4</ele><time>2020-02-23T08:07:13Z</time></trkpt>
<trkpt lat="44.046735037" lon="10.053654984"><ele>4</ele><time>2020-02-23T08:07:14Z</time></trkpt>
<trkpt lat="44.046759009" lon="10.053685997"><ele>4</ele><time>2020-02-23T08:07:15Z</time></trkpt>
<trkpt lat="44.046783987" lon="10.053716004"><ele>5</ele><time>2020-02-23T08:07:16Z</time></trkpt>
<trkpt lat="44.04683101" lon="10.053773001"><ele>5</ele><time>2020-02-23T08:07:18Z</time></trkpt>
<trkpt lat="44.04685297" lon="10.053798985"><ele>5</ele><time>2020-02-23T08:07:19Z</time></trkpt>
<trkpt lat="44.046875015" lon="10.053824969"><ele>5</ele><time>2020-02-23T08:07:20Z</time></trkpt>
<trkpt lat="44.04694098" lon="10.053894036"><ele>5</ele><time>2020-02-23T08:07:23Z</time></trkpt>
<trkpt lat="44.046964031" lon="10.05391499"><ele>5</ele><time>2020-02-23T08:07:24Z</time></trkpt>
<trkpt lat="44.046986997" lon="10.053936029"><ele>6</ele><time>2020-02-23T08:07:25Z</time></trkpt>
<trkpt lat="44.047010969" lon="10.053955978"><ele>6</ele><time>2020-02-23T08:07:26Z</time></trkpt>
<trkpt lat="44.047083976" lon="10.054016998"><ele>6</ele><time>2020-02-23T08:07:29Z</time></trkpt>
<trkpt lat="44.047108032" lon="10.054038037"><ele>6</ele><time>2020-02-23T08:07:30Z</time></trkpt>
<trkpt lat="44.047132004" lon="10.054059997"><ele>6</ele><time>2020-02-23T08:07:31Z</time></trkpt>
<trkpt lat="44.04715497" lon="10.054082964"><ele>6</ele><time>2020-02-23T08:07:32Z</time></trkpt>
<trkpt lat="44.047179027" lon="10.054106014"><ele>7</ele><time>2020-02-23T08:07:33Z</time></trkpt>
<trkpt lat="44.047202999" lon="10.05412898"><ele>7</ele><time>2020-02-23T08:07:34Z</time></trkpt>
<trkpt lat="44.047225965" lon="10.054153958"><ele>7</ele><time>2020-02-23T08:07:35Z</time></trkpt>
<trkpt lat="44.047249015" lon="10.054178014"><ele>7</ele><time>2020-02-23T08:07:36Z</time></trkpt>
<trkpt lat="44.047296038" lon="10.054229982"><ele>7</ele><time>2020-02-23T08:07:38Z</time></trkpt>
<trkpt lat="44.04732001" lon="10.054255966"><ele>7</ele><time>2020-02-23T08:07:39Z</time></trkpt>
<trkpt lat="44.047342977" lon="10.05428304"><ele>7</ele><time>2020-02-23T08:07:40Z</time></trkpt>
<trkpt lat="44.047366027" lon="10.054311035"><ele>8</ele><time>2020-02-23T08:07:41Z</time></trkpt>
<trkpt lat="44.047412965" lon="10.054367026"><ele>8</ele><time>2020-02-23T08:07:43Z</time></trkpt>
<trkpt lat="44.047437022" lon="10.05439301"><ele>8</ele><time>2020-02-23T08:07:44Z</time></trkpt>
<trkpt lat="44.047462" lon="10.054416982"><ele>8</ele><time>2020-02-23T08:07:45Z</time></trkpt>
<trkpt lat="44.047485972" lon="10.054437015"><ele>8</ele><time>2020-02-23T08:07:46Z</time></trkpt>
<trkpt lat="44.04751204" lon="10.054453025"><ele>8</ele><time>2020-02-23T08:07:47Z</time></trkpt>
<trkpt lat="44.047538023" lon="10.054462999"><ele>8</ele><time>2020-02-23T08:07:48Z</time></trkpt>
<trkpt lat="44.047565013" lon="10.054468028"><ele>9</ele><time>2020-02-23T08:07:49Z</time></trkpt>
<trkpt lat="44.047592003" lon="10.054467022"><ele>9</ele><time>2020-02-23T08:07:50Z</time></trkpt>
<trkpt lat="44.047618993" lon="10.054460987"><ele>9</ele><time>2020-02-23T08:07:51Z</time></trkpt>
<trkpt lat="44.047645982" lon="10.054450007"><ele>9</ele><time>2020-02-23T08:07:52Z</time></trkpt>
<trkpt lat="44.047672972" lon="10.054432992"><ele>9</ele><time>2020-02-23T08:07:53Z</time></trkpt>
<trkpt lat="44.04769904" lon="10.054412037"><ele>9</ele><time>2020-02-23T08:07:54Z</time></trkpt>
<trkpt lat="44.047725024" lon="10.054385969"><ele>9</ele><time>2020-02-23T08:07:55Z</time></trkpt>
<trkpt lat="44.047750002" lon="10.054356968"><ele>9</ele><time>2020-02-23T08:07:56Z</time></trkpt>
<trkpt lat="44.04777498" lon="10.054326039"><ele>9</ele><time>2020-02-23T08:07:57Z</time></trkpt>
<trkpt lat="44.047800042" lon="10.05429402"><ele>9</ele><time>2020-02-23T08:07:58Z</time></trkpt>
<trkpt lat="44.047823008" lon="10.054262001"><ele>9</ele><time>2020-02-23T08:07:59Z</time></trkpt>
<trkpt lat="44.047845975" lon="10.054230988"><ele>9</ele><time>2020-02-23T08:08:00Z</time></trkpt>
<trkpt lat="44.047869025" lon="10.054201987"><ele>9</ele><time>2020-02-23T08:08:01Z</time></trkpt>
<trkpt lat="44.047890985" lon="10.054173991"><ele>9</ele><time>2020-02-23T08:08:02Z</time></trkpt>
<trkpt lat="44.047912024" lon="10.054145996"><ele>9</ele><time>2020-02-23T08:08:03Z</time></trkpt>
<trkpt lat="44.047932979" lon="10.054118"><ele>9</ele><time>2020-02-23T08:08:04Z</time></trkpt>
<trkpt lat="44.047953011" lon="10.054086987"><ele>9</ele><time>2020-02-23T08:08:05Z</time></trkpt>
<trkpt lat="44.047972038" lon="10.054052034"><ele>9</ele><time>2020-02-23T08:08:06Z</time></trkpt>
<trkpt lat="44.047990981" lon="10.054014986"><ele>9</ele><time>2020-02-23T08:08:07Z</time></trkpt>
<trkpt lat="44.048009003" lon="10.053975005"><ele>9</ele><time>2020-02-23T08:08:08Z</time></trkpt>
<trkpt lat="44.04802803" lon="10.053936029"><ele>9</ele><time>2020-02-23T08:08:09Z</time></trkpt>
<trkpt lat="44.048047978" lon="10.053899987"><ele>9</ele><time>2020-02-23T08:08:10Z</time></trkpt>
<trkpt lat="44.048069017" lon="10.053869979"><ele>9</ele><time>2020-02-23T08:08:11Z</time></trkpt>
<trkpt lat="44.048090978" lon="10.053847013"><ele>9</ele><time>2020-02-23T08:08:12Z</time></trkpt>
<trkpt lat="44.048116039" lon="10.053834021"><ele>9</ele><time>2020-02-23T08:08:13Z</time></trkpt>
<trkpt lat="44.048143029" lon="10.053828992"><ele>9</ele><time>2020-02-23T08:08:14Z</time></trkpt>
<trkpt lat="44.048170019" lon="10.053833015"><ele>9</ele><time>2020-02-23T08:08:15Z</time></trkpt>
<trkpt lat="44.048198014" lon="10.053841984"><ele>9</ele><time>2020-02-23T08:08:16Z</time></trkpt>
<trkpt lat="44.048227016" lon="10.053855982"><ele>9</ele><time>2020-02-23T08:08:17Z</time></trkpt>
<trkpt lat="44.048280995" lon="10.053894036"><ele>10</ele><time>2020-02-23T08:08:19Z</time></trkpt>
<trkpt lat="44.048306979" lon="10.053915996"><ele>10</ele><time>2020-02-23T08:08:20Z</time></trkpt>
<trkpt lat="44.048332041" lon="10.053939968"><ele>10</ele><time>2020-02-23T08:08:21Z</time></trkpt>
<trkpt lat="44.048357019" lon="10.05396503"><ele>10</ele><time>2020-02-23T08:08:22Z</time></trkpt>
<trkpt lat="44.048380991" lon="10.053991014"><ele>10</ele><time>2020-02-23T08:08:23Z</time></trkpt>
<trkpt lat="44.048404964" lon="10.054018004"><ele>10</ele><time>2020-02-23T08:08:24Z</time></trkpt>
<trkpt lat="44.04842902" lon="10.054044994"><ele>10</ele><time>2020-02-23T08:08:25Z</time></trkpt>
<trkpt lat="44.048453998" lon="10.054072989"><ele>10</ele><time>2020-02-23T08:08:26Z</time></trkpt>
<trkpt lat="44.048478976" lon="10.054100985"><ele>10</ele><time>2020-02-23T08:08:27Z</time></trkpt>
<trkpt lat="44.048504038" lon="10.054127974"><ele>10</ele><time>2020-02-23T08:08:28Z</time></trkpt>
<trkpt lat="44.048531028" lon="10.054154964"><ele>10</ele><time>2020-02-23T08:08:29Z</time></trkpt>
<trkpt lat="44.048558017" lon="10.054181032"><ele>10</ele><time>2020-02-23T08:08:30Z</time></trkpt>
<trkpt lat="44.048587019" lon="10.05420601"><ele>9</ele><time>2020-02-23T08:08:31Z</time></trkpt>
<trkpt lat="44.04861602" lon="10.054229982"><ele>9</ele><time>2020-02-23T08:08:32Z</time></trkpt>
<trkpt lat="44.048645021" lon="10.054254038"><ele>9</ele><time>2020-02-23T08:08:33Z</time></trkpt>
<trkpt lat="44.048674023" lon="10.054277005"><ele>9</ele><time>2020-02-23T08:08:34Z</time></trkpt>
<trkpt lat="44.048701013" lon="10.054300977"><ele>9</ele><time>2020-02-23T08:08:35Z</time></trkpt>
<trkpt lat="44.048726996" lon="10.054326039"><ele>9</ele><time>2020-02-23T08:08:36Z</time></trkpt>
<trkpt lat="44.048751974" lon="10.054351017"><ele>9</ele><time>2020-02-23T08:08:37Z</time></trkpt>
<trkpt lat="44.048836967" lon="10.054465011"><ele>9</ele><time>2020-02-23T08:08:41Z</time></trkpt>
<trkpt lat="44.048858006" lon="10.054495018"><ele>9</ele><time>2020-02-23T08:08:42Z</time></trkpt>
<trkpt lat="44.04887896" lon="10.054525025"><ele>9</ele><time>2020-02-23T08:08:43Z</time></trkpt>
<trkpt lat="44.048901005" lon="10.054554027"><ele>9</ele><time>2020-02-23T08:08:44Z</time></trkpt>
<trkpt lat="44.048922965" lon="10.054584034"><ele>9</ele><time>2020-02-23T08:08:45Z</time></trkpt>
<trkpt lat="44.048946016" lon="10.054612029"><ele>9</ele><time>2020-02-23T08:08:46Z</time></trkpt>
<trkpt lat="44.048968982" lon="10.054641031"><ele>9</ele><time>2020-02-23T08:08:47Z</time></trkpt>
<trkpt lat="44.048992032" lon="10.054669026"><ele>9</ele><time>2020-02-23T08:08:48Z</time></trkpt>
<trkpt lat="44.049014999" lon="10.054697022"><ele>9</ele><time>2020-02-23T08:08:49Z</time></trkpt>
<trkpt lat="44.049038971" lon="10.054725017"><ele>9</ele><time>2020-02-23T08:08:50Z</time></trkpt>
<trkpt lat="44.049062021" lon="10.054753013"><ele>9</ele><time>2020-02-23T08:08:51Z</time></trkpt>
<trkpt lat="44.049085993" lon="10.054781009"><ele>9</ele><time>2020-02-23T08:08:52Z</time></trkpt>
<trkpt lat="44.049133016" lon="10.054837"><ele>9</ele><time>2020-02-23T08:08:54Z</time></trkpt>
<trkpt lat="44.049155982" lon="10.054864995"><ele>9</ele><time>2020-02-23T08:08:55Z</time></trkpt>
<trkpt lat="44.049200993" lon="10.054921992"><ele>9</ele><time>2020-02-23T08:08:57Z</time></trkpt>
<trkpt lat="44.049223959" lon="10.054950994"><ele>9</ele><time>2020-02-23T08:08:58Z</time></trkpt>
<trkpt lat="44.049246004" lon="10.054979995"><ele>9</ele><time>2020-02-23T08:08:59Z</time></trkpt>
<trkpt lat="44.049267964" lon="10.05500799"><ele>9</ele><time>2020-02-23T08:09:00Z</time></trkpt>
<trkpt lat="44.049289003" lon="10.055037998"><ele>8</ele><time>2020-02-23T08:09:01Z</time></trkpt>
<trkpt lat="44.049353041" lon="10.055125002"><ele>8</ele><time>2020-02-23T08:09:04Z</time></trkpt>
<trkpt lat="44.049373996" lon="10.055152997"><ele>8</ele><time>2020-02-23T08:09:05Z</time></trkpt>
<trkpt lat="44.049395034" lon="10.055181999"><ele>8</ele><time>2020-02-23T08:09:06Z</time></trkpt>
<trkpt lat="44.049455971" lon="10.055266991"><ele>8</ele><time>2020-02-23T08:09:09Z</time></trkpt>
<trkpt lat="44.049477009" lon="10.055294987"><ele>8</ele><time>2020-02-23T08:09:10Z</time></trkpt>
<trkpt lat="44.049497042" lon="10.055321977"><ele>8</ele><time>2020-02-23T08:09:11Z</time></trkpt>
<trkpt lat="44.049517997" lon="10.05534796"><ele>8</ele><time>2020-02-23T08:09:12Z</time></trkpt>
<trkpt lat="44.049539035" lon="10.055374028"><ele>8</ele><time>2020-02-23T08:09:13Z</time></trkpt>
<trkpt lat="44.049560996" lon="10.055398"><ele>8</ele><time>2020-02-23T08:09:14Z</time></trkpt>
<trkpt lat="44.049582034" lon="10.055421973"><ele>8</ele><time>2020-02-23T08:09:15Z</time></trkpt>
<trkpt lat="44.049605001" lon="10.055443011"><ele>8</ele><time>2020-02-23T08:09:16Z</time></trkpt>
<trkpt lat="44.049627967" lon="10.055463966"><ele>7</ele><time>2020-02-23T08:09:17Z</time></trkpt>
<trkpt lat="44.049652023" lon="10.055482993"><ele>7</ele><time>2020-02-23T08:09:18Z</time></trkpt>
<trkpt lat="44.049675995" lon="10.055500008"><ele>7</ele><time>2020-02-23T08:09:19Z</time></trkpt>
<trkpt lat="44.049701979" lon="10.055515012"><ele>7</ele><time>2020-02-23T08:09:20Z</time></trkpt>
<trkpt lat="44.049727963" lon="10.055526998"><ele>7</ele><time>2020-02-23T08:09:21Z</time></trkpt>
<trkpt lat="44.049754031" lon="10.055534039"><ele>7</ele><time>2020-02-23T08:09:22Z</time></trkpt>
<trkpt lat="44.049780015" lon="10.055535967"><ele>7</ele><time>2020-02-23T08:09:23Z</time></trkpt>
<trkpt lat="44.049804993" lon="10.055532027"><ele>7</ele><time>2020-02-23T08:09:24Z</time></trkpt>
<trkpt lat="44.049829971" lon="10.055519035"><ele>7</ele><time>2020-02-23T08:09:25Z</time></trkpt>
<trkpt lat="44.049853021" lon="10.055497997"><ele>7</ele><time>2020-02-23T08:09:26Z</time></trkpt>
<trkpt lat="44.049875988" lon="10.055468995"><ele>7</ele><time>2020-02-23T08:09:27Z</time></trkpt>
<trkpt lat="44.049897026" lon="10.055434965"><ele>6</ele><time>2020-02-23T08:09:28Z</time></trkpt>
<trkpt lat="44.049917981" lon="10.055395989"><ele>6</ele><time>2020-02-23T08:09:29Z</time></trkpt>
<trkpt lat="44.049937008" lon="10.055353995"><ele>6</ele><time>2020-02-23T08:09:30Z</time></trkpt>
<trkpt lat="44.049956035" lon="10.055310996"><ele>6</ele><time>2020-02-23T08:09:31Z</time></trkpt>
<trkpt lat="44.049973972" lon="10.055269003"><ele>6</ele><time>2020-02-23T08:09:32Z</time></trkpt>
<trkpt lat="44.049991993" lon="10.055228015"><ele>6</ele><time>2020-02-23T08:09:33Z</time></trkpt>
<trkpt lat="44.050009008" lon="10.055188034"><ele>6</ele><time>2020-02-23T08:09:34Z</time></trkpt>
<trkpt lat="44.050026024" lon="10.055148974"><ele>5</ele><time>2020-02-23T08:09:35Z</time></trkpt>
<trkpt lat="44.050043039" lon="10.05511201"><ele>5</ele><time>2020-02-23T08:09:36Z</time></trkpt>
<trkpt lat="44.05005997" lon="10.055076974"><ele>5</ele><time>2020-02-23T08:09:37Z</time></trkpt>
<trkpt lat="44.050076986" lon="10.055045038"><ele>5</ele><time>2020-02-23T08:09:38Z</time></trkpt>
<trkpt lat="44.050095007" lon="10.055015031"><ele>5</ele><time>2020-02-23T08:09:39Z</time></trkpt>
<trkpt lat="44.050113028" lon="10.054987036"><ele>5</ele><time>2020-02-23T08:09:40Z</time></trkpt>
<trkpt lat="44.050131971" lon="10.054959962"><ele>5</ele><time>2020-02-23T08:09:41Z</time></trkpt>
<trkpt lat="44.050152004" lon="10.054933978"><ele>5</ele><time>2020-02-23T08:09:42Z</time></trkpt>
<trkpt lat="44.050172037" lon="10.054909"><ele>5</ele><time>2020-02-23T08:09:43Z</time></trkpt>
<trkpt lat="44.050193997" lon="10.054884022"><ele>5</ele><time>2020-02-23T08:09:44Z</time></trkpt>
<trkpt lat="44.050216964" lon="10.05485896"><ele>5</ele><time>2020-02-23T08:09:45Z</time></trkpt>
<trkpt lat="44.050240014" lon="10.054833982"><ele>5</ele><time>2020-02-23T08:09:46Z</time></trkpt>
<trkpt lat="44.050261974" lon="10.054806992"><ele>5</ele><time>2020-02-23T08:09:47Z</time></trkpt>
<trkpt lat="44.050284019" lon="10.054777991"><ele>5</ele><time>2020-02-23T08:09:48Z</time></trkpt>
<trkpt lat="44.050304973" lon="10.054747984"><ele>5</ele><time>2020-02-23T08:09:49Z</time></trkpt>
<trkpt lat="44.050324" lon="10.054714037"><ele>5</ele><time>2020-02-23T08:09:50Z</time></trkpt>
<trkpt lat="44.050342022" lon="10.054677995"><ele>5</ele><time>2020-02-23T08:09:51Z</time></trkpt>
<trkpt lat="44.050359037" lon="10.054640025"><ele>5</ele><time>2020-02-23T08:09:52Z</time></trkpt>
<trkpt lat="44.050375968" lon="10.054601971"><ele>5</ele><time>2020-02-23T08:09:53Z</time></trkpt>
<trkpt lat="44.050391978" lon="10.054561989"><ele>5</ele><time>2020-02-23T08:09:54Z</time></trkpt>
<trkpt lat="44.050408993" lon="10.054523014"><ele>5</ele><time>2020-02-23T08:09:55Z</time></trkpt>
<trkpt lat="44.050426008" lon="10.054484038"><ele>5</ele><time>2020-02-23T08:09:56Z</time></trkpt>
<trkpt lat="44.050444029" lon="10.054444978"><ele>5</ele><time>2020-02-23T08:09:57Z</time></trkpt>
<trkpt lat="44.050462972" lon="10.054407008"><ele>5</ele><time>2020-02-23T08:09:58Z</time></trkpt>
<trkpt lat="44.050480993" lon="10.05436996"><ele>5</ele><time>2020-02-23T08:09:59Z</time></trkpt>
<trkpt lat="44.050501026" lon="10.05433199"><ele>5</ele><time>2020-02-23T08:10:00Z</time></trkpt>
<trkpt lat="44.050520975" lon="10.054296032"><ele>5</ele><time>2020-02-23T08:10:01Z</time></trkpt>
<trkpt lat="44.050541008" lon="10.054259989"><ele>5</ele><time>2020-02-23T08:10:02Z</time></trkpt>
<trkpt lat="44.050561963" lon="10.054224031"><ele>5</ele><time>2020-02-23T08:10:03Z</time></trkpt>
<trkpt lat="44.050583001" lon="10.054187989"><ele>5</ele><time>2020-02-23T08:10:04Z</time></trkpt>
<trkpt lat="44.050648967" lon="10.054083969"><ele>5</ele><time>2020-02-23T08:10:07Z</time></trkpt>
<trkpt lat="44.050671011" lon="10.054050023"><ele>5</ele><time>2020-02-23T08:10:08Z</time></trkpt>
<trkpt lat="44.050692972" lon="10.054016998"><ele>5</ele><time>2020-02-23T08:10:09Z</time></trkpt>
<trkpt lat="44.050716022" lon="10.053982968"><ele>5</ele><time>2020-02-23T08:10:10Z</time></trkpt>
<trkpt lat="44.050738988" lon="10.053950027"><ele>5</ele><time>2020-02-23T08:10:11Z</time></trkpt>
<trkpt lat="44.050762039" lon="10.053917002"><ele>6</ele><time>2020-02-23T08:10:12Z</time></trkpt>
<trkpt lat="44.050785005" lon="10.053884983"><ele>6</ele><time>2020-02-23T08:10:13Z</time></trkpt>
<trkpt lat="44.050807972" lon="10.053851958"><ele>6</ele><time>2020-02-23T08:10:14Z</time></trkpt>
<trkpt lat="44.050831022" lon="10.053820023"><ele>6</ele><time>2020-02-23T08:10:15Z</time></trkpt>
<trkpt lat="44.050900005" lon="10.053724973"><ele>6</ele><time>2020-02-23T08:10:18Z</time></trkpt>
<trkpt lat="44.050922971" lon="10.053693037"><ele>6</ele><time>2020-02-23T08:10:19Z</time></trkpt>
<trkpt lat="44.050946021" lon="10.053662024"><ele>6</ele><time>2020-02-23T08:10:20Z</time></trkpt>
<trkpt lat="44.050968988" lon="10.053632017"><ele>6</ele><time>2020-02-23T08:10:21Z</time></trkpt>
<trkpt lat="44.050992038" lon="10.053604022"><ele>6</ele><time>2020-02-23T08:10:22Z</time></trkpt>
<trkpt lat="44.05101601" lon="10.053579966"><ele>6</ele><time>2020-02-23T08:10:23Z</time></trkpt>
<trkpt lat="44.051040988" lon="10.053559011"><ele>6</ele><time>2020-02-23T08:10:24Z</time></trkpt>
<trkpt lat="44.051066972" lon="10.053544007"><ele>6</ele><time>2020-02-23T08:10:25Z</time></trkpt>
<trkpt lat="44.051094968" lon="10.053535961"><ele>6</ele><time>2020-02-23T08:10:26Z</time></trkpt>
<trkpt lat="44.051124975" lon="10.053534033"><ele>6</ele><time>2020-02-23T08:10:27Z</time></trkpt>
<trkpt lat="44.051155988" lon="10.053536966"><ele>6</ele><time>2020-02-23T08:10:28Z</time></trkpt>
<trkpt lat="44.051188007" lon="10.053543001"><ele>6</ele><time>2020-02-23T08:10:29Z</time></trkpt>
<trkpt lat="44.051221032" lon="10.053549036"><ele>6</ele><time>2020-02-23T08:10:30Z</time></trkpt>
<trkpt lat="44.051254978" lon="10.053553982"><ele>6</ele><time>2020-02-23T08:10:31Z</time></trkpt>
<trkpt lat="44.051289009" lon="10.053554988"><ele>6</ele><time>2020-02-23T08:10:32Z</time></trkpt>
<trkpt lat="44.051323961" lon="10.053550964"><ele>6</ele><time>2020-02-23T08:10:33Z</time></trkpt>
<trkpt lat="44.051390011" lon="10.053525986"><ele>6</ele><time>2020-02-23T08:10:35Z</time></trkpt>
<trkpt lat="44.051421024" lon="10.053506959"><ele>6</ele><time>2020-02-23T08:10:36Z</time></trkpt>
<trkpt lat="44.051450025" lon="10.053484999"><ele>6</ele><time>2020-02-23T08:10:37Z</time></trkpt>
<trkpt lat="44.051477015" lon="10.053461026"><ele>6</ele><time>2020-02-23T08:10:38Z</time></trkpt>
<trkpt lat="44.051500987" lon="10.053434959"><ele>6</ele><time>2020-02-23T08:10:39Z</time></trkpt>
<trkpt lat="44.051522026" lon="10.053406963"><ele>6</ele><time>2020-02-23T08:10:40Z</time></trkpt>
<trkpt lat="44.051540969" lon="10.05337704"><ele>6</ele><time>2020-02-23T08:10:41Z</time></trkpt>
<trkpt lat="44.05155899" lon="10.053347033"><ele>6</ele><time>2020-02-23T08:10:42Z</time></trkpt>
<trkpt lat="44.051576005" lon="10.053317025"><ele>6</ele><time>2020-02-23T08:10:43Z</time></trkpt>
<trkpt lat="44.051593021" lon="10.053286012"><ele>6</ele><time>2020-02-23T08:10:44Z</time></trkpt>
<trkpt lat="44.051610036" lon="10.053254999"><ele>6</ele><time>2020-02-23T08:10:45Z</time></trkpt>
<trkpt lat="44.051627973" lon="10.05322298"><ele>6</ele><time>2020-02-23T08:10:46Z</time></trkpt>
<trkpt lat="44.051647" lon="10.053191967"><ele>6</ele><time>2020-02-23T08:10:47Z</time></trkpt>
<trkpt lat="44.051666027" lon="10.053160032"><ele>6</ele><time>2020-02-23T08:10:48Z</time></trkpt>
<trkpt lat="44.051703997" lon="10.053097"><ele>6</ele><time>2020-02-23T08:10:50Z</time></trkpt>
<trkpt lat="44.05172403" lon="10.053063976"><ele>6</ele><time>2020-02-23T08:10:51Z</time></trkpt>
<trkpt lat="44.051744984" lon="10.053032041"><ele>6</ele><time>2020-02-23T08:10:52Z</time></trkpt>
<trkpt lat="44.051765017" lon="10.052999016"><ele>6</ele><time>2020-02-23T08:10:53Z</time></trkpt>
<trkpt lat="44.051784966" lon="10.052964985"><ele>6</ele><time>2020-02-23T08:10:54Z</time></trkpt>
<trkpt lat="44.051806005" lon="10.052931039"><ele>6</ele><time>2020-02-23T08:10:55Z</time></trkpt>
<trkpt lat="44.051826959" lon="10.052897008"><ele>7</ele><time>2020-02-23T08:10:56Z</time></trkpt>
<trkpt lat="44.051847998" lon="10.052861972"><ele>7</ele><time>2020-02-23T08:10:57Z</time></trkpt>
<trkpt lat="44.051869037" lon="10.052826013"><ele>7</ele><time>2020-02-23T08:10:58Z</time></trkpt>
<trkpt lat="44.051889991" lon="10.052789971"><ele>7</ele><time>2020-02-23T08:10:59Z</time></trkpt>
<trkpt lat="44.05191103" lon="10.052754013"><ele>7</ele><time>2020-02-23T08:11:00Z</time></trkpt>
<trkpt lat="44.051932991" lon="10.052717971"><ele>7</ele><time>2020-02-23T08:11:01Z</time></trkpt>
<trkpt lat="44.051954029" lon="10.052682012"><ele>7</ele><time>2020-02-23T08:11:02Z</time></trkpt>
<trkpt lat="44.051974984" lon="10.05264597"><ele>7</ele><time>2020-02-23T08:11:03Z</time></trkpt>
<trkpt lat="44.051997028" lon="10.052610012"><ele>7</ele><time>2020-02-23T08:11:04Z</time></trkpt>
<trkpt lat="44.052017983" lon="10.052574975"><ele>7</ele><time>2020-02-23T08:11:05Z</time></trkpt>
<trkpt lat="44.052040027" lon="10.052540023"><ele>7</ele><time>2020-02-23T08:11:06Z</time></trkpt>
<trkpt lat="44.052104987" lon="10.052439021"><ele>8</ele><time>2020-02-23T08:11:09Z</time></trkpt>
<trkpt lat="44.052126026" lon="10.052407002"><ele>8</ele><time>2020-02-23T08:11:10Z</time></trkpt>
<trkpt lat="44.052147986" lon="10.052375989"><ele>8</ele><time>2020-02-23T08:11:11Z</time></trkpt>
<trkpt lat="44.052169025" lon="10.052344976"><ele>8</ele><time>2020-02-23T08:11:12Z</time></trkpt>
<trkpt lat="44.052190986" lon="10.052313963"><ele>8</ele><time>2020-02-23T08:11:13Z</time></trkpt>
<trkpt lat="44.052212024" lon="10.05228404"><ele>8</ele><time>2020-02-23T08:11:14Z</time></trkpt>
<trkpt lat="44.052232979" lon="10.052254032"><ele>8</ele><time>2020-02-23T08:11:15Z</time></trkpt>
<trkpt lat="44.052254017" lon="10.052224025"><ele>8</ele><time>2020-02-23T08:11:16Z</time></trkpt>
<trkpt lat="44.052274972" lon="10.052194018"><ele>8</ele><time>2020-02-23T08:11:17Z</time></trkpt>
<trkpt lat="44.052295005" lon="10.052164011"><ele>8</ele><time>2020-02-23T08:11:18Z</time></trkpt>
<trkpt lat="44.052315038" lon="10.052132998"><ele>8</ele><time>2020-02-23T08:11:19Z</time></trkpt>
<trkpt lat="44.052334987" lon="10.052101985"><ele>8</ele><time>2020-02-23T08:11:20Z</time></trkpt>
<trkpt lat="44.052355019" lon="10.052070972"><ele>8</ele><time>2020-02-23T08:11:21Z</time></trkpt>
<trkpt lat="44.052373962" lon="10.052039037"><ele>8</ele><time>2020-02-23T08:11:22Z</time></trkpt>
<trkpt lat="44.052392989" lon="10.052006012"><ele>8</ele><time>2020-02-23T08:11:23Z</time></trkpt>
<trkpt lat="44.052412016" lon="10.051973993"><ele>8</ele><time>2020-02-23T08:11:24Z</time></trkpt>
<trkpt lat="44.052430959" lon="10.051940968"><ele>8</ele><time>2020-02-23T08:11:25Z</time></trkpt>
<trkpt lat="44.052448981" lon="10.051909033"><ele>8</ele><time>2020-02-23T08:11:26Z</time></trkpt>
<trkpt lat="44.052468007" lon="10.051877014"><ele>7</ele><time>2020-02-23T08:11:27Z</time></trkpt>
<trkpt lat="44.052487034" lon="10.051846001"><ele>7</ele><time>2020-02-23T08:11:28Z</time></trkpt>
<trkpt lat="44.052505977" lon="10.051814988"><ele>7</ele><time>2020-02-23T08:11:29Z</time></trkpt>
<trkpt lat="44.052525004" lon="10.051784981"><ele>7</ele><time>2020-02-23T08:11:30Z</time></trkpt>
<trkpt lat="44.052545037" lon="10.051753968"><ele>7</ele><time>2020-02-23T08:11:31Z</time></trkpt>
<trkpt lat="44.052564986" lon="10.051723039"><ele>7</ele><time>2020-02-23T08:11:32Z</time></trkpt>
<trkpt lat="44.052585019" lon="10.051692026"><ele>7</ele><time>2020-02-23T08:11:33Z</time></trkpt>
<trkpt lat="44.052606979" lon="10.051661013"><ele>7</ele><time>2020-02-23T08:11:34Z</time></trkpt>
<trkpt lat="44.052629024" lon="10.051628994"><ele>7</ele><time>2020-02-23T08:11:35Z</time></trkpt>
<trkpt lat="44.052650984" lon="10.051595969"><ele>7</ele><time>2020-02-23T08:11:36Z</time></trkpt>
<trkpt lat="44.052673029" lon="10.051564034"><ele>7</ele><time>2020-02-23T08:11:37Z</time></trkpt>
<trkpt lat="44.052695995" lon="10.051531009"><ele>7</ele><time>2020-02-23T08:11:38Z</time></trkpt>
<trkpt lat="44.052718962" lon="10.051498991"><ele>7</ele><time>2020-02-23T08:11:39Z</time></trkpt>
<trkpt lat="44.052742012" lon="10.051466972"><ele>7</ele><time>2020-02-23T08:11:40Z</time></trkpt>
<trkpt lat="44.052763972" lon="10.051435037"><ele>7</ele><time>2020-02-23T08:11:41Z</time></trkpt>
<trkpt lat="44.052786017" lon="10.051404024"><ele>7</ele><time>2020-02-23T08:11:42Z</time></trkpt>
<trkpt lat="44.052807977" lon="10.051374016"><ele>7</ele><time>2020-02-23T08:11:43Z</time></trkpt>
<trkpt lat="44.052830022" lon="10.051345015"><ele>7</ele><time>2020-02-23T08:11:44Z</time></trkpt>
<trkpt lat="44.052890036" lon="10.05126304"><ele>7</ele><time>2020-02-23T08:11:47Z</time></trkpt>
<trkpt lat="44.052909985" lon="10.051236972"><ele>7</ele><time>2020-02-23T08:11:48Z</time></trkpt>
<trkpt lat="44.052930018" lon="10.051210988"><ele>7</ele><time>2020-02-23T08:11:49Z</time></trkpt>
<trkpt lat="44.052949967" lon="10.05118601"><ele>7</ele><time>2020-02-23T08:11:50Z</time></trkpt>
<trkpt lat="44.052972011" lon="10.051159021"><ele>7</ele><time>2020-02-23T08:11:51Z</time></trkpt>
<trkpt lat="44.052994978" lon="10.051132031"><ele>7</ele><time>2020-02-23T08:11:52Z</time></trkpt>
<trkpt lat="44.053067984" lon="10.051047038"><ele>7</ele><time>2020-02-23T08:11:55Z</time></trkpt>
<trkpt lat="44.053092962" lon="10.051017031"><ele>7</ele><time>2020-02-23T08:11:56Z</time></trkpt>
<trkpt lat="44.053117018" lon="10.050986018"><ele>7</ele><time>2020-02-23T08:11:57Z</time></trkpt>
<trkpt lat="44.053139985" lon="10.050955005"><ele>7</ele><time>2020-02-23T08:11:58Z</time></trkpt>
<trkpt lat="44.053162029" lon="10.050923992"><ele>7</ele><time>2020-02-23T08:11:59Z</time></trkpt>
<trkpt lat="44.05318399" lon="10.050891973"><ele>7</ele><time>2020-02-23T08:12:00Z</time></trkpt>
<trkpt lat="44.053204022" lon="10.050859032"><ele>7</ele><time>2020-02-23T08:12:01Z</time></trkpt>
<trkpt lat="44.053223971" lon="10.050827013"><ele>7</ele><time>2020-02-23T08:12:02Z</time></trkpt>
<trkpt lat="44.053244004" lon="10.050793989"><ele>7</ele><time>2020-02-23T08:12:03Z</time></trkpt>
<trkpt lat="44.053263031" lon="10.05076197"><ele>7</ele><time>2020-02-23T08:12:04Z</time></trkpt>
<trkpt lat="44.05328298" lon="10.050729029"><ele>7</ele><time>2020-02-23T08:12:05Z</time></trkpt>
<trkpt lat="44.053302007" lon="10.05069701"><ele>7</ele><time>2020-02-23T08:12:06Z</time></trkpt>
<trkpt lat="44.053321034" lon="10.050663985"><ele>7</ele><time>2020-02-23T08:12:07Z</time></trkpt>
<trkpt lat="44.053339977" lon="10.050632972"><ele>7</ele><time>2020-02-23T08:12:08Z</time></trkpt>
<trkpt lat="44.053359004" lon="10.050601037"><ele>7</ele><time>2020-02-23T08:12:09Z</time></trkpt>
<trkpt lat="44.053378031" lon="10.05057103"><ele>6</ele><time>2020-02-23T08:12:10Z</time></trkpt>
<trkpt lat="44.05339798" lon="10.050540017"><ele>6</ele><time>2020-02-23T08:12:11Z</time></trkpt>
<trkpt lat="44.053418012" lon="10.05051001"><ele>6</ele><time>2020-02-23T08:12:12Z</time></trkpt>
<trkpt lat="44.053438967" lon="10.050481008"><ele>6</ele><time>2020-02-23T08:12:13Z</time></trkpt>
<trkpt lat="44.053459" lon="10.050449995"><ele>6</ele><time>2020-02-23T08:12:14Z</time></trkpt>
<trkpt lat="44.053478027" lon="10.050419988"><ele>6</ele><time>2020-02-23T08:12:15Z</time></trkpt>
<trkpt lat="44.05349697" lon="10.050388975"><ele>6</ele><time>2020-02-23T08:12:16Z</time></trkpt>
<trkpt lat="44.053515997" lon="10.050356034"><ele>6</ele><time>2020-02-23T08:12:17Z</time></trkpt>
<trkpt lat="44.053533012" lon="10.050323009"><ele>6</ele><time>2020-02-23T08:12:18Z</time></trkpt>
<trkpt lat="44.053550027" lon="10.050287973"><ele>6</ele><time>2020-02-23T08:12:19Z</time></trkpt>
<trkpt lat="44.053566037" lon="10.050253021"><ele>6</ele><time>2020-02-23T08:12:20Z</time></trkpt>
<trkpt lat="44.053581962" lon="10.050215973"><ele>6</ele><time>2020-02-23T08:12:21Z</time></trkpt>
<trkpt lat="44.05359596" lon="10.050178003"><ele>6</ele><time>2020-02-23T08:12:22Z</time></trkpt>
<trkpt lat="44.053610042" lon="10.050140033"><ele>6</ele><time>2020-02-23T08:12:23Z</time></trkpt>
<trkpt lat="44.053622028" lon="10.050100973"><ele>6</ele><time>2020-02-23T08:12:24Z</time></trkpt>
<trkpt lat="44.053630996" lon="10.050061997"><ele>6</ele><time>2020-02-23T08:12:25Z</time></trkpt>
<trkpt lat="44.053637031" lon="10.050024027"><ele>5</ele><time>2020-02-23T08:12:26Z</time></trkpt>
<trkpt lat="44.053637031" lon="10.049987985"><ele>5</ele><time>2020-02-23T08:12:27Z</time></trkpt>
<trkpt lat="44.053630996" lon="10.049954038"><ele>5</ele><time>2020-02-23T08:12:28Z</time></trkpt>
<trkpt lat="44.053618005" lon="10.049923025"><ele>5</ele><time>2020-02-23T08:12:29Z</time></trkpt>
<trkpt lat="44.053598978" lon="10.049894024"><ele>5</ele><time>2020-02-23T08:12:30Z</time></trkpt>
<trkpt lat="44.053576011" lon="10.049867034"><ele>5</ele><time>2020-02-23T08:12:31Z</time></trkpt>
<trkpt lat="44.053549021" lon="10.04983996"><ele>5</ele><time>2020-02-23T08:12:32Z</time></trkpt>
<trkpt lat="44.053521026" lon="10.049813977"><ele>5</ele><time>2020-02-23T08:12:33Z</time></trkpt>
<trkpt lat="44.05349303" lon="10.049787993"><ele>5</ele><time>2020-02-23T08:12:34Z</time></trkpt>
<trkpt lat="44.053465035" lon="10.049762009"><ele>5</ele><time>2020-02-23T08:12:35Z</time></trkpt>
<trkpt lat="44.053437039" lon="10.049734013"><ele>5</ele><time>2020-02-23T08:12:36Z</time></trkpt>
<trkpt lat="44.053410972" lon="10.049707023"><ele>5</ele><time>2020-02-23T08:12:37Z</time></trkpt>
<trkpt lat="44.053384988" lon="10.049678022"><ele>5</ele><time>2020-02-23T08:12:38Z</time></trkpt>
<trkpt lat="44.05336001" lon="10.049650026"><ele>5</ele><time>2020-02-23T08:12:39Z</time></trkpt>
<trkpt lat="44.053335031" lon="10.049621025"><ele>5</ele><time>2020-02-23T08:12:40Z</time></trkpt>
<trkpt lat="44.05330997" lon="10.049592024"><ele>5</ele><time>2020-02-23T08:12:41Z</time></trkpt>
<trkpt lat="44.053285997" lon="10.049563022"><ele>5</ele><time>2020-02-23T08:12:42Z</time></trkpt>
<trkpt lat="44.053262025" lon="10.049533015"><ele>4</ele><time>2020-02-23T08:12:43Z</time></trkpt>
<trkpt lat="44.053237969" lon="10.049504014"><ele>4</ele><time>2020-02-23T08:12:44Z</time></trkpt>
<trkpt lat="44.053212991" lon="10.049476018"><ele>4</ele><time>2020-02-23T08:12:45Z</time></trkpt>
<trkpt lat="44.053189019" lon="10.049447017"><ele>4</ele><time>2020-02-23T08:12:46Z</time></trkpt>
<trkpt lat="44.053164041" lon="10.049419021"><ele>4</ele><time>2020-02-23T08:12:47Z</time></trkpt>
<trkpt lat="44.053138979" lon="10.049391026"><ele>4</ele><time>2020-02-23T08:12:48Z</time></trkpt>
<trkpt lat="44.053114001" lon="10.04936303"><ele>4</ele><time>2020-02-23T08:12:49Z</time></trkpt>
<trkpt lat="44.053089023" lon="10.04933604"><ele>4</ele><time>2020-02-23T08:12:50Z</time></trkpt>
<trkpt lat="44.053063961" lon="10.049307961"><ele>4</ele><time>2020-02-23T08:12:51Z</time></trkpt>
<trkpt lat="44.053037977" lon="10.049279965"><ele>4</ele><time>2020-02-23T08:12:52Z</time></trkpt>
<trkpt lat="44.053012999" lon="10.049252976"><ele>4</ele><time>2020-02-23T08:12:53Z</time></trkpt>
<trkpt lat="44.052987015" lon="10.049229003"><ele>4</ele><time>2020-02-23T08:12:54Z</time></trkpt>
<trkpt lat="44.052961031" lon="10.049211988"><ele>4</ele><time>2020-02-23T08:12:55Z</time></trkpt>
<trkpt lat="44.052853994" lon="10.049230009"><ele>4</ele><time>2020-02-23T08:12:59Z</time></trkpt>
<trkpt lat="44.052830022" lon="10.049249958"><ele>4</ele><time>2020-02-23T08:13:00Z</time></trkpt>
<trkpt lat="44.052806972" lon="10.04927502"><ele>4</ele><time>2020-02-23T08:13:01Z</time></trkpt>
<trkpt lat="44.052785011" lon="10.049303016"><ele>4</ele><time>2020-02-23T08:13:02Z</time></trkpt>
<trkpt lat="44.052764978" lon="10.04933604"><ele>4</ele><time>2020-02-23T08:13:03Z</time></trkpt>
<trkpt lat="44.052746035" lon="10.049370993"><ele>4</ele><time>2020-02-23T08:13:04Z</time></trkpt>
<trkpt lat="44.05272902" lon="10.049408963"><ele>4</ele><time>2020-02-23T08:13:05Z</time></trkpt>
<trkpt lat="44.05271301" lon="10.049449028"><ele>4</ele><time>2020-02-23T08:13:06Z</time></trkpt>
<trkpt lat="44.052699013" lon="10.049491022"><ele>4</ele><time>2020-02-23T08:13:07Z</time></trkpt>
<trkpt lat="44.052686021" lon="10.049533015"><ele>4</ele><time>2020-02-23T08:13:08Z</time></trkpt>
<trkpt lat="44.052675962" lon="10.04957702"><ele>5</ele><time>2020-02-23T08:13:09Z</time></trkpt>
<trkpt lat="44.052666994" lon="10.049620019"><ele>5</ele><time>2020-02-23T08:13:10Z</time></trkpt>
<trkpt lat="44.052659031" lon="10.049662013"><ele>5</ele><time>2020-02-23T08:13:11Z</time></trkpt>
<trkpt lat="44.052654002" lon="10.049704006"><ele>5</ele><time>2020-02-23T08:13:12Z</time></trkpt>
<trkpt lat="44.052647967" lon="10.049745999"><ele>5</ele><time>2020-02-23T08:13:13Z</time></trkpt>
<trkpt lat="44.052643022" lon="10.049787993"><ele>5</ele><time>2020-02-23T08:13:14Z</time></trkpt>
<trkpt lat="44.052637992" lon="10.049829986"><ele>5</ele><time>2020-02-23T08:13:15Z</time></trkpt>
<trkpt lat="44.052631035" lon="10.049871979"><ele>5</ele><time>2020-02-23T08:13:16Z</time></trkpt>
<trkpt lat="44.052622989" lon="10.049913973"><ele>5</ele><time>2020-02-23T08:13:17Z</time></trkpt>
<trkpt lat="44.052613014" lon="10.049955966"><ele>5</ele><time>2020-02-23T08:13:18Z</time></trkpt>
<trkpt lat="44.052602034" lon="10.049996031"><ele>5</ele><time>2020-02-23T08:13:19Z</time></trkpt>
<trkpt lat="44.052588958" lon="10.050034001"><ele>5</ele><time>2020-02-23T08:13:20Z</time></trkpt>
<trkpt lat="44.052575966" lon="10.05006996"><ele>5</ele><time>2020-02-23T08:13:21Z</time></trkpt>
<trkpt lat="44.052561969" lon="10.050106002"><ele>5</ele><time>2020-02-23T08:13:22Z</time></trkpt>
<trkpt lat="44.052547971" lon="10.05014196"><ele>5</ele><time>2020-02-23T08:13:23Z</time></trkpt>
<trkpt lat="44.052533973" lon="10.050180014"><ele>5</ele><time>2020-02-23T08:13:24Z</time></trkpt>
<trkpt lat="44.052519975" lon="10.050217984"><ele>5</ele><time>2020-02-23T08:13:25Z</time></trkpt>
<trkpt lat="44.052505977" lon="10.050256038"><ele>5</ele><time>2020-02-23T08:13:26Z</time></trkpt>
<trkpt lat="44.052492986" lon="10.050295014"><ele>5</ele><time>2020-02-23T08:13:27Z</time></trkpt>
<trkpt lat="44.052479994" lon="10.050334996"><ele>5</ele><time>2020-02-23T08:13:28Z</time></trkpt>
<trkpt lat="44.052467002" lon="10.050375983"><ele>5</ele><time>2020-02-23T08:13:29Z</time></trkpt>
<trkpt lat="44.05245401" lon="10.050415965"><ele>5</ele><time>2020-02-23T08:13:30Z</time></trkpt>
<trkpt lat="44.052418973" lon="10.050542029"><ele>5</ele><time>2020-02-23T08:13:33Z</time></trkpt>
<trkpt lat="44.052408999" lon="10.050584022"><ele>5</ele><time>2020-02-23T08:13:34Z</time></trkpt>
<trkpt lat="44.052399024" lon="10.050627021"><ele>5</ele><time>2020-02-23T08:13:35Z</time></trkpt>
<trkpt lat="44.052388966" lon="10.05067002"><ele>5</ele><time>2020-02-23T08:13:36Z</time></trkpt>
<trkpt lat="44.052378992" lon="10.050713019"><ele>5</ele><time>2020-02-23T08:13:37Z</time></trkpt>
<trkpt lat="44.052370023" lon="10.050756019"><ele>5</ele><time>2020-02-23T08:13:38Z</time></trkpt>
<trkpt lat="44.052360971" lon="10.050799018"><ele>5</ele><time>2020-02-23T08:13:39Z</time></trkpt>
<trkpt lat="44.052350996" lon="10.050841011"><ele>5</ele><time>2020-02-23T08:13:40Z</time></trkpt>
<trkpt lat="44.052341022" lon="10.050883004"><ele>5</ele><time>2020-02-23T08:13:41Z</time></trkpt>
<trkpt lat="44.052330963" lon="10.050924998"><ele>5</ele><time>2020-02-23T08:13:42Z</time></trkpt>
<trkpt lat="44.052319983" lon="10.050965985"><ele>5</ele><time>2020-02-23T08:13:43Z</time></trkpt>
<trkpt lat="44.052307997" lon="10.051005967"><ele>5</ele><time>2020-02-23T08:13:44Z</time></trkpt>
<trkpt lat="44.052296011" lon="10.051045027"><ele>5</ele><time>2020-02-23T08:13:45Z</time></trkpt>
<trkpt lat="44.052282013" lon="10.051082997"><ele>5</ele><time>2020-02-23T08:13:46Z</time></trkpt>
<trkpt lat="44.052268015" lon="10.051119961"><ele>5</ele><time>2020-02-23T08:13:47Z</time></trkpt>
<trkpt lat="44.052252006" lon="10.051156003"><ele>6</ele><time>2020-02-23T08:13:48Z</time></trkpt>
<trkpt lat="44.052234991" lon="10.051191039"><ele>6</ele><time>2020-02-23T08:13:49Z</time></trkpt>
<trkpt lat="44.052216969" lon="10.051224986"><ele>6</ele><time>2020-02-23T08:13:50Z</time></trkpt>
<trkpt lat="44.052197021" lon="10.051258011"><ele>6</ele><time>2020-02-23T08:13:51Z</time></trkpt>
<trkpt lat="44.052176988" lon="10.05129003"><ele>6</ele><time>2020-02-23T08:13:52Z</time></trkpt>
<trkpt lat="44.052157039" lon="10.051321965"><ele>6</ele><time>2020-02-23T08:13:53Z</time></trkpt>
<trkpt lat="44.052136" lon="10.051352978"><ele>6</ele><time>2020-02-23T08:13:54Z</time></trkpt>
<trkpt lat="44.05211404" lon="10.051383991"><ele>6</ele><time>2020-02-23T08:13:55Z</time></trkpt>
<trkpt lat="44.052091995" lon="10.051413998"><ele>6</ele><time>2020-02-23T08:13:56Z</time></trkpt>
<trkpt lat="44.052069029" lon="10.051445011"><ele>6</ele><time>2020-02-23T08:13:57Z</time></trkpt>
<trkpt lat="44.052046984" lon="10.051476024"><ele>6</ele><time>2020-02-23T08:13:58Z</time></trkpt>
<trkpt lat="44.052024018" lon="10.051507037"><ele>6</ele><time>2020-02-23T08:13:59Z</time></trkpt>
<trkpt lat="44.052001974" lon="10.051537966"><ele>6</ele><time>2020-02-23T08:14:00Z</time></trkpt>
<trkpt lat="44.051980013" lon="10.051568979"><ele>6</ele><time>2020-02-23T08:14:01Z</time></trkpt>
<trkpt lat="44.051957969" lon="10.051600998"><ele>6</ele><time>2020-02-23T08:14:02Z</time></trkpt>
<trkpt lat="44.051935002" lon="10.051633017"><ele>6</ele><time>2020-02-23T08:14:03Z</time></trkpt>
<trkpt lat="44.051913042" lon="10.05166403"><ele>6</ele><time>2020-02-23T08:14:04Z</time></trkpt>
<trkpt lat="44.051890997" lon="10.051695965"><ele>6</ele><time>2020-02-23T08:14:05Z</time></trkpt>
<trkpt lat="44.051869037" lon="10.051726978"><ele>6</ele><time>2020-02-23T08:14:06Z</time></trkpt>
<trkpt lat="44.051846992" lon="10.051757991"><ele>6</ele><time>2020-02-23T08:14:07Z</time></trkpt>
<trkpt lat="44.051825032" lon="10.051789004"><ele>6</ele><time>2020-02-23T08:14:08Z</time></trkpt>
<trkpt lat="44.051802987" lon="10.051819012"><ele>6</ele><time>2020-02-23T08:14:09Z</time></trkpt>
<trkpt lat="44.051781027" lon="10.051849019"><ele>6</ele><time>2020-02-23T08:14:10Z</time></trkpt>
<trkpt lat="44.051758982" lon="10.05187802"><ele>6</ele><time>2020-02-23T08:14:11Z</time></trkpt>
<trkpt lat="44.051737022" lon="10.051906016"><ele>6</ele><time>2020-02-23T08:14:12Z</time></trkpt>
<trkpt lat="44.051714977" lon="10.051934011"><ele>6</ele><time>2020-02-23T08:14:13Z</time></trkpt>
<trkpt lat="44.051694022" lon="10.051962007"><ele>6</ele><time>2020-02-23T08:14:14Z</time></trkpt>
<trkpt lat="44.051671978" lon="10.051990002"><ele>6</ele><time>2020-02-23T08:14:15Z</time></trkpt>
<trkpt lat="44.051651023" lon="10.052016992"><ele>6</ele><time>2020-02-23T08:14:16Z</time></trkpt>
<trkpt lat="44.051630991" lon="10.052045994"><ele>6</ele><time>2020-02-23T08:14:17Z</time></trkpt>
<trkpt lat="44.051611042" lon="10.052074995"><ele>6</ele><time>2020-02-23T08:14:18Z</time></trkpt>
<trkpt lat="44.051591009" lon="10.052103996"><ele>6</ele><time>2020-02-23T08:14:19Z</time></trkpt>
<trkpt lat="44.051553039" lon="10.052160993"><ele>6</ele><time>2020-02-23T08:14:21Z</time></trkpt>
<trkpt lat="44.05149403" lon="10.052243974"><ele>6</ele><time>2020-02-23T08:14:24Z</time></trkpt>
<trkpt lat="44.051472992" lon="10.05227197"><ele>6</ele><time>2020-02-23T08:14:25Z</time></trkpt>
<trkpt lat="44.051452037" lon="10.052300971"><ele>6</ele><time>2020-02-23T08:14:26Z</time></trkpt>
<trkpt lat="44.051428987" lon="10.052328967"><ele>6</ele><time>2020-02-23T08:14:27Z</time></trkpt>
<trkpt lat="44.051407026" lon="10.052357968"><ele>6</ele><time>2020-02-23T08:14:28Z</time></trkpt>
<trkpt lat="44.05138297" lon="10.052387975"><ele>6</ele><time>2020-02-23T08:14:29Z</time></trkpt>
<trkpt lat="44.051360004" lon="10.052417982"><ele>6</ele><time>2020-02-23T08:14:30Z</time></trkpt>
<trkpt lat="44.051336031" lon="10.05244799"><ele>6</ele><time>2020-02-23T08:14:31Z</time></trkpt>
<trkpt lat="44.051311975" lon="10.052479003"><ele>6</ele><time>2020-02-23T08:14:32Z</time></trkpt>
<trkpt lat="44.051288003" lon="10.05250901"><ele>6</ele><time>2020-02-23T08:14:33Z</time></trkpt>
<trkpt lat="44.051264031" lon="10.052541029"><ele>6</ele><time>2020-02-23T08:14:34Z</time></trkpt>
<trkpt lat="44.051238969" lon="10.052572042"><ele>6</ele><time>2020-02-23T08:14:35Z</time></trkpt>
<trkpt lat="44.051214997" lon="10.052604983"><ele>6</ele><time>2020-02-23T08:14:36Z</time></trkpt>
<trkpt lat="44.051191024" lon="10.052637001"><ele>6</ele><time>2020-02-23T08:14:37Z</time></trkpt>
<trkpt lat="44.051166968" lon="10.052670026"><ele>6</ele><time>2020-02-23T08:14:38Z</time></trkpt>
<trkpt lat="44.051142996" lon="10.052701961"><ele>6</ele><time>2020-02-23T08:14:39Z</time></trkpt>
<trkpt lat="44.051119024" lon="10.052734986"><ele>6</ele><time>2020-02-23T08:14:40Z</time></trkpt>
<trkpt lat="44.051094968" lon="10.052767005"><ele>6</ele><time>2020-02-23T08:14:41Z</time></trkpt>
<trkpt lat="44.05106999" lon="10.052798018"><ele>6</ele><time>2020-02-23T08:14:42Z</time></trkpt>
<trkpt lat="44.051046018" lon="10.052829031"><ele>6</ele><time>2020-02-23T08:14:43Z</time></trkpt>
<trkpt lat="44.051021961" lon="10.052859038"><ele>6</ele><time>2020-02-23T08:14:44Z</time></trkpt>
<trkpt lat="44.050996983" lon="10.052888039"><ele>6</ele><time>2020-02-23T08:14:45Z</time></trkpt>
<trkpt lat="44.050972005" lon="10.052916035"><ele>6</ele><time>2020-02-23T08:14:46Z</time></trkpt>
<trkpt lat="44.050947027" lon="10.052942019"><ele>7</ele><time>2020-02-23T08:14:47Z</time></trkpt>
<trkpt lat="44.050921965" lon="10.052965991"><ele>7</ele><time>2020-02-23T08:14:48Z</time></trkpt>
<trkpt lat="44.050896987" lon="10.052989041"><ele>7</ele><time>2020-02-23T08:14:49Z</time></trkpt>
<trkpt lat="44.050871003" lon="10.053007985"><ele>7</ele><time>2020-02-23T08:14:50Z</time></trkpt>
<trkpt lat="44.05084502" lon="10.053025"><ele>7</ele><time>2020-02-23T08:14:51Z</time></trkpt>
<trkpt lat="44.050819036" lon="10.053036986"><ele>7</ele><time>2020-02-23T08:14:52Z</time></trkpt>
<trkpt lat="44.050792968" lon="10.053045033"><ele>7</ele><time>2020-02-23T08:14:53Z</time></trkpt>
<trkpt lat="44.050765978" lon="10.05304696"><ele>7</ele><time>2020-02-23T08:14:54Z</time></trkpt>
<trkpt lat="44.050739994" lon="10.053043021"><ele>6</ele><time>2020-02-23T08:14:55Z</time></trkpt>
<trkpt lat="44.05071401" lon="10.053032963"><ele>6</ele><time>2020-02-23T08:14:56Z</time></trkpt>
<trkpt lat="44.050688026" lon="10.053017959"><ele>6</ele><time>2020-02-23T08:14:57Z</time></trkpt>
<trkpt lat="44.050661037" lon="10.053000022"><ele>6</ele><time>2020-02-23T08:14:58Z</time></trkpt>
<trkpt lat="44.050634969" lon="10.052977977"><ele>6</ele><time>2020-02-23T08:14:59Z</time></trkpt>
<trkpt lat="44.050606973" lon="10.052954005"><ele>6</ele><time>2020-02-23T08:15:00Z</time></trkpt>
<trkpt lat="44.050579984" lon="10.052928021"><ele>6</ele><time>2020-02-23T08:15:01Z</time></trkpt>
<trkpt lat="44.050551988" lon="10.052900026"><ele>6</ele><time>2020-02-23T08:15:02Z</time></trkpt>
<trkpt lat="44.050523993" lon="10.05287203"><ele>6</ele><time>2020-02-23T08:15:03Z</time></trkpt>
<trkpt lat="44.050497003" lon="10.052843029"><ele>6</ele><time>2020-02-23T08:15:04Z</time></trkpt>
<trkpt lat="44.050470013" lon="10.052814027"><ele>6</ele><time>2020-02-23T08:15:05Z</time></trkpt>
<trkpt lat="44.050444029" lon="10.05278402"><ele>6</ele><time>2020-02-23T08:15:06Z</time></trkpt>
<trkpt lat="44.050417962" lon="10.052756025"><ele>6</ele><time>2020-02-23T08:15:07Z</time></trkpt>
<trkpt lat="44.050393989" lon="10.052727023"><ele>6</ele><time>2020-02-23T08:15:08Z</time></trkpt>
<trkpt lat="44.050370017" lon="10.052699028"><ele>6</ele><time>2020-02-23T08:15:09Z</time></trkpt>
<trkpt lat="44.050346967" lon="10.052670026"><ele>6</ele><time>2020-02-23T08:15:10Z</time></trkpt>
<trkpt lat="44.050324" lon="10.052642031"><ele>6</ele><time>2020-02-23T08:15:11Z</time></trkpt>
<trkpt lat="44.050301034" lon="10.052613029"><ele>6</ele><time>2020-02-23T08:15:12Z</time></trkpt>
<trkpt lat="44.050277984" lon="10.052583022"><ele>6</ele><time>2020-02-23T08:15:13Z</time></trkpt>
<trkpt lat="44.050255017" lon="10.052553015"><ele>6</ele><time>2020-02-23T08:15:14Z</time></trkpt>
<trkpt lat="44.050231967" lon="10.052523008"><ele>6</ele><time>2020-02-23T08:15:15Z</time></trkpt>
<trkpt lat="44.050207995" lon="10.052491995"><ele>6</ele><time>2020-02-23T08:15:16Z</time></trkpt>
<trkpt lat="44.050185028" lon="10.052461987"><ele>6</ele><time>2020-02-23T08:15:17Z</time></trkpt>
<trkpt lat="44.050160972" lon="10.052430974"><ele>6</ele><time>2020-02-23T08:15:18Z</time></trkpt>
<trkpt lat="44.050137" lon="10.052399039"><ele>6</ele><time>2020-02-23T08:15:19Z</time></trkpt>
<trkpt lat="44.050114034" lon="10.052368026"><ele>6</ele><time>2020-02-23T08:15:20Z</time></trkpt>
<trkpt lat="44.050089978" lon="10.052337013"><ele>6</ele><time>2020-02-23T08:15:21Z</time></trkpt>
<trkpt lat="44.050066005" lon="10.052306"><ele>6</ele><time>2020-02-23T08:15:22Z</time></trkpt>
<trkpt lat="44.050042033" lon="10.052274987"><ele>6</ele><time>2020-02-23T08:15:23Z</time></trkpt>
<trkpt lat="44.049970033" lon="10.052183038"><ele>6</ele><time>2020-02-23T08:15:26Z</time></trkpt>
<trkpt lat="44.049944971" lon="10.05215303"><ele>6</ele><time>2020-02-23T08:15:27Z</time></trkpt>
<trkpt lat="44.049920999" lon="10.052123023"><ele>6</ele><time>2020-02-23T08:15:28Z</time></trkpt>
<trkpt lat="44.049897026" lon="10.052094022"><ele>6</ele><time>2020-02-23T08:15:29Z</time></trkpt>
<trkpt lat="44.04987297" lon="10.05206502"><ele>6</ele><time>2020-02-23T08:15:30Z</time></trkpt>
<trkpt lat="44.049847992" lon="10.052037025"><ele>6</ele><time>2020-02-23T08:15:31Z</time></trkpt>
<trkpt lat="44.04982402" lon="10.052009029"><ele>6</ele><time>2020-02-23T08:15:32Z</time></trkpt>
<trkpt lat="44.049799964" lon="10.051982962"><ele>6</ele><time>2020-02-23T08:15:33Z</time></trkpt>
<trkpt lat="44.049775992" lon="10.051956978"><ele>6</ele><time>2020-02-23T08:15:34Z</time></trkpt>
<trkpt lat="44.049751014" lon="10.051930994"><ele>7</ele><time>2020-02-23T08:15:35Z</time></trkpt>
<trkpt lat="44.049727041" lon="10.051907022"><ele>7</ele><time>2020-02-23T08:15:36Z</time></trkpt>
<trkpt lat="44.049702985" lon="10.051883971"><ele>7</ele><time>2020-02-23T08:15:37Z</time></trkpt>
<trkpt lat="44.049679013" lon="10.051861005"><ele>7</ele><time>2020-02-23T08:15:38Z</time></trkpt>
<trkpt lat="44.049655041" lon="10.051839966"><ele>7</ele><time>2020-02-23T08:15:39Z</time></trkpt>
<trkpt lat="44.049629979" lon="10.051819012"><ele>7</ele><time>2020-02-23T08:15:40Z</time></trkpt>
<trkpt lat="44.049606007" lon="10.051797973"><ele>7</ele><time>2020-02-23T08:15:41Z</time></trkpt>
<trkpt lat="44.049582034" lon="10.051777018"><ele>7</ele><time>2020-02-23T08:15:42Z</time></trkpt>
<trkpt lat="44.049556972" lon="10.051756985"><ele>7</ele><time>2020-02-23T08:15:43Z</time></trkpt>
<trkpt lat="44.049531994" lon="10.051736031"><ele>7</ele><time>2020-02-23T08:15:44Z</time></trkpt>
<trkpt lat="44.04950601" lon="10.051713986"><ele>7</ele><time>2020-02-23T08:15:45Z</time></trkpt>
<trkpt lat="44.049481032" lon="10.051694037"><ele>7</ele><time>2020-02-23T08:15:46Z</time></trkpt>
<trkpt lat="44.049454965" lon="10.051672999"><ele>7</ele><time>2020-02-23T08:15:47Z</time></trkpt>
<trkpt lat="44.049427975" lon="10.051653972"><ele>7</ele><time>2020-02-23T08:15:48Z</time></trkpt>
<trkpt lat="44.049400985" lon="10.051635029"><ele>7</ele><time>2020-02-23T08:15:49Z</time></trkpt>
<trkpt lat="44.04937299" lon="10.051618014"><ele>7</ele><time>2020-02-23T08:15:50Z</time></trkpt>
<trkpt lat="44.049343988" lon="10.05160301"><ele>7</ele><time>2020-02-23T08:15:51Z</time></trkpt>
<trkpt lat="44.049286991" lon="10.051581971"><ele>7</ele><time>2020-02-23T08:15:53Z</time></trkpt>
<trkpt lat="44.049203005" lon="10.051583983"><ele>8</ele><time>2020-02-23T08:15:56Z</time></trkpt>
<trkpt lat="44.049176015" lon="10.051594963"><ele>8</ele><time>2020-02-23T08:15:57Z</time></trkpt>
<trkpt lat="44.049151037" lon="10.051610973"><ele>8</ele><time>2020-02-23T08:15:58Z</time></trkpt>
<trkpt lat="44.049100997" lon="10.051653972"><ele>8</ele><time>2020-02-23T08:16:00Z</time></trkpt>
<trkpt lat="44.049078031" lon="10.051679034"><ele>8</ele><time>2020-02-23T08:16:01Z</time></trkpt>
<trkpt lat="44.04905498" lon="10.051705018"><ele>8</ele><time>2020-02-23T08:16:02Z</time></trkpt>
<trkpt lat="44.049034026" lon="10.051733013"><ele>8</ele><time>2020-02-23T08:16:03Z</time></trkpt>
<trkpt lat="44.049012987" lon="10.051762015"><ele>7</ele><time>2020-02-23T08:16:04Z</time></trkpt>
<trkpt lat="44.048992032" lon="10.051792022"><ele>7</ele><time>2020-02-23T08:16:05Z</time></trkpt>
<trkpt lat="44.048971999" lon="10.051823035"><ele>7</ele><time>2020-02-23T08:16:06Z</time></trkpt>
<trkpt lat="44.048952973" lon="10.05185497"><ele>7</ele><time>2020-02-23T08:16:07Z</time></trkpt>
<trkpt lat="44.048935035" lon="10.051887995"><ele>7</ele><time>2020-02-23T08:16:08Z</time></trkpt>
<trkpt lat="44.048917014" lon="10.051921019"><ele>7</ele><time>2020-02-23T08:16:09Z</time></trkpt>
<trkpt lat="44.048898993" lon="10.051955972"><ele>7</ele><time>2020-02-23T08:16:10Z</time></trkpt>
<trkpt lat="44.048881978" lon="10.051991008"><ele>7</ele><time>2020-02-23T08:16:11Z</time></trkpt>
<trkpt lat="44.048864963" lon="10.052025961"><ele>7</ele><time>2020-02-23T08:16:12Z</time></trkpt>
<trkpt lat="44.048848031" lon="10.052062003"><ele>7</ele><time>2020-02-23T08:16:13Z</time></trkpt>
<trkpt lat="44.048832022" lon="10.052098967"><ele>7</ele><time>2020-02-23T08:16:14Z</time></trkpt>
<trkpt lat="44.048816012" lon="10.052135009"><ele>7</ele><time>2020-02-23T08:16:15Z</time></trkpt>
<trkpt lat="44.048800003" lon="10.052171974"><ele>7</ele><time>2020-02-23T08:16:16Z</time></trkpt>
<trkpt lat="44.048784999" lon="10.052209022"><ele>7</ele><time>2020-02-23T08:16:17Z</time></trkpt>
<trkpt lat="44.04876899" lon="10.052245986"><ele>7</ele><time>2020-02-23T08:16:18Z</time></trkpt>
<trkpt lat="44.04875298" lon="10.052283034"><ele>7</ele><time>2020-02-23T08:16:19Z</time></trkpt>
<trkpt lat="44.048737977" lon="10.052319998"><ele>7</ele><time>2020-02-23T08:16:20Z</time></trkpt>
<trkpt lat="44.048721967" lon="10.052356962"><ele>7</ele><time>2020-02-23T08:16:21Z</time></trkpt>
<trkpt lat="44.048706964" lon="10.052393004"><ele>7</ele><time>2020-02-23T08:16:22Z</time></trkpt>
<trkpt lat="44.048691038" lon="10.052428963"><ele>7</ele><time>2020-02-23T08:16:23Z</time></trkpt>
<trkpt lat="44.048675029" lon="10.052463999"><ele>7</ele><time>2020-02-23T08:16:24Z</time></trkpt>
<trkpt lat="44.048659019" lon="10.052499035"><ele>7</ele><time>2020-02-23T08:16:25Z</time></trkpt>
<trkpt lat="44.048642004" lon="10.052532982"><ele>7</ele><time>2020-02-23T08:16:26Z</time></trkpt>
<trkpt lat="44.048625994" lon="10.052567013"><ele>7</ele><time>2020-02-23T08:16:27Z</time></trkpt>
<trkpt lat="44.048574027" lon="10.052664997"><ele>7</ele><time>2020-02-23T08:16:30Z</time></trkpt>
<trkpt lat="44.048557011" lon="10.052698022"><ele>7</ele><time>2020-02-23T08:16:31Z</time></trkpt>
<trkpt lat="44.04853899" lon="10.052730041"><ele>7</ele><time>2020-02-23T08:16:32Z</time></trkpt>
<trkpt lat="44.048520969" lon="10.052761976"><ele>7</ele><time>2020-02-23T08:16:33Z</time></trkpt>
<trkpt lat="44.048504038" lon="10.052793995"><ele>8</ele><time>2020-02-23T08:16:34Z</time></trkpt>
<trkpt lat="44.048486017" lon="10.052826013"><ele>8</ele><time>2020-02-23T08:16:35Z</time></trkpt>
<trkpt lat="44.048467996" lon="10.052859038"><ele>8</ele><time>2020-02-23T08:16:36Z</time></trkpt>
<trkpt lat="44.048449975" lon="10.052891979"><ele>8</ele><time>2020-02-23T08:16:37Z</time></trkpt>
<trkpt lat="44.048432037" lon="10.052925004"><ele>8</ele><time>2020-02-23T08:16:38Z</time></trkpt>
<trkpt lat="44.048415022" lon="10.052958028"><ele>8</ele><time>2020-02-23T08:16:39Z</time></trkpt>
<trkpt lat="44.048397001" lon="10.052991975"><ele>8</ele><time>2020-02-23T08:16:40Z</time></trkpt>
<trkpt lat="44.048377974" lon="10.053026006"><ele>8</ele><time>2020-02-23T08:16:41Z</time></trkpt>
<trkpt lat="44.048360037" lon="10.05305903"><ele>8</ele><time>2020-02-23T08:16:42Z</time></trkpt>
<trkpt lat="44.04834101" lon="10.053092977"><ele>8</ele><time>2020-02-23T08:16:43Z</time></trkpt>
<trkpt lat="44.048321983" lon="10.053126002"><ele>9</ele><time>2020-02-23T08:16:44Z</time></trkpt>
<trkpt lat="44.048302034" lon="10.053158021"><ele>9</ele><time>2020-02-23T08:16:45Z</time></trkpt>
<trkpt lat="44.048280995" lon="10.053190039"><ele>9</ele><time>2020-02-23T08:16:46Z</time></trkpt>
<trkpt lat="44.048260041" lon="10.053221975"><ele>9</ele><time>2020-02-23T08:16:47Z</time></trkpt>
<trkpt lat="44.048237996" lon="10.053251982"><ele>9</ele><time>2020-02-23T08:16:48Z</time></trkpt>
<trkpt lat="44.04821503" lon="10.053281989"><ele>9</ele><time>2020-02-23T08:16:49Z</time></trkpt>
<trkpt lat="44.04819198" lon="10.053309985"><ele>9</ele><time>2020-02-23T08:16:50Z</time></trkpt>
<trkpt lat="44.048167001" lon="10.053336974"><ele>9</ele><time>2020-02-23T08:16:51Z</time></trkpt>
<trkpt lat="44.048142023" lon="10.05336103"><ele>9</ele><time>2020-02-23T08:16:52Z</time></trkpt>
<trkpt lat="44.048116961" lon="10.053380979"><ele>9</ele><time>2020-02-23T08:16:53Z</time></trkpt>
<trkpt lat="44.048090978" lon="10.053396989"><ele>9</ele><time>2020-02-23T08:16:54Z</time></trkpt>
<trkpt lat="44.048063988" lon="10.053408975"><ele>9</ele><time>2020-02-23T08:16:55Z</time></trkpt>
<trkpt lat="44.048038004" lon="10.053414004"><ele>9</ele><time>2020-02-23T08:16:56Z</time></trkpt>
<trkpt lat="44.048011014" lon="10.053412998"><ele>9</ele><time>2020-02-23T08:16:57Z</time></trkpt>
<trkpt lat="44.047984025" lon="10.053406041"><ele>9</ele><time>2020-02-23T08:16:58Z</time></trkpt>
<trkpt lat="44.047957035" lon="10.053393971"><ele>9</ele><time>2020-02-23T08:16:59Z</time></trkpt>
<trkpt lat="44.047929961" lon="10.053377962"><ele>9</ele><time>2020-02-23T08:17:00Z</time></trkpt>
<trkpt lat="44.047903977" lon="10.053359019"><ele>9</ele><time>2020-02-23T08:17:01Z</time></trkpt>
<trkpt lat="44.047877993" lon="10.05333798"><ele>9</ele><time>2020-02-23T08:17:02Z</time></trkpt>
<trkpt lat="44.04785201" lon="10.053315014"><ele>8</ele><time>2020-02-23T08:17:03Z</time></trkpt>
<trkpt lat="44.047826026" lon="10.053291963"><ele>8</ele><time>2020-02-23T08:17:04Z</time></trkpt>
<trkpt lat="44.047800042" lon="10.053266985"><ele>8</ele><time>2020-02-23T08:17:05Z</time></trkpt>
<trkpt lat="44.04777498" lon="10.053241001"><ele>8</ele><time>2020-02-23T08:17:06Z</time></trkpt>
<trkpt lat="44.047724018" lon="10.053187022"><ele>8</ele><time>2020-02-23T08:17:08Z</time></trkpt>
<trkpt lat="44.047649" lon="10.053102029"><ele>8</ele><time>2020-02-23T08:17:11Z</time></trkpt>
<trkpt lat="44.047623016" lon="10.053073028"><ele>8</ele><time>2020-02-23T08:17:12Z</time></trkpt>
<trkpt lat="44.047598038" lon="10.053044027"><ele>7</ele><time>2020-02-23T08:17:13Z</time></trkpt>
<trkpt lat="44.04757197" lon="10.053016031"><ele>7</ele><time>2020-02-23T08:17:14Z</time></trkpt>
<trkpt lat="44.047545986" lon="10.052988036"><ele>7</ele><time>2020-02-23T08:17:15Z</time></trkpt>
<trkpt lat="44.047520002" lon="10.05296004"><ele>7</ele><time>2020-02-23T08:17:16Z</time></trkpt>
<trkpt lat="44.047494018" lon="10.052931961"><ele>7</ele><time>2020-02-23T08:17:17Z</time></trkpt>
<trkpt lat="44.047468035" lon="10.052903965"><ele>7</ele><time>2020-02-23T08:17:18Z</time></trkpt>
<trkpt lat="44.047441967" lon="10.052876975"><ele>7</ele><time>2020-02-23T08:17:19Z</time></trkpt>
<trkpt lat="44.047415983" lon="10.05284898"><ele>7</ele><time>2020-02-23T08:17:20Z</time></trkpt>
<trkpt lat="44.047389999" lon="10.05282199"><ele>7</ele><time>2020-02-23T08:17:21Z</time></trkpt>
<trkpt lat="44.047365021" lon="10.052795"><ele>6</ele><time>2020-02-23T08:17:22Z</time></trkpt>
<trkpt lat="44.047339959" lon="10.052767005"><ele>6</ele><time>2020-02-23T08:17:23Z</time></trkpt>
<trkpt lat="44.047314981" lon="10.052739009"><ele>6</ele><time>2020-02-23T08:17:24Z</time></trkpt>
<trkpt lat="44.047291009" lon="10.05271202"><ele>6</ele><time>2020-02-23T08:17:25Z</time></trkpt>
<trkpt lat="44.047267037" lon="10.052683018"><ele>6</ele><time>2020-02-23T08:17:26Z</time></trkpt>
<trkpt lat="44.047199981" lon="10.052598026"><ele>6</ele><time>2020-02-23T08:17:29Z</time></trkpt>
<trkpt lat="44.047179027" lon="10.052569024"><ele>6</ele><time>2020-02-23T08:17:30Z</time></trkpt>
<trkpt lat="44.047156982" lon="10.052540023"><ele>6</ele><time>2020-02-23T08:17:31Z</time></trkpt>
<trkpt lat="44.047136027" lon="10.052510016"><ele>6</ele><time>2020-02-23T08:17:32Z</time></trkpt>
<trkpt lat="44.047114989" lon="10.052481014"><ele>6</ele><time>2020-02-23T08:17:33Z</time></trkpt>
<trkpt lat="44.047094034" lon="10.052452013"><ele>6</ele><time>2020-02-23T08:17:34Z</time></trkpt>
<trkpt lat="44.047072995" lon="10.052422006"><ele>6</ele><time>2020-02-23T08:17:35Z</time></trkpt>
<trkpt lat="44.047052041" lon="10.052391998"><ele>6</ele><time>2020-02-23T08:17:36Z</time></trkpt>
<trkpt lat="44.047029996" lon="10.052362997"><ele>5</ele><time>2020-02-23T08:17:37Z</time></trkpt>
<trkpt lat="44.047008036" lon="10.05233299"><ele>5</ele><time>2020-02-23T08:17:38Z</time></trkpt>
<trkpt lat="44.046985991" lon="10.052302983"><ele>5</ele><time>2020-02-23T08:17:39Z</time></trkpt>
<trkpt lat="44.046963025" lon="10.052273981"><ele>5</ele><time>2020-02-23T08:17:40Z</time></trkpt>
<trkpt lat="44.046938969" lon="10.052243974"><ele>5</ele><time>2020-02-23T08:17:41Z</time></trkpt>
<trkpt lat="44.046914997" lon="10.052214973"><ele>5</ele><time>2020-02-23T08:17:42Z</time></trkpt>
<trkpt lat="44.046891024" lon="10.052185971"><ele>5</ele><time>2020-02-23T08:17:43Z</time></trkpt>
<trkpt lat="44.046842996" lon="10.052126963"><ele>5</ele><time>2020-02-23T08:17:45Z</time></trkpt>
<trkpt lat="44.04676999" lon="10.052039959"><ele>5</ele><time>2020-02-23T08:17:48Z</time></trkpt>
<trkpt lat="44.046745012" lon="10.052011041"><ele>5</ele><time>2020-02-23T08:17:49Z</time></trkpt>
<trkpt lat="44.046721039" lon="10.05198204"><ele>5</ele><time>2020-02-23T08:17:50Z</time></trkpt>
<trkpt lat="44.046696983" lon="10.051953038"><ele>5</ele><time>2020-02-23T08:17:51Z</time></trkpt>
<trkpt lat="44.046673011" lon="10.051924959"><ele>5</ele><time>2020-02-23T08:17:52Z</time></trkpt>
<trkpt lat="44.046649961" lon="10.051896041"><ele>5</ele><time>2020-02-23T08:17:53Z</time></trkpt>
<trkpt lat="44.046626994" lon="10.051867962"><ele>5</ele><time>2020-02-23T08:17:54Z</time></trkpt>
<trkpt lat="44.046604028" lon="10.051839966"><ele>5</ele><time>2020-02-23T08:17:55Z</time></trkpt>
<trkpt lat="44.046580978" lon="10.051810965"><ele>5</ele><time>2020-02-23T08:17:56Z</time></trkpt>
<trkpt lat="44.046558011" lon="10.051782969"><ele>5</ele><time>2020-02-23T08:17:57Z</time></trkpt>
<trkpt lat="44.046535967" lon="10.051754974"><ele>5</ele><time>2020-02-23T08:17:58Z</time></trkpt>
<trkpt lat="44.046513001" lon="10.051726978"><ele>5</ele><time>2020-02-23T08:17:59Z</time></trkpt>
<trkpt lat="44.04649104" lon="10.051698983"><ele>5</ele><time>2020-02-23T08:18:00Z</time></trkpt>
<trkpt lat="44.04646799" lon="10.051670987"><ele>5</ele><time>2020-02-23T08:18:01Z</time></trkpt>
<trkpt lat="44.046446029" lon="10.051642992"><ele>5</ele><time>2020-02-23T08:18:02Z</time></trkpt>
<trkpt lat="44.046423985" lon="10.051614996"><ele>5</ele><time>2020-02-23T08:18:03Z</time></trkpt>
<trkpt lat="44.046402024" lon="10.051585995"><ele>5</ele><time>2020-02-23T08:18:04Z</time></trkpt>
<trkpt lat="44.046378974" lon="10.051557999"><ele>5</ele><time>2020-02-23T08:18:05Z</time></trkpt>
<trkpt lat="44.046357013" lon="10.051530004"><ele>5</ele><time>2020-02-23T08:18:06Z</time></trkpt>
<trkpt lat="44.046334969" lon="10.051502008"><ele>5</ele><time>2020-02-23T08:18:07Z</time></trkpt>
<trkpt lat="44.046312002" lon="10.051474012"><ele>5</ele><time>2020-02-23T08:18:08Z</time></trkpt>
<trkpt lat="44.046290042" lon="10.051445011"><ele>5</ele><time>2020-02-23T08:18:09Z</time></trkpt>
<trkpt lat="44.046266992" lon="10.051417015"><ele>5</ele><time>2020-02-23T08:18:10Z</time></trkpt>
<trkpt lat="44.046244025" lon="10.05138902"><ele>5</ele><time>2020-02-23T08:18:11Z</time></trkpt>
<trkpt lat="44.046220975" lon="10.051361024"><ele>5</ele><time>2020-02-23T08:18:12Z</time></trkpt>
<trkpt lat="44.046198009" lon="10.051333029"><ele>5</ele><time>2020-02-23T08:18:13Z</time></trkpt>
<trkpt lat="44.046174036" lon="10.051305033"><ele>5</ele><time>2020-02-23T08:18:14Z</time></trkpt>
<trkpt lat="44.046150986" lon="10.05127796"><ele>5</ele><time>2020-02-23T08:18:15Z</time></trkpt>
<trkpt lat="44.046127014" lon="10.051249964"><ele>5</ele><time>2020-02-23T08:18:16Z</time></trkpt>
<trkpt lat="44.046103042" lon="10.051222974"><ele>5</ele><time>2020-02-23T08:18:17Z</time></trkpt>
<trkpt lat="44.046078986" lon="10.051194979"><ele>5</ele><time>2020-02-23T08:18:18Z</time></trkpt>
<trkpt lat="44.046056019" lon="10.051167989"><ele>5</ele><time>2020-02-23T08:18:19Z</time></trkpt>
<trkpt lat="44.046032969" lon="10.051139994"><ele>5</ele><time>2020-02-23T08:18:20Z</time></trkpt>
<trkpt lat="44.046011008" lon="10.051111998"><ele>5</ele><time>2020-02-23T08:18:21Z</time></trkpt>
<trkpt lat="44.04598997" lon="10.051082997"><ele>5</ele><time>2020-02-23T08:18:22Z</time></trkpt>
<trkpt lat="44.045970021" lon="10.051055001"><ele>5</ele><time>2020-02-23T08:18:23Z</time></trkpt>
<trkpt lat="44.045949988" lon="10.051026"><ele>5</ele><time>2020-02-23T08:18:24Z</time></trkpt>
<trkpt lat="44.045930039" lon="10.050996998"><ele>5</ele><time>2020-02-23T08:18:25Z</time></trkpt>
<trkpt lat="44.045911012" lon="10.050967997"><ele>5</ele><time>2020-02-23T08:18:26Z</time></trkpt>
<trkpt lat="44.045890979" lon="10.050938996"><ele>5</ele><time>2020-02-23T08:18:27Z</time></trkpt>
<trkpt lat="44.045870025" lon="10.050908988"><ele>5</ele><time>2020-02-23T08:18:28Z</time></trkpt>
<trkpt lat="44.045848986" lon="10.050879987"><ele>5</ele><time>2020-02-23T08:18:29Z</time></trkpt>
<trkpt lat="44.045827026" lon="10.050850986"><ele>5</ele><time>2020-02-23T08:18:30Z</time></trkpt>
<trkpt lat="44.045803975" lon="10.050821984"><ele>5</ele><time>2020-02-23T08:18:31Z</time></trkpt>
<trkpt lat="44.045781009" lon="10.050792983"><ele>5</ele><time>2020-02-23T08:18:32Z</time></trkpt>
<trkpt lat="44.045757959" lon="10.050763981"><ele>5</ele><time>2020-02-23T08:18:33Z</time></trkpt>
<trkpt lat="44.045734992" lon="10.05073498"><ele>5</ele><time>2020-02-23T08:18:34Z</time></trkpt>
<trkpt lat="44.04571102" lon="10.050705979"><ele>5</ele><time>2020-02-23T08:18:35Z</time></trkpt>
<trkpt lat="44.045686964" lon="10.050675971"><ele>5</ele><time>2020-02-23T08:18:36Z</time></trkpt>
<trkpt lat="44.045662992" lon="10.05064697"><ele>5</ele><time>2020-02-23T08:18:37Z</time></trkpt>
<trkpt lat="44.045639019" lon="10.050617969"><ele>5</ele><time>2020-02-23T08:18:38Z</time></trkpt>
<trkpt lat="44.045615969" lon="10.050588967"><ele>5</ele><time>2020-02-23T08:18:39Z</time></trkpt>
<trkpt lat="44.045591997" lon="10.050559966"><ele>5</ele><time>2020-02-23T08:18:40Z</time></trkpt>
<trkpt lat="44.045568025" lon="10.050530965"><ele>5</ele><time>2020-02-23T08:18:41Z</time></trkpt>
<trkpt lat="44.045544975" lon="10.050501963"><ele>5</ele><time>2020-02-23T08:18:42Z</time></trkpt>
<trkpt lat="44.045521002" lon="10.050472962"><ele>5</ele><time>2020-02-23T08:18:43Z</time></trkpt>
<trkpt lat="44.045498036" lon="10.05044396"><ele>5</ele><time>2020-02-23T08:18:44Z</time></trkpt>
<trkpt lat="44.045474986" lon="10.050414959"><ele>5</ele><time>2020-02-23T08:18:45Z</time></trkpt>
<trkpt lat="44.045452019" lon="10.050386041"><ele>5</ele><time>2020-02-23T08:18:46Z</time></trkpt>
<trkpt lat="44.045407008" lon="10.050328961"><ele>4</ele><time>2020-02-23T08:18:48Z</time></trkpt>
<trkpt lat="44.045383958" lon="10.050299959"><ele>4</ele><time>2020-02-23T08:18:49Z</time></trkpt>
<trkpt lat="44.045360992" lon="10.050271964"><ele>4</ele><time>2020-02-23T08:18:50Z</time></trkpt>
<trkpt lat="44.045338025" lon="10.050243968"><ele>4</ele><time>2020-02-23T08:18:51Z</time></trkpt>
<trkpt lat="44.045315981" lon="10.050215973"><ele>4</ele><time>2020-02-23T08:18:52Z</time></trkpt>
<trkpt lat="44.045293014" lon="10.050187977"><ele>4</ele><time>2020-02-23T08:18:53Z</time></trkpt>
<trkpt lat="44.045269964" lon="10.050159981"><ele>4</ele><time>2020-02-23T08:18:54Z</time></trkpt>
<trkpt lat="44.045246998" lon="10.050132992"><ele>4</ele><time>2020-02-23T08:18:55Z</time></trkpt>
<trkpt lat="44.045224031" lon="10.050106002"><ele>4</ele><time>2020-02-23T08:18:56Z</time></trkpt>
<trkpt lat="44.045201987" lon="10.050078006"><ele>4</ele><time>2020-02-23T08:18:57Z</time></trkpt>
<trkpt lat="44.045179021" lon="10.050051017"><ele>4</ele><time>2020-02-23T08:18:58Z</time></trkpt>
<trkpt lat="44.04515597" lon="10.050024027"><ele>4</ele><time>2020-02-23T08:18:59Z</time></trkpt>
<trkpt lat="44.045133004" lon="10.049996031"><ele>4</ele><time>2020-02-23T08:19:00Z</time></trkpt>
<trkpt lat="44.045110038" lon="10.049969042"><ele>4</ele><time>2020-02-23T08:19:01Z</time></trkpt>
<trkpt lat="44.045087993" lon="10.049940962"><ele>4</ele><time>2020-02-23T08:19:02Z</time></trkpt>
<trkpt lat="44.045065027" lon="10.049912967"><ele>4</ele><time>2020-02-23T08:19:03Z</time></trkpt>
<trkpt lat="44.045042982" lon="10.049883965"><ele>4</ele><time>2020-02-23T08:19:04Z</time></trkpt>
<trkpt lat="44.045020016" lon="10.04985597"><ele>4</ele><time>2020-02-23T08:19:05Z</time></trkpt>
<trkpt lat="44.044997972" lon="10.049826968"><ele>4</ele><time>2020-02-23T08:19:06Z</time></trkpt>
<trkpt lat="44.044975005" lon="10.049797967"><ele>4</ele><time>2020-02-23T08:19:07Z</time></trkpt>
<trkpt lat="44.044952961" lon="10.049768966"><ele>4</ele><time>2020-02-23T08:19:08Z</time></trkpt>
<trkpt lat="44.044931" lon="10.049739964"><ele>4</ele><time>2020-02-23T08:19:09Z</time></trkpt>
<trkpt lat="44.04490904" lon="10.049710963"><ele>4</ele><time>2020-02-23T08:19:10Z</time></trkpt>
<trkpt lat="44.044888001" lon="10.049681962"><ele>4</ele><time>2020-02-23T08:19:11Z</time></trkpt>
<trkpt lat="44.04486604" lon="10.049653966"><ele>4</ele><time>2020-02-23T08:19:12Z</time></trkpt>
<trkpt lat="44.044845002" lon="10.04962597"><ele>5</ele><time>2020-02-23T08:19:13Z</time></trkpt>
<trkpt lat="44.044824969" lon="10.049597975"><ele>5</ele><time>2020-02-23T08:19:14Z</time></trkpt>
<trkpt lat="44.044804014" lon="10.049570985"><ele>5</ele><time>2020-02-23T08:19:15Z</time></trkpt>
<trkpt lat="44.044783982" lon="10.049543995"><ele>5</ele><time>2020-02-23T08:19:16Z</time></trkpt>
<trkpt lat="44.044764033" lon="10.049518012"><ele>5</ele><time>2020-02-23T08:19:17Z</time></trkpt>
<trkpt lat="44.044742994" lon="10.049491022"><ele>5</ele><time>2020-02-23T08:19:18Z</time></trkpt>
<trkpt lat="44.044719022" lon="10.04946202"><ele>5</ele><time>2020-02-23T08:19:19Z</time></trkpt>
<trkpt lat="44.044691026" lon="10.049431007"><ele>5</ele><time>2020-02-23T08:19:20Z</time></trkpt>
<trkpt lat="44.044578038" lon="10.04927502"><ele>5</ele><time>2020-02-23T08:19:24Z</time></trkpt>
<trkpt lat="44.044555994" lon="10.04924099"><ele>5</ele><time>2020-02-23T08:19:25Z</time></trkpt>
<trkpt lat="44.044535039" lon="10.049209977"><ele>4</ele><time>2020-02-23T08:19:26Z</time></trkpt>
<trkpt lat="44.044516012" lon="10.049181981"><ele>4</ele><time>2020-02-23T08:19:27Z</time></trkpt>
<trkpt lat="44.044496985" lon="10.049155997"><ele>4</ele><time>2020-02-23T08:19:28Z</time></trkpt>
<trkpt lat="44.044477036" lon="10.049131019"><ele>4</ele><time>2020-02-23T08:19:29Z</time></trkpt>
<trkpt lat="44.044458009" lon="10.049108975"><ele>4</ele><time>2020-02-23T08:19:30Z</time></trkpt>
<trkpt lat="44.044437977" lon="10.049087014"><ele>4</ele><time>2020-02-23T08:19:31Z</time></trkpt>
<trkpt lat="44.044417022" lon="10.04906497"><ele>4</ele><time>2020-02-23T08:19:32Z</time></trkpt>
<trkpt lat="44.044395983" lon="10.049042003"><ele>4</ele><time>2020-02-23T08:19:33Z</time></trkpt>
<trkpt lat="44.044374023" lon="10.049019037"><ele>4</ele><time>2020-02-23T08:19:34Z</time></trkpt>
<trkpt lat="44.044350972" lon="10.048994981"><ele>4</ele><time>2020-02-23T08:19:35Z</time></trkpt>
<trkpt lat="44.044328006" lon="10.048968997"><ele>4</ele><time>2020-02-23T08:19:36Z</time></trkpt>
<trkpt lat="44.044304034" lon="10.048941001"><ele>4</ele><time>2020-02-23T08:19:37Z</time></trkpt>
<trkpt lat="44.044279978" lon="10.048913006"><ele>4</ele><time>2020-02-23T08:19:38Z</time></trkpt>
<trkpt lat="44.044256005" lon="10.04888501"><ele>4</ele><time>2020-02-23T08:19:39Z</time></trkpt>
<trkpt lat="44.044233039" lon="10.048856009"><ele>4</ele><time>2020-02-23T08:19:40Z</time></trkpt>
<trkpt lat="44.044209989" lon="10.048827007"><ele>4</ele><time>2020-02-23T08:19:41Z</time></trkpt>
<trkpt lat="44.044188028" lon="10.048797"><ele>4</ele><time>2020-02-23T08:19:42Z</time></trkpt>
<trkpt lat="44.04416699" lon="10.048767999"><ele>4</ele><time>2020-02-23T08:19:43Z</time></trkpt>
<trkpt lat="44.044145029" lon="10.048738997"><ele>4</ele><time>2020-02-23T08:19:44Z</time></trkpt>
<trkpt lat="44.044122985" lon="10.04870899"><ele>4</ele><time>2020-02-23T08:19:45Z</time></trkpt>
<trkpt lat="44.044101024" lon="10.048678983"><ele>4</ele><time>2020-02-23T08:19:46Z</time></trkpt>
<trkpt lat="44.044077974" lon="10.048649982"><ele>4</ele><time>2020-02-23T08:19:47Z</time></trkpt>
<trkpt lat="44.044054002" lon="10.04862098"><ele>4</ele><time>2020-02-23T08:19:48Z</time></trkpt>
<trkpt lat="44.044003962" lon="10.048570018"><ele>5</ele><time>2020-02-23T08:19:50Z</time></trkpt>
<trkpt lat="44.043977978" lon="10.048545962"><ele>5</ele><time>2020-02-23T08:19:51Z</time></trkpt>
<trkpt lat="44.043950988" lon="10.048522996"><ele>5</ele><time>2020-02-23T08:19:52Z</time></trkpt>
<trkpt lat="44.043873958" lon="10.048450995"><ele>5</ele><time>2020-02-23T08:19:55Z</time></trkpt>
<trkpt lat="44.04384898" lon="10.048426017"><ele>5</ele><time>2020-02-23T08:19:56Z</time></trkpt>
<trkpt lat="44.043825008" lon="10.048399027"><ele>5</ele><time>2020-02-23T08:19:57Z</time></trkpt>
<trkpt lat="44.043801036" lon="10.048372038"><ele>5</ele><time>2020-02-23T08:19:58Z</time></trkpt>
<trkpt lat="44.043777985" lon="10.048343958"><ele>5</ele><time>2020-02-23T08:19:59Z</time></trkpt>
<trkpt lat="44.043755019" lon="10.048314035"><ele>6</ele><time>2020-02-23T08:20:00Z</time></trkpt>
<trkpt lat="44.04368897" lon="10.04821999"><ele>6</ele><time>2020-02-23T08:20:03Z</time></trkpt>
<trkpt lat="44.043668015" lon="10.048186965"><ele>6</ele><time>2020-02-23T08:20:04Z</time></trkpt>
<trkpt lat="44.043646976" lon="10.048152013"><ele>6</ele><time>2020-02-23T08:20:05Z</time></trkpt>
<trkpt lat="44.043605989" lon="10.048081018"><ele>6</ele><time>2020-02-23T08:20:07Z</time></trkpt>
<trkpt lat="44.043585034" lon="10.048046988"><ele>6</ele><time>2020-02-23T08:20:08Z</time></trkpt>
<trkpt lat="44.04356299" lon="10.048013041"><ele>6</ele><time>2020-02-23T08:20:09Z</time></trkpt>
<trkpt lat="44.043540023" lon="10.047981022"><ele>6</ele><time>2020-02-23T08:20:10Z</time></trkpt>
<trkpt lat="44.043515967" lon="10.047952021"><ele>6</ele><time>2020-02-23T08:20:11Z</time></trkpt>
<trkpt lat="44.043489983" lon="10.047924025"><ele>6</ele><time>2020-02-23T08:20:12Z</time></trkpt>
<trkpt lat="44.043465005" lon="10.047898963"><ele>6</ele><time>2020-02-23T08:20:13Z</time></trkpt>
<trkpt lat="44.043440027" lon="10.047871973"><ele>6</ele><time>2020-02-23T08:20:14Z</time></trkpt>
<trkpt lat="44.043355035" lon="10.04775404"><ele>6</ele><time>2020-02-23T08:20:18Z</time></trkpt>
<trkpt lat="44.04333299" lon="10.047723027"><ele>6</ele><time>2020-02-23T08:20:19Z</time></trkpt>
<trkpt lat="44.043312036" lon="10.047691008"><ele>6</ele><time>2020-02-23T08:20:20Z</time></trkpt>
<trkpt lat="44.043289991" lon="10.047659995"><ele>5</ele><time>2020-02-23T08:20:21Z</time></trkpt>
<trkpt lat="44.043268031" lon="10.047627976"><ele>5</ele><time>2020-02-23T08:20:22Z</time></trkpt>
<trkpt lat="44.043245986" lon="10.047596963"><ele>5</ele><time>2020-02-23T08:20:23Z</time></trkpt>
<trkpt lat="44.043224026" lon="10.047565028"><ele>5</ele><time>2020-02-23T08:20:24Z</time></trkpt>
<trkpt lat="44.043201981" lon="10.047534015"><ele>5</ele><time>2020-02-23T08:20:25Z</time></trkpt>
<trkpt lat="44.043180021" lon="10.047503002"><ele>5</ele><time>2020-02-23T08:20:26Z</time></trkpt>
<trkpt lat="44.043157976" lon="10.047471989"><ele>5</ele><time>2020-02-23T08:20:27Z</time></trkpt>
<trkpt lat="44.043136016" lon="10.047441982"><ele>5</ele><time>2020-02-23T08:20:28Z</time></trkpt>
<trkpt lat="44.043113971" lon="10.04741298"><ele>5</ele><time>2020-02-23T08:20:29Z</time></trkpt>
<trkpt lat="44.043093016" lon="10.047383979"><ele>5</ele><time>2020-02-23T08:20:30Z</time></trkpt>
<trkpt lat="44.043070972" lon="10.047354978"><ele>5</ele><time>2020-02-23T08:20:31Z</time></trkpt>
<trkpt lat="44.043050017" lon="10.047326982"><ele>5</ele><time>2020-02-23T08:20:32Z</time></trkpt>
<trkpt lat="44.043028979" lon="10.047298986"><ele>5</ele><time>2020-02-23T08:20:33Z</time></trkpt>
<trkpt lat="44.043008024" lon="10.047271997"><ele>5</ele><time>2020-02-23T08:20:34Z</time></trkpt>
<trkpt lat="44.042986985" lon="10.047245007"><ele>5</ele><time>2020-02-23T08:20:35Z</time></trkpt>
<trkpt lat="44.042966031" lon="10.047218017"><ele>5</ele><time>2020-02-23T08:20:36Z</time></trkpt>
<trkpt lat="44.042943986" lon="10.047191028"><ele>5</ele><time>2020-02-23T08:20:37Z</time></trkpt>
<trkpt lat="44.042879026" lon="10.04711098"><ele>5</ele><time>2020-02-23T08:20:40Z</time></trkpt>
<trkpt lat="44.042856982" lon="10.047083991"><ele>5</ele><time>2020-02-23T08:20:41Z</time></trkpt>
<trkpt lat="44.042835021" lon="10.047055995"><ele>5</ele><time>2020-02-23T08:20:42Z</time></trkpt>
<trkpt lat="44.042811971" lon="10.047029005"><ele>5</ele><time>2020-02-23T08:20:43Z</time></trkpt>
<trkpt lat="44.042789005" lon="10.04700101"><ele>5</ele><time>2020-02-23T08:20:44Z</time></trkpt>
<trkpt lat="44.042765033" lon="10.046973014"><ele>5</ele><time>2020-02-23T08:20:45Z</time></trkpt>
<trkpt lat="44.042740976" lon="10.046945019"><ele>5</ele><time>2020-02-23T08:20:46Z</time></trkpt>
<trkpt lat="44.042717004" lon="10.046917023"><ele>5</ele><time>2020-02-23T08:20:47Z</time></trkpt>
<trkpt lat="44.042693032" lon="10.046888022"><ele>5</ele><time>2020-02-23T08:20:48Z</time></trkpt>
<trkpt lat="44.042668976" lon="10.046860026"><ele>5</ele><time>2020-02-23T08:20:49Z</time></trkpt>
<trkpt lat="44.042643998" lon="10.046831025"><ele>5</ele><time>2020-02-23T08:20:50Z</time></trkpt>
<trkpt lat="44.04261902" lon="10.046803029"><ele>4</ele><time>2020-02-23T08:20:51Z</time></trkpt>
<trkpt lat="44.042594964" lon="10.046774028"><ele>4</ele><time>2020-02-23T08:20:52Z</time></trkpt>
<trkpt lat="44.042569986" lon="10.046746032"><ele>4</ele><time>2020-02-23T08:20:53Z</time></trkpt>
<trkpt lat="44.042544002" lon="10.046717031"><ele>4</ele><time>2020-02-23T08:20:54Z</time></trkpt>
<trkpt lat="44.042519024" lon="10.04668803"><ele>4</ele><time>2020-02-23T08:20:55Z</time></trkpt>
<trkpt lat="44.042494968" lon="10.046660034"><ele>4</ele><time>2020-02-23T08:20:56Z</time></trkpt>
<trkpt lat="44.04246999" lon="10.046631033"><ele>4</ele><time>2020-02-23T08:20:57Z</time></trkpt>
<trkpt lat="44.042446017" lon="10.046602031"><ele>4</ele><time>2020-02-23T08:20:58Z</time></trkpt>
<trkpt lat="44.042422967" lon="10.04657303"><ele>4</ele><time>2020-02-23T08:20:59Z</time></trkpt>
<trkpt lat="44.042400001" lon="10.046544028"><ele>4</ele><time>2020-02-23T08:21:00Z</time></trkpt>
<trkpt lat="44.042378962" lon="10.046515027"><ele>4</ele><time>2020-02-23T08:21:01Z</time></trkpt>
<trkpt lat="44.042358007" lon="10.04648502"><ele>4</ele><time>2020-02-23T08:21:02Z</time></trkpt>
<trkpt lat="44.042336969" lon="10.046456018"><ele>4</ele><time>2020-02-23T08:21:03Z</time></trkpt>
<trkpt lat="44.04231702" lon="10.046426011"><ele>4</ele><time>2020-02-23T08:21:04Z</time></trkpt>
<trkpt lat="44.042296987" lon="10.04639701"><ele>5</ele><time>2020-02-23T08:21:05Z</time></trkpt>
<trkpt lat="44.042256" lon="10.046336995"><ele>5</ele><time>2020-02-23T08:21:07Z</time></trkpt>
<trkpt lat="44.042193973" lon="10.046245968"><ele>5</ele><time>2020-02-23T08:21:10Z</time></trkpt>
<trkpt lat="44.04217503" lon="10.046214033"><ele>5</ele><time>2020-02-23T08:21:11Z</time></trkpt>
<trkpt lat="44.042156003" lon="10.046181008"><ele>5</ele><time>2020-02-23T08:21:12Z</time></trkpt>
<trkpt lat="44.042138988" lon="10.046145972"><ele>5</ele><time>2020-02-23T08:21:13Z</time></trkpt>
<trkpt lat="44.042102024" lon="10.046082018"><ele>5</ele><time>2020-02-23T08:21:15Z</time></trkpt>
<trkpt lat="44.042078974" lon="10.046055028"><ele>5</ele><time>2020-02-23T08:21:16Z</time></trkpt>
<trkpt lat="44.042053996" lon="10.046029966"><ele>5</ele><time>2020-02-23T08:21:17Z</time></trkpt>
<trkpt lat="44.042029018" lon="10.046004988"><ele>5</ele><time>2020-02-23T08:21:18Z</time></trkpt>
<trkpt lat="44.042003034" lon="10.045981016"><ele>5</ele><time>2020-02-23T08:21:19Z</time></trkpt>
<trkpt lat="44.041977972" lon="10.045956038"><ele>5</ele><time>2020-02-23T08:21:20Z</time></trkpt>
<trkpt lat="44.041903038" lon="10.045876997"><ele>5</ele><time>2020-02-23T08:21:23Z</time></trkpt>
<trkpt lat="44.041877976" lon="10.045850007"><ele>6</ele><time>2020-02-23T08:21:24Z</time></trkpt>
<trkpt lat="44.041854003" lon="10.045822011"><ele>6</ele><time>2020-02-23T08:21:25Z</time></trkpt>
<trkpt lat="44.041830031" lon="10.045794016"><ele>6</ele><time>2020-02-23T08:21:26Z</time></trkpt>
<trkpt lat="44.041805975" lon="10.045765014"><ele>6</ele><time>2020-02-23T08:21:27Z</time></trkpt>
<trkpt lat="44.041783009" lon="10.045735007"><ele>6</ele><time>2020-02-23T08:21:28Z</time></trkpt>
<trkpt lat="44.041759958" lon="10.045705"><ele>6</ele><time>2020-02-23T08:21:29Z</time></trkpt>
<trkpt lat="44.041737998" lon="10.045673987"><ele>6</ele><time>2020-02-23T08:21:30Z</time></trkpt>
<trkpt lat="44.041716037" lon="10.045640962"><ele>6</ele><time>2020-02-23T08:21:31Z</time></trkpt>
<trkpt lat="44.041693993" lon="10.045609027"><ele>6</ele><time>2020-02-23T08:21:32Z</time></trkpt>
<trkpt lat="44.041654011" lon="10.045540966"><ele>6</ele><time>2020-02-23T08:21:34Z</time></trkpt>
<trkpt lat="44.041589973" lon="10.045444993"><ele>6</ele><time>2020-02-23T08:21:37Z</time></trkpt>
<trkpt lat="44.041566001" lon="10.045416998"><ele>6</ele><time>2020-02-23T08:21:38Z</time></trkpt>
<trkpt lat="44.041541023" lon="10.045389002"><ele>6</ele><time>2020-02-23T08:21:39Z</time></trkpt>
<trkpt lat="44.041516967" lon="10.045361007"><ele>6</ele><time>2020-02-23T08:21:40Z</time></trkpt>
<trkpt lat="44.041428035" lon="10.045245001"><ele>6</ele><time>2020-02-23T08:21:44Z</time></trkpt>
<trkpt lat="44.041409008" lon="10.045214994"><ele>6</ele><time>2020-02-23T08:21:45Z</time></trkpt>
<trkpt lat="44.041389981" lon="10.045184987"><ele>6</ele><time>2020-02-23T08:21:46Z</time></trkpt>
<trkpt lat="44.041372966" lon="10.045153974"><ele>6</ele><time>2020-02-23T08:21:47Z</time></trkpt>
<trkpt lat="44.041356035" lon="10.045122961"><ele>6</ele><time>2020-02-23T08:21:48Z</time></trkpt>
<trkpt lat="44.041340025" lon="10.045092031"><ele>6</ele><time>2020-02-23T08:21:49Z</time></trkpt>
<trkpt lat="44.041324016" lon="10.045060012"><ele>6</ele><time>2020-02-23T08:21:50Z</time></trkpt>
<trkpt lat="44.041308006" lon="10.045027994"><ele>5</ele><time>2020-02-23T08:21:51Z</time></trkpt>
<trkpt lat="44.041291997" lon="10.044996981"><ele>6</ele><time>2020-02-23T08:21:52Z</time></trkpt>
<trkpt lat="44.041274982" lon="10.044967979"><ele>6</ele><time>2020-02-23T08:21:53Z</time></trkpt>
<trkpt lat="44.04125696" lon="10.044940989"><ele>6</ele><time>2020-02-23T08:21:54Z</time></trkpt>
<trkpt lat="44.041237012" lon="10.044917017"><ele>6</ele><time>2020-02-23T08:21:55Z</time></trkpt>
<trkpt lat="44.041214967" lon="10.044896984"><ele>6</ele><time>2020-02-23T08:21:56Z</time></trkpt>
<trkpt lat="44.041190995" lon="10.044878963"><ele>6</ele><time>2020-02-23T08:21:57Z</time></trkpt>
<trkpt lat="44.041166017" lon="10.044862032"><ele>6</ele><time>2020-02-23T08:21:58Z</time></trkpt>
<trkpt lat="44.041140033" lon="10.044846023"><ele>6</ele><time>2020-02-23T08:21:59Z</time></trkpt>
<trkpt lat="44.041113965" lon="10.044830013"><ele>6</ele><time>2020-02-23T08:22:00Z</time></trkpt>
<trkpt lat="44.041086975" lon="10.044811992"><ele>7</ele><time>2020-02-23T08:22:01Z</time></trkpt>
<trkpt lat="44.041060992" lon="10.044791037"><ele>7</ele><time>2020-02-23T08:22:02Z</time></trkpt>
<trkpt lat="44.041036014" lon="10.044768993"><ele>7</ele><time>2020-02-23T08:22:03Z</time></trkpt>
<trkpt lat="44.041011035" lon="10.044744015"><ele>7</ele><time>2020-02-23T08:22:04Z</time></trkpt>
<trkpt lat="44.040985974" lon="10.044718031"><ele>7</ele><time>2020-02-23T08:22:05Z</time></trkpt>
<trkpt lat="44.040960995" lon="10.044691963"><ele>8</ele><time>2020-02-23T08:22:06Z</time></trkpt>
<trkpt lat="44.040937023" lon="10.044663968"><ele>8</ele><time>2020-02-23T08:22:07Z</time></trkpt>
<trkpt lat="44.040912967" lon="10.044636978"><ele>8</ele><time>2020-02-23T08:22:08Z</time></trkpt>
<trkpt lat="44.040888995" lon="10.044609988"><ele>8</ele><time>2020-02-23T08:22:09Z</time></trkpt>
<trkpt lat="44.040866029" lon="10.044581993"><ele>8</ele><time>2020-02-23T08:22:10Z</time></trkpt>
<trkpt lat="44.040842978" lon="10.044555003"><ele>9</ele><time>2020-02-23T08:22:11Z</time></trkpt>
<trkpt lat="44.04078397" lon="10.044471016"><ele>9</ele><time>2020-02-23T08:22:14Z</time></trkpt>
<trkpt lat="44.040767038" lon="10.044443021"><ele>9</ele><time>2020-02-23T08:22:15Z</time></trkpt>
<trkpt lat="44.040750023" lon="10.044415025"><ele>9</ele><time>2020-02-23T08:22:16Z</time></trkpt>
<trkpt lat="44.040733008" lon="10.044388035"><ele>9</ele><time>2020-02-23T08:22:17Z</time></trkpt>
<trkpt lat="44.040715992" lon="10.044360962"><ele>10</ele><time>2020-02-23T08:22:18Z</time></trkpt>
<trkpt lat="44.040696966" lon="10.044334978"><ele>10</ele><time>2020-02-23T08:22:19Z</time></trkpt>
<trkpt lat="44.040628988" lon="10.044260966"><ele>10</ele><time>2020-02-23T08:22:22Z</time></trkpt>
<trkpt lat="44.04060401" lon="10.044236993"><ele>10</ele><time>2020-02-23T08:22:23Z</time></trkpt>
<trkpt lat="44.04057702" lon="10.044213021"><ele>10</ele><time>2020-02-23T08:22:24Z</time></trkpt>
<trkpt lat="44.040550031" lon="10.044187959"><ele>10</ele><time>2020-02-23T08:22:25Z</time></trkpt>
<trkpt lat="44.040522035" lon="10.044161975"><ele>10</ele><time>2020-02-23T08:22:26Z</time></trkpt>
<trkpt lat="44.04049404" lon="10.044134986"><ele>10</ele><time>2020-02-23T08:22:27Z</time></trkpt>
<trkpt lat="44.040465038" lon="10.044107996"><ele>10</ele><time>2020-02-23T08:22:28Z</time></trkpt>
<trkpt lat="44.040436959" lon="10.044082012"><ele>9</ele><time>2020-02-23T08:22:29Z</time></trkpt>
<trkpt lat="44.040408041" lon="10.044057034"><ele>9</ele><time>2020-02-23T08:22:30Z</time></trkpt>
<trkpt lat="44.040380968" lon="10.044033984"><ele>9</ele><time>2020-02-23T08:22:31Z</time></trkpt>
<trkpt lat="44.040353978" lon="10.044011017"><ele>9</ele><time>2020-02-23T08:22:32Z</time></trkpt>
<trkpt lat="44.040329" lon="10.043985033"><ele>9</ele><time>2020-02-23T08:22:33Z</time></trkpt>
<trkpt lat="44.040309973" lon="10.043949997"><ele>9</ele><time>2020-02-23T08:22:34Z</time></trkpt>
<trkpt lat="44.040297987" lon="10.043902975"><ele>9</ele><time>2020-02-23T08:22:35Z</time></trkpt>
<trkpt lat="44.040289018" lon="10.043739025"><ele>9</ele><time>2020-02-23T08:22:38Z</time></trkpt>
<trkpt lat="44.040292036" lon="10.043688985"><ele>9</ele><time>2020-02-23T08:22:39Z</time></trkpt>
<trkpt lat="44.040296981" lon="10.043641962"><ele>9</ele><time>2020-02-23T08:22:40Z</time></trkpt>
<trkpt lat="44.040304022" lon="10.043597035"><ele>9</ele><time>2020-02-23T08:22:41Z</time></trkpt>
<trkpt lat="44.040312991" lon="10.04355303"><ele>9</ele><time>2020-02-23T08:22:42Z</time></trkpt>
<trkpt lat="44.040323971" lon="10.043508019"><ele>9</ele><time>2020-02-23T08:22:43Z</time></trkpt>
<trkpt lat="44.040336963" lon="10.043464014"><ele>9</ele><time>2020-02-23T08:22:44Z</time></trkpt>
<trkpt lat="44.040350961" lon="10.043419003"><ele>8</ele><time>2020-02-23T08:22:45Z</time></trkpt>
<trkpt lat="44.040365964" lon="10.043374998"><ele>8</ele><time>2020-02-23T08:22:46Z</time></trkpt>
<trkpt lat="44.040382979" lon="10.043331999"><ele>8</ele><time>2020-02-23T08:22:47Z</time></trkpt>
<trkpt lat="44.040402006" lon="10.043291012"><ele>8</ele><time>2020-02-23T08:22:48Z</time></trkpt>
<trkpt lat="44.040421033" lon="10.043253042"><ele>8</ele><time>2020-02-23T08:22:49Z</time></trkpt>
<trkpt lat="44.040441988" lon="10.043217"><ele>8</ele><time>2020-02-23T08:22:50Z</time></trkpt>
<trkpt lat="44.040463027" lon="10.043183975"><ele>7</ele><time>2020-02-23T08:22:51Z</time></trkpt>
<trkpt lat="44.040482976" lon="10.043150028"><ele>7</ele><time>2020-02-23T08:22:52Z</time></trkpt>
<trkpt lat="44.040500997" lon="10.043113986"><ele>7</ele><time>2020-02-23T08:22:53Z</time></trkpt>
<trkpt lat="44.040516" lon="10.043077022"><ele>7</ele><time>2020-02-23T08:22:54Z</time></trkpt>
<trkpt lat="44.040538967" lon="10.042996975"><ele>7</ele><time>2020-02-23T08:22:56Z</time></trkpt>
<trkpt lat="44.040547013" lon="10.042953975"><ele>7</ele><time>2020-02-23T08:22:57Z</time></trkpt>
<trkpt lat="44.04055397" lon="10.042911982"><ele>6</ele><time>2020-02-23T08:22:58Z</time></trkpt>
<trkpt lat="44.040561011" lon="10.042869989"><ele>6</ele><time>2020-02-23T08:22:59Z</time></trkpt>
<trkpt lat="44.040568974" lon="10.042830007"><ele>6</ele><time>2020-02-23T08:23:00Z</time></trkpt>
<trkpt lat="44.040578026" lon="10.042792037"><ele>6</ele><time>2020-02-23T08:23:01Z</time></trkpt>
<trkpt lat="44.040589007" lon="10.042757001"><ele>6</ele><time>2020-02-23T08:23:02Z</time></trkpt>
<trkpt lat="44.040599987" lon="10.04272297"><ele>6</ele><time>2020-02-23T08:23:03Z</time></trkpt>
<trkpt lat="44.040611973" lon="10.042685"><ele>6</ele><time>2020-02-23T08:23:04Z</time></trkpt>
<trkpt lat="44.040623037" lon="10.042640995"><ele>5</ele><time>2020-02-23T08:23:05Z</time></trkpt>
<trkpt lat="44.040651033" lon="10.042496994"><ele>5</ele><time>2020-02-23T08:23:08Z</time></trkpt>
<trkpt lat="44.040658996" lon="10.042449972"><ele>5</ele><time>2020-02-23T08:23:09Z</time></trkpt>
<trkpt lat="44.040666036" lon="10.042403033"><ele>5</ele><time>2020-02-23T08:23:10Z</time></trkpt>
<trkpt lat="44.040685985" lon="10.042270012"><ele>5</ele><time>2020-02-23T08:23:13Z</time></trkpt>
<trkpt lat="44.04069202" lon="10.042226007"><ele>6</ele><time>2020-02-23T08:23:14Z</time></trkpt>
<trkpt lat="44.040697971" lon="10.042184014"><ele>6</ele><time>2020-02-23T08:23:15Z</time></trkpt>
<trkpt lat="44.040704006" lon="10.042142021"><ele>6</ele><time>2020-02-23T08:23:16Z</time></trkpt>
<trkpt lat="44.040710041" lon="10.042100027"><ele>6</ele><time>2020-02-23T08:23:17Z</time></trkpt>
<trkpt lat="44.040716998" lon="10.04205904"><ele>6</ele><time>2020-02-23T08:23:18Z</time></trkpt>
<trkpt lat="44.040723033" lon="10.042018974"><ele>6</ele><time>2020-02-23T08:23:19Z</time></trkpt>
<trkpt lat="44.04072999" lon="10.041977987"><ele>6</ele><time>2020-02-23T08:23:20Z</time></trkpt>
<trkpt lat="44.040738037" lon="10.041938005"><ele>6</ele><time>2020-02-23T08:23:21Z</time></trkpt>
<trkpt lat="44.040746" lon="10.041898023"><ele>6</ele><time>2020-02-23T08:23:22Z</time></trkpt>
<trkpt lat="44.040753962" lon="10.041858042"><ele>7</ele><time>2020-02-23T08:23:23Z</time></trkpt>
<trkpt lat="44.040762009" lon="10.041818982"><ele>7</ele><time>2020-02-23T08:23:24Z</time></trkpt>
<trkpt lat="44.040770978" lon="10.041780006"><ele>7</ele><time>2020-02-23T08:23:25Z</time></trkpt>
<trkpt lat="44.04078003" lon="10.041740024"><ele>7</ele><time>2020-02-23T08:23:26Z</time></trkpt>
<trkpt lat="44.040788999" lon="10.041700965"><ele>7</ele><time>2020-02-23T08:23:27Z</time></trkpt>
<trkpt lat="44.040797967" lon="10.041661989"><ele>7</ele><time>2020-02-23T08:23:28Z</time></trkpt>
<trkpt lat="44.040808026" lon="10.041623013"><ele>7</ele><time>2020-02-23T08:23:29Z</time></trkpt>
<trkpt lat="44.040816994" lon="10.041584037"><ele>7</ele><time>2020-02-23T08:23:30Z</time></trkpt>
<trkpt lat="44.040826969" lon="10.041544978"><ele>7</ele><time>2020-02-23T08:23:31Z</time></trkpt>
<trkpt lat="44.040837027" lon="10.041506002"><ele>7</ele><time>2020-02-23T08:23:32Z</time></trkpt>
<trkpt lat="44.040847002" lon="10.041467026"><ele>7</ele><time>2020-02-23T08:23:33Z</time></trkpt>
<trkpt lat="44.040856976" lon="10.04142696"><ele>7</ele><time>2020-02-23T08:23:34Z</time></trkpt>
<trkpt lat="44.040867034" lon="10.041387985"><ele>6</ele><time>2020-02-23T08:23:35Z</time></trkpt>
<trkpt lat="44.040877009" lon="10.041348003"><ele>6</ele><time>2020-02-23T08:23:36Z</time></trkpt>
<trkpt lat="44.040886983" lon="10.041309027"><ele>6</ele><time>2020-02-23T08:23:37Z</time></trkpt>
<trkpt lat="44.040897042" lon="10.041268962"><ele>6</ele><time>2020-02-23T08:23:38Z</time></trkpt>
<trkpt lat="44.040907016" lon="10.04122898"><ele>6</ele><time>2020-02-23T08:23:39Z</time></trkpt>
<trkpt lat="44.04091699" lon="10.041187992"><ele>6</ele><time>2020-02-23T08:23:40Z</time></trkpt>
<trkpt lat="44.040926965" lon="10.041148011"><ele>6</ele><time>2020-02-23T08:23:41Z</time></trkpt>
<trkpt lat="44.040936017" lon="10.041107023"><ele>6</ele><time>2020-02-23T08:23:42Z</time></trkpt>
<trkpt lat="44.040945992" lon="10.04106503"><ele>6</ele><time>2020-02-23T08:23:43Z</time></trkpt>
<trkpt lat="44.040954961" lon="10.041023958"><ele>6</ele><time>2020-02-23T08:23:44Z</time></trkpt>
<trkpt lat="44.040964013" lon="10.040980959"><ele>5</ele><time>2020-02-23T08:23:45Z</time></trkpt>
<trkpt lat="44.040972982" lon="10.040938966"><ele>5</ele><time>2020-02-23T08:23:46Z</time></trkpt>
<trkpt lat="44.040982034" lon="10.040896973"><ele>5</ele><time>2020-02-23T08:23:47Z</time></trkpt>
<trkpt lat="44.040992009" lon="10.040854979"><ele>5</ele><time>2020-02-23T08:23:48Z</time></trkpt>
<trkpt lat="44.041001983" lon="10.040813992"><ele>5</ele><time>2020-02-23T08:23:49Z</time></trkpt>
<trkpt lat="44.041012041" lon="10.04077401"><ele>5</ele><time>2020-02-23T08:23:50Z</time></trkpt>
<trkpt lat="44.041023022" lon="10.040735034"><ele>5</ele><time>2020-02-23T08:23:51Z</time></trkpt>
<trkpt lat="44.041035008" lon="10.04069698"><ele>5</ele><time>2020-02-23T08:23:52Z</time></trkpt>
<trkpt lat="44.041046994" lon="10.040660016"><ele>5</ele><time>2020-02-23T08:23:53Z</time></trkpt>
<trkpt lat="44.04105898" lon="10.040622968"><ele>5</ele><time>2020-02-23T08:23:54Z</time></trkpt>
<trkpt lat="44.041070966" lon="10.040584998"><ele>5</ele><time>2020-02-23T08:23:55Z</time></trkpt>
<trkpt lat="44.04108203" lon="10.040548034"><ele>5</ele><time>2020-02-23T08:23:56Z</time></trkpt>
<trkpt lat="44.041092005" lon="10.04050998"><ele>5</ele><time>2020-02-23T08:23:57Z</time></trkpt>
<trkpt lat="44.041112037" lon="10.040433034"><ele>4</ele><time>2020-02-23T08:23:59Z</time></trkpt>
<trkpt lat="44.041121006" lon="10.040393975"><ele>4</ele><time>2020-02-23T08:24:00Z</time></trkpt>
<trkpt lat="44.041129975" lon="10.040353993"><ele>4</ele><time>2020-02-23T08:24:01Z</time></trkpt>
<trkpt lat="44.041138021" lon="10.040315017"><ele>4</ele><time>2020-02-23T08:24:02Z</time></trkpt>
<trkpt lat="44.041145984" lon="10.040275035"><ele>4</ele><time>2020-02-23T08:24:03Z</time></trkpt>
<trkpt lat="44.041155037" lon="10.040235976"><ele>4</ele><time>2020-02-23T08:24:04Z</time></trkpt>
<trkpt lat="44.041162999" lon="10.040195994"><ele>4</ele><time>2020-02-23T08:24:05Z</time></trkpt>
<trkpt lat="44.041189989" lon="10.040078983"><ele>4</ele><time>2020-02-23T08:24:08Z</time></trkpt>
<trkpt lat="44.041199042" lon="10.040040007"><ele>4</ele><time>2020-02-23T08:24:09Z</time></trkpt>
<trkpt lat="44.041209016" lon="10.040002037"><ele>4</ele><time>2020-02-23T08:24:10Z</time></trkpt>
<trkpt lat="44.04121899" lon="10.039963983"><ele>4</ele><time>2020-02-23T08:24:11Z</time></trkpt>
<trkpt lat="44.041229971" lon="10.039927019"><ele>4</ele><time>2020-02-23T08:24:12Z</time></trkpt>
<trkpt lat="44.041241035" lon="10.039888965"><ele>4</ele><time>2020-02-23T08:24:13Z</time></trkpt>
<trkpt lat="44.041252015" lon="10.039852001"><ele>4</ele><time>2020-02-23T08:24:14Z</time></trkpt>
<trkpt lat="44.041262995" lon="10.039814031"><ele>4</ele><time>2020-02-23T08:24:15Z</time></trkpt>
<trkpt lat="44.041274982" lon="10.039776983"><ele>4</ele><time>2020-02-23T08:24:16Z</time></trkpt>
<trkpt lat="44.041286968" lon="10.039739013"><ele>4</ele><time>2020-02-23T08:24:17Z</time></trkpt>
<trkpt lat="44.041299038" lon="10.039700959"><ele>5</ele><time>2020-02-23T08:24:18Z</time></trkpt>
<trkpt lat="44.041310018" lon="10.039662989"><ele>5</ele><time>2020-02-23T08:24:19Z</time></trkpt>
<trkpt lat="44.041322004" lon="10.039625019"><ele>5</ele><time>2020-02-23T08:24:20Z</time></trkpt>
<trkpt lat="44.04133399" lon="10.039585959"><ele>5</ele><time>2020-02-23T08:24:21Z</time></trkpt>
<trkpt lat="44.041345976" lon="10.039546983"><ele>5</ele><time>2020-02-23T08:24:22Z</time></trkpt>
<trkpt lat="44.04135704" lon="10.039509013"><ele>5</ele><time>2020-02-23T08:24:23Z</time></trkpt>
<trkpt lat="44.041368021" lon="10.039471965"><ele>5</ele><time>2020-02-23T08:24:24Z</time></trkpt>
<trkpt lat="44.041377995" lon="10.039437013"><ele>5</ele><time>2020-02-23T08:24:25Z</time></trkpt>
<trkpt lat="44.041386964" lon="10.039403988"><ele>5</ele><time>2020-02-23T08:24:26Z</time></trkpt>
<trkpt lat="44.041394005" lon="10.039375992"><ele>5</ele><time>2020-02-23T08:24:27Z</time></trkpt>
<trkpt lat="44.041399034" lon="10.039351014"><ele>5</ele><time>2020-02-23T08:24:28Z</time></trkpt>
<trkpt lat="44.041403979" lon="10.039329976"><ele>5</ele><time>2020-02-23T08:24:29Z</time></trkpt>
<trkpt lat="44.041406997" lon="10.039310027"><ele>5</ele><time>2020-02-23T08:24:30Z</time></trkpt>
<trkpt lat="44.04141102" lon="10.039289994"><ele>5</ele><time>2020-02-23T08:24:31Z</time></trkpt>
<trkpt lat="44.041414959" lon="10.039269961"><ele>5</ele><time>2020-02-23T08:24:32Z</time></trkpt>
<trkpt lat="44.041419988" lon="10.039246995"><ele>5</ele><time>2020-02-23T08:24:33Z</time></trkpt>
<trkpt lat="44.041427029" lon="10.039221011"><ele>5</ele><time>2020-02-23T08:24:34Z</time></trkpt>
<trkpt lat="44.041434992" lon="10.03919201"><ele>5</ele><time>2020-02-23T08:24:35Z</time></trkpt>
<trkpt lat="44.041469023" lon="10.039092014"><ele>6</ele><time>2020-02-23T08:24:38Z</time></trkpt>
<trkpt lat="44.041482015" lon="10.039055971"><ele>6</ele><time>2020-02-23T08:24:39Z</time></trkpt>
<trkpt lat="44.041497018" lon="10.039020013"><ele>6</ele><time>2020-02-23T08:24:40Z</time></trkpt>
<trkpt lat="44.041511016" lon="10.038983971"><ele>6</ele><time>2020-02-23T08:24:41Z</time></trkpt>
<trkpt lat="44.04152602" lon="10.038947007"><ele>6</ele><time>2020-02-23T08:24:42Z</time></trkpt>
<trkpt lat="44.041540017" lon="10.038908031"><ele>6</ele><time>2020-02-23T08:24:43Z</time></trkpt>
<trkpt lat="44.041553009" lon="10.038867965"><ele>6</ele><time>2020-02-23T08:24:44Z</time></trkpt>
<trkpt lat="44.04156399" lon="10.038824966"><ele>6</ele><time>2020-02-23T08:24:45Z</time></trkpt>
<trkpt lat="44.041573964" lon="10.038780039"><ele>6</ele><time>2020-02-23T08:24:46Z</time></trkpt>
<trkpt lat="44.041581005" lon="10.038733017"><ele>6</ele><time>2020-02-23T08:24:47Z</time></trkpt>
<trkpt lat="44.041588968" lon="10.038684988"><ele>6</ele><time>2020-02-23T08:24:48Z</time></trkpt>
<trkpt lat="44.041595003" lon="10.03863696"><ele>6</ele><time>2020-02-23T08:24:49Z</time></trkpt>
<trkpt lat="44.041602965" lon="10.038591027"><ele>6</ele><time>2020-02-23T08:24:50Z</time></trkpt>
<trkpt lat="44.041611012" lon="10.038547022"><ele>6</ele><time>2020-02-23T08:24:51Z</time></trkpt>
<trkpt lat="44.041620987" lon="10.038506035"><ele>6</ele><time>2020-02-23T08:24:52Z</time></trkpt>
<trkpt lat="44.041631967" lon="10.038466975"><ele>6</ele><time>2020-02-23T08:24:53Z</time></trkpt>
<trkpt lat="44.041644037" lon="10.038431017"><ele>6</ele><time>2020-02-23T08:24:54Z</time></trkpt>
<trkpt lat="44.041657029" lon="10.038394975"><ele>6</ele><time>2020-02-23T08:24:55Z</time></trkpt>
<trkpt lat="44.041670021" lon="10.038360022"><ele>6</ele><time>2020-02-23T08:24:56Z</time></trkpt>
<trkpt lat="44.041683013" lon="10.038324986"><ele>6</ele><time>2020-02-23T08:24:57Z</time></trkpt>
<trkpt lat="44.041696005" lon="10.038289027"><ele>6</ele><time>2020-02-23T08:24:58Z</time></trkpt>
<trkpt lat="44.041708997" lon="10.038252985"><ele>6</ele><time>2020-02-23T08:24:59Z</time></trkpt>
<trkpt lat="44.041720983" lon="10.038215015"><ele>6</ele><time>2020-02-23T08:25:00Z</time></trkpt>
<trkpt lat="44.041732969" lon="10.038176961"><ele>6</ele><time>2020-02-23T08:25:01Z</time></trkpt>
<trkpt lat="44.041745039" lon="10.038138991"><ele>6</ele><time>2020-02-23T08:25:02Z</time></trkpt>
<trkpt lat="44.041757025" lon="10.038100015"><ele>6</ele><time>2020-02-23T08:25:03Z</time></trkpt>
<trkpt lat="44.041768005" lon="10.038060034"><ele>6</ele><time>2020-02-23T08:25:04Z</time></trkpt>
<trkpt lat="44.041778985" lon="10.038019968"><ele>6</ele><time>2020-02-23T08:25:05Z</time></trkpt>
<trkpt lat="44.04178896" lon="10.037979987"><ele>6</ele><time>2020-02-23T08:25:06Z</time></trkpt>
<trkpt lat="44.041800024" lon="10.037940005"><ele>6</ele><time>2020-02-23T08:25:07Z</time></trkpt>
<trkpt lat="44.041809998" lon="10.037899017"><ele>6</ele><time>2020-02-23T08:25:08Z</time></trkpt>
<trkpt lat="44.041818967" lon="10.03785803"><ele>6</ele><time>2020-02-23T08:25:09Z</time></trkpt>
<trkpt lat="44.041829025" lon="10.037817964"><ele>6</ele><time>2020-02-23T08:25:10Z</time></trkpt>
<trkpt lat="44.041837994" lon="10.037776977"><ele>6</ele><time>2020-02-23T08:25:11Z</time></trkpt>
<trkpt lat="44.041846963" lon="10.037736995"><ele>6</ele><time>2020-02-23T08:25:12Z</time></trkpt>
<trkpt lat="44.041855009" lon="10.037696008"><ele>6</ele><time>2020-02-23T08:25:13Z</time></trkpt>
<trkpt lat="44.041863978" lon="10.037656026"><ele>6</ele><time>2020-02-23T08:25:14Z</time></trkpt>
<trkpt lat="44.041872025" lon="10.037615038"><ele>6</ele><time>2020-02-23T08:25:15Z</time></trkpt>
<trkpt lat="44.041879987" lon="10.037573967"><ele>6</ele><time>2020-02-23T08:25:16Z</time></trkpt>
<trkpt lat="44.041888034" lon="10.037533985"><ele>6</ele><time>2020-02-23T08:25:17Z</time></trkpt>
<trkpt lat="44.041895997" lon="10.037492998"><ele>6</ele><time>2020-02-23T08:25:18Z</time></trkpt>
<trkpt lat="44.04190396" lon="10.03745201"><ele>6</ele><time>2020-02-23T08:25:19Z</time></trkpt>
<trkpt lat="44.041911" lon="10.037411023"><ele>6</ele><time>2020-02-23T08:25:20Z</time></trkpt>
<trkpt lat="44.041918963" lon="10.03736903"><ele>6</ele><time>2020-02-23T08:25:21Z</time></trkpt>
<trkpt lat="44.04192701" lon="10.037327958"><ele>6</ele><time>2020-02-23T08:25:22Z</time></trkpt>
<trkpt lat="44.041934973" lon="10.037285965"><ele>6</ele><time>2020-02-23T08:25:23Z</time></trkpt>
<trkpt lat="44.041944025" lon="10.037243972"><ele>6</ele><time>2020-02-23T08:25:24Z</time></trkpt>
<trkpt lat="44.041951988" lon="10.037201978"><ele>5</ele><time>2020-02-23T08:25:25Z</time></trkpt>
<trkpt lat="44.041960035" lon="10.037159985"><ele>5</ele><time>2020-02-23T08:25:26Z</time></trkpt>
<trkpt lat="44.041969003" lon="10.037117992"><ele>5</ele><time>2020-02-23T08:25:27Z</time></trkpt>
<trkpt lat="44.041977972" lon="10.037075998"><ele>5</ele><time>2020-02-23T08:25:28Z</time></trkpt>
<trkpt lat="44.041987024" lon="10.037034005"><ele>5</ele><time>2020-02-23T08:25:29Z</time></trkpt>
<trkpt lat="44.041996999" lon="10.036992012"><ele>5</ele><time>2020-02-23T08:25:30Z</time></trkpt>
<trkpt lat="44.042005967" lon="10.036951024"><ele>5</ele><time>2020-02-23T08:25:31Z</time></trkpt>
<trkpt lat="44.042016026" lon="10.036910037"><ele>5</ele><time>2020-02-23T08:25:32Z</time></trkpt>
<trkpt lat="44.042027006" lon="10.036868965"><ele>5</ele><time>2020-02-23T08:25:33Z</time></trkpt>
<trkpt lat="44.042037986" lon="10.036829989"><ele>5</ele><time>2020-02-23T08:25:34Z</time></trkpt>
<trkpt lat="44.042048967" lon="10.036790008"><ele>6</ele><time>2020-02-23T08:25:35Z</time></trkpt>
<trkpt lat="44.042060031" lon="10.036751032"><ele>6</ele><time>2020-02-23T08:25:36Z</time></trkpt>
<trkpt lat="44.042072017" lon="10.036712978"><ele>6</ele><time>2020-02-23T08:25:37Z</time></trkpt>
<trkpt lat="44.042084003" lon="10.036674002"><ele>6</ele><time>2020-02-23T08:25:38Z</time></trkpt>
<trkpt lat="44.042095989" lon="10.036637038"><ele>6</ele><time>2020-02-23T08:25:39Z</time></trkpt>
<trkpt lat="44.042108981" lon="10.036598984"><ele>6</ele><time>2020-02-23T08:25:40Z</time></trkpt>
<trkpt lat="44.042120967" lon="10.036561014"><ele>6</ele><time>2020-02-23T08:25:41Z</time></trkpt>
<trkpt lat="44.042133959" lon="10.036523966"><ele>6</ele><time>2020-02-23T08:25:42Z</time></trkpt>
<trkpt lat="44.042147035" lon="10.036485996"><ele>6</ele><time>2020-02-23T08:25:43Z</time></trkpt>
<trkpt lat="44.042160027" lon="10.036448026"><ele>6</ele><time>2020-02-23T08:25:44Z</time></trkpt>
<trkpt lat="44.042173019" lon="10.036409972"><ele>6</ele><time>2020-02-23T08:25:45Z</time></trkpt>
<trkpt lat="44.042185005" lon="10.036372002"><ele>6</ele><time>2020-02-23T08:25:46Z</time></trkpt>
<trkpt lat="44.042197997" lon="10.036334032"><ele>6</ele><time>2020-02-23T08:25:47Z</time></trkpt>
<trkpt lat="44.042210989" lon="10.036294973"><ele>6</ele><time>2020-02-23T08:25:48Z</time></trkpt>
<trkpt lat="44.042223981" lon="10.036255997"><ele>6</ele><time>2020-02-23T08:25:49Z</time></trkpt>
<trkpt lat="44.042235967" lon="10.036216015"><ele>6</ele><time>2020-02-23T08:25:50Z</time></trkpt>
<trkpt lat="44.042248037" lon="10.036176033"><ele>5</ele><time>2020-02-23T08:25:51Z</time></trkpt>
<trkpt lat="44.042260023" lon="10.036135968"><ele>5</ele><time>2020-02-23T08:25:52Z</time></trkpt>
<trkpt lat="44.042271003" lon="10.036095986"><ele>5</ele><time>2020-02-23T08:25:53Z</time></trkpt>
<trkpt lat="44.042281983" lon="10.036056004"><ele>5</ele><time>2020-02-23T08:25:54Z</time></trkpt>
<trkpt lat="44.042292042" lon="10.036015017"><ele>5</ele><time>2020-02-23T08:25:55Z</time></trkpt>
<trkpt lat="44.042302016" lon="10.035975035"><ele>5</ele><time>2020-02-23T08:25:56Z</time></trkpt>
<trkpt lat="44.042310985" lon="10.035933964"><ele>5</ele><time>2020-02-23T08:25:57Z</time></trkpt>
<trkpt lat="44.042319031" lon="10.035892976"><ele>5</ele><time>2020-02-23T08:25:58Z</time></trkpt>
<trkpt lat="44.042326994" lon="10.035851989"><ele>5</ele><time>2020-02-23T08:25:59Z</time></trkpt>
<trkpt lat="44.042334035" lon="10.035811001"><ele>5</ele><time>2020-02-23T08:26:00Z</time></trkpt>
<trkpt lat="44.042339986" lon="10.035770014"><ele>5</ele><time>2020-02-23T08:26:01Z</time></trkpt>
<trkpt lat="44.042347027" lon="10.035729026"><ele>5</ele><time>2020-02-23T08:26:02Z</time></trkpt>
<trkpt lat="44.042352978" lon="10.035688039"><ele>5</ele><time>2020-02-23T08:26:03Z</time></trkpt>
<trkpt lat="44.042360019" lon="10.035646968"><ele>5</ele><time>2020-02-23T08:26:04Z</time></trkpt>
<trkpt lat="44.042366976" lon="10.03560598"><ele>5</ele><time>2020-02-23T08:26:05Z</time></trkpt>
<trkpt lat="44.042374017" lon="10.035565998"><ele>5</ele><time>2020-02-23T08:26:06Z</time></trkpt>
<trkpt lat="44.04238198" lon="10.035525011"><ele>5</ele><time>2020-02-23T08:26:07Z</time></trkpt>
<trkpt lat="44.042392038" lon="10.035485029"><ele>5</ele><time>2020-02-23T08:26:08Z</time></trkpt>
<trkpt lat="44.042402012" lon="10.035444964"><ele>5</ele><time>2020-02-23T08:26:09Z</time></trkpt>
<trkpt lat="44.042412993" lon="10.035405988"><ele>6</ele><time>2020-02-23T08:26:10Z</time></trkpt>
<trkpt lat="44.042425985" lon="10.035367012"><ele>6</ele><time>2020-02-23T08:26:11Z</time></trkpt>
<trkpt lat="44.042439982" lon="10.035328036"><ele>6</ele><time>2020-02-23T08:26:12Z</time></trkpt>
<trkpt lat="44.042454986" lon="10.035289982"><ele>6</ele><time>2020-02-23T08:26:13Z</time></trkpt>
<trkpt lat="44.04246999" lon="10.035252012"><ele>6</ele><time>2020-02-23T08:26:14Z</time></trkpt>
<trkpt lat="44.042485999" lon="10.035213958"><ele>6</ele><time>2020-02-23T08:26:15Z</time></trkpt>
<trkpt lat="44.042499997" lon="10.035175988"><ele>6</ele><time>2020-02-23T08:26:16Z</time></trkpt>
<trkpt lat="44.042515" lon="10.035139024"><ele>6</ele><time>2020-02-23T08:26:17Z</time></trkpt>
<trkpt lat="44.042527992" lon="10.035101976"><ele>6</ele><time>2020-02-23T08:26:18Z</time></trkpt>
<trkpt lat="44.042540984" lon="10.035065012"><ele>6</ele><time>2020-02-23T08:26:19Z</time></trkpt>
<trkpt lat="44.042553976" lon="10.035027964"><ele>6</ele><time>2020-02-23T08:26:20Z</time></trkpt>
<trkpt lat="44.042565962" lon="10.034992006"><ele>6</ele><time>2020-02-23T08:26:21Z</time></trkpt>
<trkpt lat="44.042577026" lon="10.034955963"><ele>6</ele><time>2020-02-23T08:26:22Z</time></trkpt>
<trkpt lat="44.042589013" lon="10.034920005"><ele>6</ele><time>2020-02-23T08:26:23Z</time></trkpt>
<trkpt lat="44.04260301" lon="10.034885975"><ele>6</ele><time>2020-02-23T08:26:24Z</time></trkpt>
<trkpt lat="44.042620026" lon="10.034854962"><ele>6</ele><time>2020-02-23T08:26:25Z</time></trkpt>
<trkpt lat="44.042642992" lon="10.034826966"><ele>6</ele><time>2020-02-23T08:26:26Z</time></trkpt>
<trkpt lat="44.04266797" lon="10.034800982"><ele>6</ele><time>2020-02-23T08:26:27Z</time></trkpt>
<trkpt lat="44.042690014" lon="10.034770975"><ele>6</ele><time>2020-02-23T08:26:28Z</time></trkpt>
<trkpt lat="44.042706024" lon="10.034735017"><ele>6</ele><time>2020-02-23T08:26:29Z</time></trkpt>
<trkpt lat="44.042717004" lon="10.034693023"><ele>6</ele><time>2020-02-23T08:26:30Z</time></trkpt>
<trkpt lat="44.042723961" lon="10.034647007"><ele>7</ele><time>2020-02-23T08:26:31Z</time></trkpt>
<trkpt lat="44.04272899" lon="10.034597972"><ele>7</ele><time>2020-02-23T08:26:32Z</time></trkpt>
<trkpt lat="44.042737037" lon="10.034447014"><ele>7</ele><time>2020-02-23T08:26:35Z</time></trkpt>
<trkpt lat="44.042741982" lon="10.03439798"><ele>7</ele><time>2020-02-23T08:26:36Z</time></trkpt>
<trkpt lat="44.042747011" lon="10.034351042"><ele>7</ele><time>2020-02-23T08:26:37Z</time></trkpt>
<trkpt lat="44.042752963" lon="10.034304019"><ele>7</ele><time>2020-02-23T08:26:38Z</time></trkpt>
<trkpt lat="44.042760003" lon="10.034259008"><ele>7</ele><time>2020-02-23T08:26:39Z</time></trkpt>
<trkpt lat="44.042767966" lon="10.034213997"><ele>7</ele><time>2020-02-23T08:26:40Z</time></trkpt>
<trkpt lat="44.042776013" lon="10.034169992"><ele>7</ele><time>2020-02-23T08:26:41Z</time></trkpt>
<trkpt lat="44.042783976" lon="10.034126993"><ele>7</ele><time>2020-02-23T08:26:42Z</time></trkpt>
<trkpt lat="44.042793028" lon="10.034083994"><ele>7</ele><time>2020-02-23T08:26:43Z</time></trkpt>
<trkpt lat="44.042803003" lon="10.034042001"><ele>8</ele><time>2020-02-23T08:26:44Z</time></trkpt>
<trkpt lat="44.042811971" lon="10.034000007"><ele>8</ele><time>2020-02-23T08:26:45Z</time></trkpt>
<trkpt lat="44.042822029" lon="10.03395902"><ele>8</ele><time>2020-02-23T08:26:46Z</time></trkpt>
<trkpt lat="44.042832004" lon="10.033918032"><ele>8</ele><time>2020-02-23T08:26:47Z</time></trkpt>
<trkpt lat="44.042842984" lon="10.033876961"><ele>8</ele><time>2020-02-23T08:26:48Z</time></trkpt>
<trkpt lat="44.042852959" lon="10.033835974"><ele>8</ele><time>2020-02-23T08:26:49Z</time></trkpt>
<trkpt lat="44.042863017" lon="10.033795992"><ele>8</ele><time>2020-02-23T08:26:50Z</time></trkpt>
<trkpt lat="44.042872991" lon="10.033755004"><ele>8</ele><time>2020-02-23T08:26:51Z</time></trkpt>
<trkpt lat="44.042882966" lon="10.033715023"><ele>8</ele><time>2020-02-23T08:26:52Z</time></trkpt>
<trkpt lat="44.04289403" lon="10.033675041"><ele>8</ele><time>2020-02-23T08:26:53Z</time></trkpt>
<trkpt lat="44.042904004" lon="10.033634976"><ele>8</ele><time>2020-02-23T08:26:54Z</time></trkpt>
<trkpt lat="44.042914985" lon="10.033594994"><ele>8</ele><time>2020-02-23T08:26:55Z</time></trkpt>
<trkpt lat="44.042924959" lon="10.033555012"><ele>8</ele><time>2020-02-23T08:26:56Z</time></trkpt>
<trkpt lat="44.042936023" lon="10.033515031"><ele>8</ele><time>2020-02-23T08:26:57Z</time></trkpt>
<trkpt lat="44.042947004" lon="10.033474965"><ele>8</ele><time>2020-02-23T08:26:58Z</time></trkpt>
<trkpt lat="44.042957984" lon="10.033434983"><ele>8</ele><time>2020-02-23T08:26:59Z</time></trkpt>
<trkpt lat="44.042968964" lon="10.033396007"><ele>8</ele><time>2020-02-23T08:27:00Z</time></trkpt>
<trkpt lat="44.042980028" lon="10.033356026"><ele>8</ele><time>2020-02-23T08:27:01Z</time></trkpt>
<trkpt lat="44.042991009" lon="10.03331596"><ele>8</ele><time>2020-02-23T08:27:02Z</time></trkpt>
<trkpt lat="44.043001989" lon="10.033276984"><ele>8</ele><time>2020-02-23T08:27:03Z</time></trkpt>
<trkpt lat="44.043012969" lon="10.033237003"><ele>8</ele><time>2020-02-23T08:27:04Z</time></trkpt>
<trkpt lat="44.043024033" lon="10.033197021"><ele>8</ele><time>2020-02-23T08:27:05Z</time></trkpt>
<trkpt lat="44.043036019" lon="10.033157961"><ele>8</ele><time>2020-02-23T08:27:06Z</time></trkpt>
<trkpt lat="44.043047" lon="10.03311798"><ele>8</ele><time>2020-02-23T08:27:07Z</time></trkpt>
<trkpt lat="44.04305798" lon="10.033077998"><ele>8</ele><time>2020-02-23T08:27:08Z</time></trkpt>
<trkpt lat="44.043069966" lon="10.033039022"><ele>8</ele><time>2020-02-23T08:27:09Z</time></trkpt>
<trkpt lat="44.04308103" lon="10.032999041"><ele>8</ele><time>2020-02-23T08:27:10Z</time></trkpt>
<trkpt lat="44.043092011" lon="10.032959981"><ele>8</ele><time>2020-02-23T08:27:11Z</time></trkpt>
<trkpt lat="44.043102991" lon="10.032919999"><ele>8</ele><time>2020-02-23T08:27:12Z</time></trkpt>
<trkpt lat="44.043113971" lon="10.032880018"><ele>8</ele><time>2020-02-23T08:27:13Z</time></trkpt>
<trkpt lat="44.043125035" lon="10.032841042"><ele>7</ele><time>2020-02-23T08:27:14Z</time></trkpt>
<trkpt lat="44.043136016" lon="10.032800976"><ele>7</ele><time>2020-02-23T08:27:15Z</time></trkpt>
<trkpt lat="44.043146996" lon="10.032760995"><ele>7</ele><time>2020-02-23T08:27:16Z</time></trkpt>
<trkpt lat="44.043157976" lon="10.032721013"><ele>7</ele><time>2020-02-23T08:27:17Z</time></trkpt>
<trkpt lat="44.043168034" lon="10.032682037"><ele>7</ele><time>2020-02-23T08:27:18Z</time></trkpt>
<trkpt lat="44.043179015" lon="10.032641971"><ele>7</ele><time>2020-02-23T08:27:19Z</time></trkpt>
<trkpt lat="44.043188989" lon="10.03260199"><ele>7</ele><time>2020-02-23T08:27:20Z</time></trkpt>
<trkpt lat="44.043199969" lon="10.032562008"><ele>7</ele><time>2020-02-23T08:27:21Z</time></trkpt>
<trkpt lat="44.043210028" lon="10.032522026"><ele>7</ele><time>2020-02-23T08:27:22Z</time></trkpt>
<trkpt lat="44.043220002" lon="10.032481961"><ele>7</ele><time>2020-02-23T08:27:23Z</time></trkpt>
<trkpt lat="44.043228971" lon="10.032440973"><ele>7</ele><time>2020-02-23T08:27:24Z</time></trkpt>
<trkpt lat="44.043239029" lon="10.032400992"><ele>7</ele><time>2020-02-23T08:27:25Z</time></trkpt>
<trkpt lat="44.043247998" lon="10.03236101"><ele>6</ele><time>2020-02-23T08:27:26Z</time></trkpt>
<trkpt lat="44.043257972" lon="10.032321028"><ele>6</ele><time>2020-02-23T08:27:27Z</time></trkpt>
<trkpt lat="44.043267025" lon="10.032281969"><ele>6</ele><time>2020-02-23T08:27:28Z</time></trkpt>
<trkpt lat="44.043275993" lon="10.032241987"><ele>6</ele><time>2020-02-23T08:27:29Z</time></trkpt>
<trkpt lat="44.043284962" lon="10.032203011"><ele>6</ele><time>2020-02-23T08:27:30Z</time></trkpt>
<trkpt lat="44.043293009" lon="10.032165041"><ele>6</ele><time>2020-02-23T08:27:31Z</time></trkpt>
<trkpt lat="44.043301977" lon="10.032126987"><ele>6</ele><time>2020-02-23T08:27:32Z</time></trkpt>
<trkpt lat="44.04331103" lon="10.032089017"><ele>6</ele><time>2020-02-23T08:27:33Z</time></trkpt>
<trkpt lat="44.043318992" lon="10.032051969"><ele>6</ele><time>2020-02-23T08:27:34Z</time></trkpt>
<trkpt lat="44.043327961" lon="10.032016011"><ele>6</ele><time>2020-02-23T08:27:35Z</time></trkpt>
<trkpt lat="44.043336008" lon="10.031980975"><ele>6</ele><time>2020-02-23T08:27:36Z</time></trkpt>
<trkpt lat="44.043343971" lon="10.031947028"><ele>6</ele><time>2020-02-23T08:27:37Z</time></trkpt>
<trkpt lat="44.043350006" lon="10.031914003"><ele>6</ele><time>2020-02-23T08:27:38Z</time></trkpt>
<trkpt lat="44.043354029" lon="10.031881984"><ele>6</ele><time>2020-02-23T08:27:39Z</time></trkpt>
<trkpt lat="44.043353023" lon="10.031852983"><ele>5</ele><time>2020-02-23T08:27:40Z</time></trkpt>
<trkpt lat="44.043344976" lon="10.031825993"><ele>5</ele><time>2020-02-23T08:27:41Z</time></trkpt>
<trkpt lat="44.043330979" lon="10.031803027"><ele>5</ele><time>2020-02-23T08:27:42Z</time></trkpt>
<trkpt lat="44.043307006" lon="10.031782994"><ele>5</ele><time>2020-02-23T08:27:43Z</time></trkpt>
<trkpt lat="44.043278005" lon="10.031764973"><ele>5</ele><time>2020-02-23T08:27:44Z</time></trkpt>
<trkpt lat="44.043245986" lon="10.031748964"><ele>5</ele><time>2020-02-23T08:27:45Z</time></trkpt>
<trkpt lat="44.043212961" lon="10.031734966"><ele>5</ele><time>2020-02-23T08:27:46Z</time></trkpt>
<trkpt lat="44.043152025" lon="10.031716023"><ele>5</ele><time>2020-02-23T08:27:48Z</time></trkpt>
<trkpt lat="44.043124029" lon="10.031709988"><ele>5</ele><time>2020-02-23T08:27:49Z</time></trkpt>
<trkpt lat="44.04309704" lon="10.031704959"><ele>5</ele><time>2020-02-23T08:27:50Z</time></trkpt>
<trkpt lat="44.043069966" lon="10.031700013"><ele>5</ele><time>2020-02-23T08:27:51Z</time></trkpt>
<trkpt lat="44.043042976" lon="10.031693978"><ele>5</ele><time>2020-02-23T08:27:52Z</time></trkpt>
<trkpt lat="44.043016993" lon="10.031686015"><ele>5</ele><time>2020-02-23T08:27:53Z</time></trkpt>
<trkpt lat="44.042991009" lon="10.031676041"><ele>5</ele><time>2020-02-23T08:27:54Z</time></trkpt>
<trkpt lat="44.042937029" lon="10.031647962"><ele>5</ele><time>2020-02-23T08:27:56Z</time></trkpt>
<trkpt lat="44.042909034" lon="10.03163103"><ele>5</ele><time>2020-02-23T08:27:57Z</time></trkpt>
<trkpt lat="44.04288196" lon="10.031615021"><ele>5</ele><time>2020-02-23T08:27:58Z</time></trkpt>
<trkpt lat="44.042853964" lon="10.031599011"><ele>5</ele><time>2020-02-23T08:27:59Z</time></trkpt>
<trkpt lat="44.042825969" lon="10.031585013"><ele>5</ele><time>2020-02-23T08:28:00Z</time></trkpt>
<trkpt lat="44.042797973" lon="10.031574033"><ele>5</ele><time>2020-02-23T08:28:01Z</time></trkpt>
<trkpt lat="44.042770984" lon="10.031564981"><ele>5</ele><time>2020-02-23T08:28:02Z</time></trkpt>
<trkpt lat="44.042742988" lon="10.031557018"><ele>5</ele><time>2020-02-23T08:28:03Z</time></trkpt>
<trkpt lat="44.042714993" lon="10.031549977"><ele>5</ele><time>2020-02-23T08:28:04Z</time></trkpt>
<trkpt lat="44.042685991" lon="10.031544026"><ele>5</ele><time>2020-02-23T08:28:05Z</time></trkpt>
<trkpt lat="44.042657996" lon="10.031536985"><ele>5</ele><time>2020-02-23T08:28:06Z</time></trkpt>
<trkpt lat="44.042627988" lon="10.031529022"><ele>5</ele><time>2020-02-23T08:28:07Z</time></trkpt>
<trkpt lat="44.042598987" lon="10.031518964"><ele>5</ele><time>2020-02-23T08:28:08Z</time></trkpt>
<trkpt lat="44.04256898" lon="10.03150899"><ele>5</ele><time>2020-02-23T08:28:09Z</time></trkpt>
<trkpt lat="44.042537967" lon="10.031497004"><ele>5</ele><time>2020-02-23T08:28:10Z</time></trkpt>
<trkpt lat="44.042507038" lon="10.031484012"><ele>5</ele><time>2020-02-23T08:28:11Z</time></trkpt>
<trkpt lat="44.042475019" lon="10.031469008"><ele>5</ele><time>2020-02-23T08:28:12Z</time></trkpt>
<trkpt lat="44.042441994" lon="10.031452999"><ele>5</ele><time>2020-02-23T08:28:13Z</time></trkpt>
<trkpt lat="44.042341998" lon="10.031399019"><ele>5</ele><time>2020-02-23T08:28:16Z</time></trkpt>
<trkpt lat="44.042309979" lon="10.031380998"><ele>5</ele><time>2020-02-23T08:28:17Z</time></trkpt>
<trkpt lat="44.042278966" lon="10.031362977"><ele>5</ele><time>2020-02-23T08:28:18Z</time></trkpt>
<trkpt lat="44.042248959" lon="10.031346967"><ele>5</ele><time>2020-02-23T08:28:19Z</time></trkpt>
<trkpt lat="44.042135971" lon="10.031288965"><ele>5</ele><time>2020-02-23T08:28:23Z</time></trkpt>
<trkpt lat="44.042104036" lon="10.031274967"><ele>5</ele><time>2020-02-23T08:28:24Z</time></trkpt>
<trkpt lat="44.042072017" lon="10.031260969"><ele>5</ele><time>2020-02-23T08:28:25Z</time></trkpt>
<trkpt lat="44.042039998" lon="10.031246971"><ele>5</ele><time>2020-02-23T08:28:26Z</time></trkpt>
<trkpt lat="44.042008985" lon="10.031233979"><ele>5</ele><time>2020-02-23T08:28:27Z</time></trkpt>
<trkpt lat="44.041976966" lon="10.031220987"><ele>5</ele><time>2020-02-23T08:28:28Z</time></trkpt>
<trkpt lat="44.041945031" lon="10.031209001"><ele>5</ele><time>2020-02-23T08:28:29Z</time></trkpt>
<trkpt lat="44.041914018" lon="10.031196009"><ele>5</ele><time>2020-02-23T08:28:30Z</time></trkpt>
<trkpt lat="44.041883005" lon="10.031184023"><ele>5</ele><time>2020-02-23T08:28:31Z</time></trkpt>
<trkpt lat="44.041852998" lon="10.031171031"><ele>5</ele><time>2020-02-23T08:28:32Z</time></trkpt>
<trkpt lat="44.041823996" lon="10.031158961"><ele>5</ele><time>2020-02-23T08:28:33Z</time></trkpt>
<trkpt lat="44.041794995" lon="10.031145969"><ele>5</ele><time>2020-02-23T08:28:34Z</time></trkpt>
<trkpt lat="44.041766999" lon="10.031133983"><ele>5</ele><time>2020-02-23T08:28:35Z</time></trkpt>
<trkpt lat="44.04174001" lon="10.031120991"><ele>5</ele><time>2020-02-23T08:28:36Z</time></trkpt>
<trkpt lat="44.041714026" lon="10.031106994"><ele>5</ele><time>2020-02-23T08:28:37Z</time></trkpt>
<trkpt lat="44.041688964" lon="10.031092996"><ele>5</ele><time>2020-02-23T08:28:38Z</time></trkpt>
<trkpt lat="44.041664992" lon="10.031078998"><ele>5</ele><time>2020-02-23T08:28:39Z</time></trkpt>
<trkpt lat="44.041641019" lon="10.031065"><ele>5</ele><time>2020-02-23T08:28:40Z</time></trkpt>
<trkpt lat="44.041616041" lon="10.031051002"><ele>5</ele><time>2020-02-23T08:28:41Z</time></trkpt>
<trkpt lat="44.041590979" lon="10.03103801"><ele>5</ele><time>2020-02-23T08:28:42Z</time></trkpt>
<trkpt lat="44.04156399" lon="10.031024013"><ele>5</ele><time>2020-02-23T08:28:43Z</time></trkpt>
<trkpt lat="44.041534988" lon="10.031012027"><ele>5</ele><time>2020-02-23T08:28:44Z</time></trkpt>
<trkpt lat="44.041504981" lon="10.03100004"><ele>5</ele><time>2020-02-23T08:28:45Z</time></trkpt>
<trkpt lat="44.041473968" lon="10.030987971"><ele>5</ele><time>2020-02-23T08:28:46Z</time></trkpt>
<trkpt lat="44.041442033" lon="10.03097699"><ele>5</ele><time>2020-02-23T08:28:47Z</time></trkpt>
<trkpt lat="44.041410014" lon="10.03096601"><ele>5</ele><time>2020-02-23T08:28:48Z</time></trkpt>
<trkpt lat="44.041377995" lon="10.030956035"><ele>5</ele><time>2020-02-23T08:28:49Z</time></trkpt>
<trkpt lat="44.041346982" lon="10.030944971"><ele>5</ele><time>2020-02-23T08:28:50Z</time></trkpt>
<trkpt lat="44.041316975" lon="10.030934997"><ele>5</ele><time>2020-02-23T08:28:51Z</time></trkpt>
<trkpt lat="44.041286968" lon="10.030925022"><ele>5</ele><time>2020-02-23T08:28:52Z</time></trkpt>
<trkpt lat="44.04125696" lon="10.030916976"><ele>5</ele><time>2020-02-23T08:28:53Z</time></trkpt>
<trkpt lat="44.041227959" lon="10.030909013"><ele>5</ele><time>2020-02-23T08:28:54Z</time></trkpt>
<trkpt lat="44.04119703" lon="10.030902978"><ele>5</ele><time>2020-02-23T08:28:55Z</time></trkpt>
<trkpt lat="44.041167023" lon="10.030898033"><ele>5</ele><time>2020-02-23T08:28:56Z</time></trkpt>
<trkpt lat="44.041077001" lon="10.030882023"><ele>5</ele><time>2020-02-23T08:28:59Z</time></trkpt>
<trkpt lat="44.041048" lon="10.030875988"><ele>5</ele><time>2020-02-23T08:29:00Z</time></trkpt>
<trkpt lat="44.040991003" lon="10.030873977"><ele>5</ele><time>2020-02-23T08:29:02Z</time></trkpt>
<trkpt lat="44.040963007" lon="10.030882023"><ele>5</ele><time>2020-02-23T08:29:03Z</time></trkpt>
<trkpt lat="44.040937023" lon="10.030895015"><ele>5</ele><time>2020-02-23T08:29:04Z</time></trkpt>
<trkpt lat="44.040911961" lon="10.030913036"><ele>5</ele><time>2020-02-23T08:29:05Z</time></trkpt>
<trkpt lat="44.040887989" lon="10.030933991"><ele>5</ele><time>2020-02-23T08:29:06Z</time></trkpt>
<trkpt lat="44.040865023" lon="10.030959975"><ele>5</ele><time>2020-02-23T08:29:07Z</time></trkpt>
<trkpt lat="44.040842978" lon="10.030987971"><ele>5</ele><time>2020-02-23T08:29:08Z</time></trkpt>
<trkpt lat="44.040823029" lon="10.031018984"><ele>5</ele><time>2020-02-23T08:29:09Z</time></trkpt>
<trkpt lat="44.040804002" lon="10.031052008"><ele>5</ele><time>2020-02-23T08:29:10Z</time></trkpt>
<trkpt lat="44.040784976" lon="10.031086039"><ele>5</ele><time>2020-02-23T08:29:11Z</time></trkpt>
<trkpt lat="44.040767038" lon="10.031119986"><ele>5</ele><time>2020-02-23T08:29:12Z</time></trkpt>
<trkpt lat="44.040750023" lon="10.031155022"><ele>5</ele><time>2020-02-23T08:29:13Z</time></trkpt>
<trkpt lat="44.040733008" lon="10.031189974"><ele>5</ele><time>2020-02-23T08:29:14Z</time></trkpt>
<trkpt lat="44.040715992" lon="10.031222999"><ele>5</ele><time>2020-02-23T08:29:15Z</time></trkpt>
<trkpt lat="44.040697971" lon="10.031256024"><ele>5</ele><time>2020-02-23T08:29:16Z</time></trkpt>
<trkpt lat="44.04068104" lon="10.031287959"><ele>5</ele><time>2020-02-23T08:29:17Z</time></trkpt>
<trkpt lat="44.040663019" lon="10.031318972"><ele>5</ele><time>2020-02-23T08:29:18Z</time></trkpt>
<trkpt lat="44.040646004" lon="10.031349985"><ele>5</ele><time>2020-02-23T08:29:19Z</time></trkpt>
<trkpt lat="44.040627982" lon="10.031380998"><ele>5</ele><time>2020-02-23T08:29:20Z</time></trkpt>
<trkpt lat="44.040610967" lon="10.031412011"><ele>5</ele><time>2020-02-23T08:29:21Z</time></trkpt>
<trkpt lat="44.04059303" lon="10.031443024"><ele>5</ele><time>2020-02-23T08:29:22Z</time></trkpt>
<trkpt lat="44.040576015" lon="10.031474037"><ele>6</ele><time>2020-02-23T08:29:23Z</time></trkpt>
<trkpt lat="44.040558999" lon="10.031505972"><ele>6</ele><time>2020-02-23T08:29:24Z</time></trkpt>
<trkpt lat="44.040540978" lon="10.031538997"><ele>6</ele><time>2020-02-23T08:29:25Z</time></trkpt>
<trkpt lat="44.040523963" lon="10.031572022"><ele>6</ele><time>2020-02-23T08:29:26Z</time></trkpt>
<trkpt lat="44.040507032" lon="10.031605968"><ele>6</ele><time>2020-02-23T08:29:27Z</time></trkpt>
<trkpt lat="44.040490016" lon="10.031641005"><ele>6</ele><time>2020-02-23T08:29:28Z</time></trkpt>
<trkpt lat="44.040473001" lon="10.031676963"><ele>6</ele><time>2020-02-23T08:29:29Z</time></trkpt>
<trkpt lat="44.040456992" lon="10.031714011"><ele>6</ele><time>2020-02-23T08:29:30Z</time></trkpt>
<trkpt lat="44.040408963" lon="10.031826999"><ele>5</ele><time>2020-02-23T08:29:33Z</time></trkpt>
<trkpt lat="44.040393038" lon="10.031865975"><ele>5</ele><time>2020-02-23T08:29:34Z</time></trkpt>
<trkpt lat="44.04037904" lon="10.031904029"><ele>5</ele><time>2020-02-23T08:29:35Z</time></trkpt>
<trkpt lat="44.040364036" lon="10.031943005"><ele>5</ele><time>2020-02-23T08:29:36Z</time></trkpt>
<trkpt lat="44.040350039" lon="10.03198198"><ele>5</ele><time>2020-02-23T08:29:37Z</time></trkpt>
<trkpt lat="44.040336963" lon="10.03202104"><ele>5</ele><time>2020-02-23T08:29:38Z</time></trkpt>
<trkpt lat="44.040323971" lon="10.032060016"><ele>5</ele><time>2020-02-23T08:29:39Z</time></trkpt>
<trkpt lat="44.040311985" lon="10.032097986"><ele>5</ele><time>2020-02-23T08:29:40Z</time></trkpt>
<trkpt lat="44.040299999" lon="10.032136962"><ele>5</ele><time>2020-02-23T08:29:41Z</time></trkpt>
<trkpt lat="44.040288012" lon="10.032175016"><ele>5</ele><time>2020-02-23T08:29:42Z</time></trkpt>
<trkpt lat="44.040276026" lon="10.032212986"><ele>5</ele><time>2020-02-23T08:29:43Z</time></trkpt>
<trkpt lat="44.04026404" lon="10.032251962"><ele>5</ele><time>2020-02-23T08:29:44Z</time></trkpt>
<trkpt lat="44.040252976" lon="10.032290015"><ele>5</ele><time>2020-02-23T08:29:45Z</time></trkpt>
<trkpt lat="44.040239984" lon="10.032328991"><ele>5</ele><time>2020-02-23T08:29:46Z</time></trkpt>
<trkpt lat="44.040227998" lon="10.032366961"><ele>5</ele><time>2020-02-23T08:29:47Z</time></trkpt>
<trkpt lat="44.040215006" lon="10.032406021"><ele>5</ele><time>2020-02-23T08:29:48Z</time></trkpt>
<trkpt lat="44.040201008" lon="10.032444997"><ele>5</ele><time>2020-02-23T08:29:49Z</time></trkpt>
<trkpt lat="44.040187011" lon="10.032483973"><ele>5</ele><time>2020-02-23T08:29:50Z</time></trkpt>
<trkpt lat="44.040171001" lon="10.032523032"><ele>4</ele><time>2020-02-23T08:29:51Z</time></trkpt>
<trkpt lat="44.040154992" lon="10.032562008"><ele>4</ele><time>2020-02-23T08:29:52Z</time></trkpt>
<trkpt lat="44.040139988" lon="10.032600984"><ele>4</ele><time>2020-02-23T08:29:53Z</time></trkpt>
<trkpt lat="44.040124984" lon="10.03263996"><ele>4</ele><time>2020-02-23T08:29:54Z</time></trkpt>
<trkpt lat="44.040110987" lon="10.032679019"><ele>4</ele><time>2020-02-23T08:29:55Z</time></trkpt>
<trkpt lat="44.040099001" lon="10.03271699"><ele>4</ele><time>2020-02-23T08:29:56Z</time></trkpt>
<trkpt lat="44.040086009" lon="10.032755965"><ele>4</ele><time>2020-02-23T08:29:57Z</time></trkpt>
<trkpt lat="44.040073017" lon="10.032795025"><ele>4</ele><time>2020-02-23T08:29:58Z</time></trkpt>
<trkpt lat="44.040060025" lon="10.032835007"><ele>4</ele><time>2020-02-23T08:29:59Z</time></trkpt>
<trkpt lat="44.040048039" lon="10.032874988"><ele>4</ele><time>2020-02-23T08:30:00Z</time></trkpt>
<trkpt lat="44.040027" lon="10.03295403"><ele>4</ele><time>2020-02-23T08:30:02Z</time></trkpt>
<trkpt lat="44.040017026" lon="10.032994011"><ele>4</ele><time>2020-02-23T08:30:03Z</time></trkpt>
<trkpt lat="44.039984001" lon="10.033111023"><ele>4</ele><time>2020-02-23T08:30:06Z</time></trkpt>
<trkpt lat="44.039972015" lon="10.033149999"><ele>4</ele><time>2020-02-23T08:30:07Z</time></trkpt>
<trkpt lat="44.039959023" lon="10.033188974"><ele>4</ele><time>2020-02-23T08:30:08Z</time></trkpt>
<trkpt lat="44.039933039" lon="10.033266004"><ele>4</ele><time>2020-02-23T08:30:10Z</time></trkpt>
<trkpt lat="44.039919041" lon="10.03330498"><ele>4</ele><time>2020-02-23T08:30:11Z</time></trkpt>
<trkpt lat="44.039904959" lon="10.033343034"><ele>4</ele><time>2020-02-23T08:30:12Z</time></trkpt>
<trkpt lat="44.03989004" lon="10.033381004"><ele>4</ele><time>2020-02-23T08:30:13Z</time></trkpt>
<trkpt lat="44.039875958" lon="10.033418974"><ele>4</ele><time>2020-02-23T08:30:14Z</time></trkpt>
<trkpt lat="44.039861038" lon="10.033456022"><ele>4</ele><time>2020-02-23T08:30:15Z</time></trkpt>
<trkpt lat="44.039845029" lon="10.033492986"><ele>4</ele><time>2020-02-23T08:30:16Z</time></trkpt>
<trkpt lat="44.039830025" lon="10.033530034"><ele>4</ele><time>2020-02-23T08:30:17Z</time></trkpt>
<trkpt lat="44.039815022" lon="10.033565992"><ele>4</ele><time>2020-02-23T08:30:18Z</time></trkpt>
<trkpt lat="44.039801024" lon="10.033601029"><ele>4</ele><time>2020-02-23T08:30:19Z</time></trkpt>
<trkpt lat="44.039771017" lon="10.033668"><ele>4</ele><time>2020-02-23T08:30:21Z</time></trkpt>
<trkpt lat="44.039723994" lon="10.033770008"><ele>4</ele><time>2020-02-23T08:30:24Z</time></trkpt>
<trkpt lat="44.039707985" lon="10.033804961"><ele>4</ele><time>2020-02-23T08:30:25Z</time></trkpt>
<trkpt lat="44.039693987" lon="10.033839997"><ele>4</ele><time>2020-02-23T08:30:26Z</time></trkpt>
<trkpt lat="44.039678983" lon="10.033876039"><ele>4</ele><time>2020-02-23T08:30:27Z</time></trkpt>
<trkpt lat="44.039665991" lon="10.033914009"><ele>4</ele><time>2020-02-23T08:30:28Z</time></trkpt>
<trkpt lat="44.039654005" lon="10.033951979"><ele>4</ele><time>2020-02-23T08:30:29Z</time></trkpt>
<trkpt lat="44.039620981" lon="10.034071002"><ele>4</ele><time>2020-02-23T08:30:32Z</time></trkpt>
<trkpt lat="44.039611006" lon="10.034110984"><ele>4</ele><time>2020-02-23T08:30:33Z</time></trkpt>
<trkpt lat="44.039601032" lon="10.034151971"><ele>4</ele><time>2020-02-23T08:30:34Z</time></trkpt>
<trkpt lat="44.039589968" lon="10.034192037"><ele>4</ele><time>2020-02-23T08:30:35Z</time></trkpt>
<trkpt lat="44.039578987" lon="10.034232019"><ele>4</ele><time>2020-02-23T08:30:36Z</time></trkpt>
<trkpt lat="44.039568007" lon="10.034272"><ele>4</ele><time>2020-02-23T08:30:37Z</time></trkpt>
<trkpt lat="44.039555015" lon="10.034310976"><ele>4</ele><time>2020-02-23T08:30:38Z</time></trkpt>
<trkpt lat="44.039542023" lon="10.03434903"><ele>4</ele><time>2020-02-23T08:30:39Z</time></trkpt>
<trkpt lat="44.039528025" lon="10.034387"><ele>4</ele><time>2020-02-23T08:30:40Z</time></trkpt>
<trkpt lat="44.039513022" lon="10.034423964"><ele>4</ele><time>2020-02-23T08:30:41Z</time></trkpt>
<trkpt lat="44.039497012" lon="10.034460006"><ele>4</ele><time>2020-02-23T08:30:42Z</time></trkpt>
<trkpt lat="44.039479997" lon="10.034495965"><ele>5</ele><time>2020-02-23T08:30:43Z</time></trkpt>
<trkpt lat="44.039462982" lon="10.034531001"><ele>5</ele><time>2020-02-23T08:30:44Z</time></trkpt>
<trkpt lat="44.039445966" lon="10.034566037"><ele>5</ele><time>2020-02-23T08:30:45Z</time></trkpt>
<trkpt lat="44.039428029" lon="10.034599984"><ele>5</ele><time>2020-02-23T08:30:46Z</time></trkpt>
<trkpt lat="44.039411014" lon="10.03463502"><ele>5</ele><time>2020-02-23T08:30:47Z</time></trkpt>
<trkpt lat="44.039393999" lon="10.034669973"><ele>5</ele><time>2020-02-23T08:30:48Z</time></trkpt>
<trkpt lat="44.039377989" lon="10.034705009"><ele>5</ele><time>2020-02-23T08:30:49Z</time></trkpt>
<trkpt lat="44.03936198" lon="10.034739962"><ele>5</ele><time>2020-02-23T08:30:50Z</time></trkpt>
<trkpt lat="44.039346976" lon="10.034776004"><ele>5</ele><time>2020-02-23T08:30:51Z</time></trkpt>
<trkpt lat="44.039331973" lon="10.034812968"><ele>5</ele><time>2020-02-23T08:30:52Z</time></trkpt>
<trkpt lat="44.039318981" lon="10.034850016"><ele>5</ele><time>2020-02-23T08:30:53Z</time></trkpt>
<trkpt lat="44.039306995" lon="10.034887986"><ele>6</ele><time>2020-02-23T08:30:54Z</time></trkpt>
<trkpt lat="44.039295008" lon="10.03492604"><ele>6</ele><time>2020-02-23T08:30:55Z</time></trkpt>
<trkpt lat="44.039283022" lon="10.034966022"><ele>6</ele><time>2020-02-23T08:30:56Z</time></trkpt>
<trkpt lat="44.03927003" lon="10.035006003"><ele>6</ele><time>2020-02-23T08:30:57Z</time></trkpt>
<trkpt lat="44.039257038" lon="10.035046991"><ele>6</ele><time>2020-02-23T08:30:58Z</time></trkpt>
<trkpt lat="44.039242035" lon="10.035087978"><ele>6</ele><time>2020-02-23T08:30:59Z</time></trkpt>
<trkpt lat="44.039228037" lon="10.035129972"><ele>6</ele><time>2020-02-23T08:31:00Z</time></trkpt>
<trkpt lat="44.039214039" lon="10.035170959"><ele>6</ele><time>2020-02-23T08:31:01Z</time></trkpt>
<trkpt lat="44.039188977" lon="10.035252012"><ele>6</ele><time>2020-02-23T08:31:03Z</time></trkpt>
<trkpt lat="44.039177997" lon="10.035290988"><ele>6</ele><time>2020-02-23T08:31:04Z</time></trkpt>
<trkpt lat="44.039166011" lon="10.03533097"><ele>6</ele><time>2020-02-23T08:31:05Z</time></trkpt>
<trkpt lat="44.039128963" lon="10.035447981"><ele>6</ele><time>2020-02-23T08:31:08Z</time></trkpt>
<trkpt lat="44.039115971" lon="10.035486035"><ele>6</ele><time>2020-02-23T08:31:09Z</time></trkpt>
<trkpt lat="44.039101973" lon="10.035525011"><ele>6</ele><time>2020-02-23T08:31:10Z</time></trkpt>
<trkpt lat="44.039088981" lon="10.035562981"><ele>6</ele><time>2020-02-23T08:31:11Z</time></trkpt>
<trkpt lat="44.039074983" lon="10.035601035"><ele>6</ele><time>2020-02-23T08:31:12Z</time></trkpt>
<trkpt lat="44.039060986" lon="10.035639005"><ele>6</ele><time>2020-02-23T08:31:13Z</time></trkpt>
<trkpt lat="44.039016981" lon="10.035751993"><ele>6</ele><time>2020-02-23T08:31:16Z</time></trkpt>
<trkpt lat="44.039002983" lon="10.035789041"><ele>5</ele><time>2020-02-23T08:31:17Z</time></trkpt>
<trkpt lat="44.038987979" lon="10.035826005"><ele>5</ele><time>2020-02-23T08:31:18Z</time></trkpt>
<trkpt lat="44.038972976" lon="10.035863975"><ele>5</ele><time>2020-02-23T08:31:19Z</time></trkpt>
<trkpt lat="44.038957972" lon="10.035901023"><ele>5</ele><time>2020-02-23T08:31:20Z</time></trkpt>
<trkpt lat="44.038941963" lon="10.035937987"><ele>5</ele><time>2020-02-23T08:31:21Z</time></trkpt>
<trkpt lat="44.038926959" lon="10.035976041"><ele>5</ele><time>2020-02-23T08:31:22Z</time></trkpt>
<trkpt lat="44.038912039" lon="10.036013005"><ele>5</ele><time>2020-02-23T08:31:23Z</time></trkpt>
<trkpt lat="44.038897036" lon="10.036049969"><ele>5</ele><time>2020-02-23T08:31:24Z</time></trkpt>
<trkpt lat="44.038881026" lon="10.036087018"><ele>5</ele><time>2020-02-23T08:31:25Z</time></trkpt>
<trkpt lat="44.038866023" lon="10.036124988"><ele>5</ele><time>2020-02-23T08:31:26Z</time></trkpt>
<trkpt lat="44.038851019" lon="10.036162036"><ele>5</ele><time>2020-02-23T08:31:27Z</time></trkpt>
<trkpt lat="44.038836015" lon="10.036199"><ele>5</ele><time>2020-02-23T08:31:28Z</time></trkpt>
<trkpt lat="44.038821012" lon="10.03623697"><ele>5</ele><time>2020-02-23T08:31:29Z</time></trkpt>
<trkpt lat="44.038806008" lon="10.036274018"><ele>5</ele><time>2020-02-23T08:31:30Z</time></trkpt>
<trkpt lat="44.038791005" lon="10.036311988"><ele>5</ele><time>2020-02-23T08:31:31Z</time></trkpt>
<trkpt lat="44.038776001" lon="10.036350042"><ele>5</ele><time>2020-02-23T08:31:32Z</time></trkpt>
<trkpt lat="44.038762003" lon="10.036387006"><ele>5</ele><time>2020-02-23T08:31:33Z</time></trkpt>
<trkpt lat="44.038747" lon="10.036424976"><ele>5</ele><time>2020-02-23T08:31:34Z</time></trkpt>
<trkpt lat="44.038731996" lon="10.03646303"><ele>5</ele><time>2020-02-23T08:31:35Z</time></trkpt>
<trkpt lat="44.038717998" lon="10.036502006"><ele>4</ele><time>2020-02-23T08:31:36Z</time></trkpt>
<trkpt lat="44.038702995" lon="10.036539976"><ele>4</ele><time>2020-02-23T08:31:37Z</time></trkpt>
<trkpt lat="44.038687991" lon="10.036578029"><ele>4</ele><time>2020-02-23T08:31:38Z</time></trkpt>
<trkpt lat="44.03865899" lon="10.036654975"><ele>4</ele><time>2020-02-23T08:31:40Z</time></trkpt>
<trkpt lat="44.038643986" lon="10.036694035"><ele>4</ele><time>2020-02-23T08:31:41Z</time></trkpt>
<trkpt lat="44.038598975" lon="10.03681004"><ele>4</ele><time>2020-02-23T08:31:44Z</time></trkpt>
<trkpt lat="44.038583972" lon="10.036849016"><ele>4</ele><time>2020-02-23T08:31:45Z</time></trkpt>
<trkpt lat="44.038569974" lon="10.036886986"><ele>4</ele><time>2020-02-23T08:31:46Z</time></trkpt>
<trkpt lat="44.03855497" lon="10.036925962"><ele>4</ele><time>2020-02-23T08:31:47Z</time></trkpt>
<trkpt lat="44.038540972" lon="10.036964016"><ele>4</ele><time>2020-02-23T08:31:48Z</time></trkpt>
<trkpt lat="44.038526975" lon="10.03700098"><ele>4</ele><time>2020-02-23T08:31:49Z</time></trkpt>
<trkpt lat="44.038487999" lon="10.037111035"><ele>4</ele><time>2020-02-23T08:31:52Z</time></trkpt>
<trkpt lat="44.038475007" lon="10.037145987"><ele>4</ele><time>2020-02-23T08:31:53Z</time></trkpt>
<trkpt lat="44.038464027" lon="10.037181024"><ele>4</ele><time>2020-02-23T08:31:54Z</time></trkpt>
<trkpt lat="44.03843997" lon="10.037252018"><ele>4</ele><time>2020-02-23T08:31:56Z</time></trkpt>
<trkpt lat="44.038426979" lon="10.037288982"><ele>4</ele><time>2020-02-23T08:31:57Z</time></trkpt>
<trkpt lat="44.038413987" lon="10.03732603"><ele>4</ele><time>2020-02-23T08:31:58Z</time></trkpt>
<trkpt lat="44.038399989" lon="10.037364"><ele>4</ele><time>2020-02-23T08:31:59Z</time></trkpt>
<trkpt lat="44.038384985" lon="10.037399959"><ele>4</ele><time>2020-02-23T08:32:00Z</time></trkpt>
<trkpt lat="44.038368976" lon="10.037436001"><ele>4</ele><time>2020-02-23T08:32:01Z</time></trkpt>
<trkpt lat="44.038352966" lon="10.037471037"><ele>4</ele><time>2020-02-23T08:32:02Z</time></trkpt>
<trkpt lat="44.038336035" lon="10.037506996"><ele>4</ele><time>2020-02-23T08:32:03Z</time></trkpt>
<trkpt lat="44.038288007" lon="10.03761596"><ele>4</ele><time>2020-02-23T08:32:06Z</time></trkpt>
<trkpt lat="44.038271997" lon="10.03765502"><ele>4</ele><time>2020-02-23T08:32:07Z</time></trkpt>
<trkpt lat="44.038256994" lon="10.037693996"><ele>4</ele><time>2020-02-23T08:32:08Z</time></trkpt>
<trkpt lat="44.03824199" lon="10.037732972"><ele>4</ele><time>2020-02-23T08:32:09Z</time></trkpt>
<trkpt lat="44.038227992" lon="10.037773959"><ele>4</ele><time>2020-02-23T08:32:10Z</time></trkpt>
<trkpt lat="44.038212989" lon="10.037815031"><ele>4</ele><time>2020-02-23T08:32:11Z</time></trkpt>
<trkpt lat="44.038198991" lon="10.037856018"><ele>4</ele><time>2020-02-23T08:32:12Z</time></trkpt>
<trkpt lat="44.038184993" lon="10.037897006"><ele>4</ele><time>2020-02-23T08:32:13Z</time></trkpt>
<trkpt lat="44.038170995" lon="10.037938999"><ele>4</ele><time>2020-02-23T08:32:14Z</time></trkpt>
<trkpt lat="44.038158003" lon="10.037979987"><ele>4</ele><time>2020-02-23T08:32:15Z</time></trkpt>
<trkpt lat="44.038144005" lon="10.03802198"><ele>4</ele><time>2020-02-23T08:32:16Z</time></trkpt>
<trkpt lat="44.038130008" lon="10.038062967"><ele>4</ele><time>2020-02-23T08:32:17Z</time></trkpt>
<trkpt lat="44.038117016" lon="10.038104039"><ele>4</ele><time>2020-02-23T08:32:18Z</time></trkpt>
<trkpt lat="44.038104024" lon="10.038145026"><ele>4</ele><time>2020-02-23T08:32:19Z</time></trkpt>
<trkpt lat="44.038090026" lon="10.038185008"><ele>4</ele><time>2020-02-23T08:32:20Z</time></trkpt>
<trkpt lat="44.038077034" lon="10.038223984"><ele>4</ele><time>2020-02-23T08:32:21Z</time></trkpt>
<trkpt lat="44.038063036" lon="10.03826296"><ele>4</ele><time>2020-02-23T08:32:22Z</time></trkpt>
<trkpt lat="44.038035963" lon="10.038337978"><ele>4</ele><time>2020-02-23T08:32:24Z</time></trkpt>
<trkpt lat="44.038022971" lon="10.03837402"><ele>4</ele><time>2020-02-23T08:32:25Z</time></trkpt>
<trkpt lat="44.038008973" lon="10.038408972"><ele>4</ele><time>2020-02-23T08:32:26Z</time></trkpt>
<trkpt lat="44.037994975" lon="10.038445015"><ele>4</ele><time>2020-02-23T08:32:27Z</time></trkpt>
<trkpt lat="44.037943007" lon="10.038587004"><ele>5</ele><time>2020-02-23T08:32:31Z</time></trkpt>
<trkpt lat="44.037930015" lon="10.038622962"><ele>5</ele><time>2020-02-23T08:32:32Z</time></trkpt>
<trkpt lat="44.037917024" lon="10.038659004"><ele>5</ele><time>2020-02-23T08:32:33Z</time></trkpt>
<trkpt lat="44.037904032" lon="10.038695969"><ele>5</ele><time>2020-02-23T08:32:34Z</time></trkpt>
<trkpt lat="44.03789104" lon="10.038732011"><ele>5</ele><time>2020-02-23T08:32:35Z</time></trkpt>
<trkpt lat="44.037877042" lon="10.038768975"><ele>5</ele><time>2020-02-23T08:32:36Z</time></trkpt>
<trkpt lat="44.037835971" lon="10.038880035"><ele>5</ele><time>2020-02-23T08:32:39Z</time></trkpt>
<trkpt lat="44.037821973" lon="10.038916999"><ele>5</ele><time>2020-02-23T08:32:40Z</time></trkpt>
<trkpt lat="44.037806969" lon="10.038953042"><ele>5</ele><time>2020-02-23T08:32:41Z</time></trkpt>
<trkpt lat="44.037791966" lon="10.038990006"><ele>5</ele><time>2020-02-23T08:32:42Z</time></trkpt>
<trkpt lat="44.03777604" lon="10.039025964"><ele>5</ele><time>2020-02-23T08:32:43Z</time></trkpt>
<trkpt lat="44.03776003" lon="10.039063012"><ele>5</ele><time>2020-02-23T08:32:44Z</time></trkpt>
<trkpt lat="44.037744021" lon="10.039098971"><ele>5</ele><time>2020-02-23T08:32:45Z</time></trkpt>
<trkpt lat="44.037728012" lon="10.039136019"><ele>5</ele><time>2020-02-23T08:32:46Z</time></trkpt>
<trkpt lat="44.037710996" lon="10.039171977"><ele>5</ele><time>2020-02-23T08:32:47Z</time></trkpt>
<trkpt lat="44.037694987" lon="10.039209025"><ele>5</ele><time>2020-02-23T08:32:48Z</time></trkpt>
<trkpt lat="44.037678977" lon="10.039244983"><ele>5</ele><time>2020-02-23T08:32:49Z</time></trkpt>
<trkpt lat="44.037662968" lon="10.039282031"><ele>4</ele><time>2020-02-23T08:32:50Z</time></trkpt>
<trkpt lat="44.037646959" lon="10.039318996"><ele>4</ele><time>2020-02-23T08:32:51Z</time></trkpt>
<trkpt lat="44.037632039" lon="10.03935596"><ele>4</ele><time>2020-02-23T08:32:52Z</time></trkpt>
<trkpt lat="44.037617035" lon="10.039394014"><ele>4</ele><time>2020-02-23T08:32:53Z</time></trkpt>
<trkpt lat="44.037603037" lon="10.039431984"><ele>4</ele><time>2020-02-23T08:32:54Z</time></trkpt>
<trkpt lat="44.03758904" lon="10.039470037"><ele>4</ele><time>2020-02-23T08:32:55Z</time></trkpt>
<trkpt lat="44.037575964" lon="10.039508007"><ele>4</ele><time>2020-02-23T08:32:56Z</time></trkpt>
<trkpt lat="44.037562972" lon="10.039545977"><ele>3</ele><time>2020-02-23T08:32:57Z</time></trkpt>
<trkpt lat="44.037550986" lon="10.039585037"><ele>3</ele><time>2020-02-23T08:32:58Z</time></trkpt>
<trkpt lat="44.037537994" lon="10.039624013"><ele>3</ele><time>2020-02-23T08:32:59Z</time></trkpt>
<trkpt lat="44.037526008" lon="10.039662989"><ele>3</ele><time>2020-02-23T08:33:00Z</time></trkpt>
<trkpt lat="44.037514022" lon="10.039700959"><ele>3</ele><time>2020-02-23T08:33:01Z</time></trkpt>
<trkpt lat="44.03750103" lon="10.039740019"><ele>3</ele><time>2020-02-23T08:33:02Z</time></trkpt>
<trkpt lat="44.03748896" lon="10.039778994"><ele>3</ele><time>2020-02-23T08:33:03Z</time></trkpt>
<trkpt lat="44.037475968" lon="10.03981797"><ele>2</ele><time>2020-02-23T08:33:04Z</time></trkpt>
<trkpt lat="44.037463982" lon="10.03985703"><ele>2</ele><time>2020-02-23T08:33:05Z</time></trkpt>
<trkpt lat="44.037449984" lon="10.039895"><ele>2</ele><time>2020-02-23T08:33:06Z</time></trkpt>
<trkpt lat="44.037436992" lon="10.039933976"><ele>2</ele><time>2020-02-23T08:33:07Z</time></trkpt>
<trkpt lat="44.037422994" lon="10.03997203"><ele>2</ele><time>2020-02-23T08:33:08Z</time></trkpt>
<trkpt lat="44.037408996" lon="10.04001"><ele>2</ele><time>2020-02-23T08:33:09Z</time></trkpt>
<trkpt lat="44.037379995" lon="10.040086024"><ele>2</ele><time>2020-02-23T08:33:11Z</time></trkpt>
<trkpt lat="44.037334984" lon="10.040200017"><ele>3</ele><time>2020-02-23T08:33:14Z</time></trkpt>
<trkpt lat="44.037319981" lon="10.040237987"><ele>3</ele><time>2020-02-23T08:33:15Z</time></trkpt>
<trkpt lat="44.037304977" lon="10.040275035"><ele>3</ele><time>2020-02-23T08:33:16Z</time></trkpt>
<trkpt lat="44.037288968" lon="10.040313005"><ele>3</ele><time>2020-02-23T08:33:17Z</time></trkpt>
<trkpt lat="44.037273964" lon="10.040350975"><ele>3</ele><time>2020-02-23T08:33:18Z</time></trkpt>
<trkpt lat="44.037258038" lon="10.040388023"><ele>3</ele><time>2020-02-23T08:33:19Z</time></trkpt>
<trkpt lat="44.037243035" lon="10.040425994"><ele>3</ele><time>2020-02-23T08:33:20Z</time></trkpt>
<trkpt lat="44.037227025" lon="10.040463964"><ele>3</ele><time>2020-02-23T08:33:21Z</time></trkpt>
<trkpt lat="44.037212022" lon="10.040501012"><ele>4</ele><time>2020-02-23T08:33:22Z</time></trkpt>
<trkpt lat="44.037196012" lon="10.040538982"><ele>4</ele><time>2020-02-23T08:33:23Z</time></trkpt>
<trkpt lat="44.037181009" lon="10.040577035"><ele>4</ele><time>2020-02-23T08:33:24Z</time></trkpt>
<trkpt lat="44.037166005" lon="10.040615005"><ele>4</ele><time>2020-02-23T08:33:25Z</time></trkpt>
<trkpt lat="44.037151001" lon="10.04065197"><ele>4</ele><time>2020-02-23T08:33:26Z</time></trkpt>
<trkpt lat="44.037135998" lon="10.040690023"><ele>4</ele><time>2020-02-23T08:33:27Z</time></trkpt>
<trkpt lat="44.037122" lon="10.040727993"><ele>4</ele><time>2020-02-23T08:33:28Z</time></trkpt>
<trkpt lat="44.037106996" lon="10.040765963"><ele>4</ele><time>2020-02-23T08:33:29Z</time></trkpt>
<trkpt lat="44.037092999" lon="10.040804017"><ele>4</ele><time>2020-02-23T08:33:30Z</time></trkpt>
<trkpt lat="44.037079001" lon="10.040841987"><ele>5</ele><time>2020-02-23T08:33:31Z</time></trkpt>
<trkpt lat="44.037066009" lon="10.040880041"><ele>4</ele><time>2020-02-23T08:33:32Z</time></trkpt>
<trkpt lat="44.037052011" lon="10.040919017"><ele>4</ele><time>2020-02-23T08:33:33Z</time></trkpt>
<trkpt lat="44.037039019" lon="10.040956987"><ele>4</ele><time>2020-02-23T08:33:34Z</time></trkpt>
<trkpt lat="44.037026027" lon="10.040995041"><ele>4</ele><time>2020-02-23T08:33:35Z</time></trkpt>
<trkpt lat="44.037013035" lon="10.041033011"><ele>4</ele><time>2020-02-23T08:33:36Z</time></trkpt>
<trkpt lat="44.036999959" lon="10.041070981"><ele>4</ele><time>2020-02-23T08:33:37Z</time></trkpt>
<trkpt lat="44.036985962" lon="10.041109035"><ele>4</ele><time>2020-02-23T08:33:38Z</time></trkpt>
<trkpt lat="44.03697297" lon="10.041147005"><ele>4</ele><time>2020-02-23T08:33:39Z</time></trkpt>
<trkpt lat="44.036959978" lon="10.041183969"><ele>4</ele><time>2020-02-23T08:33:40Z</time></trkpt>
<trkpt lat="44.03694598" lon="10.041222023"><ele>4</ele><time>2020-02-23T08:33:41Z</time></trkpt>
<trkpt lat="44.036931982" lon="10.041258987"><ele>4</ele><time>2020-02-23T08:33:42Z</time></trkpt>
<trkpt lat="44.036917984" lon="10.041295029"><ele>4</ele><time>2020-02-23T08:33:43Z</time></trkpt>
<trkpt lat="44.036902981" lon="10.041331993"><ele>4</ele><time>2020-02-23T08:33:44Z</time></trkpt>
<trkpt lat="44.036888983" lon="10.041369041"><ele>4</ele><time>2020-02-23T08:33:45Z</time></trkpt>
<trkpt lat="44.036873979" lon="10.041405"><ele>4</ele><time>2020-02-23T08:33:46Z</time></trkpt>
<trkpt lat="44.036858976" lon="10.041441964"><ele>4</ele><time>2020-02-23T08:33:47Z</time></trkpt>
<trkpt lat="44.036843972" lon="10.041479012"><ele>4</ele><time>2020-02-23T08:33:48Z</time></trkpt>
<trkpt lat="44.036828969" lon="10.041515976"><ele>4</ele><time>2020-02-23T08:33:49Z</time></trkpt>
<trkpt lat="44.036813965" lon="10.04155403"><ele>4</ele><time>2020-02-23T08:33:50Z</time></trkpt>
<trkpt lat="44.036798961" lon="10.041592"><ele>4</ele><time>2020-02-23T08:33:51Z</time></trkpt>
<trkpt lat="44.036784042" lon="10.041631982"><ele>3</ele><time>2020-02-23T08:33:52Z</time></trkpt>
<trkpt lat="44.036769038" lon="10.041671963"><ele>3</ele><time>2020-02-23T08:33:53Z</time></trkpt>
<trkpt lat="44.036754034" lon="10.041713035"><ele>3</ele><time>2020-02-23T08:33:54Z</time></trkpt>
<trkpt lat="44.036739031" lon="10.041755028"><ele>3</ele><time>2020-02-23T08:33:55Z</time></trkpt>
<trkpt lat="44.036724027" lon="10.041797021"><ele>3</ele><time>2020-02-23T08:33:56Z</time></trkpt>
<trkpt lat="44.036710029" lon="10.041840021"><ele>3</ele><time>2020-02-23T08:33:57Z</time></trkpt>
<trkpt lat="44.036695026" lon="10.041882014"><ele>3</ele><time>2020-02-23T08:33:58Z</time></trkpt>
<trkpt lat="44.036681028" lon="10.041924007"><ele>3</ele><time>2020-02-23T08:33:59Z</time></trkpt>
<trkpt lat="44.036668036" lon="10.041964995"><ele>3</ele><time>2020-02-23T08:34:00Z</time></trkpt>
<trkpt lat="44.036654038" lon="10.042003971"><ele>3</ele><time>2020-02-23T08:34:01Z</time></trkpt>
<trkpt lat="44.036640963" lon="10.042041019"><ele>3</ele><time>2020-02-23T08:34:02Z</time></trkpt>
<trkpt lat="44.036627971" lon="10.042077983"><ele>3</ele><time>2020-02-23T08:34:03Z</time></trkpt>
<trkpt lat="44.036613973" lon="10.042116037"><ele>3</ele><time>2020-02-23T08:34:04Z</time></trkpt>
<trkpt lat="44.036600981" lon="10.042155012"><ele>3</ele><time>2020-02-23T08:34:05Z</time></trkpt>
<trkpt lat="44.036572985" lon="10.042235982"><ele>3</ele><time>2020-02-23T08:34:07Z</time></trkpt>
<trkpt lat="44.036558988" lon="10.042275963"><ele>3</ele><time>2020-02-23T08:34:08Z</time></trkpt>
<trkpt lat="44.03654499" lon="10.042316029"><ele>3</ele><time>2020-02-23T08:34:09Z</time></trkpt>
<trkpt lat="44.036530992" lon="10.042353999"><ele>3</ele><time>2020-02-23T08:34:10Z</time></trkpt>
<trkpt lat="44.036490005" lon="10.042466987"><ele>2</ele><time>2020-02-23T08:34:13Z</time></trkpt>
<trkpt lat="44.036476007" lon="10.042503029"><ele>2</ele><time>2020-02-23T08:34:14Z</time></trkpt>
<trkpt lat="44.036462009" lon="10.042539993"><ele>2</ele><time>2020-02-23T08:34:15Z</time></trkpt>
<trkpt lat="44.036448011" lon="10.042576035"><ele>2</ele><time>2020-02-23T08:34:16Z</time></trkpt>
<trkpt lat="44.036433008" lon="10.042611994"><ele>2</ele><time>2020-02-23T08:34:17Z</time></trkpt>
<trkpt lat="44.036389003" lon="10.042721964"><ele>2</ele><time>2020-02-23T08:34:20Z</time></trkpt>
<trkpt lat="44.036372993" lon="10.042759012"><ele>2</ele><time>2020-02-23T08:34:21Z</time></trkpt>
<trkpt lat="44.036356984" lon="10.042795977"><ele>2</ele><time>2020-02-23T08:34:22Z</time></trkpt>
<trkpt lat="44.036340974" lon="10.04283403"><ele>2</ele><time>2020-02-23T08:34:23Z</time></trkpt>
<trkpt lat="44.036324965" lon="10.042870995"><ele>2</ele><time>2020-02-23T08:34:24Z</time></trkpt>
<trkpt lat="44.036309039" lon="10.042908965"><ele>2</ele><time>2020-02-23T08:34:25Z</time></trkpt>
<trkpt lat="44.03629303" lon="10.042947019"><ele>2</ele><time>2020-02-23T08:34:26Z</time></trkpt>
<trkpt lat="44.036278026" lon="10.042984989"><ele>3</ele><time>2020-02-23T08:34:27Z</time></trkpt>
<trkpt lat="44.036262017" lon="10.043022959"><ele>3</ele><time>2020-02-23T08:34:28Z</time></trkpt>
<trkpt lat="44.036246007" lon="10.043061012"><ele>3</ele><time>2020-02-23T08:34:29Z</time></trkpt>
<trkpt lat="44.036231004" lon="10.043099988"><ele>3</ele><time>2020-02-23T08:34:30Z</time></trkpt>
<trkpt lat="44.036216" lon="10.043137958"><ele>3</ele><time>2020-02-23T08:34:31Z</time></trkpt>
<trkpt lat="44.036202002" lon="10.043177018"><ele>3</ele><time>2020-02-23T08:34:32Z</time></trkpt>
<trkpt lat="44.036186999" lon="10.043215994"><ele>3</ele><time>2020-02-23T08:34:33Z</time></trkpt>
<trkpt lat="44.036174007" lon="10.04325497"><ele>3</ele><time>2020-02-23T08:34:34Z</time></trkpt>
<trkpt lat="44.036160009" lon="10.043294029"><ele>3</ele><time>2020-02-23T08:34:35Z</time></trkpt>
<trkpt lat="44.036147017" lon="10.043333005"><ele>3</ele><time>2020-02-23T08:34:36Z</time></trkpt>
<trkpt lat="44.036133019" lon="10.043371981"><ele>3</ele><time>2020-02-23T08:34:37Z</time></trkpt>
<trkpt lat="44.036120027" lon="10.043411041"><ele>3</ele><time>2020-02-23T08:34:38Z</time></trkpt>
<trkpt lat="44.036107035" lon="10.043450017"><ele>3</ele><time>2020-02-23T08:34:39Z</time></trkpt>
<trkpt lat="44.03609396" lon="10.043488992"><ele>3</ele><time>2020-02-23T08:34:40Z</time></trkpt>
<trkpt lat="44.036080968" lon="10.043527968"><ele>3</ele><time>2020-02-23T08:34:41Z</time></trkpt>
<trkpt lat="44.036067976" lon="10.043567028"><ele>3</ele><time>2020-02-23T08:34:42Z</time></trkpt>
<trkpt lat="44.036054984" lon="10.043606004"><ele>3</ele><time>2020-02-23T08:34:43Z</time></trkpt>
<trkpt lat="44.036041992" lon="10.04364498"><ele>3</ele><time>2020-02-23T08:34:44Z</time></trkpt>
<trkpt lat="44.036029" lon="10.043684961"><ele>3</ele><time>2020-02-23T08:34:45Z</time></trkpt>
<trkpt lat="44.036015002" lon="10.043724021"><ele>3</ele><time>2020-02-23T08:34:46Z</time></trkpt>
<trkpt lat="44.036001004" lon="10.043762997"><ele>3</ele><time>2020-02-23T08:34:47Z</time></trkpt>
<trkpt lat="44.035988012" lon="10.043801973"><ele>3</ele><time>2020-02-23T08:34:48Z</time></trkpt>
<trkpt lat="44.035974015" lon="10.043841032"><ele>3</ele><time>2020-02-23T08:34:49Z</time></trkpt>
<trkpt lat="44.035960017" lon="10.043880008"><ele>3</ele><time>2020-02-23T08:34:50Z</time></trkpt>
<trkpt lat="44.035946019" lon="10.043918984"><ele>3</ele><time>2020-02-23T08:34:51Z</time></trkpt>
<trkpt lat="44.035932021" lon="10.04395796"><ele>3</ele><time>2020-02-23T08:34:52Z</time></trkpt>
<trkpt lat="44.035918023" lon="10.04399702"><ele>3</ele><time>2020-02-23T08:34:53Z</time></trkpt>
<trkpt lat="44.03590302" lon="10.044035995"><ele>3</ele><time>2020-02-23T08:34:54Z</time></trkpt>
<trkpt lat="44.035889022" lon="10.044074971"><ele>3</ele><time>2020-02-23T08:34:55Z</time></trkpt>
<trkpt lat="44.035875024" lon="10.044113025"><ele>3</ele><time>2020-02-23T08:34:56Z</time></trkpt>
<trkpt lat="44.035860021" lon="10.044152001"><ele>3</ele><time>2020-02-23T08:34:57Z</time></trkpt>
<trkpt lat="44.035846023" lon="10.044190977"><ele>3</ele><time>2020-02-23T08:34:58Z</time></trkpt>
<trkpt lat="44.035831019" lon="10.044230036"><ele>3</ele><time>2020-02-23T08:34:59Z</time></trkpt>
<trkpt lat="44.035817022" lon="10.044269012"><ele>3</ele><time>2020-02-23T08:35:00Z</time></trkpt>
<trkpt lat="44.035802018" lon="10.044307988"><ele>3</ele><time>2020-02-23T08:35:01Z</time></trkpt>
<trkpt lat="44.03578802" lon="10.044346964"><ele>3</ele><time>2020-02-23T08:35:02Z</time></trkpt>
<trkpt lat="44.035773017" lon="10.044385018"><ele>3</ele><time>2020-02-23T08:35:03Z</time></trkpt>
<trkpt lat="44.035759019" lon="10.044423994"><ele>3</ele><time>2020-02-23T08:35:04Z</time></trkpt>
<trkpt lat="44.035744015" lon="10.04446297"><ele>3</ele><time>2020-02-23T08:35:05Z</time></trkpt>
<trkpt lat="44.035730017" lon="10.044502029"><ele>3</ele><time>2020-02-23T08:35:06Z</time></trkpt>
<trkpt lat="44.035715014" lon="10.044541005"><ele>3</ele><time>2020-02-23T08:35:07Z</time></trkpt>
<trkpt lat="44.035701016" lon="10.044578975"><ele>2</ele><time>2020-02-23T08:35:08Z</time></trkpt>
<trkpt lat="44.035686012" lon="10.044618035"><ele>2</ele><time>2020-02-23T08:35:09Z</time></trkpt>
<trkpt lat="44.035672015" lon="10.044657011"><ele>2</ele><time>2020-02-23T08:35:10Z</time></trkpt>
<trkpt lat="44.035658017" lon="10.044694981"><ele>2</ele><time>2020-02-23T08:35:11Z</time></trkpt>
<trkpt lat="44.035643013" lon="10.04473404"><ele>2</ele><time>2020-02-23T08:35:12Z</time></trkpt>
<trkpt lat="44.035629015" lon="10.044773016"><ele>2</ele><time>2020-02-23T08:35:13Z</time></trkpt>
<trkpt lat="44.035615018" lon="10.044810986"><ele>2</ele><time>2020-02-23T08:35:14Z</time></trkpt>
<trkpt lat="44.03560102" lon="10.044849962"><ele>2</ele><time>2020-02-23T08:35:15Z</time></trkpt>
<trkpt lat="44.035587022" lon="10.044889022"><ele>2</ele><time>2020-02-23T08:35:16Z</time></trkpt>
<trkpt lat="44.035572018" lon="10.044926992"><ele>2</ele><time>2020-02-23T08:35:17Z</time></trkpt>
<trkpt lat="44.035558021" lon="10.044964962"><ele>2</ele><time>2020-02-23T08:35:18Z</time></trkpt>
<trkpt lat="44.035544023" lon="10.045004021"><ele>2</ele><time>2020-02-23T08:35:19Z</time></trkpt>
<trkpt lat="44.035530025" lon="10.045041991"><ele>2</ele><time>2020-02-23T08:35:20Z</time></trkpt>
<trkpt lat="44.035516027" lon="10.045079961"><ele>2</ele><time>2020-02-23T08:35:21Z</time></trkpt>
<trkpt lat="44.03550203" lon="10.045118015"><ele>2</ele><time>2020-02-23T08:35:22Z</time></trkpt>
<trkpt lat="44.035487026" lon="10.045155985"><ele>2</ele><time>2020-02-23T08:35:23Z</time></trkpt>
<trkpt lat="44.035473028" lon="10.045194039"><ele>2</ele><time>2020-02-23T08:35:24Z</time></trkpt>
<trkpt lat="44.03545903" lon="10.045232009"><ele>2</ele><time>2020-02-23T08:35:25Z</time></trkpt>
<trkpt lat="44.035445033" lon="10.045269979"><ele>2</ele><time>2020-02-23T08:35:26Z</time></trkpt>
<trkpt lat="44.035430029" lon="10.045307027"><ele>2</ele><time>2020-02-23T08:35:27Z</time></trkpt>
<trkpt lat="44.035416031" lon="10.045344997"><ele>2</ele><time>2020-02-23T08:35:28Z</time></trkpt>
<trkpt lat="44.035402033" lon="10.045381961"><ele>2</ele><time>2020-02-23T08:35:29Z</time></trkpt>
<trkpt lat="44.03538703" lon="10.045419009"><ele>2</ele><time>2020-02-23T08:35:30Z</time></trkpt>
<trkpt lat="44.035373032" lon="10.045455974"><ele>1</ele><time>2020-02-23T08:35:31Z</time></trkpt>
<trkpt lat="44.035359034" lon="10.045493022"><ele>1</ele><time>2020-02-23T08:35:32Z</time></trkpt>
<trkpt lat="44.035344031" lon="10.045529986"><ele>1</ele><time>2020-02-23T08:35:33Z</time></trkpt>
<trkpt lat="44.035329027" lon="10.045567034"><ele>1</ele><time>2020-02-23T08:35:34Z</time></trkpt>
<trkpt lat="44.035315029" lon="10.045602992"><ele>1</ele><time>2020-02-23T08:35:35Z</time></trkpt>
<trkpt lat="44.035300026" lon="10.045639034"><ele>1</ele><time>2020-02-23T08:35:36Z</time></trkpt>
<trkpt lat="44.035286028" lon="10.045675999"><ele>1</ele><time>2020-02-23T08:35:37Z</time></trkpt>
<trkpt lat="44.035271024" lon="10.045712041"><ele>1</ele><time>2020-02-23T08:35:38Z</time></trkpt>
<trkpt lat="44.035256021" lon="10.045747999"><ele>1</ele><time>2020-02-23T08:35:39Z</time></trkpt>
<trkpt lat="44.035242023" lon="10.045784963"><ele>1</ele><time>2020-02-23T08:35:40Z</time></trkpt>
<trkpt lat="44.035227019" lon="10.045821005"><ele>1</ele><time>2020-02-23T08:35:41Z</time></trkpt>
<trkpt lat="44.035212016" lon="10.045856964"><ele>1</ele><time>2020-02-23T08:35:42Z</time></trkpt>
<trkpt lat="44.035198018" lon="10.045893006"><ele>1</ele><time>2020-02-23T08:35:43Z</time></trkpt>
<trkpt lat="44.035183014" lon="10.04592997"><ele>1</ele><time>2020-02-23T08:35:44Z</time></trkpt>
<trkpt lat="44.035169017" lon="10.045966012"><ele>2</ele><time>2020-02-23T08:35:45Z</time></trkpt>
<trkpt lat="44.035155019" lon="10.046001971"><ele>2</ele><time>2020-02-23T08:35:46Z</time></trkpt>
<trkpt lat="44.035140015" lon="10.046039019"><ele>2</ele><time>2020-02-23T08:35:47Z</time></trkpt>
<trkpt lat="44.035126017" lon="10.046075983"><ele>2</ele><time>2020-02-23T08:35:48Z</time></trkpt>
<trkpt lat="44.03511202" lon="10.046112025"><ele>2</ele><time>2020-02-23T08:35:49Z</time></trkpt>
<trkpt lat="44.035098022" lon="10.046148989"><ele>2</ele><time>2020-02-23T08:35:50Z</time></trkpt>
<trkpt lat="44.035084024" lon="10.046186959"><ele>2</ele><time>2020-02-23T08:35:51Z</time></trkpt>
<trkpt lat="44.035070026" lon="10.046224007"><ele>2</ele><time>2020-02-23T08:35:52Z</time></trkpt>
<trkpt lat="44.035057034" lon="10.046261977"><ele>2</ele><time>2020-02-23T08:35:53Z</time></trkpt>
<trkpt lat="44.035043037" lon="10.046300031"><ele>2</ele><time>2020-02-23T08:35:54Z</time></trkpt>
<trkpt lat="44.035029961" lon="10.046338001"><ele>2</ele><time>2020-02-23T08:35:55Z</time></trkpt>
<trkpt lat="44.035016969" lon="10.046375971"><ele>2</ele><time>2020-02-23T08:35:56Z</time></trkpt>
<trkpt lat="44.035003977" lon="10.046415031"><ele>2</ele><time>2020-02-23T08:35:57Z</time></trkpt>
<trkpt lat="44.034990985" lon="10.046454007"><ele>3</ele><time>2020-02-23T08:35:58Z</time></trkpt>
<trkpt lat="44.034977993" lon="10.046492983"><ele>3</ele><time>2020-02-23T08:35:59Z</time></trkpt>
<trkpt lat="44.034965001" lon="10.046531959"><ele>3</ele><time>2020-02-23T08:36:00Z</time></trkpt>
<trkpt lat="44.034953015" lon="10.046571018"><ele>3</ele><time>2020-02-23T08:36:01Z</time></trkpt>
<trkpt lat="44.034940023" lon="10.046611"><ele>3</ele><time>2020-02-23T08:36:02Z</time></trkpt>
<trkpt lat="44.034927031" lon="10.046649976"><ele>3</ele><time>2020-02-23T08:36:03Z</time></trkpt>
<trkpt lat="44.034914039" lon="10.046690041"><ele>3</ele><time>2020-02-23T08:36:04Z</time></trkpt>
<trkpt lat="44.034900041" lon="10.046729017"><ele>3</ele><time>2020-02-23T08:36:05Z</time></trkpt>
<trkpt lat="44.034886966" lon="10.046768999"><ele>3</ele><time>2020-02-23T08:36:06Z</time></trkpt>
<trkpt lat="44.034872968" lon="10.046807975"><ele>3</ele><time>2020-02-23T08:36:07Z</time></trkpt>
<trkpt lat="44.03485897" lon="10.046847034"><ele>3</ele><time>2020-02-23T08:36:08Z</time></trkpt>
<trkpt lat="44.034843966" lon="10.04688601"><ele>3</ele><time>2020-02-23T08:36:09Z</time></trkpt>
<trkpt lat="44.034828963" lon="10.046924986"><ele>3</ele><time>2020-02-23T08:36:10Z</time></trkpt>
<trkpt lat="44.034813959" lon="10.04696304"><ele>3</ele><time>2020-02-23T08:36:11Z</time></trkpt>
<trkpt lat="44.034798034" lon="10.047002016"><ele>3</ele><time>2020-02-23T08:36:12Z</time></trkpt>
<trkpt lat="44.03478303" lon="10.047039986"><ele>3</ele><time>2020-02-23T08:36:13Z</time></trkpt>
<trkpt lat="44.03476702" lon="10.047078039"><ele>3</ele><time>2020-02-23T08:36:14Z</time></trkpt>
<trkpt lat="44.034751011" lon="10.04711601"><ele>3</ele><time>2020-02-23T08:36:15Z</time></trkpt>
<trkpt lat="44.034736007" lon="10.047152974"><ele>3</ele><time>2020-02-23T08:36:16Z</time></trkpt>
<trkpt lat="44.034719998" lon="10.047191028"><ele>3</ele><time>2020-02-23T08:36:17Z</time></trkpt>
<trkpt lat="44.034704994" lon="10.047228998"><ele>3</ele><time>2020-02-23T08:36:18Z</time></trkpt>
<trkpt lat="44.034689991" lon="10.047265962"><ele>3</ele><time>2020-02-23T08:36:19Z</time></trkpt>
<trkpt lat="44.034674987" lon="10.047304016"><ele>3</ele><time>2020-02-23T08:36:20Z</time></trkpt>
<trkpt lat="44.034659984" lon="10.04734098"><ele>3</ele><time>2020-02-23T08:36:21Z</time></trkpt>
<trkpt lat="44.034645986" lon="10.047379034"><ele>3</ele><time>2020-02-23T08:36:22Z</time></trkpt>
<trkpt lat="44.034631988" lon="10.047415998"><ele>3</ele><time>2020-02-23T08:36:23Z</time></trkpt>
<trkpt lat="44.03461799" lon="10.047453968"><ele>3</ele><time>2020-02-23T08:36:24Z</time></trkpt>
<trkpt lat="44.034604998" lon="10.047491016"><ele>3</ele><time>2020-02-23T08:36:25Z</time></trkpt>
<trkpt lat="44.034591001" lon="10.047528986"><ele>3</ele><time>2020-02-23T08:36:26Z</time></trkpt>
<trkpt lat="44.034578009" lon="10.047566034"><ele>3</ele><time>2020-02-23T08:36:27Z</time></trkpt>
<trkpt lat="44.034565017" lon="10.047602998"><ele>3</ele><time>2020-02-23T08:36:28Z</time></trkpt>
<trkpt lat="44.034551019" lon="10.047640968"><ele>3</ele><time>2020-02-23T08:36:29Z</time></trkpt>
<trkpt lat="44.034538027" lon="10.047678016"><ele>3</ele><time>2020-02-23T08:36:30Z</time></trkpt>
<trkpt lat="44.034525035" lon="10.04771498"><ele>3</ele><time>2020-02-23T08:36:31Z</time></trkpt>
<trkpt lat="44.034511037" lon="10.047753034"><ele>3</ele><time>2020-02-23T08:36:32Z</time></trkpt>
<trkpt lat="44.034497961" lon="10.047789998"><ele>4</ele><time>2020-02-23T08:36:33Z</time></trkpt>
<trkpt lat="44.034483964" lon="10.047826963"><ele>4</ele><time>2020-02-23T08:36:34Z</time></trkpt>
<trkpt lat="44.034469966" lon="10.047865016"><ele>4</ele><time>2020-02-23T08:36:35Z</time></trkpt>
<trkpt lat="44.034455968" lon="10.047901981"><ele>4</ele><time>2020-02-23T08:36:36Z</time></trkpt>
<trkpt lat="44.034440964" lon="10.047939029"><ele>4</ele><time>2020-02-23T08:36:37Z</time></trkpt>
<trkpt lat="44.034426967" lon="10.047976999"><ele>4</ele><time>2020-02-23T08:36:38Z</time></trkpt>
<trkpt lat="44.034411963" lon="10.048013963"><ele>4</ele><time>2020-02-23T08:36:39Z</time></trkpt>
<trkpt lat="44.034397965" lon="10.048052017"><ele>3</ele><time>2020-02-23T08:36:40Z</time></trkpt>
<trkpt lat="44.034382962" lon="10.048089987"><ele>3</ele><time>2020-02-23T08:36:41Z</time></trkpt>
<trkpt lat="44.034368042" lon="10.048127035"><ele>3</ele><time>2020-02-23T08:36:42Z</time></trkpt>
<trkpt lat="44.034353038" lon="10.048165005"><ele>3</ele><time>2020-02-23T08:36:43Z</time></trkpt>
<trkpt lat="44.034338035" lon="10.048202975"><ele>3</ele><time>2020-02-23T08:36:44Z</time></trkpt>
<trkpt lat="44.034323031" lon="10.048241029"><ele>3</ele><time>2020-02-23T08:36:45Z</time></trkpt>
<trkpt lat="44.034307022" lon="10.048278999"><ele>3</ele><time>2020-02-23T08:36:46Z</time></trkpt>
<trkpt lat="44.034292018" lon="10.048316969"><ele>3</ele><time>2020-02-23T08:36:47Z</time></trkpt>
<trkpt lat="44.034277014" lon="10.048355022"><ele>3</ele><time>2020-02-23T08:36:48Z</time></trkpt>
<trkpt lat="44.034262011" lon="10.048393998"><ele>3</ele><time>2020-02-23T08:36:49Z</time></trkpt>
<trkpt lat="44.034248013" lon="10.048431968"><ele>3</ele><time>2020-02-23T08:36:50Z</time></trkpt>
<trkpt lat="44.034234015" lon="10.048470022"><ele>3</ele><time>2020-02-23T08:36:51Z</time></trkpt>
<trkpt lat="44.034220017" lon="10.048508998"><ele>3</ele><time>2020-02-23T08:36:52Z</time></trkpt>
<trkpt lat="44.034207026" lon="10.048546968"><ele>3</ele><time>2020-02-23T08:36:53Z</time></trkpt>
<trkpt lat="44.034181042" lon="10.048623998"><ele>3</ele><time>2020-02-23T08:36:55Z</time></trkpt>
<trkpt lat="44.034167966" lon="10.048661968"><ele>3</ele><time>2020-02-23T08:36:56Z</time></trkpt>
<trkpt lat="44.034129996" lon="10.048775962"><ele>3</ele><time>2020-02-23T08:36:59Z</time></trkpt>
<trkpt lat="44.03411801" lon="10.048814015"><ele>3</ele><time>2020-02-23T08:37:00Z</time></trkpt>
<trkpt lat="44.034105018" lon="10.04885098"><ele>3</ele><time>2020-02-23T08:37:01Z</time></trkpt>
<trkpt lat="44.034092026" lon="10.048888028"><ele>3</ele><time>2020-02-23T08:37:02Z</time></trkpt>
<trkpt lat="44.034079034" lon="10.048924992"><ele>3</ele><time>2020-02-23T08:37:03Z</time></trkpt>
<trkpt lat="44.034065958" lon="10.04896204"><ele>4</ele><time>2020-02-23T08:37:04Z</time></trkpt>
<trkpt lat="44.034052966" lon="10.048999004"><ele>4</ele><time>2020-02-23T08:37:05Z</time></trkpt>
<trkpt lat="44.034038968" lon="10.049035968"><ele>4</ele><time>2020-02-23T08:37:06Z</time></trkpt>
<trkpt lat="44.034025976" lon="10.049073016"><ele>4</ele><time>2020-02-23T08:37:07Z</time></trkpt>
<trkpt lat="44.034012984" lon="10.04910998"><ele>4</ele><time>2020-02-23T08:37:08Z</time></trkpt>
<trkpt lat="44.033999993" lon="10.049147028"><ele>4</ele><time>2020-02-23T08:37:09Z</time></trkpt>
<trkpt lat="44.033985995" lon="10.049183993"><ele>4</ele><time>2020-02-23T08:37:10Z</time></trkpt>
<trkpt lat="44.033973003" lon="10.049221041"><ele>4</ele><time>2020-02-23T08:37:11Z</time></trkpt>
<trkpt lat="44.033959005" lon="10.049258005"><ele>4</ele><time>2020-02-23T08:37:12Z</time></trkpt>
<trkpt lat="44.033946013" lon="10.049295975"><ele>4</ele><time>2020-02-23T08:37:13Z</time></trkpt>
<trkpt lat="44.033932015" lon="10.049333023"><ele>4</ele><time>2020-02-23T08:37:14Z</time></trkpt>
<trkpt lat="44.033919023" lon="10.049369987"><ele>4</ele><time>2020-02-23T08:37:15Z</time></trkpt>
<trkpt lat="44.033905026" lon="10.049408041"><ele>4</ele><time>2020-02-23T08:37:16Z</time></trkpt>
<trkpt lat="44.033891028" lon="10.049445005"><ele>4</ele><time>2020-02-23T08:37:17Z</time></trkpt>
<trkpt lat="44.033878036" lon="10.049482975"><ele>4</ele><time>2020-02-23T08:37:18Z</time></trkpt>
<trkpt lat="44.033864038" lon="10.049520023"><ele>4</ele><time>2020-02-23T08:37:19Z</time></trkpt>
<trkpt lat="44.03385004" lon="10.049557993"><ele>4</ele><time>2020-02-23T08:37:20Z</time></trkpt>
<trkpt lat="44.033835959" lon="10.049595041"><ele>4</ele><time>2020-02-23T08:37:21Z</time></trkpt>
<trkpt lat="44.033821961" lon="10.049633011"><ele>4</ele><time>2020-02-23T08:37:22Z</time></trkpt>
<trkpt lat="44.033808969" lon="10.049670981"><ele>4</ele><time>2020-02-23T08:37:23Z</time></trkpt>
<trkpt lat="44.033794971" lon="10.049708029"><ele>4</ele><time>2020-02-23T08:37:24Z</time></trkpt>
<trkpt lat="44.033780973" lon="10.049745999"><ele>4</ele><time>2020-02-23T08:37:25Z</time></trkpt>
<trkpt lat="44.033766976" lon="10.049782963"><ele>4</ele><time>2020-02-23T08:37:26Z</time></trkpt>
<trkpt lat="44.033752978" lon="10.049821017"><ele>4</ele><time>2020-02-23T08:37:27Z</time></trkpt>
<trkpt lat="44.03373898" lon="10.049858987"><ele>4</ele><time>2020-02-23T08:37:28Z</time></trkpt>
<trkpt lat="44.033723976" lon="10.049897041"><ele>4</ele><time>2020-02-23T08:37:29Z</time></trkpt>
<trkpt lat="44.033709979" lon="10.049934005"><ele>4</ele><time>2020-02-23T08:37:30Z</time></trkpt>
<trkpt lat="44.033695981" lon="10.049971975"><ele>4</ele><time>2020-02-23T08:37:31Z</time></trkpt>
<trkpt lat="44.033681983" lon="10.050009023"><ele>4</ele><time>2020-02-23T08:37:32Z</time></trkpt>
<trkpt lat="44.033667985" lon="10.050046993"><ele>4</ele><time>2020-02-23T08:37:33Z</time></trkpt>
<trkpt lat="44.033652982" lon="10.050084963"><ele>4</ele><time>2020-02-23T08:37:34Z</time></trkpt>
<trkpt lat="44.033638984" lon="10.050122011"><ele>4</ele><time>2020-02-23T08:37:35Z</time></trkpt>
<trkpt lat="44.033624986" lon="10.050159981"><ele>4</ele><time>2020-02-23T08:37:36Z</time></trkpt>
<trkpt lat="44.033609983" lon="10.050197029"><ele>3</ele><time>2020-02-23T08:37:37Z</time></trkpt>
<trkpt lat="44.033595985" lon="10.050235"><ele>3</ele><time>2020-02-23T08:37:38Z</time></trkpt>
<trkpt lat="44.033581987" lon="10.050271964"><ele>3</ele><time>2020-02-23T08:37:39Z</time></trkpt>
<trkpt lat="44.033566983" lon="10.050310018"><ele>3</ele><time>2020-02-23T08:37:40Z</time></trkpt>
<trkpt lat="44.033552986" lon="10.050346982"><ele>3</ele><time>2020-02-23T08:37:41Z</time></trkpt>
<trkpt lat="44.033537982" lon="10.050385036"><ele>3</ele><time>2020-02-23T08:37:42Z</time></trkpt>
<trkpt lat="44.033523984" lon="10.050422"><ele>3</ele><time>2020-02-23T08:37:43Z</time></trkpt>
<trkpt lat="44.033508981" lon="10.05045997"><ele>3</ele><time>2020-02-23T08:37:44Z</time></trkpt>
<trkpt lat="44.033494983" lon="10.050497018"><ele>3</ele><time>2020-02-23T08:37:45Z</time></trkpt>
<trkpt lat="44.033480985" lon="10.050533982"><ele>3</ele><time>2020-02-23T08:37:46Z</time></trkpt>
<trkpt lat="44.033465981" lon="10.050572036"><ele>3</ele><time>2020-02-23T08:37:47Z</time></trkpt>
<trkpt lat="44.033451984" lon="10.050609"><ele>3</ele><time>2020-02-23T08:37:48Z</time></trkpt>
<trkpt lat="44.033437986" lon="10.050645964"><ele>3</ele><time>2020-02-23T08:37:49Z</time></trkpt>
<trkpt lat="44.033422982" lon="10.050684018"><ele>2</ele><time>2020-02-23T08:37:50Z</time></trkpt>
<trkpt lat="44.033408985" lon="10.050720982"><ele>2</ele><time>2020-02-23T08:37:51Z</time></trkpt>
<trkpt lat="44.033394987" lon="10.05075803"><ele>2</ele><time>2020-02-23T08:37:52Z</time></trkpt>
<trkpt lat="44.033380989" lon="10.050794994"><ele>2</ele><time>2020-02-23T08:37:53Z</time></trkpt>
<trkpt lat="44.033366991" lon="10.050832964"><ele>2</ele><time>2020-02-23T08:37:54Z</time></trkpt>
<trkpt lat="44.033351988" lon="10.050870012"><ele>2</ele><time>2020-02-23T08:37:55Z</time></trkpt>
<trkpt lat="44.03333799" lon="10.050906977"><ele>2</ele><time>2020-02-23T08:37:56Z</time></trkpt>
<trkpt lat="44.033324998" lon="10.050944025"><ele>2</ele><time>2020-02-23T08:37:57Z</time></trkpt>
<trkpt lat="44.033311" lon="10.050980989"><ele>2</ele><time>2020-02-23T08:37:58Z</time></trkpt>
<trkpt lat="44.033297002" lon="10.051018959"><ele>2</ele><time>2020-02-23T08:37:59Z</time></trkpt>
<trkpt lat="44.033283005" lon="10.051056007"><ele>3</ele><time>2020-02-23T08:38:00Z</time></trkpt>
<trkpt lat="44.033269007" lon="10.051092971"><ele>3</ele><time>2020-02-23T08:38:01Z</time></trkpt>
<trkpt lat="44.033256015" lon="10.051130019"><ele>3</ele><time>2020-02-23T08:38:02Z</time></trkpt>
<trkpt lat="44.033242017" lon="10.051166983"><ele>3</ele><time>2020-02-23T08:38:03Z</time></trkpt>
<trkpt lat="44.033229025" lon="10.051205037"><ele>3</ele><time>2020-02-23T08:38:04Z</time></trkpt>
<trkpt lat="44.033215027" lon="10.051242001"><ele>3</ele><time>2020-02-23T08:38:05Z</time></trkpt>
<trkpt lat="44.033202035" lon="10.051279971"><ele>3</ele><time>2020-02-23T08:38:06Z</time></trkpt>
<trkpt lat="44.033188038" lon="10.051317019"><ele>3</ele><time>2020-02-23T08:38:07Z</time></trkpt>
<trkpt lat="44.033174962" lon="10.051354989"><ele>3</ele><time>2020-02-23T08:38:08Z</time></trkpt>
<trkpt lat="44.03316197" lon="10.051392959"><ele>3</ele><time>2020-02-23T08:38:09Z</time></trkpt>
<trkpt lat="44.033147972" lon="10.051431013"><ele>3</ele><time>2020-02-23T08:38:10Z</time></trkpt>
<trkpt lat="44.03313498" lon="10.051468983"><ele>3</ele><time>2020-02-23T08:38:11Z</time></trkpt>
<trkpt lat="44.033121988" lon="10.051507037"><ele>3</ele><time>2020-02-23T08:38:12Z</time></trkpt>
<trkpt lat="44.03310799" lon="10.051545007"><ele>3</ele><time>2020-02-23T08:38:13Z</time></trkpt>
<trkpt lat="44.033094998" lon="10.051583983"><ele>3</ele><time>2020-02-23T08:38:14Z</time></trkpt>
<trkpt lat="44.033082006" lon="10.051622037"><ele>3</ele><time>2020-02-23T08:38:15Z</time></trkpt>
<trkpt lat="44.033068009" lon="10.051661013"><ele>3</ele><time>2020-02-23T08:38:16Z</time></trkpt>
<trkpt lat="44.033055017" lon="10.051699989"><ele>3</ele><time>2020-02-23T08:38:17Z</time></trkpt>
<trkpt lat="44.033042025" lon="10.051737959"><ele>3</ele><time>2020-02-23T08:38:18Z</time></trkpt>
<trkpt lat="44.033028027" lon="10.051777018"><ele>3</ele><time>2020-02-23T08:38:19Z</time></trkpt>
<trkpt lat="44.033015035" lon="10.051815994"><ele>3</ele><time>2020-02-23T08:38:20Z</time></trkpt>
<trkpt lat="44.033001037" lon="10.051853964"><ele>3</ele><time>2020-02-23T08:38:21Z</time></trkpt>
<trkpt lat="44.03298704" lon="10.051893024"><ele>3</ele><time>2020-02-23T08:38:22Z</time></trkpt>
<trkpt lat="44.032973964" lon="10.051930994"><ele>3</ele><time>2020-02-23T08:38:23Z</time></trkpt>
<trkpt lat="44.032959966" lon="10.051968964"><ele>3</ele><time>2020-02-23T08:38:24Z</time></trkpt>
<trkpt lat="44.032945968" lon="10.052007018"><ele>3</ele><time>2020-02-23T08:38:25Z</time></trkpt>
<trkpt lat="44.03293197" lon="10.052044988"><ele>3</ele><time>2020-02-23T08:38:26Z</time></trkpt>
<trkpt lat="44.032917973" lon="10.052083042"><ele>3</ele><time>2020-02-23T08:38:27Z</time></trkpt>
<trkpt lat="44.032903975" lon="10.052120006"><ele>2</ele><time>2020-02-23T08:38:28Z</time></trkpt>
<trkpt lat="44.032889977" lon="10.052157976"><ele>2</ele><time>2020-02-23T08:38:29Z</time></trkpt>
<trkpt lat="44.032875979" lon="10.05219603"><ele>2</ele><time>2020-02-23T08:38:30Z</time></trkpt>
<trkpt lat="44.032861982" lon="10.052234"><ele>2</ele><time>2020-02-23T08:38:31Z</time></trkpt>
<trkpt lat="44.032847984" lon="10.05227197"><ele>2</ele><time>2020-02-23T08:38:32Z</time></trkpt>
<trkpt lat="44.032833986" lon="10.052310023"><ele>2</ele><time>2020-02-23T08:38:33Z</time></trkpt>
<trkpt lat="44.032820994" lon="10.052347993"><ele>2</ele><time>2020-02-23T08:38:34Z</time></trkpt>
<trkpt lat="44.032808002" lon="10.052385963"><ele>2</ele><time>2020-02-23T08:38:35Z</time></trkpt>
<trkpt lat="44.03279501" lon="10.052425023"><ele>2</ele><time>2020-02-23T08:38:36Z</time></trkpt>
<trkpt lat="44.032782018" lon="10.052463999"><ele>2</ele><time>2020-02-23T08:38:37Z</time></trkpt>
<trkpt lat="44.032769026" lon="10.052502975"><ele>2</ele><time>2020-02-23T08:38:38Z</time></trkpt>
<trkpt lat="44.03275704" lon="10.052542035"><ele>2</ele><time>2020-02-23T08:38:39Z</time></trkpt>
<trkpt lat="44.03274497" lon="10.052582016"><ele>2</ele><time>2020-02-23T08:38:40Z</time></trkpt>
<trkpt lat="44.03273399" lon="10.052621998"><ele>2</ele><time>2020-02-23T08:38:41Z</time></trkpt>
<trkpt lat="44.032722004" lon="10.05266198"><ele>2</ele><time>2020-02-23T08:38:42Z</time></trkpt>
<trkpt lat="44.032712029" lon="10.052702967"><ele>2</ele><time>2020-02-23T08:38:43Z</time></trkpt>
<trkpt lat="44.032701971" lon="10.05274496"><ele>2</ele><time>2020-02-23T08:38:44Z</time></trkpt>
<trkpt lat="44.032691997" lon="10.052786032"><ele>2</ele><time>2020-02-23T08:38:45Z</time></trkpt>
<trkpt lat="44.032682022" lon="10.052829031"><ele>2</ele><time>2020-02-23T08:38:46Z</time></trkpt>
<trkpt lat="44.032673975" lon="10.05287203"><ele>2</ele><time>2020-02-23T08:38:47Z</time></trkpt>
<trkpt lat="44.032665007" lon="10.052915029"><ele>2</ele><time>2020-02-23T08:38:48Z</time></trkpt>
<trkpt lat="44.032657966" lon="10.052959034"><ele>2</ele><time>2020-02-23T08:38:49Z</time></trkpt>
<trkpt lat="44.032651009" lon="10.053003039"><ele>2</ele><time>2020-02-23T08:38:50Z</time></trkpt>
<trkpt lat="44.032643968" lon="10.053047966"><ele>2</ele><time>2020-02-23T08:38:51Z</time></trkpt>
<trkpt lat="44.032639023" lon="10.053092977"><ele>2</ele><time>2020-02-23T08:38:52Z</time></trkpt>
<trkpt lat="44.032633994" lon="10.053137988"><ele>3</ele><time>2020-02-23T08:38:53Z</time></trkpt>
<trkpt lat="44.03262997" lon="10.053182999"><ele>3</ele><time>2020-02-23T08:38:54Z</time></trkpt>
<trkpt lat="44.032627037" lon="10.053228009"><ele>3</ele><time>2020-02-23T08:38:55Z</time></trkpt>
<trkpt lat="44.032625025" lon="10.05327302"><ele>3</ele><time>2020-02-23T08:38:56Z</time></trkpt>
<trkpt lat="44.032624019" lon="10.053318031"><ele>3</ele><time>2020-02-23T08:38:57Z</time></trkpt>
<trkpt lat="44.032623013" lon="10.053362036"><ele>3</ele><time>2020-02-23T08:38:58Z</time></trkpt>
<trkpt lat="44.032624019" lon="10.053406041"><ele>3</ele><time>2020-02-23T08:38:59Z</time></trkpt>
<trkpt lat="44.032626031" lon="10.05344904"><ele>3</ele><time>2020-02-23T08:39:00Z</time></trkpt>
<trkpt lat="44.032632988" lon="10.053535039"><ele>3</ele><time>2020-02-23T08:39:02Z</time></trkpt>
<trkpt lat="44.032638017" lon="10.053577032"><ele>3</ele><time>2020-02-23T08:39:03Z</time></trkpt>
<trkpt lat="44.032658972" lon="10.053701"><ele>3</ele><time>2020-02-23T08:39:06Z</time></trkpt>
<trkpt lat="44.032668024" lon="10.053741988"><ele>3</ele><time>2020-02-23T08:39:07Z</time></trkpt>
<trkpt lat="44.032677999" lon="10.053781969"><ele>3</ele><time>2020-02-23T08:39:08Z</time></trkpt>
<trkpt lat="44.032688979" lon="10.053822035"><ele>3</ele><time>2020-02-23T08:39:09Z</time></trkpt>
<trkpt lat="44.032700965" lon="10.053861011"><ele>3</ele><time>2020-02-23T08:39:10Z</time></trkpt>
<trkpt lat="44.032714041" lon="10.053899987"><ele>3</ele><time>2020-02-23T08:39:11Z</time></trkpt>
<trkpt lat="44.032728039" lon="10.053938963"><ele>4</ele><time>2020-02-23T08:39:12Z</time></trkpt>
<trkpt lat="44.032742037" lon="10.053978022"><ele>4</ele><time>2020-02-23T08:39:13Z</time></trkpt>
<trkpt lat="44.032757962" lon="10.054015992"><ele>4</ele><time>2020-02-23T08:39:14Z</time></trkpt>
<trkpt lat="44.032773972" lon="10.05405304"><ele>4</ele><time>2020-02-23T08:39:15Z</time></trkpt>
<trkpt lat="44.032790987" lon="10.054090004"><ele>4</ele><time>2020-02-23T08:39:16Z</time></trkpt>
<trkpt lat="44.032808002" lon="10.054126969"><ele>4</ele><time>2020-02-23T08:39:17Z</time></trkpt>
<trkpt lat="44.032826023" lon="10.054163011"><ele>4</ele><time>2020-02-23T08:39:18Z</time></trkpt>
<trkpt lat="44.032843038" lon="10.054197963"><ele>4</ele><time>2020-02-23T08:39:19Z</time></trkpt>
<trkpt lat="44.032860976" lon="10.054234006"><ele>4</ele><time>2020-02-23T08:39:20Z</time></trkpt>
<trkpt lat="44.032877991" lon="10.054269964"><ele>4</ele><time>2020-02-23T08:39:21Z</time></trkpt>
<trkpt lat="44.032894" lon="10.054306006"><ele>4</ele><time>2020-02-23T08:39:22Z</time></trkpt>
<trkpt lat="44.032907998" lon="10.054343976"><ele>4</ele><time>2020-02-23T08:39:23Z</time></trkpt>
<trkpt lat="44.03292099" lon="10.054383036"><ele>4</ele><time>2020-02-23T08:39:24Z</time></trkpt>
<trkpt lat="44.03293197" lon="10.054423017"><ele>4</ele><time>2020-02-23T08:39:25Z</time></trkpt>
<trkpt lat="44.032960972" lon="10.054546986"><ele>4</ele><time>2020-02-23T08:39:28Z</time></trkpt>
<trkpt lat="44.032970024" lon="10.054587973"><ele>4</ele><time>2020-02-23T08:39:29Z</time></trkpt>
<trkpt lat="44.032978993" lon="10.054628961"><ele>4</ele><time>2020-02-23T08:39:30Z</time></trkpt>
<trkpt lat="44.032987962" lon="10.054670032"><ele>4</ele><time>2020-02-23T08:39:31Z</time></trkpt>
<trkpt lat="44.03299802" lon="10.054710014"><ele>4</ele><time>2020-02-23T08:39:32Z</time></trkpt>
<trkpt lat="44.033006988" lon="10.054751001"><ele>4</ele><time>2020-02-23T08:39:33Z</time></trkpt>
<trkpt lat="44.033016041" lon="10.054792995"><ele>4</ele><time>2020-02-23T08:39:34Z</time></trkpt>
<trkpt lat="44.033024004" lon="10.054834988"><ele>4</ele><time>2020-02-23T08:39:35Z</time></trkpt>
<trkpt lat="44.033030961" lon="10.054877987"><ele>4</ele><time>2020-02-23T08:39:36Z</time></trkpt>
<trkpt lat="44.033038002" lon="10.054920986"><ele>4</ele><time>2020-02-23T08:39:37Z</time></trkpt>
<trkpt lat="44.033050993" lon="10.055008996"><ele>4</ele><time>2020-02-23T08:39:39Z</time></trkpt>
<trkpt lat="44.033056023" lon="10.055053001"><ele>4</ele><time>2020-02-23T08:39:40Z</time></trkpt>
<trkpt lat="44.03305904" lon="10.055097006"><ele>4</ele><time>2020-02-23T08:39:41Z</time></trkpt>
<trkpt lat="44.033059962" lon="10.055141011"><ele>4</ele><time>2020-02-23T08:39:42Z</time></trkpt>
<trkpt lat="44.033056023" lon="10.055185016"><ele>4</ele><time>2020-02-23T08:39:43Z</time></trkpt>
<trkpt lat="44.033028027" lon="10.055318037"><ele>5</ele><time>2020-02-23T08:39:46Z</time></trkpt>
<trkpt lat="44.033016963" lon="10.055361958"><ele>5</ele><time>2020-02-23T08:39:47Z</time></trkpt>
<trkpt lat="44.032993997" lon="10.055450974"><ele>5</ele><time>2020-02-23T08:39:49Z</time></trkpt>
<trkpt lat="44.032985028" lon="10.055494979"><ele>5</ele><time>2020-02-23T08:39:50Z</time></trkpt>
<trkpt lat="44.032955021" lon="10.055622971"><ele>5</ele><time>2020-02-23T08:39:53Z</time></trkpt>
<trkpt lat="44.03294404" lon="10.055663036"><ele>5</ele><time>2020-02-23T08:39:54Z</time></trkpt>
<trkpt lat="44.032930965" lon="10.055702012"><ele>5</ele><time>2020-02-23T08:39:55Z</time></trkpt>
<trkpt lat="44.032917973" lon="10.055739982"><ele>5</ele><time>2020-02-23T08:39:56Z</time></trkpt>
<trkpt lat="44.032902969" lon="10.055776024"><ele>5</ele><time>2020-02-23T08:39:57Z</time></trkpt>
<trkpt lat="44.032887965" lon="10.055811983"><ele>5</ele><time>2020-02-23T08:39:58Z</time></trkpt>
<trkpt lat="44.03287204" lon="10.055848025"><ele>4</ele><time>2020-02-23T08:39:59Z</time></trkpt>
<trkpt lat="44.03285603" lon="10.055882977"><ele>4</ele><time>2020-02-23T08:40:00Z</time></trkpt>
<trkpt lat="44.032840021" lon="10.05591902"><ele>4</ele><time>2020-02-23T08:40:01Z</time></trkpt>
<trkpt lat="44.032824012" lon="10.055954978"><ele>4</ele><time>2020-02-23T08:40:02Z</time></trkpt>
<trkpt lat="44.032809008" lon="10.05599102"><ele>4</ele><time>2020-02-23T08:40:03Z</time></trkpt>
<trkpt lat="44.032792998" lon="10.056026978"><ele>4</ele><time>2020-02-23T08:40:04Z</time></trkpt>
<trkpt lat="44.032776989" lon="10.056064026"><ele>4</ele><time>2020-02-23T08:40:05Z</time></trkpt>
<trkpt lat="44.032761985" lon="10.056099985"><ele>4</ele><time>2020-02-23T08:40:06Z</time></trkpt>
<trkpt lat="44.032745976" lon="10.056137033"><ele>4</ele><time>2020-02-23T08:40:07Z</time></trkpt>
<trkpt lat="44.032699959" lon="10.056249015"><ele>4</ele><time>2020-02-23T08:40:10Z</time></trkpt>
<trkpt lat="44.03268504" lon="10.056286985"><ele>4</ele><time>2020-02-23T08:40:11Z</time></trkpt>
<trkpt lat="44.03266903" lon="10.056324033"><ele>4</ele><time>2020-02-23T08:40:12Z</time></trkpt>
<trkpt lat="44.032654027" lon="10.056362003"><ele>4</ele><time>2020-02-23T08:40:13Z</time></trkpt>
<trkpt lat="44.032639023" lon="10.056399973"><ele>4</ele><time>2020-02-23T08:40:14Z</time></trkpt>
<trkpt lat="44.032624019" lon="10.056437021"><ele>4</ele><time>2020-02-23T08:40:15Z</time></trkpt>
<trkpt lat="44.032609016" lon="10.056474991"><ele>4</ele><time>2020-02-23T08:40:16Z</time></trkpt>
<trkpt lat="44.032594012" lon="10.056512961"><ele>4</ele><time>2020-02-23T08:40:17Z</time></trkpt>
<trkpt lat="44.032579008" lon="10.056551015"><ele>4</ele><time>2020-02-23T08:40:18Z</time></trkpt>
<trkpt lat="44.032564005" lon="10.056588985"><ele>4</ele><time>2020-02-23T08:40:19Z</time></trkpt>
<trkpt lat="44.032549001" lon="10.056627039"><ele>4</ele><time>2020-02-23T08:40:20Z</time></trkpt>
<trkpt lat="44.032533998" lon="10.056665009"><ele>4</ele><time>2020-02-23T08:40:21Z</time></trkpt>
<trkpt lat="44.032518994" lon="10.056702979"><ele>4</ele><time>2020-02-23T08:40:22Z</time></trkpt>
<trkpt lat="44.032504996" lon="10.056741033"><ele>4</ele><time>2020-02-23T08:40:23Z</time></trkpt>
<trkpt lat="44.032489993" lon="10.056779003"><ele>4</ele><time>2020-02-23T08:40:24Z</time></trkpt>
<trkpt lat="44.032474989" lon="10.056815967"><ele>4</ele><time>2020-02-23T08:40:25Z</time></trkpt>
<trkpt lat="44.032460991" lon="10.056854021"><ele>4</ele><time>2020-02-23T08:40:26Z</time></trkpt>
<trkpt lat="44.032445988" lon="10.056891991"><ele>4</ele><time>2020-02-23T08:40:27Z</time></trkpt>
<trkpt lat="44.03243199" lon="10.056929039"><ele>4</ele><time>2020-02-23T08:40:28Z</time></trkpt>
<trkpt lat="44.032416986" lon="10.056967009"><ele>4</ele><time>2020-02-23T08:40:29Z</time></trkpt>
<trkpt lat="44.032401983" lon="10.057003973"><ele>4</ele><time>2020-02-23T08:40:30Z</time></trkpt>
<trkpt lat="44.032387985" lon="10.057041021"><ele>4</ele><time>2020-02-23T08:40:31Z</time></trkpt>
<trkpt lat="44.032372981" lon="10.057077985"><ele>4</ele><time>2020-02-23T08:40:32Z</time></trkpt>
<trkpt lat="44.032358984" lon="10.057116039"><ele>4</ele><time>2020-02-23T08:40:33Z</time></trkpt>
<trkpt lat="44.03234398" lon="10.057153003"><ele>4</ele><time>2020-02-23T08:40:34Z</time></trkpt>
<trkpt lat="44.032329982" lon="10.057189967"><ele>4</ele><time>2020-02-23T08:40:35Z</time></trkpt>
<trkpt lat="44.032315984" lon="10.057227015"><ele>4</ele><time>2020-02-23T08:40:36Z</time></trkpt>
<trkpt lat="44.032300981" lon="10.05726398"><ele>4</ele><time>2020-02-23T08:40:37Z</time></trkpt>
<trkpt lat="44.032286983" lon="10.057301028"><ele>4</ele><time>2020-02-23T08:40:38Z</time></trkpt>
<trkpt lat="44.032256976" lon="10.05737504"><ele>4</ele><time>2020-02-23T08:40:40Z</time></trkpt>
<trkpt lat="44.032242978" lon="10.057412004"><ele>4</ele><time>2020-02-23T08:40:41Z</time></trkpt>
<trkpt lat="44.032213977" lon="10.05748501"><ele>4</ele><time>2020-02-23T08:40:43Z</time></trkpt>
<trkpt lat="44.032198973" lon="10.057521975"><ele>4</ele><time>2020-02-23T08:40:44Z</time></trkpt>
<trkpt lat="44.032184975" lon="10.057559023"><ele>4</ele><time>2020-02-23T08:40:45Z</time></trkpt>
<trkpt lat="44.032169972" lon="10.057595987"><ele>4</ele><time>2020-02-23T08:40:46Z</time></trkpt>
<trkpt lat="44.032154968" lon="10.057633035"><ele>4</ele><time>2020-02-23T08:40:47Z</time></trkpt>
<trkpt lat="44.032139964" lon="10.057668993"><ele>4</ele><time>2020-02-23T08:40:48Z</time></trkpt>
<trkpt lat="44.032124961" lon="10.057706041"><ele>4</ele><time>2020-02-23T08:40:49Z</time></trkpt>
<trkpt lat="44.032110963" lon="10.057743005"><ele>4</ele><time>2020-02-23T08:40:50Z</time></trkpt>
<trkpt lat="44.032095959" lon="10.057778964"><ele>4</ele><time>2020-02-23T08:40:51Z</time></trkpt>
<trkpt lat="44.03208104" lon="10.057816012"><ele>4</ele><time>2020-02-23T08:40:52Z</time></trkpt>
<trkpt lat="44.032051032" lon="10.057889018"><ele>4</ele><time>2020-02-23T08:40:54Z</time></trkpt>
<trkpt lat="44.032005016" lon="10.057998989"><ele>4</ele><time>2020-02-23T08:40:57Z</time></trkpt>
<trkpt lat="44.031990012" lon="10.058036037"><ele>4</ele><time>2020-02-23T08:40:58Z</time></trkpt>
<trkpt lat="44.031975009" lon="10.058073001"><ele>4</ele><time>2020-02-23T08:40:59Z</time></trkpt>
<trkpt lat="44.031960005" lon="10.058108959"><ele>5</ele><time>2020-02-23T08:41:00Z</time></trkpt>
<trkpt lat="44.031945001" lon="10.058146007"><ele>5</ele><time>2020-02-23T08:41:01Z</time></trkpt>
<trkpt lat="44.031929998" lon="10.058181966"><ele>5</ele><time>2020-02-23T08:41:02Z</time></trkpt>
<trkpt lat="44.031913988" lon="10.058219014"><ele>5</ele><time>2020-02-23T08:41:03Z</time></trkpt>
<trkpt lat="44.031898985" lon="10.058254972"><ele>5</ele><time>2020-02-23T08:41:04Z</time></trkpt>
<trkpt lat="44.031883981" lon="10.05829202"><ele>5</ele><time>2020-02-23T08:41:05Z</time></trkpt>
<trkpt lat="44.031868977" lon="10.058327978"><ele>5</ele><time>2020-02-23T08:41:06Z</time></trkpt>
<trkpt lat="44.031853974" lon="10.058365026"><ele>5</ele><time>2020-02-23T08:41:07Z</time></trkpt>
<trkpt lat="44.03183897" lon="10.058400985"><ele>5</ele><time>2020-02-23T08:41:08Z</time></trkpt>
<trkpt lat="44.031822961" lon="10.058438033"><ele>5</ele><time>2020-02-23T08:41:09Z</time></trkpt>
<trkpt lat="44.031808041" lon="10.058473991"><ele>5</ele><time>2020-02-23T08:41:10Z</time></trkpt>
<trkpt lat="44.031793037" lon="10.058510033"><ele>5</ele><time>2020-02-23T08:41:11Z</time></trkpt>
<trkpt lat="44.031778034" lon="10.058546998"><ele>5</ele><time>2020-02-23T08:41:12Z</time></trkpt>
<trkpt lat="44.03176303" lon="10.05858304"><ele>5</ele><time>2020-02-23T08:41:13Z</time></trkpt>
<trkpt lat="44.031748027" lon="10.058618998"><ele>5</ele><time>2020-02-23T08:41:14Z</time></trkpt>
<trkpt lat="44.031733023" lon="10.05865504"><ele>5</ele><time>2020-02-23T08:41:15Z</time></trkpt>
<trkpt lat="44.031719025" lon="10.058692005"><ele>5</ele><time>2020-02-23T08:41:16Z</time></trkpt>
<trkpt lat="44.031704022" lon="10.058727963"><ele>5</ele><time>2020-02-23T08:41:17Z</time></trkpt>
<trkpt lat="44.031674014" lon="10.058799963"><ele>4</ele><time>2020-02-23T08:41:19Z</time></trkpt>
<trkpt lat="44.031630009" lon="10.058909012"><ele>4</ele><time>2020-02-23T08:41:22Z</time></trkpt>
<trkpt lat="44.031615006" lon="10.05894497"><ele>4</ele><time>2020-02-23T08:41:23Z</time></trkpt>
<trkpt lat="44.031601008" lon="10.058981013"><ele>4</ele><time>2020-02-23T08:41:24Z</time></trkpt>
<trkpt lat="44.031586004" lon="10.059017977"><ele>4</ele><time>2020-02-23T08:41:25Z</time></trkpt>
<trkpt lat="44.031571001" lon="10.059054019"><ele>4</ele><time>2020-02-23T08:41:26Z</time></trkpt>
<trkpt lat="44.031557003" lon="10.059090983"><ele>4</ele><time>2020-02-23T08:41:27Z</time></trkpt>
<trkpt lat="44.031541999" lon="10.059127025"><ele>4</ele><time>2020-02-23T08:41:28Z</time></trkpt>
<trkpt lat="44.031526996" lon="10.059163989"><ele>4</ele><time>2020-02-23T08:41:29Z</time></trkpt>
<trkpt lat="44.031512998" lon="10.059200032"><ele>4</ele><time>2020-02-23T08:41:30Z</time></trkpt>
<trkpt lat="44.031497994" lon="10.059236996"><ele>4</ele><time>2020-02-23T08:41:31Z</time></trkpt>
<trkpt lat="44.031482991" lon="10.059273038"><ele>4</ele><time>2020-02-23T08:41:32Z</time></trkpt>
<trkpt lat="44.031468993" lon="10.059310002"><ele>4</ele><time>2020-02-23T08:41:33Z</time></trkpt>
<trkpt lat="44.031453989" lon="10.059346966"><ele>4</ele><time>2020-02-23T08:41:34Z</time></trkpt>
<trkpt lat="44.031438986" lon="10.059384014"><ele>4</ele><time>2020-02-23T08:41:35Z</time></trkpt>
<trkpt lat="44.031423982" lon="10.059420979"><ele>4</ele><time>2020-02-23T08:41:36Z</time></trkpt>
<trkpt lat="44.031409984" lon="10.059458027"><ele>4</ele><time>2020-02-23T08:41:37Z</time></trkpt>
<trkpt lat="44.031394981" lon="10.059495997"><ele>4</ele><time>2020-02-23T08:41:38Z</time></trkpt>
<trkpt lat="44.031379977" lon="10.059532961"><ele>4</ele><time>2020-02-23T08:41:39Z</time></trkpt>
<trkpt lat="44.031364974" lon="10.059570009"><ele>4</ele><time>2020-02-23T08:41:40Z</time></trkpt>
<trkpt lat="44.03134997" lon="10.059607979"><ele>4</ele><time>2020-02-23T08:41:41Z</time></trkpt>
<trkpt lat="44.031334966" lon="10.059646033"><ele>4</ele><time>2020-02-23T08:41:42Z</time></trkpt>
<trkpt lat="44.031319963" lon="10.059682997"><ele>4</ele><time>2020-02-23T08:41:43Z</time></trkpt>
<trkpt lat="44.031304959" lon="10.059720967"><ele>4</ele><time>2020-02-23T08:41:44Z</time></trkpt>
<trkpt lat="44.031290039" lon="10.059759021"><ele>4</ele><time>2020-02-23T08:41:45Z</time></trkpt>
<trkpt lat="44.031275036" lon="10.059795985"><ele>4</ele><time>2020-02-23T08:41:46Z</time></trkpt>
<trkpt lat="44.031260032" lon="10.059834039"><ele>4</ele><time>2020-02-23T08:41:47Z</time></trkpt>
<trkpt lat="44.031245029" lon="10.059872009"><ele>4</ele><time>2020-02-23T08:41:48Z</time></trkpt>
<trkpt lat="44.031230025" lon="10.059908973"><ele>4</ele><time>2020-02-23T08:41:49Z</time></trkpt>
<trkpt lat="44.031214016" lon="10.059946021"><ele>4</ele><time>2020-02-23T08:41:50Z</time></trkpt>
<trkpt lat="44.031199012" lon="10.059983991"><ele>4</ele><time>2020-02-23T08:41:51Z</time></trkpt>
<trkpt lat="44.031184008" lon="10.060021039"><ele>4</ele><time>2020-02-23T08:41:52Z</time></trkpt>
<trkpt lat="44.031169005" lon="10.060058003"><ele>4</ele><time>2020-02-23T08:41:53Z</time></trkpt>
<trkpt lat="44.031154001" lon="10.060094967"><ele>4</ele><time>2020-02-23T08:41:54Z</time></trkpt>
<trkpt lat="44.031137992" lon="10.060132015"><ele>4</ele><time>2020-02-23T08:41:55Z</time></trkpt>
<trkpt lat="44.031122988" lon="10.060167974"><ele>4</ele><time>2020-02-23T08:41:56Z</time></trkpt>
<trkpt lat="44.031107984" lon="10.060204016"><ele>4</ele><time>2020-02-23T08:41:57Z</time></trkpt>
<trkpt lat="44.031091975" lon="10.06024098"><ele>4</ele><time>2020-02-23T08:41:58Z</time></trkpt>
<trkpt lat="44.031076971" lon="10.060276017"><ele>4</ele><time>2020-02-23T08:41:59Z</time></trkpt>
<trkpt lat="44.031061968" lon="10.060311975"><ele>4</ele><time>2020-02-23T08:42:00Z</time></trkpt>
<trkpt lat="44.031046964" lon="10.060347011"><ele>4</ele><time>2020-02-23T08:42:01Z</time></trkpt>
<trkpt lat="44.031031039" lon="10.060381964"><ele>4</ele><time>2020-02-23T08:42:02Z</time></trkpt>
<trkpt lat="44.031016035" lon="10.060417"><ele>4</ele><time>2020-02-23T08:42:03Z</time></trkpt>
<trkpt lat="44.031001031" lon="10.060451031"><ele>4</ele><time>2020-02-23T08:42:04Z</time></trkpt>
<trkpt lat="44.030985022" lon="10.060484977"><ele>4</ele><time>2020-02-23T08:42:05Z</time></trkpt>
<trkpt lat="44.030970018" lon="10.060519008"><ele>4</ele><time>2020-02-23T08:42:06Z</time></trkpt>
<trkpt lat="44.030955015" lon="10.060553038"><ele>4</ele><time>2020-02-23T08:42:07Z</time></trkpt>
<trkpt lat="44.030940011" lon="10.060587991"><ele>4</ele><time>2020-02-23T08:42:08Z</time></trkpt>
<trkpt lat="44.030924002" lon="10.060622022"><ele>4</ele><time>2020-02-23T08:42:09Z</time></trkpt>
<trkpt lat="44.030908998" lon="10.060655968"><ele>4</ele><time>2020-02-23T08:42:10Z</time></trkpt>
<trkpt lat="44.030893994" lon="10.060689999"><ele>4</ele><time>2020-02-23T08:42:11Z</time></trkpt>
<trkpt lat="44.030878991" lon="10.060725035"><ele>4</ele><time>2020-02-23T08:42:12Z</time></trkpt>
<trkpt lat="44.030863987" lon="10.060760994"><ele>4</ele><time>2020-02-23T08:42:13Z</time></trkpt>
<trkpt lat="44.030848984" lon="10.06079603"><ele>4</ele><time>2020-02-23T08:42:14Z</time></trkpt>
<trkpt lat="44.030832974" lon="10.060831988"><ele>4</ele><time>2020-02-23T08:42:15Z</time></trkpt>
<trkpt lat="44.030818976" lon="10.060869036"><ele>4</ele><time>2020-02-23T08:42:16Z</time></trkpt>
<trkpt lat="44.030803973" lon="10.060906"><ele>4</ele><time>2020-02-23T08:42:17Z</time></trkpt>
<trkpt lat="44.030788969" lon="10.060942965"><ele>4</ele><time>2020-02-23T08:42:18Z</time></trkpt>
<trkpt lat="44.030773966" lon="10.060980013"><ele>4</ele><time>2020-02-23T08:42:19Z</time></trkpt>
<trkpt lat="44.030758962" lon="10.061017983"><ele>4</ele><time>2020-02-23T08:42:20Z</time></trkpt>
<trkpt lat="44.030744964" lon="10.061056037"><ele>4</ele><time>2020-02-23T08:42:21Z</time></trkpt>
<trkpt lat="44.030730966" lon="10.061093001"><ele>4</ele><time>2020-02-23T08:42:22Z</time></trkpt>
<trkpt lat="44.030715963" lon="10.061130971"><ele>4</ele><time>2020-02-23T08:42:23Z</time></trkpt>
<trkpt lat="44.030701965" lon="10.061169025"><ele>4</ele><time>2020-02-23T08:42:24Z</time></trkpt>
<trkpt lat="44.030687967" lon="10.061205989"><ele>4</ele><time>2020-02-23T08:42:25Z</time></trkpt>
<trkpt lat="44.030674975" lon="10.061243037"><ele>4</ele><time>2020-02-23T08:42:26Z</time></trkpt>
<trkpt lat="44.030660978" lon="10.061280001"><ele>4</ele><time>2020-02-23T08:42:27Z</time></trkpt>
<trkpt lat="44.030647986" lon="10.061315959"><ele>4</ele><time>2020-02-23T08:42:28Z</time></trkpt>
<trkpt lat="44.030634994" lon="10.061352002"><ele>4</ele><time>2020-02-23T08:42:29Z</time></trkpt>
<trkpt lat="44.030620996" lon="10.06138796"><ele>4</ele><time>2020-02-23T08:42:30Z</time></trkpt>
<trkpt lat="44.030608004" lon="10.061424002"><ele>4</ele><time>2020-02-23T08:42:31Z</time></trkpt>
<trkpt lat="44.030595012" lon="10.061459038"><ele>4</ele><time>2020-02-23T08:42:32Z</time></trkpt>
<trkpt lat="44.030581014" lon="10.061494997"><ele>4</ele><time>2020-02-23T08:42:33Z</time></trkpt>
<trkpt lat="44.030567016" lon="10.061530033"><ele>4</ele><time>2020-02-23T08:42:34Z</time></trkpt>
<trkpt lat="44.030553019" lon="10.061564986"><ele>4</ele><time>2020-02-23T08:42:35Z</time></trkpt>
<trkpt lat="44.030539021" lon="10.061600022"><ele>4</ele><time>2020-02-23T08:42:36Z</time></trkpt>
<trkpt lat="44.030524017" lon="10.06163598"><ele>4</ele><time>2020-02-23T08:42:37Z</time></trkpt>
<trkpt lat="44.030508008" lon="10.061671017"><ele>3</ele><time>2020-02-23T08:42:38Z</time></trkpt>
<trkpt lat="44.030491998" lon="10.061706975"><ele>3</ele><time>2020-02-23T08:42:39Z</time></trkpt>
<trkpt lat="44.030475989" lon="10.061742011"><ele>3</ele><time>2020-02-23T08:42:40Z</time></trkpt>
<trkpt lat="44.030458974" lon="10.06177797"><ele>3</ele><time>2020-02-23T08:42:41Z</time></trkpt>
<trkpt lat="44.030441958" lon="10.061814012"><ele>3</ele><time>2020-02-23T08:42:42Z</time></trkpt>
<trkpt lat="44.030424021" lon="10.06184997"><ele>3</ele><time>2020-02-23T08:42:43Z</time></trkpt>
<trkpt lat="44.030407006" lon="10.061886013"><ele>3</ele><time>2020-02-23T08:42:44Z</time></trkpt>
<trkpt lat="44.030388985" lon="10.061921971"><ele>3</ele><time>2020-02-23T08:42:45Z</time></trkpt>
<trkpt lat="44.030370964" lon="10.061959019"><ele>3</ele><time>2020-02-23T08:42:46Z</time></trkpt>
<trkpt lat="44.030353026" lon="10.061994977"><ele>3</ele><time>2020-02-23T08:42:47Z</time></trkpt>
<trkpt lat="44.030335005" lon="10.062032025"><ele>3</ele><time>2020-02-23T08:42:48Z</time></trkpt>
<trkpt lat="44.030316984" lon="10.06206899"><ele>3</ele><time>2020-02-23T08:42:49Z</time></trkpt>
<trkpt lat="44.030299969" lon="10.062106038"><ele>3</ele><time>2020-02-23T08:42:50Z</time></trkpt>
<trkpt lat="44.030282032" lon="10.062143002"><ele>3</ele><time>2020-02-23T08:42:51Z</time></trkpt>
<trkpt lat="44.030265016" lon="10.062179966"><ele>3</ele><time>2020-02-23T08:42:52Z</time></trkpt>
<trkpt lat="44.030248001" lon="10.062217014"><ele>3</ele><time>2020-02-23T08:42:53Z</time></trkpt>
<trkpt lat="44.030231992" lon="10.062253978"><ele>3</ele><time>2020-02-23T08:42:54Z</time></trkpt>
<trkpt lat="44.030215982" lon="10.062292032"><ele>3</ele><time>2020-02-23T08:42:55Z</time></trkpt>
<trkpt lat="44.030198967" lon="10.062328996"><ele>3</ele><time>2020-02-23T08:42:56Z</time></trkpt>
<trkpt lat="44.030183041" lon="10.062366966"><ele>3</ele><time>2020-02-23T08:42:57Z</time></trkpt>
<trkpt lat="44.030168038" lon="10.06240502"><ele>3</ele><time>2020-02-23T08:42:58Z</time></trkpt>
<trkpt lat="44.030152028" lon="10.06244299"><ele>3</ele><time>2020-02-23T08:42:59Z</time></trkpt>
<trkpt lat="44.030137025" lon="10.06248096"><ele>4</ele><time>2020-02-23T08:43:00Z</time></trkpt>
<trkpt lat="44.030122021" lon="10.062518008"><ele>4</ele><time>2020-02-23T08:43:01Z</time></trkpt>
<trkpt lat="44.030106012" lon="10.062555978"><ele>4</ele><time>2020-02-23T08:43:02Z</time></trkpt>
<trkpt lat="44.030091008" lon="10.062594032"><ele>4</ele><time>2020-02-23T08:43:03Z</time></trkpt>
<trkpt lat="44.03007701" lon="10.062632002"><ele>4</ele><time>2020-02-23T08:43:04Z</time></trkpt>
<trkpt lat="44.030062007" lon="10.062669972"><ele>4</ele><time>2020-02-23T08:43:05Z</time></trkpt>
<trkpt lat="44.030047003" lon="10.062708026"><ele>4</ele><time>2020-02-23T08:43:06Z</time></trkpt>
<trkpt lat="44.030033005" lon="10.062745996"><ele>4</ele><time>2020-02-23T08:43:07Z</time></trkpt>
<trkpt lat="44.030018002" lon="10.062783966"><ele>4</ele><time>2020-02-23T08:43:08Z</time></trkpt>
<trkpt lat="44.030004004" lon="10.06282202"><ele>4</ele><time>2020-02-23T08:43:09Z</time></trkpt>
<trkpt lat="44.029990006" lon="10.06285999"><ele>4</ele><time>2020-02-23T08:43:10Z</time></trkpt>
<trkpt lat="44.029975003" lon="10.06289796"><ele>4</ele><time>2020-02-23T08:43:11Z</time></trkpt>
<trkpt lat="44.029961005" lon="10.062936014"><ele>4</ele><time>2020-02-23T08:43:12Z</time></trkpt>
<trkpt lat="44.029947007" lon="10.062972978"><ele>4</ele><time>2020-02-23T08:43:13Z</time></trkpt>
<trkpt lat="44.029933009" lon="10.063011032"><ele>4</ele><time>2020-02-23T08:43:14Z</time></trkpt>
<trkpt lat="44.029918006" lon="10.063049002"><ele>4</ele><time>2020-02-23T08:43:15Z</time></trkpt>
<trkpt lat="44.029904008" lon="10.063085966"><ele>4</ele><time>2020-02-23T08:43:16Z</time></trkpt>
<trkpt lat="44.02989001" lon="10.063123014"><ele>4</ele><time>2020-02-23T08:43:17Z</time></trkpt>
<trkpt lat="44.029876012" lon="10.063160984"><ele>4</ele><time>2020-02-23T08:43:18Z</time></trkpt>
<trkpt lat="44.029861009" lon="10.063198032"><ele>4</ele><time>2020-02-23T08:43:19Z</time></trkpt>
<trkpt lat="44.029847011" lon="10.063234996"><ele>4</ele><time>2020-02-23T08:43:20Z</time></trkpt>
<trkpt lat="44.029833013" lon="10.063272966"><ele>5</ele><time>2020-02-23T08:43:21Z</time></trkpt>
<trkpt lat="44.02981801" lon="10.063310014"><ele>5</ele><time>2020-02-23T08:43:22Z</time></trkpt>
<trkpt lat="44.029804012" lon="10.063346978"><ele>5</ele><time>2020-02-23T08:43:23Z</time></trkpt>
<trkpt lat="44.029789008" lon="10.063384026"><ele>5</ele><time>2020-02-23T08:43:24Z</time></trkpt>
<trkpt lat="44.029774005" lon="10.06342099"><ele>5</ele><time>2020-02-23T08:43:25Z</time></trkpt>
<trkpt lat="44.029759001" lon="10.063458961"><ele>5</ele><time>2020-02-23T08:43:26Z</time></trkpt>
<trkpt lat="44.029743997" lon="10.063496009"><ele>5</ele><time>2020-02-23T08:43:27Z</time></trkpt>
<trkpt lat="44.029728994" lon="10.063533979"><ele>5</ele><time>2020-02-23T08:43:28Z</time></trkpt>
<trkpt lat="44.02971399" lon="10.063571027"><ele>5</ele><time>2020-02-23T08:43:29Z</time></trkpt>
<trkpt lat="44.029698987" lon="10.063608997"><ele>5</ele><time>2020-02-23T08:43:30Z</time></trkpt>
<trkpt lat="44.029682977" lon="10.063645961"><ele>5</ele><time>2020-02-23T08:43:31Z</time></trkpt>
<trkpt lat="44.029667974" lon="10.063684015"><ele>5</ele><time>2020-02-23T08:43:32Z</time></trkpt>
<trkpt lat="44.029651964" lon="10.063720979"><ele>5</ele><time>2020-02-23T08:43:33Z</time></trkpt>
<trkpt lat="44.029636038" lon="10.063759033"><ele>5</ele><time>2020-02-23T08:43:34Z</time></trkpt>
<trkpt lat="44.029620029" lon="10.063795997"><ele>5</ele><time>2020-02-23T08:43:35Z</time></trkpt>
<trkpt lat="44.029605025" lon="10.063833967"><ele>5</ele><time>2020-02-23T08:43:36Z</time></trkpt>
<trkpt lat="44.029589016" lon="10.063871015"><ele>5</ele><time>2020-02-23T08:43:37Z</time></trkpt>
<trkpt lat="44.029573007" lon="10.063907979"><ele>5</ele><time>2020-02-23T08:43:38Z</time></trkpt>
<trkpt lat="44.029556997" lon="10.063945027"><ele>5</ele><time>2020-02-23T08:43:39Z</time></trkpt>
<trkpt lat="44.029540988" lon="10.063981991"><ele>5</ele><time>2020-02-23T08:43:40Z</time></trkpt>
<trkpt lat="44.029524978" lon="10.064019039"><ele>5</ele><time>2020-02-23T08:43:41Z</time></trkpt>
<trkpt lat="44.029508969" lon="10.064054998"><ele>5</ele><time>2020-02-23T08:43:42Z</time></trkpt>
<trkpt lat="44.029492959" lon="10.06409104"><ele>5</ele><time>2020-02-23T08:43:43Z</time></trkpt>
<trkpt lat="44.029477034" lon="10.064128004"><ele>5</ele><time>2020-02-23T08:43:44Z</time></trkpt>
<trkpt lat="44.029460019" lon="10.064163962"><ele>5</ele><time>2020-02-23T08:43:45Z</time></trkpt>
<trkpt lat="44.029444009" lon="10.064200005"><ele>5</ele><time>2020-02-23T08:43:46Z</time></trkpt>
<trkpt lat="44.029428" lon="10.064235963"><ele>6</ele><time>2020-02-23T08:43:47Z</time></trkpt>
<trkpt lat="44.02941199" lon="10.064272005"><ele>6</ele><time>2020-02-23T08:43:48Z</time></trkpt>
<trkpt lat="44.029395981" lon="10.064307963"><ele>6</ele><time>2020-02-23T08:43:49Z</time></trkpt>
<trkpt lat="44.029379971" lon="10.064343"><ele>6</ele><time>2020-02-23T08:43:50Z</time></trkpt>
<trkpt lat="44.029363962" lon="10.064378958"><ele>6</ele><time>2020-02-23T08:43:51Z</time></trkpt>
<trkpt lat="44.02934703" lon="10.064413995"><ele>6</ele><time>2020-02-23T08:43:52Z</time></trkpt>
<trkpt lat="44.029331021" lon="10.064450037"><ele>6</ele><time>2020-02-23T08:43:53Z</time></trkpt>
<trkpt lat="44.029315012" lon="10.064484989"><ele>6</ele><time>2020-02-23T08:43:54Z</time></trkpt>
<trkpt lat="44.029299002" lon="10.064520026"><ele>6</ele><time>2020-02-23T08:43:55Z</time></trkpt>
<trkpt lat="44.029282993" lon="10.064555984"><ele>6</ele><time>2020-02-23T08:43:56Z</time></trkpt>
<trkpt lat="44.029266983" lon="10.06459102"><ele>6</ele><time>2020-02-23T08:43:57Z</time></trkpt>
<trkpt lat="44.029250974" lon="10.064625973"><ele>6</ele><time>2020-02-23T08:43:58Z</time></trkpt>
<trkpt lat="44.029234964" lon="10.064661009"><ele>6</ele><time>2020-02-23T08:43:59Z</time></trkpt>
<trkpt lat="44.029218033" lon="10.064695962"><ele>6</ele><time>2020-02-23T08:44:00Z</time></trkpt>
<trkpt lat="44.029202024" lon="10.064732004"><ele>6</ele><time>2020-02-23T08:44:01Z</time></trkpt>
<trkpt lat="44.029186014" lon="10.06476704"><ele>6</ele><time>2020-02-23T08:44:02Z</time></trkpt>
<trkpt lat="44.029170005" lon="10.064801993"><ele>6</ele><time>2020-02-23T08:44:03Z</time></trkpt>
<trkpt lat="44.029153995" lon="10.064837029"><ele>6</ele><time>2020-02-23T08:44:04Z</time></trkpt>
<trkpt lat="44.029137986" lon="10.064871982"><ele>6</ele><time>2020-02-23T08:44:05Z</time></trkpt>
<trkpt lat="44.029121976" lon="10.064907018"><ele>7</ele><time>2020-02-23T08:44:06Z</time></trkpt>
<trkpt lat="44.029105967" lon="10.064942976"><ele>7</ele><time>2020-02-23T08:44:07Z</time></trkpt>
<trkpt lat="44.029090041" lon="10.064978013"><ele>7</ele><time>2020-02-23T08:44:08Z</time></trkpt>
<trkpt lat="44.029074032" lon="10.065012965"><ele>7</ele><time>2020-02-23T08:44:09Z</time></trkpt>
<trkpt lat="44.029059028" lon="10.065048002"><ele>7</ele><time>2020-02-23T08:44:10Z</time></trkpt>
<trkpt lat="44.029043019" lon="10.06508396"><ele>7</ele><time>2020-02-23T08:44:11Z</time></trkpt>
<trkpt lat="44.029027009" lon="10.065118996"><ele>7</ele><time>2020-02-23T08:44:12Z</time></trkpt>
<trkpt lat="44.029011" lon="10.065154033"><ele>7</ele><time>2020-02-23T08:44:13Z</time></trkpt>
<trkpt lat="44.028994991" lon="10.065188985"><ele>7</ele><time>2020-02-23T08:44:14Z</time></trkpt>
<trkpt lat="44.028978981" lon="10.065225028"><ele>7</ele><time>2020-02-23T08:44:15Z</time></trkpt>
<trkpt lat="44.028962972" lon="10.06525998"><ele>7</ele><time>2020-02-23T08:44:16Z</time></trkpt>
<trkpt lat="44.028946962" lon="10.065295016"><ele>8</ele><time>2020-02-23T08:44:17Z</time></trkpt>
<trkpt lat="44.028931037" lon="10.065330975"><ele>8</ele><time>2020-02-23T08:44:18Z</time></trkpt>
<trkpt lat="44.028915027" lon="10.065366011"><ele>8</ele><time>2020-02-23T08:44:19Z</time></trkpt>
<trkpt lat="44.028899018" lon="10.065401969"><ele>8</ele><time>2020-02-23T08:44:20Z</time></trkpt>
<trkpt lat="44.028883008" lon="10.065437006"><ele>8</ele><time>2020-02-23T08:44:21Z</time></trkpt>
<trkpt lat="44.028866999" lon="10.065471958"><ele>8</ele><time>2020-02-23T08:44:22Z</time></trkpt>
<trkpt lat="44.028850989" lon="10.065508001"><ele>8</ele><time>2020-02-23T08:44:23Z</time></trkpt>
<trkpt lat="44.02883498" lon="10.065543037"><ele>8</ele><time>2020-02-23T08:44:24Z</time></trkpt>
<trkpt lat="44.028817965" lon="10.065578995"><ele>8</ele><time>2020-02-23T08:44:25Z</time></trkpt>
<trkpt lat="44.028802039" lon="10.065614032"><ele>8</ele><time>2020-02-23T08:44:26Z</time></trkpt>
<trkpt lat="44.02878603" lon="10.06564999"><ele>8</ele><time>2020-02-23T08:44:27Z</time></trkpt>
<trkpt lat="44.028769014" lon="10.065685026"><ele>8</ele><time>2020-02-23T08:44:28Z</time></trkpt>
<trkpt lat="44.028753005" lon="10.065720985"><ele>9</ele><time>2020-02-23T08:44:29Z</time></trkpt>
<trkpt lat="44.028736996" lon="10.065756021"><ele>9</ele><time>2020-02-23T08:44:30Z</time></trkpt>
<trkpt lat="44.02871998" lon="10.065791979"><ele>9</ele><time>2020-02-23T08:44:31Z</time></trkpt>
<trkpt lat="44.028703971" lon="10.065827016"><ele>9</ele><time>2020-02-23T08:44:32Z</time></trkpt>
<trkpt lat="44.028687039" lon="10.065862974"><ele>9</ele><time>2020-02-23T08:44:33Z</time></trkpt>
<trkpt lat="44.028670024" lon="10.065898011"><ele>8</ele><time>2020-02-23T08:44:34Z</time></trkpt>
<trkpt lat="44.028654015" lon="10.065932963"><ele>8</ele><time>2020-02-23T08:44:35Z</time></trkpt>
<trkpt lat="44.028636999" lon="10.065969005"><ele>8</ele><time>2020-02-23T08:44:36Z</time></trkpt>
<trkpt lat="44.02862099" lon="10.066004042"><ele>8</ele><time>2020-02-23T08:44:37Z</time></trkpt>
<trkpt lat="44.028603975" lon="10.066038994"><ele>8</ele><time>2020-02-23T08:44:38Z</time></trkpt>
<trkpt lat="44.028587965" lon="10.066075036"><ele>8</ele><time>2020-02-23T08:44:39Z</time></trkpt>
<trkpt lat="44.028571034" lon="10.066109989"><ele>8</ele><time>2020-02-23T08:44:40Z</time></trkpt>
<trkpt lat="44.028555024" lon="10.066145025"><ele>8</ele><time>2020-02-23T08:44:41Z</time></trkpt>
<trkpt lat="44.028538009" lon="10.066179978"><ele>8</ele><time>2020-02-23T08:44:42Z</time></trkpt>
<trkpt lat="44.028522" lon="10.066215014"><ele>8</ele><time>2020-02-23T08:44:43Z</time></trkpt>
<trkpt lat="44.02850599" lon="10.066248961"><ele>7</ele><time>2020-02-23T08:44:44Z</time></trkpt>
<trkpt lat="44.028489981" lon="10.066283997"><ele>7</ele><time>2020-02-23T08:44:45Z</time></trkpt>
<trkpt lat="44.028472966" lon="10.066319034"><ele>7</ele><time>2020-02-23T08:44:46Z</time></trkpt>
<trkpt lat="44.02845704" lon="10.066353986"><ele>7</ele><time>2020-02-23T08:44:47Z</time></trkpt>
<trkpt lat="44.028441031" lon="10.066388017"><ele>7</ele><time>2020-02-23T08:44:48Z</time></trkpt>
<trkpt lat="44.028425021" lon="10.066422969"><ele>7</ele><time>2020-02-23T08:44:49Z</time></trkpt>
<trkpt lat="44.028409012" lon="10.066458005"><ele>7</ele><time>2020-02-23T08:44:50Z</time></trkpt>
<trkpt lat="44.028391996" lon="10.066492036"><ele>7</ele><time>2020-02-23T08:44:51Z</time></trkpt>
<trkpt lat="44.028375987" lon="10.066526989"><ele>7</ele><time>2020-02-23T08:44:52Z</time></trkpt>
<trkpt lat="44.028359978" lon="10.066562025"><ele>7</ele><time>2020-02-23T08:44:53Z</time></trkpt>
<trkpt lat="44.028343968" lon="10.066596977"><ele>7</ele><time>2020-02-23T08:44:54Z</time></trkpt>
<trkpt lat="44.028327959" lon="10.066632014"><ele>7</ele><time>2020-02-23T08:44:55Z</time></trkpt>
<trkpt lat="44.028311027" lon="10.066666966"><ele>7</ele><time>2020-02-23T08:44:56Z</time></trkpt>
<trkpt lat="44.028295018" lon="10.066702003"><ele>7</ele><time>2020-02-23T08:44:57Z</time></trkpt>
<trkpt lat="44.028279008" lon="10.066737039"><ele>7</ele><time>2020-02-23T08:44:58Z</time></trkpt>
<trkpt lat="44.028262999" lon="10.066772997"><ele>7</ele><time>2020-02-23T08:44:59Z</time></trkpt>
<trkpt lat="44.028245984" lon="10.066808034"><ele>7</ele><time>2020-02-23T08:45:00Z</time></trkpt>
<trkpt lat="44.028229974" lon="10.066843992"><ele>7</ele><time>2020-02-23T08:45:01Z</time></trkpt>
<trkpt lat="44.028213965" lon="10.066879028"><ele>7</ele><time>2020-02-23T08:45:02Z</time></trkpt>
<trkpt lat="44.028197033" lon="10.066914987"><ele>6</ele><time>2020-02-23T08:45:03Z</time></trkpt>
<trkpt lat="44.028181024" lon="10.066951029"><ele>6</ele><time>2020-02-23T08:45:04Z</time></trkpt>
<trkpt lat="44.028165014" lon="10.066986987"><ele>6</ele><time>2020-02-23T08:45:05Z</time></trkpt>
<trkpt lat="44.028147999" lon="10.06702303"><ele>6</ele><time>2020-02-23T08:45:06Z</time></trkpt>
<trkpt lat="44.02813199" lon="10.067058988"><ele>6</ele><time>2020-02-23T08:45:07Z</time></trkpt>
<trkpt lat="44.028114974" lon="10.06709503"><ele>6</ele><time>2020-02-23T08:45:08Z</time></trkpt>
<trkpt lat="44.028098965" lon="10.067130988"><ele>6</ele><time>2020-02-23T08:45:09Z</time></trkpt>
<trkpt lat="44.028082034" lon="10.067168036"><ele>6</ele><time>2020-02-23T08:45:10Z</time></trkpt>
<trkpt lat="44.028066024" lon="10.067203995"><ele>6</ele><time>2020-02-23T08:45:11Z</time></trkpt>
<trkpt lat="44.028049009" lon="10.067240959"><ele>6</ele><time>2020-02-23T08:45:12Z</time></trkpt>
<trkpt lat="44.028032999" lon="10.067278007"><ele>6</ele><time>2020-02-23T08:45:13Z</time></trkpt>
<trkpt lat="44.028015984" lon="10.067314971"><ele>6</ele><time>2020-02-23T08:45:14Z</time></trkpt>
<trkpt lat="44.027998969" lon="10.067352019"><ele>5</ele><time>2020-02-23T08:45:15Z</time></trkpt>
<trkpt lat="44.02798296" lon="10.067388983"><ele>5</ele><time>2020-02-23T08:45:16Z</time></trkpt>
<trkpt lat="44.027966028" lon="10.067427037"><ele>5</ele><time>2020-02-23T08:45:17Z</time></trkpt>
<trkpt lat="44.027949013" lon="10.067464001"><ele>5</ele><time>2020-02-23T08:45:18Z</time></trkpt>
<trkpt lat="44.027931998" lon="10.067501971"><ele>5</ele><time>2020-02-23T08:45:19Z</time></trkpt>
<trkpt lat="44.027914982" lon="10.06753902"><ele>5</ele><time>2020-02-23T08:45:20Z</time></trkpt>
<trkpt lat="44.027898973" lon="10.067574978"><ele>5</ele><time>2020-02-23T08:45:21Z</time></trkpt>
<trkpt lat="44.027882041" lon="10.06761102"><ele>5</ele><time>2020-02-23T08:45:22Z</time></trkpt>
<trkpt lat="44.027865026" lon="10.067645973"><ele>5</ele><time>2020-02-23T08:45:23Z</time></trkpt>
<trkpt lat="44.027848011" lon="10.067680003"><ele>5</ele><time>2020-02-23T08:45:24Z</time></trkpt>
<trkpt lat="44.027830996" lon="10.067713028"><ele>5</ele><time>2020-02-23T08:45:25Z</time></trkpt>
<trkpt lat="44.02781398" lon="10.067745969"><ele>5</ele><time>2020-02-23T08:45:26Z</time></trkpt>
<trkpt lat="44.027796965" lon="10.067777988"><ele>5</ele><time>2020-02-23T08:45:27Z</time></trkpt>
<trkpt lat="44.027780034" lon="10.067811012"><ele>4</ele><time>2020-02-23T08:45:28Z</time></trkpt>
<trkpt lat="44.027763018" lon="10.067844037"><ele>4</ele><time>2020-02-23T08:45:29Z</time></trkpt>
<trkpt lat="44.027746003" lon="10.067877984"><ele>4</ele><time>2020-02-23T08:45:30Z</time></trkpt>
<trkpt lat="44.027728988" lon="10.06791302"><ele>4</ele><time>2020-02-23T08:45:31Z</time></trkpt>
<trkpt lat="44.027711973" lon="10.067947973"><ele>4</ele><time>2020-02-23T08:45:32Z</time></trkpt>
<trkpt lat="44.027695963" lon="10.067984015"><ele>4</ele><time>2020-02-23T08:45:33Z</time></trkpt>
<trkpt lat="44.027679032" lon="10.068019973"><ele>4</ele><time>2020-02-23T08:45:34Z</time></trkpt>
<trkpt lat="44.027662016" lon="10.068057021"><ele>4</ele><time>2020-02-23T08:45:35Z</time></trkpt>
<trkpt lat="44.027645001" lon="10.068093985"><ele>4</ele><time>2020-02-23T08:45:36Z</time></trkpt>
<trkpt lat="44.027628992" lon="10.068131033"><ele>4</ele><time>2020-02-23T08:45:37Z</time></trkpt>
<trkpt lat="44.027611976" lon="10.068167998"><ele>4</ele><time>2020-02-23T08:45:38Z</time></trkpt>
<trkpt lat="44.027594961" lon="10.068204962"><ele>4</ele><time>2020-02-23T08:45:39Z</time></trkpt>
<trkpt lat="44.027579036" lon="10.06824201"><ele>4</ele><time>2020-02-23T08:45:40Z</time></trkpt>
<trkpt lat="44.02756202" lon="10.068278974"><ele>4</ele><time>2020-02-23T08:45:41Z</time></trkpt>
<trkpt lat="44.027546011" lon="10.068316022"><ele>4</ele><time>2020-02-23T08:45:42Z</time></trkpt>
<trkpt lat="44.027528996" lon="10.06835198"><ele>4</ele><time>2020-02-23T08:45:43Z</time></trkpt>
<trkpt lat="44.027512986" lon="10.068389028"><ele>4</ele><time>2020-02-23T08:45:44Z</time></trkpt>
<trkpt lat="44.027495971" lon="10.068424987"><ele>4</ele><time>2020-02-23T08:45:45Z</time></trkpt>
<trkpt lat="44.027479962" lon="10.068460023"><ele>4</ele><time>2020-02-23T08:45:46Z</time></trkpt>
<trkpt lat="44.02746303" lon="10.068495981"><ele>4</ele><time>2020-02-23T08:45:47Z</time></trkpt>
<trkpt lat="44.027447021" lon="10.068531018"><ele>4</ele><time>2020-02-23T08:45:48Z</time></trkpt>
<trkpt lat="44.027430005" lon="10.068566976"><ele>4</ele><time>2020-02-23T08:45:49Z</time></trkpt>
<trkpt lat="44.027413996" lon="10.068602012"><ele>4</ele><time>2020-02-23T08:45:50Z</time></trkpt>
<trkpt lat="44.027396981" lon="10.068636965"><ele>4</ele><time>2020-02-23T08:45:51Z</time></trkpt>
<trkpt lat="44.027380971" lon="10.068672001"><ele>4</ele><time>2020-02-23T08:45:52Z</time></trkpt>
<trkpt lat="44.02736404" lon="10.068707038"><ele>4</ele><time>2020-02-23T08:45:53Z</time></trkpt>
<trkpt lat="44.02734803" lon="10.068740984"><ele>4</ele><time>2020-02-23T08:45:54Z</time></trkpt>
<trkpt lat="44.027331015" lon="10.068776021"><ele>4</ele><time>2020-02-23T08:45:55Z</time></trkpt>
<trkpt lat="44.027315006" lon="10.068810973"><ele>4</ele><time>2020-02-23T08:45:56Z</time></trkpt>
<trkpt lat="44.02729799" lon="10.068845004"><ele>4</ele><time>2020-02-23T08:45:57Z</time></trkpt>
<trkpt lat="44.027281981" lon="10.06888004"><ele>4</ele><time>2020-02-23T08:45:58Z</time></trkpt>
<trkpt lat="44.027264966" lon="10.068913987"><ele>4</ele><time>2020-02-23T08:45:59Z</time></trkpt>
<trkpt lat="44.027248034" lon="10.068949023"><ele>4</ele><time>2020-02-23T08:46:00Z</time></trkpt>
<trkpt lat="44.027232025" lon="10.068983976"><ele>3</ele><time>2020-02-23T08:46:01Z</time></trkpt>
<trkpt lat="44.02721501" lon="10.069018006"><ele>3</ele><time>2020-02-23T08:46:02Z</time></trkpt>
<trkpt lat="44.027199" lon="10.069052959"><ele>3</ele><time>2020-02-23T08:46:03Z</time></trkpt>
<trkpt lat="44.027181985" lon="10.069087995"><ele>3</ele><time>2020-02-23T08:46:04Z</time></trkpt>
<trkpt lat="44.02716497" lon="10.069123032"><ele>3</ele><time>2020-02-23T08:46:05Z</time></trkpt>
<trkpt lat="44.02714896" lon="10.069157984"><ele>3</ele><time>2020-02-23T08:46:06Z</time></trkpt>
<trkpt lat="44.027132029" lon="10.06919302"><ele>3</ele><time>2020-02-23T08:46:07Z</time></trkpt>
<trkpt lat="44.027115013" lon="10.069227973"><ele>3</ele><time>2020-02-23T08:46:08Z</time></trkpt>
<trkpt lat="44.027097998" lon="10.069264015"><ele>3</ele><time>2020-02-23T08:46:09Z</time></trkpt>
<trkpt lat="44.027080983" lon="10.069298968"><ele>3</ele><time>2020-02-23T08:46:10Z</time></trkpt>
<trkpt lat="44.027063968" lon="10.069334004"><ele>3</ele><time>2020-02-23T08:46:11Z</time></trkpt>
<trkpt lat="44.027047958" lon="10.069369962"><ele>3</ele><time>2020-02-23T08:46:12Z</time></trkpt>
<trkpt lat="44.027031027" lon="10.069406005"><ele>3</ele><time>2020-02-23T08:46:13Z</time></trkpt>
<trkpt lat="44.027014012" lon="10.069441041"><ele>3</ele><time>2020-02-23T08:46:14Z</time></trkpt>
<trkpt lat="44.02699599" lon="10.069476999"><ele>3</ele><time>2020-02-23T08:46:15Z</time></trkpt>
<trkpt lat="44.026978975" lon="10.069513042"><ele>3</ele><time>2020-02-23T08:46:16Z</time></trkpt>
<trkpt lat="44.02696196" lon="10.069549"><ele>4</ele><time>2020-02-23T08:46:17Z</time></trkpt>
<trkpt lat="44.026945028" lon="10.069584958"><ele>4</ele><time>2020-02-23T08:46:18Z</time></trkpt>
<trkpt lat="44.026928013" lon="10.069621"><ele>4</ele><time>2020-02-23T08:46:19Z</time></trkpt>
<trkpt lat="44.026909992" lon="10.069656959"><ele>4</ele><time>2020-02-23T08:46:20Z</time></trkpt>
<trkpt lat="44.026892977" lon="10.069693001"><ele>4</ele><time>2020-02-23T08:46:21Z</time></trkpt>
<trkpt lat="44.02687504" lon="10.069728037"><ele>4</ele><time>2020-02-23T08:46:22Z</time></trkpt>
<trkpt lat="44.026858024" lon="10.069763996"><ele>4</ele><time>2020-02-23T08:46:23Z</time></trkpt>
<trkpt lat="44.026840003" lon="10.069800038"><ele>4</ele><time>2020-02-23T08:46:24Z</time></trkpt>
<trkpt lat="44.026822988" lon="10.069835996"><ele>4</ele><time>2020-02-23T08:46:25Z</time></trkpt>
<trkpt lat="44.026804967" lon="10.069872038"><ele>4</ele><time>2020-02-23T08:46:26Z</time></trkpt>
<trkpt lat="44.026788035" lon="10.069906991"><ele>4</ele><time>2020-02-23T08:46:27Z</time></trkpt>
<trkpt lat="44.026770014" lon="10.069943033"><ele>4</ele><time>2020-02-23T08:46:28Z</time></trkpt>
<trkpt lat="44.026752999" lon="10.069977986"><ele>4</ele><time>2020-02-23T08:46:29Z</time></trkpt>
<trkpt lat="44.026735984" lon="10.070013022"><ele>4</ele><time>2020-02-23T08:46:30Z</time></trkpt>
<trkpt lat="44.026717963" lon="10.070047975"><ele>4</ele><time>2020-02-23T08:46:31Z</time></trkpt>
<trkpt lat="44.026701031" lon="10.070083011"><ele>4</ele><time>2020-02-23T08:46:32Z</time></trkpt>
<trkpt lat="44.026684016" lon="10.070117963"><ele>4</ele><time>2020-02-23T08:46:33Z</time></trkpt>
<trkpt lat="44.026665995" lon="10.070151994"><ele>4</ele><time>2020-02-23T08:46:34Z</time></trkpt>
<trkpt lat="44.02664898" lon="10.070186025"><ele>4</ele><time>2020-02-23T08:46:35Z</time></trkpt>
<trkpt lat="44.026631964" lon="10.070220977"><ele>4</ele><time>2020-02-23T08:46:36Z</time></trkpt>
<trkpt lat="44.026616039" lon="10.070255008"><ele>4</ele><time>2020-02-23T08:46:37Z</time></trkpt>
<trkpt lat="44.026599023" lon="10.070289038"><ele>4</ele><time>2020-02-23T08:46:38Z</time></trkpt>
<trkpt lat="44.026583014" lon="10.070322985"><ele>4</ele><time>2020-02-23T08:46:39Z</time></trkpt>
<trkpt lat="44.026567005" lon="10.07035601"><ele>3</ele><time>2020-02-23T08:46:40Z</time></trkpt>
<trkpt lat="44.026550995" lon="10.07039004"><ele>3</ele><time>2020-02-23T08:46:41Z</time></trkpt>
<trkpt lat="44.026534986" lon="10.070423987"><ele>3</ele><time>2020-02-23T08:46:42Z</time></trkpt>
<trkpt lat="44.026519982" lon="10.070458017"><ele>3</ele><time>2020-02-23T08:46:43Z</time></trkpt>
<trkpt lat="44.026504979" lon="10.070490958"><ele>3</ele><time>2020-02-23T08:46:44Z</time></trkpt>
<trkpt lat="44.026489975" lon="10.070524989"><ele>3</ele><time>2020-02-23T08:46:45Z</time></trkpt>
<trkpt lat="44.026475977" lon="10.070559019"><ele>3</ele><time>2020-02-23T08:46:46Z</time></trkpt>
<trkpt lat="44.026460974" lon="10.07059196"><ele>3</ele><time>2020-02-23T08:46:47Z</time></trkpt>
<trkpt lat="44.026446976" lon="10.070625991"><ele>3</ele><time>2020-02-23T08:46:48Z</time></trkpt>
<trkpt lat="44.026431972" lon="10.070660021"><ele>3</ele><time>2020-02-23T08:46:49Z</time></trkpt>
<trkpt lat="44.026416969" lon="10.070694974"><ele>3</ele><time>2020-02-23T08:46:50Z</time></trkpt>
<trkpt lat="44.026401965" lon="10.070729004"><ele>3</ele><time>2020-02-23T08:46:51Z</time></trkpt>
<trkpt lat="44.026386961" lon="10.070764041"><ele>3</ele><time>2020-02-23T08:46:52Z</time></trkpt>
<trkpt lat="44.026372042" lon="10.070798993"><ele>3</ele><time>2020-02-23T08:46:53Z</time></trkpt>
<trkpt lat="44.026356032" lon="10.070834029"><ele>3</ele><time>2020-02-23T08:46:54Z</time></trkpt>
<trkpt lat="44.026340023" lon="10.070868982"><ele>3</ele><time>2020-02-23T08:46:55Z</time></trkpt>
<trkpt lat="44.026324013" lon="10.070905024"><ele>3</ele><time>2020-02-23T08:46:56Z</time></trkpt>
<trkpt lat="44.026308004" lon="10.070940983"><ele>3</ele><time>2020-02-23T08:46:57Z</time></trkpt>
<trkpt lat="44.026290989" lon="10.070977025"><ele>3</ele><time>2020-02-23T08:46:58Z</time></trkpt>
<trkpt lat="44.026273973" lon="10.071013989"><ele>3</ele><time>2020-02-23T08:46:59Z</time></trkpt>
<trkpt lat="44.026256036" lon="10.071050031"><ele>3</ele><time>2020-02-23T08:47:00Z</time></trkpt>
<trkpt lat="44.026239021" lon="10.071086995"><ele>3</ele><time>2020-02-23T08:47:01Z</time></trkpt>
<trkpt lat="44.026221" lon="10.071123959"><ele>3</ele><time>2020-02-23T08:47:02Z</time></trkpt>
<trkpt lat="44.026203984" lon="10.071160002"><ele>3</ele><time>2020-02-23T08:47:03Z</time></trkpt>
<trkpt lat="44.026185963" lon="10.071196966"><ele>3</ele><time>2020-02-23T08:47:04Z</time></trkpt>
<trkpt lat="44.026151011" lon="10.071269972"><ele>3</ele><time>2020-02-23T08:47:06Z</time></trkpt>
<trkpt lat="44.026133996" lon="10.071306014"><ele>3</ele><time>2020-02-23T08:47:07Z</time></trkpt>
<trkpt lat="44.02611698" lon="10.071341973"><ele>3</ele><time>2020-02-23T08:47:08Z</time></trkpt>
<trkpt lat="44.026098959" lon="10.071378015"><ele>3</ele><time>2020-02-23T08:47:09Z</time></trkpt>
<trkpt lat="44.026082028" lon="10.071412968"><ele>4</ele><time>2020-02-23T08:47:10Z</time></trkpt>
<trkpt lat="44.026066018" lon="10.07144901"><ele>4</ele><time>2020-02-23T08:47:11Z</time></trkpt>
<trkpt lat="44.026049003" lon="10.071483962"><ele>4</ele><time>2020-02-23T08:47:12Z</time></trkpt>
<trkpt lat="44.026031988" lon="10.071520004"><ele>4</ele><time>2020-02-23T08:47:13Z</time></trkpt>
<trkpt lat="44.026014972" lon="10.071555041"><ele>4</ele><time>2020-02-23T08:47:14Z</time></trkpt>
<trkpt lat="44.025998041" lon="10.071589993"><ele>4</ele><time>2020-02-23T08:47:15Z</time></trkpt>
<trkpt lat="44.025982032" lon="10.071626035"><ele>4</ele><time>2020-02-23T08:47:16Z</time></trkpt>
<trkpt lat="44.025965016" lon="10.071660988"><ele>4</ele><time>2020-02-23T08:47:17Z</time></trkpt>
<trkpt lat="44.025948001" lon="10.07169703"><ele>4</ele><time>2020-02-23T08:47:18Z</time></trkpt>
<trkpt lat="44.025930986" lon="10.071731983"><ele>4</ele><time>2020-02-23T08:47:19Z</time></trkpt>
<trkpt lat="44.025914976" lon="10.071768025"><ele>4</ele><time>2020-02-23T08:47:20Z</time></trkpt>
<trkpt lat="44.025897961" lon="10.071803983"><ele>4</ele><time>2020-02-23T08:47:21Z</time></trkpt>
<trkpt lat="44.02588103" lon="10.071840025"><ele>4</ele><time>2020-02-23T08:47:22Z</time></trkpt>
<trkpt lat="44.025864014" lon="10.071875984"><ele>4</ele><time>2020-02-23T08:47:23Z</time></trkpt>
<trkpt lat="44.025846999" lon="10.071912026"><ele>4</ele><time>2020-02-23T08:47:24Z</time></trkpt>
<trkpt lat="44.025829984" lon="10.071947984"><ele>4</ele><time>2020-02-23T08:47:25Z</time></trkpt>
<trkpt lat="44.025812969" lon="10.071984027"><ele>4</ele><time>2020-02-23T08:47:26Z</time></trkpt>
<trkpt lat="44.025796037" lon="10.072019985"><ele>4</ele><time>2020-02-23T08:47:27Z</time></trkpt>
<trkpt lat="44.025779022" lon="10.072056027"><ele>4</ele><time>2020-02-23T08:47:28Z</time></trkpt>
<trkpt lat="44.025762007" lon="10.072092991"><ele>4</ele><time>2020-02-23T08:47:29Z</time></trkpt>
<trkpt lat="44.025744991" lon="10.072129034"><ele>4</ele><time>2020-02-23T08:47:30Z</time></trkpt>
<trkpt lat="44.025727976" lon="10.072164992"><ele>4</ele><time>2020-02-23T08:47:31Z</time></trkpt>
<trkpt lat="44.025710961" lon="10.072201034"><ele>4</ele><time>2020-02-23T08:47:32Z</time></trkpt>
<trkpt lat="44.025694029" lon="10.072236992"><ele>4</ele><time>2020-02-23T08:47:33Z</time></trkpt>
<trkpt lat="44.02567802" lon="10.072273035"><ele>4</ele><time>2020-02-23T08:47:34Z</time></trkpt>
<trkpt lat="44.025661005" lon="10.072308993"><ele>4</ele><time>2020-02-23T08:47:35Z</time></trkpt>
<trkpt lat="44.025643989" lon="10.072345035"><ele>4</ele><time>2020-02-23T08:47:36Z</time></trkpt>
<trkpt lat="44.02562798" lon="10.072380994"><ele>4</ele><time>2020-02-23T08:47:37Z</time></trkpt>
<trkpt lat="44.025611971" lon="10.072417036"><ele>4</ele><time>2020-02-23T08:47:38Z</time></trkpt>
<trkpt lat="44.025595039" lon="10.072451988"><ele>4</ele><time>2020-02-23T08:47:39Z</time></trkpt>
<trkpt lat="44.02557903" lon="10.07248803"><ele>4</ele><time>2020-02-23T08:47:40Z</time></trkpt>
<trkpt lat="44.02556302" lon="10.072522983"><ele>4</ele><time>2020-02-23T08:47:41Z</time></trkpt>
<trkpt lat="44.025547011" lon="10.072558019"><ele>4</ele><time>2020-02-23T08:47:42Z</time></trkpt>
<trkpt lat="44.025532007" lon="10.072592972"><ele>5</ele><time>2020-02-23T08:47:43Z</time></trkpt>
<trkpt lat="44.025515998" lon="10.072628008"><ele>5</ele><time>2020-02-23T08:47:44Z</time></trkpt>
<trkpt lat="44.025500994" lon="10.072662961"><ele>5</ele><time>2020-02-23T08:47:45Z</time></trkpt>
<trkpt lat="44.025484985" lon="10.072696991"><ele>5</ele><time>2020-02-23T08:47:46Z</time></trkpt>
<trkpt lat="44.025469981" lon="10.072731022"><ele>5</ele><time>2020-02-23T08:47:47Z</time></trkpt>
<trkpt lat="44.025454978" lon="10.072765974"><ele>5</ele><time>2020-02-23T08:47:48Z</time></trkpt>
<trkpt lat="44.025439974" lon="10.072800005"><ele>5</ele><time>2020-02-23T08:47:49Z</time></trkpt>
<trkpt lat="44.02542497" lon="10.072834035"><ele>5</ele><time>2020-02-23T08:47:50Z</time></trkpt>
<trkpt lat="44.025408961" lon="10.072867982"><ele>5</ele><time>2020-02-23T08:47:51Z</time></trkpt>
<trkpt lat="44.025394041" lon="10.072902013"><ele>5</ele><time>2020-02-23T08:47:52Z</time></trkpt>
<trkpt lat="44.025379037" lon="10.072935037"><ele>5</ele><time>2020-02-23T08:47:53Z</time></trkpt>
<trkpt lat="44.025363028" lon="10.072968984"><ele>5</ele><time>2020-02-23T08:47:54Z</time></trkpt>
<trkpt lat="44.025347019" lon="10.073003015"><ele>5</ele><time>2020-02-23T08:47:55Z</time></trkpt>
<trkpt lat="44.025331009" lon="10.073036961"><ele>5</ele><time>2020-02-23T08:47:56Z</time></trkpt>
<trkpt lat="44.025315" lon="10.073070992"><ele>5</ele><time>2020-02-23T08:47:57Z</time></trkpt>
<trkpt lat="44.02529899" lon="10.073105022"><ele>5</ele><time>2020-02-23T08:47:58Z</time></trkpt>
<trkpt lat="44.025281975" lon="10.073139975"><ele>5</ele><time>2020-02-23T08:47:59Z</time></trkpt>
<trkpt lat="44.025265966" lon="10.073174005"><ele>5</ele><time>2020-02-23T08:48:00Z</time></trkpt>
<trkpt lat="44.025249034" lon="10.073208036"><ele>5</ele><time>2020-02-23T08:48:01Z</time></trkpt>
<trkpt lat="44.025231013" lon="10.073241983"><ele>5</ele><time>2020-02-23T08:48:02Z</time></trkpt>
<trkpt lat="44.025213998" lon="10.073277019"><ele>5</ele><time>2020-02-23T08:48:03Z</time></trkpt>
<trkpt lat="44.025195977" lon="10.073310966"><ele>5</ele><time>2020-02-23T08:48:04Z</time></trkpt>
<trkpt lat="44.025178961" lon="10.073344996"><ele>5</ele><time>2020-02-23T08:48:05Z</time></trkpt>
<trkpt lat="44.025161024" lon="10.073379027"><ele>5</ele><time>2020-02-23T08:48:06Z</time></trkpt>
<trkpt lat="44.025141997" lon="10.073413979"><ele>5</ele><time>2020-02-23T08:48:07Z</time></trkpt>
<trkpt lat="44.025123976" lon="10.07344801"><ele>5</ele><time>2020-02-23T08:48:08Z</time></trkpt>
<trkpt lat="44.025105033" lon="10.07348204"><ele>5</ele><time>2020-02-23T08:48:09Z</time></trkpt>
<trkpt lat="44.025087012" lon="10.073516993"><ele>5</ele><time>2020-02-23T08:48:10Z</time></trkpt>
<trkpt lat="44.025067985" lon="10.073551023"><ele>5</ele><time>2020-02-23T08:48:11Z</time></trkpt>
<trkpt lat="44.025048958" lon="10.073585976"><ele>5</ele><time>2020-02-23T08:48:12Z</time></trkpt>
<trkpt lat="44.025030015" lon="10.073620006"><ele>4</ele><time>2020-02-23T08:48:13Z</time></trkpt>
<trkpt lat="44.025010988" lon="10.073654959"><ele>4</ele><time>2020-02-23T08:48:14Z</time></trkpt>
<trkpt lat="44.024992967" lon="10.07368899"><ele>4</ele><time>2020-02-23T08:48:15Z</time></trkpt>
<trkpt lat="44.024974024" lon="10.073724026"><ele>4</ele><time>2020-02-23T08:48:16Z</time></trkpt>
<trkpt lat="44.024956003" lon="10.073758978"><ele>4</ele><time>2020-02-23T08:48:17Z</time></trkpt>
<trkpt lat="44.024938988" lon="10.073795021"><ele>4</ele><time>2020-02-23T08:48:18Z</time></trkpt>
<trkpt lat="44.024920966" lon="10.073829973"><ele>4</ele><time>2020-02-23T08:48:19Z</time></trkpt>
<trkpt lat="44.024904035" lon="10.073866015"><ele>4</ele><time>2020-02-23T08:48:20Z</time></trkpt>
<trkpt lat="44.024888026" lon="10.073900968"><ele>4</ele><time>2020-02-23T08:48:21Z</time></trkpt>
<trkpt lat="44.02487101" lon="10.073938016"><ele>4</ele><time>2020-02-23T08:48:22Z</time></trkpt>
<trkpt lat="44.024856007" lon="10.073973974"><ele>4</ele><time>2020-02-23T08:48:23Z</time></trkpt>
<trkpt lat="44.024839997" lon="10.074010016"><ele>4</ele><time>2020-02-23T08:48:24Z</time></trkpt>
<trkpt lat="44.024824994" lon="10.074046981"><ele>4</ele><time>2020-02-23T08:48:25Z</time></trkpt>
<trkpt lat="44.02480999" lon="10.074084029"><ele>4</ele><time>2020-02-23T08:48:26Z</time></trkpt>
<trkpt lat="44.024794986" lon="10.074120993"><ele>4</ele><time>2020-02-23T08:48:27Z</time></trkpt>
<trkpt lat="44.024780989" lon="10.074157035"><ele>4</ele><time>2020-02-23T08:48:28Z</time></trkpt>
<trkpt lat="44.024765985" lon="10.074193999"><ele>4</ele><time>2020-02-23T08:48:29Z</time></trkpt>
<trkpt lat="44.024750981" lon="10.074230963"><ele>4</ele><time>2020-02-23T08:48:30Z</time></trkpt>
<trkpt lat="44.024736984" lon="10.074268011"><ele>4</ele><time>2020-02-23T08:48:31Z</time></trkpt>
<trkpt lat="44.02472198" lon="10.074304976"><ele>4</ele><time>2020-02-23T08:48:32Z</time></trkpt>
<trkpt lat="44.024706976" lon="10.074342024"><ele>4</ele><time>2020-02-23T08:48:33Z</time></trkpt>
<trkpt lat="44.024691973" lon="10.074378988"><ele>4</ele><time>2020-02-23T08:48:34Z</time></trkpt>
<trkpt lat="44.024675963" lon="10.074416036"><ele>4</ele><time>2020-02-23T08:48:35Z</time></trkpt>
<trkpt lat="44.02466096" lon="10.074453"><ele>4</ele><time>2020-02-23T08:48:36Z</time></trkpt>
<trkpt lat="44.024645034" lon="10.074489964"><ele>4</ele><time>2020-02-23T08:48:37Z</time></trkpt>
<trkpt lat="44.024630031" lon="10.074526006"><ele>4</ele><time>2020-02-23T08:48:38Z</time></trkpt>
<trkpt lat="44.024614021" lon="10.074562971"><ele>4</ele><time>2020-02-23T08:48:39Z</time></trkpt>
<trkpt lat="44.024598012" lon="10.074600019"><ele>4</ele><time>2020-02-23T08:48:40Z</time></trkpt>
<trkpt lat="44.024582002" lon="10.074635977"><ele>4</ele><time>2020-02-23T08:48:41Z</time></trkpt>
<trkpt lat="44.024565993" lon="10.074673025"><ele>4</ele><time>2020-02-23T08:48:42Z</time></trkpt>
<trkpt lat="44.024549983" lon="10.074708983"><ele>4</ele><time>2020-02-23T08:48:43Z</time></trkpt>
<trkpt lat="44.024533974" lon="10.074745025"><ele>4</ele><time>2020-02-23T08:48:44Z</time></trkpt>
<trkpt lat="44.024516959" lon="10.07478199"><ele>4</ele><time>2020-02-23T08:48:45Z</time></trkpt>
<trkpt lat="44.024501033" lon="10.074818032"><ele>4</ele><time>2020-02-23T08:48:46Z</time></trkpt>
<trkpt lat="44.024485024" lon="10.07485399"><ele>4</ele><time>2020-02-23T08:48:47Z</time></trkpt>
<trkpt lat="44.024469014" lon="10.074890032"><ele>4</ele><time>2020-02-23T08:48:48Z</time></trkpt>
<trkpt lat="44.024451999" lon="10.074925991"><ele>4</ele><time>2020-02-23T08:48:49Z</time></trkpt>
<trkpt lat="44.02443599" lon="10.074961027"><ele>4</ele><time>2020-02-23T08:48:50Z</time></trkpt>
<trkpt lat="44.02441998" lon="10.074996985"><ele>4</ele><time>2020-02-23T08:48:51Z</time></trkpt>
<trkpt lat="44.024403971" lon="10.075032022"><ele>4</ele><time>2020-02-23T08:48:52Z</time></trkpt>
<trkpt lat="44.024387961" lon="10.07506798"><ele>5</ele><time>2020-02-23T08:48:53Z</time></trkpt>
<trkpt lat="44.024372036" lon="10.075103017"><ele>5</ele><time>2020-02-23T08:48:54Z</time></trkpt>
<trkpt lat="44.024356026" lon="10.075137969"><ele>5</ele><time>2020-02-23T08:48:55Z</time></trkpt>
<trkpt lat="44.024340017" lon="10.075174011"><ele>5</ele><time>2020-02-23T08:48:56Z</time></trkpt>
<trkpt lat="44.024324007" lon="10.075208964"><ele>5</ele><time>2020-02-23T08:48:57Z</time></trkpt>
<trkpt lat="44.024309004" lon="10.075242994"><ele>5</ele><time>2020-02-23T08:48:58Z</time></trkpt>
<trkpt lat="44.024261981" lon="10.075347014"><ele>5</ele><time>2020-02-23T08:49:01Z</time></trkpt>
<trkpt lat="44.024246978" lon="10.07538096"><ele>5</ele><time>2020-02-23T08:49:02Z</time></trkpt>
<trkpt lat="44.024231974" lon="10.075414991"><ele>5</ele><time>2020-02-23T08:49:03Z</time></trkpt>
<trkpt lat="44.02421697" lon="10.075449022"><ele>5</ele><time>2020-02-23T08:49:04Z</time></trkpt>
<trkpt lat="44.024201967" lon="10.075482968"><ele>5</ele><time>2020-02-23T08:49:05Z</time></trkpt>
<trkpt lat="44.024186963" lon="10.075515993"><ele>5</ele><time>2020-02-23T08:49:06Z</time></trkpt>
<trkpt lat="44.02417196" lon="10.075550023"><ele>5</ele><time>2020-02-23T08:49:07Z</time></trkpt>
<trkpt lat="44.02415704" lon="10.075582964"><ele>5</ele><time>2020-02-23T08:49:08Z</time></trkpt>
<trkpt lat="44.024142036" lon="10.075615989"><ele>5</ele><time>2020-02-23T08:49:09Z</time></trkpt>
<trkpt lat="44.024128038" lon="10.075649014"><ele>5</ele><time>2020-02-23T08:49:10Z</time></trkpt>
<trkpt lat="44.024112029" lon="10.075682038"><ele>5</ele><time>2020-02-23T08:49:11Z</time></trkpt>
<trkpt lat="44.02409602" lon="10.075715985"><ele>5</ele><time>2020-02-23T08:49:12Z</time></trkpt>
<trkpt lat="44.024079004" lon="10.075751022"><ele>5</ele><time>2020-02-23T08:49:13Z</time></trkpt>
<trkpt lat="44.024060983" lon="10.075787986"><ele>5</ele><time>2020-02-23T08:49:14Z</time></trkpt>
<trkpt lat="44.02404204" lon="10.07582604"><ele>5</ele><time>2020-02-23T08:49:15Z</time></trkpt>
<trkpt lat="44.024023013" lon="10.075860992"><ele>6</ele><time>2020-02-23T08:49:16Z</time></trkpt>
<trkpt lat="44.024005998" lon="10.075892005"><ele>6</ele><time>2020-02-23T08:49:17Z</time></trkpt>
<trkpt lat="44.023994012" lon="10.075913966"><ele>6</ele><time>2020-02-23T08:49:18Z</time></trkpt>
<trkpt lat="44.023984037" lon="10.075931987"><ele>6</ele><time>2020-02-23T08:49:19Z</time></trkpt>
<trkpt lat="44.023975991" lon="10.075947996"><ele>6</ele><time>2020-02-23T08:49:20Z</time></trkpt>
<trkpt lat="44.023968028" lon="10.075966017"><ele>6</ele><time>2020-02-23T08:49:21Z</time></trkpt>
<trkpt lat="44.023959981" lon="10.075986972"><ele>6</ele><time>2020-02-23T08:49:22Z</time></trkpt>
<trkpt lat="44.023951013" lon="10.076010022"><ele>6</ele><time>2020-02-23T08:49:23Z</time></trkpt>
<trkpt lat="44.02394196" lon="10.076036006"><ele>6</ele><time>2020-02-23T08:49:24Z</time></trkpt>
<trkpt lat="44.023904996" lon="10.076125022"><ele>6</ele><time>2020-02-23T08:49:27Z</time></trkpt>
<trkpt lat="44.023889992" lon="10.076157963"><ele>6</ele><time>2020-02-23T08:49:28Z</time></trkpt>
<trkpt lat="44.023871971" lon="10.076192999"><ele>6</ele><time>2020-02-23T08:49:29Z</time></trkpt>
<trkpt lat="44.023854034" lon="10.076228036"><ele>6</ele><time>2020-02-23T08:49:30Z</time></trkpt>
<trkpt lat="44.023835007" lon="10.076265"><ele>6</ele><time>2020-02-23T08:49:31Z</time></trkpt>
<trkpt lat="44.023813969" lon="10.076300958"><ele>6</ele><time>2020-02-23T08:49:32Z</time></trkpt>
<trkpt lat="44.02379402" lon="10.076338006"><ele>6</ele><time>2020-02-23T08:49:33Z</time></trkpt>
<trkpt lat="44.023772981" lon="10.076373965"><ele>6</ele><time>2020-02-23T08:49:34Z</time></trkpt>
<trkpt lat="44.023753032" lon="10.076409001"><ele>7</ele><time>2020-02-23T08:49:35Z</time></trkpt>
<trkpt lat="44.023731994" lon="10.076444037"><ele>7</ele><time>2020-02-23T08:49:36Z</time></trkpt>
<trkpt lat="44.023711039" lon="10.07647899"><ele>7</ele><time>2020-02-23T08:49:37Z</time></trkpt>
<trkpt lat="44.02369" lon="10.07651302"><ele>7</ele><time>2020-02-23T08:49:38Z</time></trkpt>
<trkpt lat="44.023669967" lon="10.076546967"><ele>7</ele><time>2020-02-23T08:49:39Z</time></trkpt>
<trkpt lat="44.023649013" lon="10.076580998"><ele>7</ele><time>2020-02-23T08:49:40Z</time></trkpt>
<trkpt lat="44.02362898" lon="10.076614022"><ele>7</ele><time>2020-02-23T08:49:41Z</time></trkpt>
<trkpt lat="44.023609031" lon="10.076647969"><ele>7</ele><time>2020-02-23T08:49:42Z</time></trkpt>
<trkpt lat="44.023588998" lon="10.076680994"><ele>7</ele><time>2020-02-23T08:49:43Z</time></trkpt>
<trkpt lat="44.023569971" lon="10.076714018"><ele>7</ele><time>2020-02-23T08:49:44Z</time></trkpt>
<trkpt lat="44.023550022" lon="10.076746959"><ele>7</ele><time>2020-02-23T08:49:45Z</time></trkpt>
<trkpt lat="44.023530995" lon="10.07678099"><ele>7</ele><time>2020-02-23T08:49:46Z</time></trkpt>
<trkpt lat="44.023511969" lon="10.076814014"><ele>7</ele><time>2020-02-23T08:49:47Z</time></trkpt>
<trkpt lat="44.023494031" lon="10.076847039"><ele>7</ele><time>2020-02-23T08:49:48Z</time></trkpt>
<trkpt lat="44.02347601" lon="10.07687998"><ele>7</ele><time>2020-02-23T08:49:49Z</time></trkpt>
<trkpt lat="44.023457989" lon="10.076914011"><ele>7</ele><time>2020-02-23T08:49:50Z</time></trkpt>
<trkpt lat="44.023439968" lon="10.076947035"><ele>7</ele><time>2020-02-23T08:49:51Z</time></trkpt>
<trkpt lat="44.023422031" lon="10.076980982"><ele>7</ele><time>2020-02-23T08:49:52Z</time></trkpt>
<trkpt lat="44.02340401" lon="10.077014007"><ele>7</ele><time>2020-02-23T08:49:53Z</time></trkpt>
<trkpt lat="44.023386994" lon="10.077048037"><ele>7</ele><time>2020-02-23T08:49:54Z</time></trkpt>
<trkpt lat="44.023368973" lon="10.077081984"><ele>7</ele><time>2020-02-23T08:49:55Z</time></trkpt>
<trkpt lat="44.023351036" lon="10.077115009"><ele>7</ele><time>2020-02-23T08:49:56Z</time></trkpt>
<trkpt lat="44.023333015" lon="10.077149039"><ele>7</ele><time>2020-02-23T08:49:57Z</time></trkpt>
<trkpt lat="44.023314994" lon="10.077182986"><ele>7</ele><time>2020-02-23T08:49:58Z</time></trkpt>
<trkpt lat="44.023296973" lon="10.077217016"><ele>7</ele><time>2020-02-23T08:49:59Z</time></trkpt>
<trkpt lat="44.023279035" lon="10.077250963"><ele>7</ele><time>2020-02-23T08:50:00Z</time></trkpt>
<trkpt lat="44.023260009" lon="10.077284994"><ele>7</ele><time>2020-02-23T08:50:01Z</time></trkpt>
<trkpt lat="44.023241987" lon="10.077319024"><ele>7</ele><time>2020-02-23T08:50:02Z</time></trkpt>
<trkpt lat="44.023222961" lon="10.077352971"><ele>7</ele><time>2020-02-23T08:50:03Z</time></trkpt>
<trkpt lat="44.023204017" lon="10.077385996"><ele>7</ele><time>2020-02-23T08:50:04Z</time></trkpt>
<trkpt lat="44.023184991" lon="10.077420026"><ele>7</ele><time>2020-02-23T08:50:05Z</time></trkpt>
<trkpt lat="44.023165964" lon="10.077452967"><ele>7</ele><time>2020-02-23T08:50:06Z</time></trkpt>
<trkpt lat="44.02314702" lon="10.077485992"><ele>7</ele><time>2020-02-23T08:50:07Z</time></trkpt>
<trkpt lat="44.023127994" lon="10.077518011"><ele>7</ele><time>2020-02-23T08:50:08Z</time></trkpt>
<trkpt lat="44.023108967" lon="10.077550029"><ele>7</ele><time>2020-02-23T08:50:09Z</time></trkpt>
<trkpt lat="44.023089018" lon="10.077581964"><ele>7</ele><time>2020-02-23T08:50:10Z</time></trkpt>
<trkpt lat="44.023069991" lon="10.077613983"><ele>7</ele><time>2020-02-23T08:50:11Z</time></trkpt>
<trkpt lat="44.023050964" lon="10.077644996"><ele>6</ele><time>2020-02-23T08:50:12Z</time></trkpt>
<trkpt lat="44.023032021" lon="10.077676009"><ele>6</ele><time>2020-02-23T08:50:13Z</time></trkpt>
<trkpt lat="44.023012994" lon="10.077707022"><ele>6</ele><time>2020-02-23T08:50:14Z</time></trkpt>
<trkpt lat="44.022994973" lon="10.077738035"><ele>6</ele><time>2020-02-23T08:50:15Z</time></trkpt>
<trkpt lat="44.022978041" lon="10.077768965"><ele>6</ele><time>2020-02-23T08:50:16Z</time></trkpt>
<trkpt lat="44.022962032" lon="10.077800984"><ele>6</ele><time>2020-02-23T08:50:17Z</time></trkpt>
<trkpt lat="44.022946022" lon="10.077833002"><ele>6</ele><time>2020-02-23T08:50:18Z</time></trkpt>
<trkpt lat="44.022931019" lon="10.077865021"><ele>6</ele><time>2020-02-23T08:50:19Z</time></trkpt>
<trkpt lat="44.022916015" lon="10.077897962"><ele>6</ele><time>2020-02-23T08:50:20Z</time></trkpt>
<trkpt lat="44.022900006" lon="10.077930987"><ele>6</ele><time>2020-02-23T08:50:21Z</time></trkpt>
<trkpt lat="44.022883996" lon="10.077965017"><ele>6</ele><time>2020-02-23T08:50:22Z</time></trkpt>
<trkpt lat="44.022867987" lon="10.07799997"><ele>6</ele><time>2020-02-23T08:50:23Z</time></trkpt>
<trkpt lat="44.022850972" lon="10.078035006"><ele>6</ele><time>2020-02-23T08:50:24Z</time></trkpt>
<trkpt lat="44.02283404" lon="10.078070965"><ele>5</ele><time>2020-02-23T08:50:25Z</time></trkpt>
<trkpt lat="44.022816019" lon="10.078107007"><ele>5</ele><time>2020-02-23T08:50:26Z</time></trkpt>
<trkpt lat="44.022797998" lon="10.078142965"><ele>5</ele><time>2020-02-23T08:50:27Z</time></trkpt>
<trkpt lat="44.022779977" lon="10.078180013"><ele>5</ele><time>2020-02-23T08:50:28Z</time></trkpt>
<trkpt lat="44.022761034" lon="10.078216977"><ele>5</ele><time>2020-02-23T08:50:29Z</time></trkpt>
<trkpt lat="44.022742007" lon="10.078254025"><ele>5</ele><time>2020-02-23T08:50:30Z</time></trkpt>
<trkpt lat="44.02272298" lon="10.078289984"><ele>5</ele><time>2020-02-23T08:50:31Z</time></trkpt>
<trkpt lat="44.022704037" lon="10.078327032"><ele>5</ele><time>2020-02-23T08:50:32Z</time></trkpt>
<trkpt lat="44.02268501" lon="10.07836299"><ele>5</ele><time>2020-02-23T08:50:33Z</time></trkpt>
<trkpt lat="44.022665983" lon="10.078399032"><ele>5</ele><time>2020-02-23T08:50:34Z</time></trkpt>
<trkpt lat="44.02264704" lon="10.078433985"><ele>5</ele><time>2020-02-23T08:50:35Z</time></trkpt>
<trkpt lat="44.022591971" lon="10.078538004"><ele>5</ele><time>2020-02-23T08:50:38Z</time></trkpt>
<trkpt lat="44.022573028" lon="10.078572035"><ele>5</ele><time>2020-02-23T08:50:39Z</time></trkpt>
<trkpt lat="44.022555007" lon="10.078605982"><ele>5</ele><time>2020-02-23T08:50:40Z</time></trkpt>
<trkpt lat="44.022536986" lon="10.078639006"><ele>5</ele><time>2020-02-23T08:50:41Z</time></trkpt>
<trkpt lat="44.022518964" lon="10.078673037"><ele>5</ele><time>2020-02-23T08:50:42Z</time></trkpt>
<trkpt lat="44.022501027" lon="10.078705978"><ele>5</ele><time>2020-02-23T08:50:43Z</time></trkpt>
<trkpt lat="44.022483006" lon="10.078739002"><ele>5</ele><time>2020-02-23T08:50:44Z</time></trkpt>
<trkpt lat="44.022465991" lon="10.078772027"><ele>5</ele><time>2020-02-23T08:50:45Z</time></trkpt>
<trkpt lat="44.02244797" lon="10.078803962"><ele>5</ele><time>2020-02-23T08:50:46Z</time></trkpt>
<trkpt lat="44.022431038" lon="10.078836987"><ele>5</ele><time>2020-02-23T08:50:47Z</time></trkpt>
<trkpt lat="44.022413017" lon="10.078870011"><ele>5</ele><time>2020-02-23T08:50:48Z</time></trkpt>
<trkpt lat="44.022396002" lon="10.078903036"><ele>5</ele><time>2020-02-23T08:50:49Z</time></trkpt>
<trkpt lat="44.022378987" lon="10.078935977"><ele>5</ele><time>2020-02-23T08:50:50Z</time></trkpt>
<trkpt lat="44.022360966" lon="10.078967996"><ele>5</ele><time>2020-02-23T08:50:51Z</time></trkpt>
<trkpt lat="44.022344034" lon="10.079001021"><ele>5</ele><time>2020-02-23T08:50:52Z</time></trkpt>
<trkpt lat="44.022327019" lon="10.079033962"><ele>5</ele><time>2020-02-23T08:50:53Z</time></trkpt>
<trkpt lat="44.022308998" lon="10.079066986"><ele>5</ele><time>2020-02-23T08:50:54Z</time></trkpt>
<trkpt lat="44.022290977" lon="10.079100011"><ele>5</ele><time>2020-02-23T08:50:55Z</time></trkpt>
<trkpt lat="44.022273961" lon="10.079133036"><ele>5</ele><time>2020-02-23T08:50:56Z</time></trkpt>
<trkpt lat="44.022256024" lon="10.079166982"><ele>5</ele><time>2020-02-23T08:50:57Z</time></trkpt>
<trkpt lat="44.022238003" lon="10.079200007"><ele>5</ele><time>2020-02-23T08:50:58Z</time></trkpt>
<trkpt lat="44.022218976" lon="10.079233032"><ele>5</ele><time>2020-02-23T08:50:59Z</time></trkpt>
<trkpt lat="44.022201039" lon="10.079266978"><ele>5</ele><time>2020-02-23T08:51:00Z</time></trkpt>
<trkpt lat="44.022182012" lon="10.079301009"><ele>5</ele><time>2020-02-23T08:51:01Z</time></trkpt>
<trkpt lat="44.022163991" lon="10.079334034"><ele>5</ele><time>2020-02-23T08:51:02Z</time></trkpt>
<trkpt lat="44.022144964" lon="10.07936798"><ele>5</ele><time>2020-02-23T08:51:03Z</time></trkpt>
<trkpt lat="44.022126021" lon="10.079402011"><ele>5</ele><time>2020-02-23T08:51:04Z</time></trkpt>
<trkpt lat="44.022106994" lon="10.079436041"><ele>5</ele><time>2020-02-23T08:51:05Z</time></trkpt>
<trkpt lat="44.022087967" lon="10.079469988"><ele>4</ele><time>2020-02-23T08:51:06Z</time></trkpt>
<trkpt lat="44.022068018" lon="10.079504019"><ele>4</ele><time>2020-02-23T08:51:07Z</time></trkpt>
<trkpt lat="44.022048991" lon="10.079537965"><ele>4</ele><time>2020-02-23T08:51:08Z</time></trkpt>
<trkpt lat="44.022029964" lon="10.079573002"><ele>4</ele><time>2020-02-23T08:51:09Z</time></trkpt>
<trkpt lat="44.022011021" lon="10.079607032"><ele>4</ele><time>2020-02-23T08:51:10Z</time></trkpt>
<trkpt lat="44.021990988" lon="10.079640979"><ele>4</ele><time>2020-02-23T08:51:11Z</time></trkpt>
<trkpt lat="44.021971961" lon="10.079675009"><ele>4</ele><time>2020-02-23T08:51:12Z</time></trkpt>
<trkpt lat="44.021953018" lon="10.07970904"><ele>4</ele><time>2020-02-23T08:51:13Z</time></trkpt>
<trkpt lat="44.021933991" lon="10.079743993"><ele>4</ele><time>2020-02-23T08:51:14Z</time></trkpt>
<trkpt lat="44.021914965" lon="10.079778023"><ele>4</ele><time>2020-02-23T08:51:15Z</time></trkpt>
<trkpt lat="44.021896021" lon="10.07981197"><ele>4</ele><time>2020-02-23T08:51:16Z</time></trkpt>
<trkpt lat="44.021876995" lon="10.079846"><ele>4</ele><time>2020-02-23T08:51:17Z</time></trkpt>
<trkpt lat="44.021858973" lon="10.079880031"><ele>4</ele><time>2020-02-23T08:51:18Z</time></trkpt>
<trkpt lat="44.02184003" lon="10.079913978"><ele>4</ele><time>2020-02-23T08:51:19Z</time></trkpt>
<trkpt lat="44.021822009" lon="10.079948008"><ele>4</ele><time>2020-02-23T08:51:20Z</time></trkpt>
<trkpt lat="44.021803988" lon="10.079982039"><ele>4</ele><time>2020-02-23T08:51:21Z</time></trkpt>
<trkpt lat="44.021785967" lon="10.080015985"><ele>4</ele><time>2020-02-23T08:51:22Z</time></trkpt>
<trkpt lat="44.021769036" lon="10.080050016"><ele>4</ele><time>2020-02-23T08:51:23Z</time></trkpt>
<trkpt lat="44.021751015" lon="10.080083041"><ele>4</ele><time>2020-02-23T08:51:24Z</time></trkpt>
<trkpt lat="44.021733999" lon="10.080116987"><ele>4</ele><time>2020-02-23T08:51:25Z</time></trkpt>
<trkpt lat="44.021716984" lon="10.080151018"><ele>4</ele><time>2020-02-23T08:51:26Z</time></trkpt>
<trkpt lat="44.021699969" lon="10.080183959"><ele>4</ele><time>2020-02-23T08:51:27Z</time></trkpt>
<trkpt lat="44.021683959" lon="10.080217989"><ele>4</ele><time>2020-02-23T08:51:28Z</time></trkpt>
<trkpt lat="44.021667028" lon="10.080251014"><ele>4</ele><time>2020-02-23T08:51:29Z</time></trkpt>
<trkpt lat="44.021650013" lon="10.080284961"><ele>4</ele><time>2020-02-23T08:51:30Z</time></trkpt>
<trkpt lat="44.021632997" lon="10.080317985"><ele>4</ele><time>2020-02-23T08:51:31Z</time></trkpt>
<trkpt lat="44.021615982" lon="10.080352016"><ele>4</ele><time>2020-02-23T08:51:32Z</time></trkpt>
<trkpt lat="44.021598967" lon="10.08038504"><ele>4</ele><time>2020-02-23T08:51:33Z</time></trkpt>
<trkpt lat="44.021582035" lon="10.080418987"><ele>3</ele><time>2020-02-23T08:51:34Z</time></trkpt>
<trkpt lat="44.021564014" lon="10.080453018"><ele>3</ele><time>2020-02-23T08:51:35Z</time></trkpt>
<trkpt lat="44.021546999" lon="10.080486964"><ele>3</ele><time>2020-02-23T08:51:36Z</time></trkpt>
<trkpt lat="44.021528978" lon="10.080520995"><ele>3</ele><time>2020-02-23T08:51:37Z</time></trkpt>
<trkpt lat="44.021510035" lon="10.080555025"><ele>3</ele><time>2020-02-23T08:51:38Z</time></trkpt>
<trkpt lat="44.021492014" lon="10.080588972"><ele>3</ele><time>2020-02-23T08:51:39Z</time></trkpt>
<trkpt lat="44.021472987" lon="10.080623003"><ele>3</ele><time>2020-02-23T08:51:40Z</time></trkpt>
<trkpt lat="44.02145396" lon="10.080658039"><ele>3</ele><time>2020-02-23T08:51:41Z</time></trkpt>
<trkpt lat="44.021435017" lon="10.080691986"><ele>3</ele><time>2020-02-23T08:51:42Z</time></trkpt>
<trkpt lat="44.02141599" lon="10.080726016"><ele>3</ele><time>2020-02-23T08:51:43Z</time></trkpt>
<trkpt lat="44.021396963" lon="10.080759963"><ele>3</ele><time>2020-02-23T08:51:44Z</time></trkpt>
<trkpt lat="44.021377014" lon="10.080794999"><ele>3</ele><time>2020-02-23T08:51:45Z</time></trkpt>
<trkpt lat="44.021357987" lon="10.08082903"><ele>3</ele><time>2020-02-23T08:51:46Z</time></trkpt>
<trkpt lat="44.02133896" lon="10.080862977"><ele>3</ele><time>2020-02-23T08:51:47Z</time></trkpt>
<trkpt lat="44.021320017" lon="10.080897007"><ele>3</ele><time>2020-02-23T08:51:48Z</time></trkpt>
<trkpt lat="44.02130099" lon="10.080931038"><ele>3</ele><time>2020-02-23T08:51:49Z</time></trkpt>
<trkpt lat="44.021281963" lon="10.080964984"><ele>3</ele><time>2020-02-23T08:51:50Z</time></trkpt>
<trkpt lat="44.021262014" lon="10.080999015"><ele>3</ele><time>2020-02-23T08:51:51Z</time></trkpt>
<trkpt lat="44.021242987" lon="10.081032962"><ele>3</ele><time>2020-02-23T08:51:52Z</time></trkpt>
<trkpt lat="44.021224966" lon="10.081066992"><ele>3</ele><time>2020-02-23T08:51:53Z</time></trkpt>
<trkpt lat="44.021206023" lon="10.081101023"><ele>3</ele><time>2020-02-23T08:51:54Z</time></trkpt>
<trkpt lat="44.021186996" lon="10.081134969"><ele>3</ele><time>2020-02-23T08:51:55Z</time></trkpt>
<trkpt lat="44.021167969" lon="10.081169"><ele>3</ele><time>2020-02-23T08:51:56Z</time></trkpt>
<trkpt lat="44.021150032" lon="10.081202025"><ele>3</ele><time>2020-02-23T08:51:57Z</time></trkpt>
<trkpt lat="44.021131005" lon="10.081235971"><ele>3</ele><time>2020-02-23T08:51:58Z</time></trkpt>
<trkpt lat="44.021112984" lon="10.081270002"><ele>3</ele><time>2020-02-23T08:51:59Z</time></trkpt>
<trkpt lat="44.021094041" lon="10.081304032"><ele>3</ele><time>2020-02-23T08:52:00Z</time></trkpt>
<trkpt lat="44.02107602" lon="10.081336973"><ele>3</ele><time>2020-02-23T08:52:01Z</time></trkpt>
<trkpt lat="44.021057999" lon="10.081371004"><ele>3</ele><time>2020-02-23T08:52:02Z</time></trkpt>
<trkpt lat="44.021039978" lon="10.081405034"><ele>3</ele><time>2020-02-23T08:52:03Z</time></trkpt>
<trkpt lat="44.02102204" lon="10.081438981"><ele>3</ele><time>2020-02-23T08:52:04Z</time></trkpt>
<trkpt lat="44.021004019" lon="10.081472006"><ele>3</ele><time>2020-02-23T08:52:05Z</time></trkpt>
<trkpt lat="44.020985998" lon="10.081506036"><ele>3</ele><time>2020-02-23T08:52:06Z</time></trkpt>
<trkpt lat="44.020968983" lon="10.081539983"><ele>3</ele><time>2020-02-23T08:52:07Z</time></trkpt>
<trkpt lat="44.020950962" lon="10.081574013"><ele>3</ele><time>2020-02-23T08:52:08Z</time></trkpt>
<trkpt lat="44.02093403" lon="10.08160796"><ele>3</ele><time>2020-02-23T08:52:09Z</time></trkpt>
<trkpt lat="44.020917015" lon="10.081641991"><ele>3</ele><time>2020-02-23T08:52:10Z</time></trkpt>
<trkpt lat="44.0209" lon="10.081676021"><ele>3</ele><time>2020-02-23T08:52:11Z</time></trkpt>
<trkpt lat="44.020882985" lon="10.081709968"><ele>3</ele><time>2020-02-23T08:52:12Z</time></trkpt>
<trkpt lat="44.020865969" lon="10.081743998"><ele>3</ele><time>2020-02-23T08:52:13Z</time></trkpt>
<trkpt lat="44.020849038" lon="10.081779035"><ele>3</ele><time>2020-02-23T08:52:14Z</time></trkpt>
<trkpt lat="44.020833028" lon="10.081812982"><ele>3</ele><time>2020-02-23T08:52:15Z</time></trkpt>
<trkpt lat="44.020816013" lon="10.081847012"><ele>3</ele><time>2020-02-23T08:52:16Z</time></trkpt>
<trkpt lat="44.020798998" lon="10.081880959"><ele>3</ele><time>2020-02-23T08:52:17Z</time></trkpt>
<trkpt lat="44.020782989" lon="10.081914989"><ele>3</ele><time>2020-02-23T08:52:18Z</time></trkpt>
<trkpt lat="44.020765973" lon="10.08194902"><ele>3</ele><time>2020-02-23T08:52:19Z</time></trkpt>
<trkpt lat="44.020749042" lon="10.081983972"><ele>3</ele><time>2020-02-23T08:52:20Z</time></trkpt>
<trkpt lat="44.020732027" lon="10.082018003"><ele>3</ele><time>2020-02-23T08:52:21Z</time></trkpt>
<trkpt lat="44.020715011" lon="10.082051028"><ele>3</ele><time>2020-02-23T08:52:22Z</time></trkpt>
<trkpt lat="44.020697996" lon="10.082084974"><ele>3</ele><time>2020-02-23T08:52:23Z</time></trkpt>
<trkpt lat="44.020680981" lon="10.082119005"><ele>3</ele><time>2020-02-23T08:52:24Z</time></trkpt>
<trkpt lat="44.02066296" lon="10.082153035"><ele>3</ele><time>2020-02-23T08:52:25Z</time></trkpt>
<trkpt lat="44.020645022" lon="10.082185976"><ele>3</ele><time>2020-02-23T08:52:26Z</time></trkpt>
<trkpt lat="44.020627001" lon="10.082219001"><ele>3</ele><time>2020-02-23T08:52:27Z</time></trkpt>
<trkpt lat="44.02060898" lon="10.082253031"><ele>3</ele><time>2020-02-23T08:52:28Z</time></trkpt>
<trkpt lat="44.020590959" lon="10.082285972"><ele>3</ele><time>2020-02-23T08:52:29Z</time></trkpt>
<trkpt lat="44.020573022" lon="10.082318997"><ele>3</ele><time>2020-02-23T08:52:30Z</time></trkpt>
<trkpt lat="44.020553995" lon="10.082352022"><ele>3</ele><time>2020-02-23T08:52:31Z</time></trkpt>
<trkpt lat="44.020535974" lon="10.082384963"><ele>3</ele><time>2020-02-23T08:52:32Z</time></trkpt>
<trkpt lat="44.020517031" lon="10.082417987"><ele>3</ele><time>2020-02-23T08:52:33Z</time></trkpt>
<trkpt lat="44.020498004" lon="10.082450006"><ele>3</ele><time>2020-02-23T08:52:34Z</time></trkpt>
<trkpt lat="44.020478977" lon="10.082483031"><ele>3</ele><time>2020-02-23T08:52:35Z</time></trkpt>
<trkpt lat="44.02046104" lon="10.082514966"><ele>3</ele><time>2020-02-23T08:52:36Z</time></trkpt>
<trkpt lat="44.020442013" lon="10.082547991"><ele>3</ele><time>2020-02-23T08:52:37Z</time></trkpt>
<trkpt lat="44.020422986" lon="10.082580009"><ele>3</ele><time>2020-02-23T08:52:38Z</time></trkpt>
<trkpt lat="44.020403959" lon="10.082613034"><ele>3</ele><time>2020-02-23T08:52:39Z</time></trkpt>
<trkpt lat="44.020385016" lon="10.082644969"><ele>3</ele><time>2020-02-23T08:52:40Z</time></trkpt>
<trkpt lat="44.020365989" lon="10.082677994"><ele>3</ele><time>2020-02-23T08:52:41Z</time></trkpt>
<trkpt lat="44.020346962" lon="10.082710013"><ele>3</ele><time>2020-02-23T08:52:42Z</time></trkpt>
<trkpt lat="44.020328019" lon="10.082742032"><ele>3</ele><time>2020-02-23T08:52:43Z</time></trkpt>
<trkpt lat="44.020308992" lon="10.082774973"><ele>3</ele><time>2020-02-23T08:52:44Z</time></trkpt>
<trkpt lat="44.020289965" lon="10.082807997"><ele>3</ele><time>2020-02-23T08:52:45Z</time></trkpt>
<trkpt lat="44.020271022" lon="10.082841022"><ele>3</ele><time>2020-02-23T08:52:46Z</time></trkpt>
<trkpt lat="44.020251995" lon="10.082873963"><ele>3</ele><time>2020-02-23T08:52:47Z</time></trkpt>
<trkpt lat="44.020232968" lon="10.082906988"><ele>3</ele><time>2020-02-23T08:52:48Z</time></trkpt>
<trkpt lat="44.020215031" lon="10.082940012"><ele>3</ele><time>2020-02-23T08:52:49Z</time></trkpt>
<trkpt lat="44.020196004" lon="10.082973959"><ele>3</ele><time>2020-02-23T08:52:50Z</time></trkpt>
<trkpt lat="44.020177983" lon="10.083007989"><ele>4</ele><time>2020-02-23T08:52:51Z</time></trkpt>
<trkpt lat="44.020141019" lon="10.083074961"><ele>4</ele><time>2020-02-23T08:52:53Z</time></trkpt>
<trkpt lat="44.020122997" lon="10.083109997"><ele>4</ele><time>2020-02-23T08:52:54Z</time></trkpt>
<trkpt lat="44.020087039" lon="10.083177974"><ele>4</ele><time>2020-02-23T08:52:56Z</time></trkpt>
<trkpt lat="44.020069018" lon="10.083213011"><ele>4</ele><time>2020-02-23T08:52:57Z</time></trkpt>
<trkpt lat="44.020050997" lon="10.083247041"><ele>4</ele><time>2020-02-23T08:52:58Z</time></trkpt>
<trkpt lat="44.020032976" lon="10.083281994"><ele>4</ele><time>2020-02-23T08:52:59Z</time></trkpt>
<trkpt lat="44.020015039" lon="10.083316024"><ele>4</ele><time>2020-02-23T08:53:00Z</time></trkpt>
<trkpt lat="44.019997017" lon="10.083350977"><ele>4</ele><time>2020-02-23T08:53:01Z</time></trkpt>
<trkpt lat="44.019980002" lon="10.083385007"><ele>4</ele><time>2020-02-23T08:53:02Z</time></trkpt>
<trkpt lat="44.019961981" lon="10.08341996"><ele>4</ele><time>2020-02-23T08:53:03Z</time></trkpt>
<trkpt lat="44.019944966" lon="10.083453991"><ele>4</ele><time>2020-02-23T08:53:04Z</time></trkpt>
<trkpt lat="44.019927029" lon="10.083489027"><ele>4</ele><time>2020-02-23T08:53:05Z</time></trkpt>
<trkpt lat="44.019910013" lon="10.083522974"><ele>3</ele><time>2020-02-23T08:53:06Z</time></trkpt>
<trkpt lat="44.019892998" lon="10.083557004"><ele>3</ele><time>2020-02-23T08:53:07Z</time></trkpt>
<trkpt lat="44.019875983" lon="10.083591035"><ele>3</ele><time>2020-02-23T08:53:08Z</time></trkpt>
<trkpt lat="44.019858968" lon="10.083623976"><ele>3</ele><time>2020-02-23T08:53:09Z</time></trkpt>
<trkpt lat="44.019842036" lon="10.083657"><ele>3</ele><time>2020-02-23T08:53:10Z</time></trkpt>
<trkpt lat="44.019825021" lon="10.083690025"><ele>3</ele><time>2020-02-23T08:53:11Z</time></trkpt>
<trkpt lat="44.019808006" lon="10.08372196"><ele>3</ele><time>2020-02-23T08:53:12Z</time></trkpt>
<trkpt lat="44.019791996" lon="10.083753979"><ele>3</ele><time>2020-02-23T08:53:13Z</time></trkpt>
<trkpt lat="44.019774981" lon="10.083785998"><ele>3</ele><time>2020-02-23T08:53:14Z</time></trkpt>
<trkpt lat="44.019758971" lon="10.083817011"><ele>3</ele><time>2020-02-23T08:53:15Z</time></trkpt>
<trkpt lat="44.01974204" lon="10.08384903"><ele>3</ele><time>2020-02-23T08:53:16Z</time></trkpt>
<trkpt lat="44.019726031" lon="10.083879959"><ele>3</ele><time>2020-02-23T08:53:17Z</time></trkpt>
<trkpt lat="44.019709015" lon="10.083910972"><ele>3</ele><time>2020-02-23T08:53:18Z</time></trkpt>
<trkpt lat="44.019692" lon="10.083942991"><ele>3</ele><time>2020-02-23T08:53:19Z</time></trkpt>
<trkpt lat="44.019674985" lon="10.08397501"><ele>3</ele><time>2020-02-23T08:53:20Z</time></trkpt>
<trkpt lat="44.019657969" lon="10.084007028"><ele>3</ele><time>2020-02-23T08:53:21Z</time></trkpt>
<trkpt lat="44.019641038" lon="10.084039969"><ele>3</ele><time>2020-02-23T08:53:22Z</time></trkpt>
<trkpt lat="44.019623017" lon="10.084072994"><ele>3</ele><time>2020-02-23T08:53:23Z</time></trkpt>
<trkpt lat="44.019604996" lon="10.084107025"><ele>3</ele><time>2020-02-23T08:53:24Z</time></trkpt>
<trkpt lat="44.019586975" lon="10.084141977"><ele>3</ele><time>2020-02-23T08:53:25Z</time></trkpt>
<trkpt lat="44.019568032" lon="10.084177013"><ele>3</ele><time>2020-02-23T08:53:26Z</time></trkpt>
<trkpt lat="44.019549005" lon="10.084212972"><ele>3</ele><time>2020-02-23T08:53:27Z</time></trkpt>
<trkpt lat="44.019529978" lon="10.084249014"><ele>3</ele><time>2020-02-23T08:53:28Z</time></trkpt>
<trkpt lat="44.019510029" lon="10.084285978"><ele>3</ele><time>2020-02-23T08:53:29Z</time></trkpt>
<trkpt lat="44.019489996" lon="10.084323026"><ele>3</ele><time>2020-02-23T08:53:30Z</time></trkpt>
<trkpt lat="44.019469963" lon="10.08435999"><ele>3</ele><time>2020-02-23T08:53:31Z</time></trkpt>
<trkpt lat="44.019450014" lon="10.084397038"><ele>3</ele><time>2020-02-23T08:53:32Z</time></trkpt>
<trkpt lat="44.019428976" lon="10.084432997"><ele>3</ele><time>2020-02-23T08:53:33Z</time></trkpt>
<trkpt lat="44.019409027" lon="10.084469961"><ele>3</ele><time>2020-02-23T08:53:34Z</time></trkpt>
<trkpt lat="44.019387988" lon="10.084506003"><ele>3</ele><time>2020-02-23T08:53:35Z</time></trkpt>
<trkpt lat="44.019368039" lon="10.08454104"><ele>3</ele><time>2020-02-23T08:53:36Z</time></trkpt>
<trkpt lat="44.019347001" lon="10.084575992"><ele>3</ele><time>2020-02-23T08:53:37Z</time></trkpt>
<trkpt lat="44.019326968" lon="10.084610023"><ele>3</ele><time>2020-02-23T08:53:38Z</time></trkpt>
<trkpt lat="44.019306013" lon="10.084642963"><ele>3</ele><time>2020-02-23T08:53:39Z</time></trkpt>
<trkpt lat="44.019285981" lon="10.084674982"><ele>3</ele><time>2020-02-23T08:53:40Z</time></trkpt>
<trkpt lat="44.019266032" lon="10.084708007"><ele>3</ele><time>2020-02-23T08:53:41Z</time></trkpt>
<trkpt lat="44.019245999" lon="10.08473902"><ele>3</ele><time>2020-02-23T08:53:42Z</time></trkpt>
<trkpt lat="44.019225966" lon="10.084771039"><ele>3</ele><time>2020-02-23T08:53:43Z</time></trkpt>
<trkpt lat="44.019207023" lon="10.084802974"><ele>3</ele><time>2020-02-23T08:53:44Z</time></trkpt>
<trkpt lat="44.019187996" lon="10.084834993"><ele>3</ele><time>2020-02-23T08:53:45Z</time></trkpt>
<trkpt lat="44.019168969" lon="10.084867012"><ele>3</ele><time>2020-02-23T08:53:46Z</time></trkpt>
<trkpt lat="44.019152038" lon="10.084900036"><ele>3</ele><time>2020-02-23T08:53:47Z</time></trkpt>
<trkpt lat="44.019134017" lon="10.084932977"><ele>3</ele><time>2020-02-23T08:53:48Z</time></trkpt>
<trkpt lat="44.019118007" lon="10.084967008"><ele>3</ele><time>2020-02-23T08:53:49Z</time></trkpt>
<trkpt lat="44.019100992" lon="10.085001038"><ele>3</ele><time>2020-02-23T08:53:50Z</time></trkpt>
<trkpt lat="44.019085988" lon="10.085035991"><ele>3</ele><time>2020-02-23T08:53:51Z</time></trkpt>
<trkpt lat="44.019069979" lon="10.085072033"><ele>3</ele><time>2020-02-23T08:53:52Z</time></trkpt>
<trkpt lat="44.019054975" lon="10.085107991"><ele>3</ele><time>2020-02-23T08:53:53Z</time></trkpt>
<trkpt lat="44.019038966" lon="10.085143028"><ele>3</ele><time>2020-02-23T08:53:54Z</time></trkpt>
<trkpt lat="44.019022034" lon="10.085178986"><ele>3</ele><time>2020-02-23T08:53:55Z</time></trkpt>
<trkpt lat="44.019005019" lon="10.085214023"><ele>3</ele><time>2020-02-23T08:53:56Z</time></trkpt>
<trkpt lat="44.018985992" lon="10.085247969"><ele>3</ele><time>2020-02-23T08:53:57Z</time></trkpt>
<trkpt lat="44.018966965" lon="10.085282"><ele>3</ele><time>2020-02-23T08:53:58Z</time></trkpt>
<trkpt lat="44.018948022" lon="10.08531603"><ele>3</ele><time>2020-02-23T08:53:59Z</time></trkpt>
<trkpt lat="44.018928995" lon="10.085349977"><ele>3</ele><time>2020-02-23T08:54:00Z</time></trkpt>
<trkpt lat="44.018908963" lon="10.085383002"><ele>3</ele><time>2020-02-23T08:54:01Z</time></trkpt>
<trkpt lat="44.01889002" lon="10.085417032"><ele>3</ele><time>2020-02-23T08:54:02Z</time></trkpt>
<trkpt lat="44.018870993" lon="10.085450979"><ele>3</ele><time>2020-02-23T08:54:03Z</time></trkpt>
<trkpt lat="44.018851966" lon="10.085485009"><ele>3</ele><time>2020-02-23T08:54:04Z</time></trkpt>
<trkpt lat="44.018834028" lon="10.085518034"><ele>3</ele><time>2020-02-23T08:54:05Z</time></trkpt>
<trkpt lat="44.018815001" lon="10.085551981"><ele>3</ele><time>2020-02-23T08:54:06Z</time></trkpt>
<trkpt lat="44.01879698" lon="10.085586011"><ele>3</ele><time>2020-02-23T08:54:07Z</time></trkpt>
<trkpt lat="44.018778037" lon="10.085619958"><ele>3</ele><time>2020-02-23T08:54:08Z</time></trkpt>
<trkpt lat="44.018760016" lon="10.085653989"><ele>3</ele><time>2020-02-23T08:54:09Z</time></trkpt>
<trkpt lat="44.018740989" lon="10.085688019"><ele>3</ele><time>2020-02-23T08:54:10Z</time></trkpt>
<trkpt lat="44.018722968" lon="10.085721966"><ele>3</ele><time>2020-02-23T08:54:11Z</time></trkpt>
<trkpt lat="44.018704025" lon="10.085755996"><ele>3</ele><time>2020-02-23T08:54:12Z</time></trkpt>
<trkpt lat="44.018686004" lon="10.085790027"><ele>3</ele><time>2020-02-23T08:54:13Z</time></trkpt>
<trkpt lat="44.018666977" lon="10.085823974"><ele>3</ele><time>2020-02-23T08:54:14Z</time></trkpt>
<trkpt lat="44.01864904" lon="10.085858004"><ele>3</ele><time>2020-02-23T08:54:15Z</time></trkpt>
<trkpt lat="44.018630013" lon="10.085892035"><ele>3</ele><time>2020-02-23T08:54:16Z</time></trkpt>
<trkpt lat="44.018610986" lon="10.085926987"><ele>3</ele><time>2020-02-23T08:54:17Z</time></trkpt>
<trkpt lat="44.018592965" lon="10.085961018"><ele>3</ele><time>2020-02-23T08:54:18Z</time></trkpt>
<trkpt lat="44.018574022" lon="10.085994964"><ele>3</ele><time>2020-02-23T08:54:19Z</time></trkpt>
<trkpt lat="44.018554995" lon="10.086030001"><ele>3</ele><time>2020-02-23T08:54:20Z</time></trkpt>
<trkpt lat="44.018535968" lon="10.086064031"><ele>3</ele><time>2020-02-23T08:54:21Z</time></trkpt>
<trkpt lat="44.018517025" lon="10.086098984"><ele>3</ele><time>2020-02-23T08:54:22Z</time></trkpt>
<trkpt lat="44.018497998" lon="10.086133014"><ele>3</ele><time>2020-02-23T08:54:23Z</time></trkpt>
<trkpt lat="44.018478971" lon="10.086167967"><ele>3</ele><time>2020-02-23T08:54:24Z</time></trkpt>
<trkpt lat="44.018460028" lon="10.086201997"><ele>3</ele><time>2020-02-23T08:54:25Z</time></trkpt>
<trkpt lat="44.018441001" lon="10.086237034"><ele>3</ele><time>2020-02-23T08:54:26Z</time></trkpt>
<trkpt lat="44.018421974" lon="10.086270981"><ele>3</ele><time>2020-02-23T08:54:27Z</time></trkpt>
<trkpt lat="44.018402025" lon="10.086306017"><ele>3</ele><time>2020-02-23T08:54:28Z</time></trkpt>
<trkpt lat="44.018382998" lon="10.086339964"><ele>3</ele><time>2020-02-23T08:54:29Z</time></trkpt>
<trkpt lat="44.018363971" lon="10.086373994"><ele>3</ele><time>2020-02-23T08:54:30Z</time></trkpt>
<trkpt lat="44.018345028" lon="10.08640903"><ele>3</ele><time>2020-02-23T08:54:31Z</time></trkpt>
<trkpt lat="44.018326001" lon="10.086442977"><ele>3</ele><time>2020-02-23T08:54:32Z</time></trkpt>
<trkpt lat="44.018306974" lon="10.086477008"><ele>3</ele><time>2020-02-23T08:54:33Z</time></trkpt>
<trkpt lat="44.018288031" lon="10.08651196"><ele>3</ele><time>2020-02-23T08:54:34Z</time></trkpt>
<trkpt lat="44.018269004" lon="10.086545991"><ele>3</ele><time>2020-02-23T08:54:35Z</time></trkpt>
<trkpt lat="44.018249977" lon="10.086580021"><ele>3</ele><time>2020-02-23T08:54:36Z</time></trkpt>
<trkpt lat="44.018231034" lon="10.086613968"><ele>3</ele><time>2020-02-23T08:54:37Z</time></trkpt>
<trkpt lat="44.018212007" lon="10.086647999"><ele>3</ele><time>2020-02-23T08:54:38Z</time></trkpt>
<trkpt lat="44.01819298" lon="10.086682029"><ele>3</ele><time>2020-02-23T08:54:39Z</time></trkpt>
<trkpt lat="44.018174959" lon="10.086715976"><ele>3</ele><time>2020-02-23T08:54:40Z</time></trkpt>
<trkpt lat="44.018156016" lon="10.086750006"><ele>3</ele><time>2020-02-23T08:54:41Z</time></trkpt>
<trkpt lat="44.018136989" lon="10.086783031"><ele>3</ele><time>2020-02-23T08:54:42Z</time></trkpt>
<trkpt lat="44.018117962" lon="10.086816978"><ele>4</ele><time>2020-02-23T08:54:43Z</time></trkpt>
<trkpt lat="44.018100025" lon="10.086851008"><ele>4</ele><time>2020-02-23T08:54:44Z</time></trkpt>
<trkpt lat="44.018080998" lon="10.086884033"><ele>4</ele><time>2020-02-23T08:54:45Z</time></trkpt>
<trkpt lat="44.018062977" lon="10.08691798"><ele>4</ele><time>2020-02-23T08:54:46Z</time></trkpt>
<trkpt lat="44.018044034" lon="10.086951004"><ele>4</ele><time>2020-02-23T08:54:47Z</time></trkpt>
<trkpt lat="44.018026013" lon="10.086985035"><ele>4</ele><time>2020-02-23T08:54:48Z</time></trkpt>
<trkpt lat="44.018006986" lon="10.087017976"><ele>4</ele><time>2020-02-23T08:54:49Z</time></trkpt>
<trkpt lat="44.017988965" lon="10.087052006"><ele>4</ele><time>2020-02-23T08:54:50Z</time></trkpt>
<trkpt lat="44.017971028" lon="10.087085031"><ele>4</ele><time>2020-02-23T08:54:51Z</time></trkpt>
<trkpt lat="44.017952001" lon="10.087118978"><ele>4</ele><time>2020-02-23T08:54:52Z</time></trkpt>
<trkpt lat="44.01793398" lon="10.087152002"><ele>4</ele><time>2020-02-23T08:54:53Z</time></trkpt>
<trkpt lat="44.017915959" lon="10.087186033"><ele>4</ele><time>2020-02-23T08:54:54Z</time></trkpt>
<trkpt lat="44.017898021" lon="10.087218974"><ele>5</ele><time>2020-02-23T08:54:55Z</time></trkpt>
<trkpt lat="44.01788" lon="10.087253004"><ele>5</ele><time>2020-02-23T08:54:56Z</time></trkpt>
<trkpt lat="44.017860973" lon="10.087286029"><ele>5</ele><time>2020-02-23T08:54:57Z</time></trkpt>
<trkpt lat="44.017843036" lon="10.087319976"><ele>5</ele><time>2020-02-23T08:54:58Z</time></trkpt>
<trkpt lat="44.017825015" lon="10.087353"><ele>5</ele><time>2020-02-23T08:54:59Z</time></trkpt>
<trkpt lat="44.017806994" lon="10.087387031"><ele>5</ele><time>2020-02-23T08:55:00Z</time></trkpt>
<trkpt lat="44.017788973" lon="10.087419972"><ele>5</ele><time>2020-02-23T08:55:01Z</time></trkpt>
<trkpt lat="44.017771035" lon="10.087454002"><ele>5</ele><time>2020-02-23T08:55:02Z</time></trkpt>
<trkpt lat="44.017753014" lon="10.087488033"><ele>5</ele><time>2020-02-23T08:55:03Z</time></trkpt>
<trkpt lat="44.017734993" lon="10.087520974"><ele>5</ele><time>2020-02-23T08:55:04Z</time></trkpt>
<trkpt lat="44.017716972" lon="10.087555004"><ele>5</ele><time>2020-02-23T08:55:05Z</time></trkpt>
<trkpt lat="44.017700041" lon="10.087589035"><ele>6</ele><time>2020-02-23T08:55:06Z</time></trkpt>
<trkpt lat="44.01768202" lon="10.087622982"><ele>6</ele><time>2020-02-23T08:55:07Z</time></trkpt>
<trkpt lat="44.017663999" lon="10.087657012"><ele>6</ele><time>2020-02-23T08:55:08Z</time></trkpt>
<trkpt lat="44.017645977" lon="10.087690959"><ele>6</ele><time>2020-02-23T08:55:09Z</time></trkpt>
<trkpt lat="44.01762804" lon="10.087724989"><ele>6</ele><time>2020-02-23T08:55:10Z</time></trkpt>
<trkpt lat="44.017610019" lon="10.08775902"><ele>6</ele><time>2020-02-23T08:55:11Z</time></trkpt>
<trkpt lat="44.017591998" lon="10.087792967"><ele>6</ele><time>2020-02-23T08:55:12Z</time></trkpt>
<trkpt lat="44.017573977" lon="10.087826997"><ele>6</ele><time>2020-02-23T08:55:13Z</time></trkpt>
<trkpt lat="44.017556962" lon="10.087861028"><ele>6</ele><time>2020-02-23T08:55:14Z</time></trkpt>
<trkpt lat="44.017521003" lon="10.087930011"><ele>6</ele><time>2020-02-23T08:55:16Z</time></trkpt>
<trkpt lat="44.017502982" lon="10.087964041"><ele>5</ele><time>2020-02-23T08:55:17Z</time></trkpt>
<trkpt lat="44.017449003" lon="10.088067977"><ele>6</ele><time>2020-02-23T08:55:20Z</time></trkpt>
<trkpt lat="44.017430982" lon="10.088103013"><ele>6</ele><time>2020-02-23T08:55:21Z</time></trkpt>
<trkpt lat="44.017412961" lon="10.08813696"><ele>6</ele><time>2020-02-23T08:55:22Z</time></trkpt>
<trkpt lat="44.017395023" lon="10.088171996"><ele>6</ele><time>2020-02-23T08:55:23Z</time></trkpt>
<trkpt lat="44.017375996" lon="10.088207033"><ele>6</ele><time>2020-02-23T08:55:24Z</time></trkpt>
<trkpt lat="44.017357975" lon="10.088241985"><ele>6</ele><time>2020-02-23T08:55:25Z</time></trkpt>
<trkpt lat="44.017340038" lon="10.088277021"><ele>6</ele><time>2020-02-23T08:55:26Z</time></trkpt>
<trkpt lat="44.017322017" lon="10.088311974"><ele>6</ele><time>2020-02-23T08:55:27Z</time></trkpt>
<trkpt lat="44.01730299" lon="10.08834701"><ele>6</ele><time>2020-02-23T08:55:28Z</time></trkpt>
<trkpt lat="44.017284969" lon="10.088381963"><ele>6</ele><time>2020-02-23T08:55:29Z</time></trkpt>
<trkpt lat="44.017266026" lon="10.088416999"><ele>6</ele><time>2020-02-23T08:55:30Z</time></trkpt>
<trkpt lat="44.017248005" lon="10.088452036"><ele>6</ele><time>2020-02-23T08:55:31Z</time></trkpt>
<trkpt lat="44.017228978" lon="10.088487994"><ele>6</ele><time>2020-02-23T08:55:32Z</time></trkpt>
<trkpt lat="44.017210035" lon="10.08852303"><ele>6</ele><time>2020-02-23T08:55:33Z</time></trkpt>
<trkpt lat="44.017192014" lon="10.088557983"><ele>6</ele><time>2020-02-23T08:55:34Z</time></trkpt>
<trkpt lat="44.017172987" lon="10.088593019"><ele>7</ele><time>2020-02-23T08:55:35Z</time></trkpt>
<trkpt lat="44.01715396" lon="10.088627972"><ele>7</ele><time>2020-02-23T08:55:36Z</time></trkpt>
<trkpt lat="44.017135017" lon="10.088663008"><ele>7</ele><time>2020-02-23T08:55:37Z</time></trkpt>
<trkpt lat="44.01711599" lon="10.088697961"><ele>7</ele><time>2020-02-23T08:55:38Z</time></trkpt>
<trkpt lat="44.017096963" lon="10.088732997"><ele>7</ele><time>2020-02-23T08:55:39Z</time></trkpt>
<trkpt lat="44.01707802" lon="10.088767027"><ele>7</ele><time>2020-02-23T08:55:40Z</time></trkpt>
<trkpt lat="44.017058993" lon="10.08880198"><ele>7</ele><time>2020-02-23T08:55:41Z</time></trkpt>
<trkpt lat="44.017039966" lon="10.088836011"><ele>6</ele><time>2020-02-23T08:55:42Z</time></trkpt>
<trkpt lat="44.017020017" lon="10.088870963"><ele>6</ele><time>2020-02-23T08:55:43Z</time></trkpt>
<trkpt lat="44.01700099" lon="10.088904994"><ele>6</ele><time>2020-02-23T08:55:44Z</time></trkpt>
<trkpt lat="44.016981963" lon="10.088939024"><ele>6</ele><time>2020-02-23T08:55:45Z</time></trkpt>
<trkpt lat="44.016962014" lon="10.088972971"><ele>6</ele><time>2020-02-23T08:55:46Z</time></trkpt>
<trkpt lat="44.016942987" lon="10.089005996"><ele>6</ele><time>2020-02-23T08:55:47Z</time></trkpt>
<trkpt lat="44.016923038" lon="10.08903902"><ele>6</ele><time>2020-02-23T08:55:48Z</time></trkpt>
<trkpt lat="44.016904011" lon="10.089072967"><ele>6</ele><time>2020-02-23T08:55:49Z</time></trkpt>
<trkpt lat="44.016883979" lon="10.089104986"><ele>6</ele><time>2020-02-23T08:55:50Z</time></trkpt>
<trkpt lat="44.01686403" lon="10.089138011"><ele>6</ele><time>2020-02-23T08:55:51Z</time></trkpt>
<trkpt lat="44.016843997" lon="10.089170029"><ele>6</ele><time>2020-02-23T08:55:52Z</time></trkpt>
<trkpt lat="44.016823964" lon="10.089201964"><ele>6</ele><time>2020-02-23T08:55:53Z</time></trkpt>
<trkpt lat="44.016804015" lon="10.089233983"><ele>6</ele><time>2020-02-23T08:55:54Z</time></trkpt>
<trkpt lat="44.016783983" lon="10.089266002"><ele>6</ele><time>2020-02-23T08:55:55Z</time></trkpt>
<trkpt lat="44.016764034" lon="10.089297015"><ele>6</ele><time>2020-02-23T08:55:56Z</time></trkpt>
<trkpt lat="44.016744001" lon="10.089328028"><ele>6</ele><time>2020-02-23T08:55:57Z</time></trkpt>
<trkpt lat="44.016723968" lon="10.089359041"><ele>6</ele><time>2020-02-23T08:55:58Z</time></trkpt>
<trkpt lat="44.016664037" lon="10.089450991"><ele>6</ele><time>2020-02-23T08:56:01Z</time></trkpt>
<trkpt lat="44.016644005" lon="10.089480998"><ele>6</ele><time>2020-02-23T08:56:02Z</time></trkpt>
<trkpt lat="44.016622966" lon="10.089511005"><ele>6</ele><time>2020-02-23T08:56:03Z</time></trkpt>
<trkpt lat="44.016603017" lon="10.089541012"><ele>6</ele><time>2020-02-23T08:56:04Z</time></trkpt>
<trkpt lat="44.016582984" lon="10.08957102"><ele>6</ele><time>2020-02-23T08:56:05Z</time></trkpt>
<trkpt lat="44.016563036" lon="10.089601027"><ele>6</ele><time>2020-02-23T08:56:06Z</time></trkpt>
<trkpt lat="44.016543003" lon="10.089631034"><ele>6</ele><time>2020-02-23T08:56:07Z</time></trkpt>
<trkpt lat="44.01652297" lon="10.089660035"><ele>6</ele><time>2020-02-23T08:56:08Z</time></trkpt>
<trkpt lat="44.016503021" lon="10.089689959"><ele>6</ele><time>2020-02-23T08:56:09Z</time></trkpt>
<trkpt lat="44.016482988" lon="10.089719966"><ele>6</ele><time>2020-02-23T08:56:10Z</time></trkpt>
<trkpt lat="44.016463039" lon="10.089748967"><ele>6</ele><time>2020-02-23T08:56:11Z</time></trkpt>
<trkpt lat="44.016443007" lon="10.089778975"><ele>6</ele><time>2020-02-23T08:56:12Z</time></trkpt>
<trkpt lat="44.016422974" lon="10.089808982"><ele>6</ele><time>2020-02-23T08:56:13Z</time></trkpt>
<trkpt lat="44.016404031" lon="10.089838989"><ele>6</ele><time>2020-02-23T08:56:14Z</time></trkpt>
<trkpt lat="44.016383998" lon="10.08986799"><ele>6</ele><time>2020-02-23T08:56:15Z</time></trkpt>
<trkpt lat="44.016364971" lon="10.089897998"><ele>6</ele><time>2020-02-23T08:56:16Z</time></trkpt>
<trkpt lat="44.016325995" lon="10.089958012"><ele>6</ele><time>2020-02-23T08:56:18Z</time></trkpt>
<trkpt lat="44.016306968" lon="10.089989025"><ele>6</ele><time>2020-02-23T08:56:19Z</time></trkpt>
<trkpt lat="44.016288025" lon="10.09002096"><ele>6</ele><time>2020-02-23T08:56:20Z</time></trkpt>
<trkpt lat="44.016268998" lon="10.090052979"><ele>6</ele><time>2020-02-23T08:56:21Z</time></trkpt>
<trkpt lat="44.016249971" lon="10.09008701"><ele>6</ele><time>2020-02-23T08:56:22Z</time></trkpt>
<trkpt lat="44.016232034" lon="10.090121962"><ele>6</ele><time>2020-02-23T08:56:23Z</time></trkpt>
<trkpt lat="44.016214013" lon="10.090158004"><ele>6</ele><time>2020-02-23T08:56:24Z</time></trkpt>
<trkpt lat="44.016195992" lon="10.090193963"><ele>6</ele><time>2020-02-23T08:56:25Z</time></trkpt>
<trkpt lat="44.016177971" lon="10.090230005"><ele>6</ele><time>2020-02-23T08:56:26Z</time></trkpt>
<trkpt lat="44.016159028" lon="10.090265041"><ele>6</ele><time>2020-02-23T08:56:27Z</time></trkpt>
<trkpt lat="44.016140001" lon="10.090297982"><ele>6</ele><time>2020-02-23T08:56:28Z</time></trkpt>
<trkpt lat="44.016120974" lon="10.090328995"><ele>6</ele><time>2020-02-23T08:56:29Z</time></trkpt>
<trkpt lat="44.016101025" lon="10.090359002"><ele>6</ele><time>2020-02-23T08:56:30Z</time></trkpt>
<trkpt lat="44.016080992" lon="10.090386998"><ele>6</ele><time>2020-02-23T08:56:31Z</time></trkpt>
<trkpt lat="44.016060038" lon="10.090414993"><ele>6</ele><time>2020-02-23T08:56:32Z</time></trkpt>
<trkpt lat="44.016038999" lon="10.090443995"><ele>6</ele><time>2020-02-23T08:56:33Z</time></trkpt>
<trkpt lat="44.015972028" lon="10.090536028"><ele>6</ele><time>2020-02-23T08:56:36Z</time></trkpt>
<trkpt lat="44.015948977" lon="10.090568969"><ele>6</ele><time>2020-02-23T08:56:37Z</time></trkpt>
<trkpt lat="44.015925005" lon="10.090603"><ele>6</ele><time>2020-02-23T08:56:38Z</time></trkpt>
<trkpt lat="44.015902039" lon="10.09063703"><ele>6</ele><time>2020-02-23T08:56:39Z</time></trkpt>
<trkpt lat="44.015878988" lon="10.090670977"><ele>5</ele><time>2020-02-23T08:56:40Z</time></trkpt>
<trkpt lat="44.015857028" lon="10.090705007"><ele>5</ele><time>2020-02-23T08:56:41Z</time></trkpt>
<trkpt lat="44.015833978" lon="10.090739038"><ele>5</ele><time>2020-02-23T08:56:42Z</time></trkpt>
<trkpt lat="44.015813023" lon="10.090772985"><ele>5</ele><time>2020-02-23T08:56:43Z</time></trkpt>
<trkpt lat="44.015790978" lon="10.090806009"><ele>5</ele><time>2020-02-23T08:56:44Z</time></trkpt>
<trkpt lat="44.015770024" lon="10.09084004"><ele>5</ele><time>2020-02-23T08:56:45Z</time></trkpt>
<trkpt lat="44.015748985" lon="10.090872981"><ele>5</ele><time>2020-02-23T08:56:46Z</time></trkpt>
<trkpt lat="44.01572803" lon="10.090905"><ele>5</ele><time>2020-02-23T08:56:47Z</time></trkpt>
<trkpt lat="44.015706992" lon="10.090938024"><ele>5</ele><time>2020-02-23T08:56:48Z</time></trkpt>
<trkpt lat="44.015686959" lon="10.090969959"><ele>5</ele><time>2020-02-23T08:56:49Z</time></trkpt>
<trkpt lat="44.01566701" lon="10.091001978"><ele>5</ele><time>2020-02-23T08:56:50Z</time></trkpt>
<trkpt lat="44.015646977" lon="10.091033997"><ele>6</ele><time>2020-02-23T08:56:51Z</time></trkpt>
<trkpt lat="44.015627028" lon="10.091066016"><ele>6</ele><time>2020-02-23T08:56:52Z</time></trkpt>
<trkpt lat="44.015606996" lon="10.091097029"><ele>6</ele><time>2020-02-23T08:56:53Z</time></trkpt>
<trkpt lat="44.015586963" lon="10.091127958"><ele>6</ele><time>2020-02-23T08:56:54Z</time></trkpt>
<trkpt lat="44.01556802" lon="10.091158971"><ele>6</ele><time>2020-02-23T08:56:55Z</time></trkpt>
<trkpt lat="44.015547987" lon="10.091189984"><ele>6</ele><time>2020-02-23T08:56:56Z</time></trkpt>
<trkpt lat="44.01552896" lon="10.091219991"><ele>6</ele><time>2020-02-23T08:56:57Z</time></trkpt>
<trkpt lat="44.015509011" lon="10.091249999"><ele>6</ele><time>2020-02-23T08:56:58Z</time></trkpt>
<trkpt lat="44.015489984" lon="10.091281012"><ele>6</ele><time>2020-02-23T08:56:59Z</time></trkpt>
<trkpt lat="44.015471041" lon="10.091311019"><ele>6</ele><time>2020-02-23T08:57:00Z</time></trkpt>
<trkpt lat="44.015451008" lon="10.091341026"><ele>6</ele><time>2020-02-23T08:57:01Z</time></trkpt>
<trkpt lat="44.015430976" lon="10.091372039"><ele>6</ele><time>2020-02-23T08:57:02Z</time></trkpt>
<trkpt lat="44.015412033" lon="10.091401963"><ele>6</ele><time>2020-02-23T08:57:03Z</time></trkpt>
<trkpt lat="44.015392" lon="10.091432976"><ele>6</ele><time>2020-02-23T08:57:04Z</time></trkpt>
<trkpt lat="44.015371967" lon="10.091463989"><ele>7</ele><time>2020-02-23T08:57:05Z</time></trkpt>
<trkpt lat="44.015352018" lon="10.091495002"><ele>7</ele><time>2020-02-23T08:57:06Z</time></trkpt>
<trkpt lat="44.015331985" lon="10.091526015"><ele>7</ele><time>2020-02-23T08:57:07Z</time></trkpt>
<trkpt lat="44.015311031" lon="10.091557028"><ele>7</ele><time>2020-02-23T08:57:08Z</time></trkpt>
<trkpt lat="44.015290998" lon="10.091588963"><ele>7</ele><time>2020-02-23T08:57:09Z</time></trkpt>
<trkpt lat="44.015269959" lon="10.091620982"><ele>7</ele><time>2020-02-23T08:57:10Z</time></trkpt>
<trkpt lat="44.015249005" lon="10.091653001"><ele>7</ele><time>2020-02-23T08:57:11Z</time></trkpt>
<trkpt lat="44.015227966" lon="10.091685019"><ele>7</ele><time>2020-02-23T08:57:12Z</time></trkpt>
<trkpt lat="44.015207011" lon="10.091717038"><ele>7</ele><time>2020-02-23T08:57:13Z</time></trkpt>
<trkpt lat="44.015143979" lon="10.091814017"><ele>7</ele><time>2020-02-23T08:57:16Z</time></trkpt>
<trkpt lat="44.015123025" lon="10.091846036"><ele>7</ele><time>2020-02-23T08:57:17Z</time></trkpt>
<trkpt lat="44.01510098" lon="10.091878977"><ele>7</ele><time>2020-02-23T08:57:18Z</time></trkpt>
<trkpt lat="44.015080025" lon="10.091910996"><ele>7</ele><time>2020-02-23T08:57:19Z</time></trkpt>
<trkpt lat="44.015058987" lon="10.091943014"><ele>7</ele><time>2020-02-23T08:57:20Z</time></trkpt>
<trkpt lat="44.015037026" lon="10.091976039"><ele>7</ele><time>2020-02-23T08:57:21Z</time></trkpt>
<trkpt lat="44.015015988" lon="10.092007974"><ele>7</ele><time>2020-02-23T08:57:22Z</time></trkpt>
<trkpt lat="44.014995033" lon="10.092039993"><ele>7</ele><time>2020-02-23T08:57:23Z</time></trkpt>
<trkpt lat="44.014973994" lon="10.092072012"><ele>7</ele><time>2020-02-23T08:57:24Z</time></trkpt>
<trkpt lat="44.014952034" lon="10.092104031"><ele>7</ele><time>2020-02-23T08:57:25Z</time></trkpt>
<trkpt lat="44.014930995" lon="10.09213496"><ele>7</ele><time>2020-02-23T08:57:26Z</time></trkpt>
<trkpt lat="44.01491004" lon="10.092166979"><ele>7</ele><time>2020-02-23T08:57:27Z</time></trkpt>
<trkpt lat="44.014889002" lon="10.092197992"><ele>6</ele><time>2020-02-23T08:57:28Z</time></trkpt>
<trkpt lat="44.014867963" lon="10.092229005"><ele>6</ele><time>2020-02-23T08:57:29Z</time></trkpt>
<trkpt lat="44.014847009" lon="10.092260018"><ele>6</ele><time>2020-02-23T08:57:30Z</time></trkpt>
<trkpt lat="44.014826976" lon="10.092291031"><ele>6</ele><time>2020-02-23T08:57:31Z</time></trkpt>
<trkpt lat="44.014806021" lon="10.09232196"><ele>6</ele><time>2020-02-23T08:57:32Z</time></trkpt>
<trkpt lat="44.014784982" lon="10.092351967"><ele>6</ele><time>2020-02-23T08:57:33Z</time></trkpt>
<trkpt lat="44.014765033" lon="10.092381975"><ele>6</ele><time>2020-02-23T08:57:34Z</time></trkpt>
<trkpt lat="44.014743995" lon="10.092411982"><ele>6</ele><time>2020-02-23T08:57:35Z</time></trkpt>
<trkpt lat="44.014723962" lon="10.092442995"><ele>6</ele><time>2020-02-23T08:57:36Z</time></trkpt>
<trkpt lat="44.014663026" lon="10.092533017"><ele>6</ele><time>2020-02-23T08:57:39Z</time></trkpt>
<trkpt lat="44.014641987" lon="10.092563024"><ele>6</ele><time>2020-02-23T08:57:40Z</time></trkpt>
<trkpt lat="44.014622038" lon="10.092593031"><ele>5</ele><time>2020-02-23T08:57:41Z</time></trkpt>
<trkpt lat="44.014601" lon="10.092623038"><ele>5</ele><time>2020-02-23T08:57:42Z</time></trkpt>
<trkpt lat="44.014580967" lon="10.092652962"><ele>5</ele><time>2020-02-23T08:57:43Z</time></trkpt>
<trkpt lat="44.014560012" lon="10.092683975"><ele>5</ele><time>2020-02-23T08:57:44Z</time></trkpt>
<trkpt lat="44.014539979" lon="10.092713982"><ele>5</ele><time>2020-02-23T08:57:45Z</time></trkpt>
<trkpt lat="44.014519025" lon="10.092744995"><ele>5</ele><time>2020-02-23T08:57:46Z</time></trkpt>
<trkpt lat="44.014498992" lon="10.092776008"><ele>5</ele><time>2020-02-23T08:57:47Z</time></trkpt>
<trkpt lat="44.014478037" lon="10.092807021"><ele>5</ele><time>2020-02-23T08:57:48Z</time></trkpt>
<trkpt lat="44.014456999" lon="10.092838034"><ele>5</ele><time>2020-02-23T08:57:49Z</time></trkpt>
<trkpt lat="44.01443596" lon="10.092869969"><ele>5</ele><time>2020-02-23T08:57:50Z</time></trkpt>
<trkpt lat="44.014415005" lon="10.092901988"><ele>5</ele><time>2020-02-23T08:57:51Z</time></trkpt>
<trkpt lat="44.014393967" lon="10.092934007"><ele>5</ele><time>2020-02-23T08:57:52Z</time></trkpt>
<trkpt lat="44.014373012" lon="10.092967032"><ele>5</ele><time>2020-02-23T08:57:53Z</time></trkpt>
<trkpt lat="44.014351973" lon="10.092999972"><ele>5</ele><time>2020-02-23T08:57:54Z</time></trkpt>
<trkpt lat="44.014330013" lon="10.093032997"><ele>4</ele><time>2020-02-23T08:57:55Z</time></trkpt>
<trkpt lat="44.014308974" lon="10.093067028"><ele>4</ele><time>2020-02-23T08:57:56Z</time></trkpt>
<trkpt lat="44.014287014" lon="10.093100974"><ele>4</ele><time>2020-02-23T08:57:57Z</time></trkpt>
<trkpt lat="44.014264969" lon="10.093135005"><ele>4</ele><time>2020-02-23T08:57:58Z</time></trkpt>
<trkpt lat="44.014244014" lon="10.093169035"><ele>4</ele><time>2020-02-23T08:57:59Z</time></trkpt>
<trkpt lat="44.01422197" lon="10.093202982"><ele>4</ele><time>2020-02-23T08:58:00Z</time></trkpt>
<trkpt lat="44.014201015" lon="10.093237013"><ele>4</ele><time>2020-02-23T08:58:01Z</time></trkpt>
<trkpt lat="44.014178971" lon="10.093270037"><ele>4</ele><time>2020-02-23T08:58:02Z</time></trkpt>
<trkpt lat="44.014158016" lon="10.093303984"><ele>4</ele><time>2020-02-23T08:58:03Z</time></trkpt>
<trkpt lat="44.014136977" lon="10.093336003"><ele>4</ele><time>2020-02-23T08:58:04Z</time></trkpt>
<trkpt lat="44.014117029" lon="10.093368022"><ele>4</ele><time>2020-02-23T08:58:05Z</time></trkpt>
<trkpt lat="44.014096996" lon="10.093400041"><ele>4</ele><time>2020-02-23T08:58:06Z</time></trkpt>
<trkpt lat="44.014076963" lon="10.09343097"><ele>4</ele><time>2020-02-23T08:58:07Z</time></trkpt>
<trkpt lat="44.014057014" lon="10.093460977"><ele>4</ele><time>2020-02-23T08:58:08Z</time></trkpt>
<trkpt lat="44.014037987" lon="10.093490984"><ele>4</ele><time>2020-02-23T08:58:09Z</time></trkpt>
<trkpt lat="44.01401896" lon="10.093519986"><ele>4</ele><time>2020-02-23T08:58:10Z</time></trkpt>
<trkpt lat="44.013999011" lon="10.093548987"><ele>4</ele><time>2020-02-23T08:58:11Z</time></trkpt>
<trkpt lat="44.013979984" lon="10.093577988"><ele>4</ele><time>2020-02-23T08:58:12Z</time></trkpt>
<trkpt lat="44.013961041" lon="10.093607996"><ele>4</ele><time>2020-02-23T08:58:13Z</time></trkpt>
<trkpt lat="44.013941009" lon="10.093636997"><ele>4</ele><time>2020-02-23T08:58:14Z</time></trkpt>
<trkpt lat="44.013921982" lon="10.093665998"><ele>3</ele><time>2020-02-23T08:58:15Z</time></trkpt>
<trkpt lat="44.013902033" lon="10.093696006"><ele>3</ele><time>2020-02-23T08:58:16Z</time></trkpt>
<trkpt lat="44.013880994" lon="10.093727019"><ele>3</ele><time>2020-02-23T08:58:17Z</time></trkpt>
<trkpt lat="44.013860039" lon="10.093758032"><ele>3</ele><time>2020-02-23T08:58:18Z</time></trkpt>
<trkpt lat="44.013839001" lon="10.093789967"><ele>3</ele><time>2020-02-23T08:58:19Z</time></trkpt>
<trkpt lat="44.01381704" lon="10.093822991"><ele>3</ele><time>2020-02-23T08:58:20Z</time></trkpt>
<trkpt lat="44.013794996" lon="10.093856016"><ele>3</ele><time>2020-02-23T08:58:21Z</time></trkpt>
<trkpt lat="44.013772029" lon="10.093889041"><ele>3</ele><time>2020-02-23T08:58:22Z</time></trkpt>
<trkpt lat="44.013749985" lon="10.093922988"><ele>3</ele><time>2020-02-23T08:58:23Z</time></trkpt>
<trkpt lat="44.013727019" lon="10.093958024"><ele>3</ele><time>2020-02-23T08:58:24Z</time></trkpt>
<trkpt lat="44.013703968" lon="10.093991971"><ele>3</ele><time>2020-02-23T08:58:25Z</time></trkpt>
<trkpt lat="44.013681002" lon="10.094026001"><ele>3</ele><time>2020-02-23T08:58:26Z</time></trkpt>
<trkpt lat="44.013659041" lon="10.094060032"><ele>3</ele><time>2020-02-23T08:58:27Z</time></trkpt>
<trkpt lat="44.013636997" lon="10.094093978"><ele>3</ele><time>2020-02-23T08:58:28Z</time></trkpt>
<trkpt lat="44.013615036" lon="10.094128009"><ele>3</ele><time>2020-02-23T08:58:29Z</time></trkpt>
<trkpt lat="44.013593998" lon="10.094161034"><ele>3</ele><time>2020-02-23T08:58:30Z</time></trkpt>
<trkpt lat="44.013572959" lon="10.094192969"><ele>3</ele><time>2020-02-23T08:58:31Z</time></trkpt>
<trkpt lat="44.01355301" lon="10.094224988"><ele>3</ele><time>2020-02-23T08:58:32Z</time></trkpt>
<trkpt lat="44.013532978" lon="10.094257006"><ele>3</ele><time>2020-02-23T08:58:33Z</time></trkpt>
<trkpt lat="44.013513029" lon="10.094287014"><ele>3</ele><time>2020-02-23T08:58:34Z</time></trkpt>
<trkpt lat="44.013494002" lon="10.094318027"><ele>3</ele><time>2020-02-23T08:58:35Z</time></trkpt>
<trkpt lat="44.013474975" lon="10.094348034"><ele>3</ele><time>2020-02-23T08:58:36Z</time></trkpt>
<trkpt lat="44.013455026" lon="10.094377035"><ele>3</ele><time>2020-02-23T08:58:37Z</time></trkpt>
<trkpt lat="44.013435999" lon="10.094406037"><ele>3</ele><time>2020-02-23T08:58:38Z</time></trkpt>
<trkpt lat="44.013416972" lon="10.094434032"><ele>3</ele><time>2020-02-23T08:58:39Z</time></trkpt>
<trkpt lat="44.013397023" lon="10.094463034"><ele>3</ele><time>2020-02-23T08:58:40Z</time></trkpt>
<trkpt lat="44.01337699" lon="10.094490023"><ele>3</ele><time>2020-02-23T08:58:41Z</time></trkpt>
<trkpt lat="44.013357041" lon="10.094518019"><ele>3</ele><time>2020-02-23T08:58:42Z</time></trkpt>
<trkpt lat="44.013336003" lon="10.094545009"><ele>3</ele><time>2020-02-23T08:58:43Z</time></trkpt>
<trkpt lat="44.013313958" lon="10.094570993"><ele>3</ele><time>2020-02-23T08:58:44Z</time></trkpt>
<trkpt lat="44.013290992" lon="10.094594965"><ele>3</ele><time>2020-02-23T08:58:45Z</time></trkpt>
<trkpt lat="44.01326702" lon="10.094618015"><ele>3</ele><time>2020-02-23T08:58:46Z</time></trkpt>
<trkpt lat="44.013241036" lon="10.094637964"><ele>3</ele><time>2020-02-23T08:58:47Z</time></trkpt>
<trkpt lat="44.01321304" lon="10.094653973"><ele>3</ele><time>2020-02-23T08:58:48Z</time></trkpt>
<trkpt lat="44.013183033" lon="10.094666965"><ele>3</ele><time>2020-02-23T08:58:49Z</time></trkpt>
<trkpt lat="44.013084965" lon="10.094681969"><ele>3</ele><time>2020-02-23T08:58:52Z</time></trkpt>
<trkpt lat="44.013052024" lon="10.094679035"><ele>3</ele><time>2020-02-23T08:58:53Z</time></trkpt>
<trkpt lat="44.013020005" lon="10.094671994"><ele>2</ele><time>2020-02-23T08:58:54Z</time></trkpt>
<trkpt lat="44.012988992" lon="10.094661014"><ele>2</ele><time>2020-02-23T08:58:55Z</time></trkpt>
<trkpt lat="44.012959991" lon="10.094647016"><ele>2</ele><time>2020-02-23T08:58:56Z</time></trkpt>
<trkpt lat="44.012931995" lon="10.094630001"><ele>2</ele><time>2020-02-23T08:58:57Z</time></trkpt>
<trkpt lat="44.012905005" lon="10.094610974"><ele>2</ele><time>2020-02-23T08:58:58Z</time></trkpt>
<trkpt lat="44.012878016" lon="10.094591025"><ele>2</ele><time>2020-02-23T08:58:59Z</time></trkpt>
<trkpt lat="44.012853038" lon="10.094569987"><ele>2</ele><time>2020-02-23T08:59:00Z</time></trkpt>
<trkpt lat="44.01282697" lon="10.094549032"><ele>2</ele><time>2020-02-23T08:59:01Z</time></trkpt>
<trkpt lat="44.012801992" lon="10.094526988"><ele>2</ele><time>2020-02-23T08:59:02Z</time></trkpt>
<trkpt lat="44.012777014" lon="10.094506033"><ele>2</ele><time>2020-02-23T08:59:03Z</time></trkpt>
<trkpt lat="44.012752036" lon="10.094484994"><ele>2</ele><time>2020-02-23T08:59:04Z</time></trkpt>
<trkpt lat="44.012726974" lon="10.094464039"><ele>2</ele><time>2020-02-23T08:59:05Z</time></trkpt>
<trkpt lat="44.012701996" lon="10.094441995"><ele>2</ele><time>2020-02-23T08:59:06Z</time></trkpt>
<trkpt lat="44.012677018" lon="10.09442104"><ele>2</ele><time>2020-02-23T08:59:07Z</time></trkpt>
<trkpt lat="44.01265204" lon="10.094400002"><ele>2</ele><time>2020-02-23T08:59:08Z</time></trkpt>
<trkpt lat="44.012626978" lon="10.094378041"><ele>2</ele><time>2020-02-23T08:59:09Z</time></trkpt>
<trkpt lat="44.012602" lon="10.094357003"><ele>2</ele><time>2020-02-23T08:59:10Z</time></trkpt>
<trkpt lat="44.012576016" lon="10.094335964"><ele>2</ele><time>2020-02-23T08:59:11Z</time></trkpt>
<trkpt lat="44.012550032" lon="10.094314003"><ele>2</ele><time>2020-02-23T08:59:12Z</time></trkpt>
<trkpt lat="44.01252497" lon="10.094292965"><ele>2</ele><time>2020-02-23T08:59:13Z</time></trkpt>
<trkpt lat="44.012498986" lon="10.094271004"><ele>2</ele><time>2020-02-23T08:59:14Z</time></trkpt>
<trkpt lat="44.012473002" lon="10.09424896"><ele>2</ele><time>2020-02-23T08:59:15Z</time></trkpt>
<trkpt lat="44.012447018" lon="10.094226999"><ele>2</ele><time>2020-02-23T08:59:16Z</time></trkpt>
<trkpt lat="44.01242204" lon="10.094205039"><ele>2</ele><time>2020-02-23T08:59:17Z</time></trkpt>
<trkpt lat="44.012395972" lon="10.094181988"><ele>2</ele><time>2020-02-23T08:59:18Z</time></trkpt>
<trkpt lat="44.012319027" lon="10.094113005"><ele>2</ele><time>2020-02-23T08:59:21Z</time></trkpt>
<trkpt lat="44.012292959" lon="10.094089033"><ele>2</ele><time>2020-02-23T08:59:22Z</time></trkpt>
<trkpt lat="44.012266975" lon="10.094064977"><ele>2</ele><time>2020-02-23T08:59:23Z</time></trkpt>
<trkpt lat="44.012241997" lon="10.094041005"><ele>2</ele><time>2020-02-23T08:59:24Z</time></trkpt>
<trkpt lat="44.012216013" lon="10.094017033"><ele>2</ele><time>2020-02-23T08:59:25Z</time></trkpt>
<trkpt lat="44.012191035" lon="10.093992976"><ele>2</ele><time>2020-02-23T08:59:26Z</time></trkpt>
<trkpt lat="44.012165973" lon="10.093969004"><ele>1</ele><time>2020-02-23T08:59:27Z</time></trkpt>
<trkpt lat="44.012139989" lon="10.093944026"><ele>1</ele><time>2020-02-23T08:59:28Z</time></trkpt>
<trkpt lat="44.012115011" lon="10.09391997"><ele>1</ele><time>2020-02-23T08:59:29Z</time></trkpt>
<trkpt lat="44.012090033" lon="10.093895998"><ele>1</ele><time>2020-02-23T08:59:30Z</time></trkpt>
<trkpt lat="44.012064971" lon="10.093872026"><ele>1</ele><time>2020-02-23T08:59:31Z</time></trkpt>
<trkpt lat="44.012040999" lon="10.09384797"><ele>1</ele><time>2020-02-23T08:59:32Z</time></trkpt>
<trkpt lat="44.012016021" lon="10.093823997"><ele>1</ele><time>2020-02-23T08:59:33Z</time></trkpt>
<trkpt lat="44.011990959" lon="10.093800025"><ele>1</ele><time>2020-02-23T08:59:34Z</time></trkpt>
<trkpt lat="44.011966987" lon="10.093776975"><ele>1</ele><time>2020-02-23T08:59:35Z</time></trkpt>
<trkpt lat="44.011942009" lon="10.093753003"><ele>1</ele><time>2020-02-23T08:59:36Z</time></trkpt>
<trkpt lat="44.011918036" lon="10.093730036"><ele>1</ele><time>2020-02-23T08:59:37Z</time></trkpt>
<trkpt lat="44.011892974" lon="10.093706986"><ele>1</ele><time>2020-02-23T08:59:38Z</time></trkpt>
<trkpt lat="44.011867996" lon="10.09368402"><ele>1</ele><time>2020-02-23T08:59:39Z</time></trkpt>
<trkpt lat="44.011844024" lon="10.093660969"><ele>1</ele><time>2020-02-23T08:59:40Z</time></trkpt>
<trkpt lat="44.011818962" lon="10.093638003"><ele>1</ele><time>2020-02-23T08:59:41Z</time></trkpt>
<trkpt lat="44.011792978" lon="10.093615036"><ele>1</ele><time>2020-02-23T08:59:42Z</time></trkpt>
<trkpt lat="44.011768" lon="10.093591986"><ele>1</ele><time>2020-02-23T08:59:43Z</time></trkpt>
<trkpt lat="44.011743022" lon="10.093570026"><ele>1</ele><time>2020-02-23T08:59:44Z</time></trkpt>
<trkpt lat="44.011717038" lon="10.093547981"><ele>1</ele><time>2020-02-23T08:59:45Z</time></trkpt>
<trkpt lat="44.011690971" lon="10.093527026"><ele>1</ele><time>2020-02-23T08:59:46Z</time></trkpt>
<trkpt lat="44.011664987" lon="10.093506994"><ele>1</ele><time>2020-02-23T08:59:47Z</time></trkpt>
<trkpt lat="44.011637997" lon="10.093489978"><ele>1</ele><time>2020-02-23T08:59:48Z</time></trkpt>
<trkpt lat="44.011612013" lon="10.093474975"><ele>1</ele><time>2020-02-23T08:59:49Z</time></trkpt>
<trkpt lat="44.011585023" lon="10.093462989"><ele>1</ele><time>2020-02-23T08:59:50Z</time></trkpt>
<trkpt lat="44.011559039" lon="10.093455026"><ele>1</ele><time>2020-02-23T08:59:51Z</time></trkpt>
<trkpt lat="44.011531966" lon="10.093451003"><ele>1</ele><time>2020-02-23T08:59:52Z</time></trkpt>
<trkpt lat="44.011504976" lon="10.093451003"><ele>1</ele><time>2020-02-23T08:59:53Z</time></trkpt>
<trkpt lat="44.011477986" lon="10.093455026"><ele>1</ele><time>2020-02-23T08:59:54Z</time></trkpt>
<trkpt lat="44.011450997" lon="10.093466006"><ele>1</ele><time>2020-02-23T08:59:55Z</time></trkpt>
<trkpt lat="44.011424007" lon="10.093482016"><ele>1</ele><time>2020-02-23T08:59:56Z</time></trkpt>
<trkpt lat="44.011397017" lon="10.09350297"><ele>1</ele><time>2020-02-23T08:59:57Z</time></trkpt>
<trkpt lat="44.011371033" lon="10.093528032"><ele>1</ele><time>2020-02-23T08:59:58Z</time></trkpt>
<trkpt lat="44.011344966" lon="10.093556028"><ele>1</ele><time>2020-02-23T08:59:59Z</time></trkpt>
<trkpt lat="44.011318982" lon="10.093586035"><ele>1</ele><time>2020-02-23T09:00:00Z</time></trkpt>
<trkpt lat="44.011294004" lon="10.093616964"><ele>1</ele><time>2020-02-23T09:00:01Z</time></trkpt>
<trkpt lat="44.011270031" lon="10.093648983"><ele>1</ele><time>2020-02-23T09:00:02Z</time></trkpt>
<trkpt lat="44.011245975" lon="10.093679996"><ele>1</ele><time>2020-02-23T09:00:03Z</time></trkpt>
<trkpt lat="44.011223009" lon="10.093710003"><ele>1</ele><time>2020-02-23T09:00:04Z</time></trkpt>
<trkpt lat="44.011200964" lon="10.093740011"><ele>1</ele><time>2020-02-23T09:00:05Z</time></trkpt>
<trkpt lat="44.01118001" lon="10.093771024"><ele>1</ele><time>2020-02-23T09:00:06Z</time></trkpt>
<trkpt lat="44.011157965" lon="10.093801031"><ele>1</ele><time>2020-02-23T09:00:07Z</time></trkpt>
<trkpt lat="44.011137011" lon="10.093832966"><ele>1</ele><time>2020-02-23T09:00:08Z</time></trkpt>
<trkpt lat="44.011115972" lon="10.093864985"><ele>1</ele><time>2020-02-23T09:00:09Z</time></trkpt>
<trkpt lat="44.011094011" lon="10.093897004"><ele>1</ele><time>2020-02-23T09:00:10Z</time></trkpt>
<trkpt lat="44.011072973" lon="10.093930028"><ele>1</ele><time>2020-02-23T09:00:11Z</time></trkpt>
<trkpt lat="44.011052018" lon="10.093963975"><ele>1</ele><time>2020-02-23T09:00:12Z</time></trkpt>
<trkpt lat="44.011030979" lon="10.093998006"><ele>1</ele><time>2020-02-23T09:00:13Z</time></trkpt>
<trkpt lat="44.011009019" lon="10.094032958"><ele>1</ele><time>2020-02-23T09:00:14Z</time></trkpt>
<trkpt lat="44.01098798" lon="10.094066989"><ele>1</ele><time>2020-02-23T09:00:15Z</time></trkpt>
<trkpt lat="44.010967026" lon="10.094102025"><ele>1</ele><time>2020-02-23T09:00:16Z</time></trkpt>
<trkpt lat="44.010945987" lon="10.094135972"><ele>1</ele><time>2020-02-23T09:00:17Z</time></trkpt>
<trkpt lat="44.010926038" lon="10.094171008"><ele>1</ele><time>2020-02-23T09:00:18Z</time></trkpt>
<trkpt lat="44.010904999" lon="10.094205039"><ele>1</ele><time>2020-02-23T09:00:19Z</time></trkpt>
<trkpt lat="44.010884967" lon="10.094238985"><ele>1</ele><time>2020-02-23T09:00:20Z</time></trkpt>
<trkpt lat="44.010865018" lon="10.094273016"><ele>1</ele><time>2020-02-23T09:00:21Z</time></trkpt>
<trkpt lat="44.010844985" lon="10.094306041"><ele>1</ele><time>2020-02-23T09:00:22Z</time></trkpt>
<trkpt lat="44.010825036" lon="10.094338981"><ele>1</ele><time>2020-02-23T09:00:23Z</time></trkpt>
<trkpt lat="44.010766027" lon="10.094436966"><ele>1</ele><time>2020-02-23T09:00:26Z</time></trkpt>
<trkpt lat="44.010745995" lon="10.094468985"><ele>1</ele><time>2020-02-23T09:00:27Z</time></trkpt>
<trkpt lat="44.010725962" lon="10.094501004"><ele>1</ele><time>2020-02-23T09:00:28Z</time></trkpt>
<trkpt lat="44.010706013" lon="10.094534028"><ele>1</ele><time>2020-02-23T09:00:29Z</time></trkpt>
<trkpt lat="44.010684974" lon="10.094565963"><ele>1</ele><time>2020-02-23T09:00:30Z</time></trkpt>
<trkpt lat="44.01066402" lon="10.094597982"><ele>1</ele><time>2020-02-23T09:00:31Z</time></trkpt>
<trkpt lat="44.010642981" lon="10.094631007"><ele>1</ele><time>2020-02-23T09:00:32Z</time></trkpt>
<trkpt lat="44.010622026" lon="10.094664032"><ele>1</ele><time>2020-02-23T09:00:33Z</time></trkpt>
<trkpt lat="44.010599982" lon="10.094696973"><ele>1</ele><time>2020-02-23T09:00:34Z</time></trkpt>
<trkpt lat="44.010578021" lon="10.094731003"><ele>1</ele><time>2020-02-23T09:00:35Z</time></trkpt>
<trkpt lat="44.010555977" lon="10.094764028"><ele>1</ele><time>2020-02-23T09:00:36Z</time></trkpt>
<trkpt lat="44.01050996" lon="10.094830999"><ele>1</ele><time>2020-02-23T09:00:38Z</time></trkpt>
<trkpt lat="44.010488" lon="10.09486503"><ele>1</ele><time>2020-02-23T09:00:39Z</time></trkpt>
<trkpt lat="44.010420023" lon="10.09496402"><ele>1</ele><time>2020-02-23T09:00:42Z</time></trkpt>
<trkpt lat="44.010397978" lon="10.094996961"><ele>1</ele><time>2020-02-23T09:00:43Z</time></trkpt>
<trkpt lat="44.010376018" lon="10.095029986"><ele>1</ele><time>2020-02-23T09:00:44Z</time></trkpt>
<trkpt lat="44.010354979" lon="10.095062004"><ele>1</ele><time>2020-02-23T09:00:45Z</time></trkpt>
<trkpt lat="44.010334024" lon="10.095094023"><ele>1</ele><time>2020-02-23T09:00:46Z</time></trkpt>
<trkpt lat="44.010312986" lon="10.095125958"><ele>1</ele><time>2020-02-23T09:00:47Z</time></trkpt>
<trkpt lat="44.010292031" lon="10.095157977"><ele>1</ele><time>2020-02-23T09:00:48Z</time></trkpt>
<trkpt lat="44.010271998" lon="10.095189996"><ele>2</ele><time>2020-02-23T09:00:49Z</time></trkpt>
<trkpt lat="44.01025096" lon="10.095222015"><ele>2</ele><time>2020-02-23T09:00:50Z</time></trkpt>
<trkpt lat="44.010231011" lon="10.095254034"><ele>2</ele><time>2020-02-23T09:00:51Z</time></trkpt>
<trkpt lat="44.010210978" lon="10.095284963"><ele>2</ele><time>2020-02-23T09:00:52Z</time></trkpt>
<trkpt lat="44.010191029" lon="10.095317988"><ele>2</ele><time>2020-02-23T09:00:53Z</time></trkpt>
<trkpt lat="44.010172002" lon="10.095350007"><ele>2</ele><time>2020-02-23T09:00:54Z</time></trkpt>
<trkpt lat="44.010152975" lon="10.095382025"><ele>2</ele><time>2020-02-23T09:00:55Z</time></trkpt>
<trkpt lat="44.010134032" lon="10.095414966"><ele>2</ele><time>2020-02-23T09:00:56Z</time></trkpt>
<trkpt lat="44.010117017" lon="10.095447991"><ele>2</ele><time>2020-02-23T09:00:57Z</time></trkpt>
<trkpt lat="44.010101007" lon="10.095481016"><ele>2</ele><time>2020-02-23T09:00:58Z</time></trkpt>
<trkpt lat="44.010084998" lon="10.09551404"><ele>2</ele><time>2020-02-23T09:00:59Z</time></trkpt>
<trkpt lat="44.010068988" lon="10.095546981"><ele>2</ele><time>2020-02-23T09:01:00Z</time></trkpt>
<trkpt lat="44.010052979" lon="10.095581012"><ele>2</ele><time>2020-02-23T09:01:01Z</time></trkpt>
<trkpt lat="44.01003697" lon="10.095614037"><ele>3</ele><time>2020-02-23T09:01:02Z</time></trkpt>
<trkpt lat="44.010019032" lon="10.095647983"><ele>3</ele><time>2020-02-23T09:01:03Z</time></trkpt>
<trkpt lat="44.010001011" lon="10.095682014"><ele>3</ele><time>2020-02-23T09:01:04Z</time></trkpt>
<trkpt lat="44.009980978" lon="10.095715038"><ele>3</ele><time>2020-02-23T09:01:05Z</time></trkpt>
<trkpt lat="44.009960024" lon="10.095748985"><ele>3</ele><time>2020-02-23T09:01:06Z</time></trkpt>
<trkpt lat="44.009938985" lon="10.095783016"><ele>3</ele><time>2020-02-23T09:01:07Z</time></trkpt>
<trkpt lat="44.009917025" lon="10.09581604"><ele>3</ele><time>2020-02-23T09:01:08Z</time></trkpt>
<trkpt lat="44.009893974" lon="10.095849987"><ele>3</ele><time>2020-02-23T09:01:09Z</time></trkpt>
<trkpt lat="44.009871008" lon="10.095883012"><ele>3</ele><time>2020-02-23T09:01:10Z</time></trkpt>
<trkpt lat="44.009848041" lon="10.095916037"><ele>3</ele><time>2020-02-23T09:01:11Z</time></trkpt>
<trkpt lat="44.009824991" lon="10.095948977"><ele>3</ele><time>2020-02-23T09:01:12Z</time></trkpt>
<trkpt lat="44.009802025" lon="10.095982002"><ele>3</ele><time>2020-02-23T09:01:13Z</time></trkpt>
<trkpt lat="44.009778975" lon="10.096014021"><ele>3</ele><time>2020-02-23T09:01:14Z</time></trkpt>
<trkpt lat="44.009755002" lon="10.096046962"><ele>3</ele><time>2020-02-23T09:01:15Z</time></trkpt>
<trkpt lat="44.009732036" lon="10.096078981"><ele>3</ele><time>2020-02-23T09:01:16Z</time></trkpt>
<trkpt lat="44.009708986" lon="10.096111"><ele>3</ele><time>2020-02-23T09:01:17Z</time></trkpt>
<trkpt lat="44.009687025" lon="10.096143018"><ele>3</ele><time>2020-02-23T09:01:18Z</time></trkpt>
<trkpt lat="44.009663975" lon="10.096174031"><ele>3</ele><time>2020-02-23T09:01:19Z</time></trkpt>
<trkpt lat="44.009642014" lon="10.096205967"><ele>3</ele><time>2020-02-23T09:01:20Z</time></trkpt>
<trkpt lat="44.00961997" lon="10.09623698"><ele>3</ele><time>2020-02-23T09:01:21Z</time></trkpt>
<trkpt lat="44.009599015" lon="10.096267993"><ele>2</ele><time>2020-02-23T09:01:22Z</time></trkpt>
<trkpt lat="44.009536989" lon="10.096361032"><ele>1</ele><time>2020-02-23T09:01:25Z</time></trkpt>
<trkpt lat="44.00951704" lon="10.096391961"><ele>1</ele><time>2020-02-23T09:01:26Z</time></trkpt>
<trkpt lat="44.009497007" lon="10.096422974"><ele>1</ele><time>2020-02-23T09:01:27Z</time></trkpt>
<trkpt lat="44.00947798" lon="10.096453987"><ele>1</ele><time>2020-02-23T09:01:28Z</time></trkpt>
<trkpt lat="44.009458032" lon="10.096485"><ele>1</ele><time>2020-02-23T09:01:29Z</time></trkpt>
<trkpt lat="44.009437999" lon="10.096516013"><ele>1</ele><time>2020-02-23T09:01:30Z</time></trkpt>
<trkpt lat="44.009418972" lon="10.096548032"><ele>1</ele><time>2020-02-23T09:01:31Z</time></trkpt>
<trkpt lat="44.009399023" lon="10.096578961"><ele>1</ele><time>2020-02-23T09:01:32Z</time></trkpt>
<trkpt lat="44.00937899" lon="10.09661098"><ele>1</ele><time>2020-02-23T09:01:33Z</time></trkpt>
<trkpt lat="44.009358035" lon="10.096642999"><ele>1</ele><time>2020-02-23T09:01:34Z</time></trkpt>
<trkpt lat="44.009338003" lon="10.096675018"><ele>1</ele><time>2020-02-23T09:01:35Z</time></trkpt>
<trkpt lat="44.009316964" lon="10.096707037"><ele>1</ele><time>2020-02-23T09:01:36Z</time></trkpt>
<trkpt lat="44.009297015" lon="10.096739978"><ele>1</ele><time>2020-02-23T09:01:37Z</time></trkpt>
<trkpt lat="44.009275977" lon="10.096771996"><ele>2</ele><time>2020-02-23T09:01:38Z</time></trkpt>
<trkpt lat="44.009254016" lon="10.096805021"><ele>2</ele><time>2020-02-23T09:01:39Z</time></trkpt>
<trkpt lat="44.009232977" lon="10.096837962"><ele>2</ele><time>2020-02-23T09:01:40Z</time></trkpt>
<trkpt lat="44.009212023" lon="10.096870987"><ele>2</ele><time>2020-02-23T09:01:41Z</time></trkpt>
<trkpt lat="44.009189978" lon="10.096905017"><ele>2</ele><time>2020-02-23T09:01:42Z</time></trkpt>
<trkpt lat="44.009169023" lon="10.096937958"><ele>2</ele><time>2020-02-23T09:01:43Z</time></trkpt>
<trkpt lat="44.009146979" lon="10.096970983"><ele>1</ele><time>2020-02-23T09:01:44Z</time></trkpt>
<trkpt lat="44.009126024" lon="10.097004008"><ele>1</ele><time>2020-02-23T09:01:45Z</time></trkpt>
<trkpt lat="44.00910398" lon="10.097037032"><ele>1</ele><time>2020-02-23T09:01:46Z</time></trkpt>
<trkpt lat="44.009082019" lon="10.097070979"><ele>1</ele><time>2020-02-23T09:01:47Z</time></trkpt>
<trkpt lat="44.009059975" lon="10.097104004"><ele>4</ele><time>2020-02-23T09:01:48Z</time></trkpt>
<trkpt lat="44.00903902" lon="10.097137028"><ele>4</ele><time>2020-02-23T09:01:49Z</time></trkpt>
<trkpt lat="44.009016976" lon="10.097169969"><ele>4</ele><time>2020-02-23T09:01:50Z</time></trkpt>
<trkpt lat="44.008996021" lon="10.097202994"><ele>4</ele><time>2020-02-23T09:01:51Z</time></trkpt>
<trkpt lat="44.008973977" lon="10.097235013"><ele>4</ele><time>2020-02-23T09:01:52Z</time></trkpt>
<trkpt lat="44.008953022" lon="10.097268037"><ele>4</ele><time>2020-02-23T09:01:53Z</time></trkpt>
<trkpt lat="44.008930977" lon="10.097300978"><ele>4</ele><time>2020-02-23T09:01:54Z</time></trkpt>
<trkpt lat="44.008910023" lon="10.097332997"><ele>4</ele><time>2020-02-23T09:01:55Z</time></trkpt>
<trkpt lat="44.008888984" lon="10.097365016"><ele>4</ele><time>2020-02-23T09:01:56Z</time></trkpt>
<trkpt lat="44.008869035" lon="10.097397035"><ele>4</ele><time>2020-02-23T09:01:57Z</time></trkpt>
<trkpt lat="44.008847997" lon="10.09742897"><ele>4</ele><time>2020-02-23T09:01:58Z</time></trkpt>
<trkpt lat="44.008827964" lon="10.097459983"><ele>4</ele><time>2020-02-23T09:01:59Z</time></trkpt>
<trkpt lat="44.008808015" lon="10.097490996"><ele>4</ele><time>2020-02-23T09:02:00Z</time></trkpt>
<trkpt lat="44.008787982" lon="10.097523015"><ele>4</ele><time>2020-02-23T09:02:01Z</time></trkpt>
<trkpt lat="44.008768033" lon="10.097554028"><ele>4</ele><time>2020-02-23T09:02:02Z</time></trkpt>
<trkpt lat="44.008749006" lon="10.097585041"><ele>4</ele><time>2020-02-23T09:02:03Z</time></trkpt>
<trkpt lat="44.008728974" lon="10.09761597"><ele>4</ele><time>2020-02-23T09:02:04Z</time></trkpt>
<trkpt lat="44.00871003" lon="10.097646983"><ele>4</ele><time>2020-02-23T09:02:05Z</time></trkpt>
<trkpt lat="44.008691004" lon="10.097679002"><ele>4</ele><time>2020-02-23T09:02:06Z</time></trkpt>
<trkpt lat="44.008671977" lon="10.097710015"><ele>4</ele><time>2020-02-23T09:02:07Z</time></trkpt>
<trkpt lat="44.008653034" lon="10.097742034"><ele>4</ele><time>2020-02-23T09:02:08Z</time></trkpt>
<trkpt lat="44.008634007" lon="10.097773969"><ele>4</ele><time>2020-02-23T09:02:09Z</time></trkpt>
<trkpt lat="44.008615986" lon="10.097805988"><ele>2</ele><time>2020-02-23T09:02:10Z</time></trkpt>
<trkpt lat="44.008596959" lon="10.097838007"><ele>2</ele><time>2020-02-23T09:02:11Z</time></trkpt>
<trkpt lat="44.008578015" lon="10.097871032"><ele>2</ele><time>2020-02-23T09:02:12Z</time></trkpt>
<trkpt lat="44.008559994" lon="10.097903972"><ele>2</ele><time>2020-02-23T09:02:13Z</time></trkpt>
<trkpt lat="44.008540967" lon="10.097936997"><ele>2</ele><time>2020-02-23T09:02:14Z</time></trkpt>
<trkpt lat="44.008522024" lon="10.097970022"><ele>2</ele><time>2020-02-23T09:02:15Z</time></trkpt>
<trkpt lat="44.008502997" lon="10.098002963"><ele>2</ele><time>2020-02-23T09:02:16Z</time></trkpt>
<trkpt lat="44.008483971" lon="10.098036993"><ele>2</ele><time>2020-02-23T09:02:17Z</time></trkpt>
<trkpt lat="44.008465027" lon="10.098070018"><ele>2</ele><time>2020-02-23T09:02:18Z</time></trkpt>
<trkpt lat="44.008446001" lon="10.098103965"><ele>2</ele><time>2020-02-23T09:02:19Z</time></trkpt>
<trkpt lat="44.008425968" lon="10.098137995"><ele>2</ele><time>2020-02-23T09:02:20Z</time></trkpt>
<trkpt lat="44.008407025" lon="10.09817102"><ele>2</ele><time>2020-02-23T09:02:21Z</time></trkpt>
<trkpt lat="44.008386992" lon="10.098204967"><ele>2</ele><time>2020-02-23T09:02:22Z</time></trkpt>
<trkpt lat="44.008366037" lon="10.098238997"><ele>2</ele><time>2020-02-23T09:02:23Z</time></trkpt>
<trkpt lat="44.008346004" lon="10.098273028"><ele>2</ele><time>2020-02-23T09:02:24Z</time></trkpt>
<trkpt lat="44.008324966" lon="10.098306974"><ele>2</ele><time>2020-02-23T09:02:25Z</time></trkpt>
<trkpt lat="44.008305017" lon="10.098339999"><ele>2</ele><time>2020-02-23T09:02:26Z</time></trkpt>
<trkpt lat="44.008283978" lon="10.09837403"><ele>2</ele><time>2020-02-23T09:02:27Z</time></trkpt>
<trkpt lat="44.008263024" lon="10.098407976"><ele>2</ele><time>2020-02-23T09:02:28Z</time></trkpt>
<trkpt lat="44.008241985" lon="10.098441001"><ele>2</ele><time>2020-02-23T09:02:29Z</time></trkpt>
<trkpt lat="44.00822103" lon="10.098475032"><ele>2</ele><time>2020-02-23T09:02:30Z</time></trkpt>
<trkpt lat="44.008200997" lon="10.098507972"><ele>2</ele><time>2020-02-23T09:02:31Z</time></trkpt>
<trkpt lat="44.008179959" lon="10.098542003"><ele>2</ele><time>2020-02-23T09:02:32Z</time></trkpt>
<trkpt lat="44.00816001" lon="10.098575028"><ele>2</ele><time>2020-02-23T09:02:33Z</time></trkpt>
<trkpt lat="44.008139977" lon="10.098607969"><ele>2</ele><time>2020-02-23T09:02:34Z</time></trkpt>
<trkpt lat="44.008120028" lon="10.098640993"><ele>2</ele><time>2020-02-23T09:02:35Z</time></trkpt>
<trkpt lat="44.008099996" lon="10.098673012"><ele>2</ele><time>2020-02-23T09:02:36Z</time></trkpt>
<trkpt lat="44.008080969" lon="10.098706037"><ele>2</ele><time>2020-02-23T09:02:37Z</time></trkpt>
<trkpt lat="44.00806102" lon="10.098737972"><ele>2</ele><time>2020-02-23T09:02:38Z</time></trkpt>
<trkpt lat="44.008041993" lon="10.098770997"><ele>2</ele><time>2020-02-23T09:02:39Z</time></trkpt>
<trkpt lat="44.008022966" lon="10.098803015"><ele>2</ele><time>2020-02-23T09:02:40Z</time></trkpt>
<trkpt lat="44.008004023" lon="10.098835034"><ele>2</ele><time>2020-02-23T09:02:41Z</time></trkpt>
<trkpt lat="44.007984996" lon="10.098866969"><ele>2</ele><time>2020-02-23T09:02:42Z</time></trkpt>
<trkpt lat="44.007965969" lon="10.098898988"><ele>2</ele><time>2020-02-23T09:02:43Z</time></trkpt>
<trkpt lat="44.00794602" lon="10.098931007"><ele>2</ele><time>2020-02-23T09:02:44Z</time></trkpt>
<trkpt lat="44.007926993" lon="10.09896202"><ele>2</ele><time>2020-02-23T09:02:45Z</time></trkpt>
<trkpt lat="44.00790696" lon="10.098994039"><ele>2</ele><time>2020-02-23T09:02:46Z</time></trkpt>
<trkpt lat="44.007888017" lon="10.099024968"><ele>2</ele><time>2020-02-23T09:02:47Z</time></trkpt>
<trkpt lat="44.007867984" lon="10.099056987"><ele>2</ele><time>2020-02-23T09:02:48Z</time></trkpt>
<trkpt lat="44.007848036" lon="10.099088"><ele>2</ele><time>2020-02-23T09:02:49Z</time></trkpt>
<trkpt lat="44.007828003" lon="10.099120019"><ele>2</ele><time>2020-02-23T09:02:50Z</time></trkpt>
<trkpt lat="44.007806964" lon="10.099151032"><ele>2</ele><time>2020-02-23T09:02:51Z</time></trkpt>
<trkpt lat="44.007787015" lon="10.099181961"><ele>2</ele><time>2020-02-23T09:02:52Z</time></trkpt>
<trkpt lat="44.007765977" lon="10.099212974"><ele>2</ele><time>2020-02-23T09:02:53Z</time></trkpt>
<trkpt lat="44.007746028" lon="10.099243987"><ele>2</ele><time>2020-02-23T09:02:54Z</time></trkpt>
<trkpt lat="44.007724989" lon="10.099275"><ele>2</ele><time>2020-02-23T09:02:55Z</time></trkpt>
<trkpt lat="44.007704034" lon="10.099306013"><ele>2</ele><time>2020-02-23T09:02:56Z</time></trkpt>
<trkpt lat="44.007684002" lon="10.099337026"><ele>2</ele><time>2020-02-23T09:02:57Z</time></trkpt>
<trkpt lat="44.007662963" lon="10.09936804"><ele>2</ele><time>2020-02-23T09:02:58Z</time></trkpt>
<trkpt lat="44.007642008" lon="10.099398969"><ele>2</ele><time>2020-02-23T09:02:59Z</time></trkpt>
<trkpt lat="44.007621976" lon="10.099429982"><ele>2</ele><time>2020-02-23T09:03:00Z</time></trkpt>
<trkpt lat="44.007601021" lon="10.099460995"><ele>2</ele><time>2020-02-23T09:03:01Z</time></trkpt>
<trkpt lat="44.007579982" lon="10.099492008"><ele>2</ele><time>2020-02-23T09:03:02Z</time></trkpt>
<trkpt lat="44.007560033" lon="10.099522015"><ele>2</ele><time>2020-02-23T09:03:03Z</time></trkpt>
<trkpt lat="44.007540001" lon="10.099553028"><ele>2</ele><time>2020-02-23T09:03:04Z</time></trkpt>
<trkpt lat="44.007518962" lon="10.099584041"><ele>2</ele><time>2020-02-23T09:03:05Z</time></trkpt>
<trkpt lat="44.007499013" lon="10.099613965"><ele>2</ele><time>2020-02-23T09:03:06Z</time></trkpt>
<trkpt lat="44.00747898" lon="10.099644978"><ele>2</ele><time>2020-02-23T09:03:07Z</time></trkpt>
<trkpt lat="44.007460037" lon="10.099675991"><ele>2</ele><time>2020-02-23T09:03:08Z</time></trkpt>
<trkpt lat="44.007440004" lon="10.099705998"><ele>2</ele><time>2020-02-23T09:03:09Z</time></trkpt>
<trkpt lat="44.007419972" lon="10.099737011"><ele>2</ele><time>2020-02-23T09:03:10Z</time></trkpt>
<trkpt lat="44.007401029" lon="10.099767018"><ele>2</ele><time>2020-02-23T09:03:11Z</time></trkpt>
<trkpt lat="44.007382002" lon="10.099798031"><ele>2</ele><time>2020-02-23T09:03:12Z</time></trkpt>
<trkpt lat="44.007362975" lon="10.09982896"><ele>2</ele><time>2020-02-23T09:03:13Z</time></trkpt>
<trkpt lat="44.007326011" lon="10.099889981"><ele>2</ele><time>2020-02-23T09:03:15Z</time></trkpt>
<trkpt lat="44.00730799" lon="10.099919988"><ele>2</ele><time>2020-02-23T09:03:16Z</time></trkpt>
<trkpt lat="44.007289968" lon="10.099951001"><ele>2</ele><time>2020-02-23T09:03:17Z</time></trkpt>
<trkpt lat="44.007272031" lon="10.099981008"><ele>2</ele><time>2020-02-23T09:03:18Z</time></trkpt>
<trkpt lat="44.00725401" lon="10.100012021"><ele>2</ele><time>2020-02-23T09:03:19Z</time></trkpt>
<trkpt lat="44.007235989" lon="10.100042028"><ele>2</ele><time>2020-02-23T09:03:20Z</time></trkpt>
<trkpt lat="44.007217968" lon="10.100073041"><ele>2</ele><time>2020-02-23T09:03:21Z</time></trkpt>
<trkpt lat="44.007200031" lon="10.100103971"><ele>2</ele><time>2020-02-23T09:03:22Z</time></trkpt>
<trkpt lat="44.007183015" lon="10.100133978"><ele>2</ele><time>2020-02-23T09:03:23Z</time></trkpt>
<trkpt lat="44.007164994" lon="10.100164991"><ele>2</ele><time>2020-02-23T09:03:24Z</time></trkpt>
<trkpt lat="44.007147979" lon="10.100196004"><ele>2</ele><time>2020-02-23T09:03:25Z</time></trkpt>
<trkpt lat="44.007130042" lon="10.100227017"><ele>2</ele><time>2020-02-23T09:03:26Z</time></trkpt>
<trkpt lat="44.007112021" lon="10.100257024"><ele>2</ele><time>2020-02-23T09:03:27Z</time></trkpt>
<trkpt lat="44.007095005" lon="10.100288037"><ele>2</ele><time>2020-02-23T09:03:28Z</time></trkpt>
<trkpt lat="44.007076984" lon="10.100318966"><ele>2</ele><time>2020-02-23T09:03:29Z</time></trkpt>
<trkpt lat="44.007058963" lon="10.100349979"><ele>2</ele><time>2020-02-23T09:03:30Z</time></trkpt>
<trkpt lat="44.00704002" lon="10.100379987"><ele>2</ele><time>2020-02-23T09:03:31Z</time></trkpt>
<trkpt lat="44.007021999" lon="10.100411"><ele>2</ele><time>2020-02-23T09:03:32Z</time></trkpt>
<trkpt lat="44.007002972" lon="10.100442013"><ele>2</ele><time>2020-02-23T09:03:33Z</time></trkpt>
<trkpt lat="44.006984029" lon="10.100473026"><ele>2</ele><time>2020-02-23T09:03:34Z</time></trkpt>
<trkpt lat="44.006963996" lon="10.100503033"><ele>2</ele><time>2020-02-23T09:03:35Z</time></trkpt>
<trkpt lat="44.006944969" lon="10.100533962"><ele>2</ele><time>2020-02-23T09:03:36Z</time></trkpt>
<trkpt lat="44.006924015" lon="10.100564975"><ele>2</ele><time>2020-02-23T09:03:37Z</time></trkpt>
<trkpt lat="44.006903982" lon="10.100594983"><ele>2</ele><time>2020-02-23T09:03:38Z</time></trkpt>
<trkpt lat="44.006883027" lon="10.100625996"><ele>2</ele><time>2020-02-23T09:03:39Z</time></trkpt>
<trkpt lat="44.006862994" lon="10.100656003"><ele>2</ele><time>2020-02-23T09:03:40Z</time></trkpt>
<trkpt lat="44.00684204" lon="10.100687016"><ele>2</ele><time>2020-02-23T09:03:41Z</time></trkpt>
<trkpt lat="44.006821001" lon="10.100717023"><ele>2</ele><time>2020-02-23T09:03:42Z</time></trkpt>
<trkpt lat="44.006799962" lon="10.100748036"><ele>2</ele><time>2020-02-23T09:03:43Z</time></trkpt>
<trkpt lat="44.006779008" lon="10.100777959"><ele>2</ele><time>2020-02-23T09:03:44Z</time></trkpt>
<trkpt lat="44.006757969" lon="10.100808972"><ele>2</ele><time>2020-02-23T09:03:45Z</time></trkpt>
<trkpt lat="44.00673802" lon="10.10083898"><ele>2</ele><time>2020-02-23T09:03:46Z</time></trkpt>
<trkpt lat="44.006717987" lon="10.100869993"><ele>2</ele><time>2020-02-23T09:03:47Z</time></trkpt>
<trkpt lat="44.006698038" lon="10.1009"><ele>2</ele><time>2020-02-23T09:03:48Z</time></trkpt>
<trkpt lat="44.006678006" lon="10.100931013"><ele>2</ele><time>2020-02-23T09:03:49Z</time></trkpt>
<trkpt lat="44.006657973" lon="10.10096102"><ele>2</ele><time>2020-02-23T09:03:50Z</time></trkpt>
<trkpt lat="44.00663903" lon="10.100992033"><ele>2</ele><time>2020-02-23T09:03:51Z</time></trkpt>
<trkpt lat="44.006620003" lon="10.10102204"><ele>2</ele><time>2020-02-23T09:03:52Z</time></trkpt>
<trkpt lat="44.006600976" lon="10.10105297"><ele>2</ele><time>2020-02-23T09:03:53Z</time></trkpt>
<trkpt lat="44.006582033" lon="10.101083983"><ele>2</ele><time>2020-02-23T09:03:54Z</time></trkpt>
<trkpt lat="44.006563006" lon="10.101114996"><ele>2</ele><time>2020-02-23T09:03:55Z</time></trkpt>
<trkpt lat="44.006543979" lon="10.101146009"><ele>2</ele><time>2020-02-23T09:03:56Z</time></trkpt>
<trkpt lat="44.006525036" lon="10.101177022"><ele>2</ele><time>2020-02-23T09:03:57Z</time></trkpt>
<trkpt lat="44.006506009" lon="10.101208035"><ele>2</ele><time>2020-02-23T09:03:58Z</time></trkpt>
<trkpt lat="44.006486982" lon="10.101238964"><ele>2</ele><time>2020-02-23T09:03:59Z</time></trkpt>
<trkpt lat="44.006468039" lon="10.101269977"><ele>3</ele><time>2020-02-23T09:04:00Z</time></trkpt>
<trkpt lat="44.006449012" lon="10.101301996"><ele>3</ele><time>2020-02-23T09:04:01Z</time></trkpt>
<trkpt lat="44.006429985" lon="10.101333009"><ele>3</ele><time>2020-02-23T09:04:02Z</time></trkpt>
<trkpt lat="44.006410036" lon="10.101365028"><ele>3</ele><time>2020-02-23T09:04:03Z</time></trkpt>
<trkpt lat="44.006390003" lon="10.101396963"><ele>3</ele><time>2020-02-23T09:04:04Z</time></trkpt>
<trkpt lat="44.006370977" lon="10.101428982"><ele>3</ele><time>2020-02-23T09:04:05Z</time></trkpt>
<trkpt lat="44.006351028" lon="10.101461001"><ele>3</ele><time>2020-02-23T09:04:06Z</time></trkpt>
<trkpt lat="44.006330995" lon="10.10149302"><ele>3</ele><time>2020-02-23T09:04:07Z</time></trkpt>
<trkpt lat="44.006310962" lon="10.101525038"><ele>3</ele><time>2020-02-23T09:04:08Z</time></trkpt>
<trkpt lat="44.006291013" lon="10.101556974"><ele>3</ele><time>2020-02-23T09:04:09Z</time></trkpt>
<trkpt lat="44.00627098" lon="10.101588992"><ele>3</ele><time>2020-02-23T09:04:10Z</time></trkpt>
<trkpt lat="44.006251032" lon="10.101621011"><ele>3</ele><time>2020-02-23T09:04:11Z</time></trkpt>
<trkpt lat="44.006230999" lon="10.101654036"><ele>2</ele><time>2020-02-23T09:04:12Z</time></trkpt>
<trkpt lat="44.006210966" lon="10.101685971"><ele>3</ele><time>2020-02-23T09:04:13Z</time></trkpt>
<trkpt lat="44.006191017" lon="10.10171799"><ele>3</ele><time>2020-02-23T09:04:14Z</time></trkpt>
<trkpt lat="44.006170984" lon="10.101750009"><ele>3</ele><time>2020-02-23T09:04:15Z</time></trkpt>
<trkpt lat="44.006109964" lon="10.101846987"><ele>3</ele><time>2020-02-23T09:04:18Z</time></trkpt>
<trkpt lat="44.006090015" lon="10.101879006"><ele>3</ele><time>2020-02-23T09:04:19Z</time></trkpt>
<trkpt lat="44.006069982" lon="10.101911025"><ele>3</ele><time>2020-02-23T09:04:20Z</time></trkpt>
<trkpt lat="44.006050033" lon="10.10194296"><ele>2</ele><time>2020-02-23T09:04:21Z</time></trkpt>
<trkpt lat="44.006030001" lon="10.101974979"><ele>2</ele><time>2020-02-23T09:04:22Z</time></trkpt>
<trkpt lat="44.006010974" lon="10.102006998"><ele>2</ele><time>2020-02-23T09:04:23Z</time></trkpt>
<trkpt lat="44.005991025" lon="10.102039017"><ele>2</ele><time>2020-02-23T09:04:24Z</time></trkpt>
<trkpt lat="44.005970992" lon="10.10207003"><ele>2</ele><time>2020-02-23T09:04:25Z</time></trkpt>
<trkpt lat="44.005950959" lon="10.102101965"><ele>2</ele><time>2020-02-23T09:04:26Z</time></trkpt>
<trkpt lat="44.005932016" lon="10.102132978"><ele>2</ele><time>2020-02-23T09:04:27Z</time></trkpt>
<trkpt lat="44.005911984" lon="10.102164997"><ele>2</ele><time>2020-02-23T09:04:28Z</time></trkpt>
<trkpt lat="44.00589304" lon="10.10219601"><ele>2</ele><time>2020-02-23T09:04:29Z</time></trkpt>
<trkpt lat="44.005873008" lon="10.102227023"><ele>2</ele><time>2020-02-23T09:04:30Z</time></trkpt>
<trkpt lat="44.005853981" lon="10.102259042"><ele>2</ele><time>2020-02-23T09:04:31Z</time></trkpt>
<trkpt lat="44.005835038" lon="10.102289971"><ele>2</ele><time>2020-02-23T09:04:32Z</time></trkpt>
<trkpt lat="44.005816011" lon="10.102320984"><ele>2</ele><time>2020-02-23T09:04:33Z</time></trkpt>
<trkpt lat="44.005795978" lon="10.102351997"><ele>2</ele><time>2020-02-23T09:04:34Z</time></trkpt>
<trkpt lat="44.005777035" lon="10.10238301"><ele>2</ele><time>2020-02-23T09:04:35Z</time></trkpt>
<trkpt lat="44.005758008" lon="10.102415029"><ele>2</ele><time>2020-02-23T09:04:36Z</time></trkpt>
<trkpt lat="44.005738981" lon="10.102445958"><ele>2</ele><time>2020-02-23T09:04:37Z</time></trkpt>
<trkpt lat="44.005720038" lon="10.102476971"><ele>2</ele><time>2020-02-23T09:04:38Z</time></trkpt>
<trkpt lat="44.005701011" lon="10.102507984"><ele>2</ele><time>2020-02-23T09:04:39Z</time></trkpt>
<trkpt lat="44.005681984" lon="10.102538997"><ele>2</ele><time>2020-02-23T09:04:40Z</time></trkpt>
<trkpt lat="44.005663041" lon="10.102571016"><ele>2</ele><time>2020-02-23T09:04:41Z</time></trkpt>
<trkpt lat="44.005644014" lon="10.102602029"><ele>2</ele><time>2020-02-23T09:04:42Z</time></trkpt>
<trkpt lat="44.005623981" lon="10.102633964"><ele>2</ele><time>2020-02-23T09:04:43Z</time></trkpt>
<trkpt lat="44.005605038" lon="10.102664977"><ele>2</ele><time>2020-02-23T09:04:44Z</time></trkpt>
<trkpt lat="44.005586011" lon="10.102696996"><ele>2</ele><time>2020-02-23T09:04:45Z</time></trkpt>
<trkpt lat="44.005566984" lon="10.102728009"><ele>2</ele><time>2020-02-23T09:04:46Z</time></trkpt>
<trkpt lat="44.005548041" lon="10.102760028"><ele>2</ele><time>2020-02-23T09:04:47Z</time></trkpt>
<trkpt lat="44.005529014" lon="10.102791963"><ele>2</ele><time>2020-02-23T09:04:48Z</time></trkpt>
<trkpt lat="44.005509987" lon="10.102823982"><ele>2</ele><time>2020-02-23T09:04:49Z</time></trkpt>
<trkpt lat="44.005490961" lon="10.102856001"><ele>2</ele><time>2020-02-23T09:04:50Z</time></trkpt>
<trkpt lat="44.005471012" lon="10.10288802"><ele>2</ele><time>2020-02-23T09:04:51Z</time></trkpt>
<trkpt lat="44.005451985" lon="10.102920961"><ele>1</ele><time>2020-02-23T09:04:52Z</time></trkpt>
<trkpt lat="44.005433042" lon="10.10295298"><ele>1</ele><time>2020-02-23T09:04:53Z</time></trkpt>
<trkpt lat="44.005414015" lon="10.102984998"><ele>1</ele><time>2020-02-23T09:04:54Z</time></trkpt>
<trkpt lat="44.005393982" lon="10.103018023"><ele>1</ele><time>2020-02-23T09:04:55Z</time></trkpt>
<trkpt lat="44.005375039" lon="10.103049958"><ele>1</ele><time>2020-02-23T09:04:56Z</time></trkpt>
<trkpt lat="44.005356012" lon="10.103082983"><ele>1</ele><time>2020-02-23T09:04:57Z</time></trkpt>
<trkpt lat="44.005335979" lon="10.103115002"><ele>1</ele><time>2020-02-23T09:04:58Z</time></trkpt>
<trkpt lat="44.005317036" lon="10.103147021"><ele>1</ele><time>2020-02-23T09:04:59Z</time></trkpt>
<trkpt lat="44.005297003" lon="10.103179961"><ele>1</ele><time>2020-02-23T09:05:00Z</time></trkpt>
<trkpt lat="44.005277976" lon="10.10321198"><ele>1</ele><time>2020-02-23T09:05:01Z</time></trkpt>
<trkpt lat="44.005259033" lon="10.103243999"><ele>1</ele><time>2020-02-23T09:05:02Z</time></trkpt>
<trkpt lat="44.005239001" lon="10.103276018"><ele>1</ele><time>2020-02-23T09:05:03Z</time></trkpt>
<trkpt lat="44.005219974" lon="10.103308037"><ele>1</ele><time>2020-02-23T09:05:04Z</time></trkpt>
<trkpt lat="44.005200025" lon="10.103339972"><ele>1</ele><time>2020-02-23T09:05:05Z</time></trkpt>
<trkpt lat="44.005180998" lon="10.103371991"><ele>1</ele><time>2020-02-23T09:05:06Z</time></trkpt>
<trkpt lat="44.005160965" lon="10.10340401"><ele>1</ele><time>2020-02-23T09:05:07Z</time></trkpt>
<trkpt lat="44.005142022" lon="10.103435023"><ele>1</ele><time>2020-02-23T09:05:08Z</time></trkpt>
<trkpt lat="44.005121989" lon="10.103467042"><ele>1</ele><time>2020-02-23T09:05:09Z</time></trkpt>
<trkpt lat="44.005102962" lon="10.103497971"><ele>1</ele><time>2020-02-23T09:05:10Z</time></trkpt>
<trkpt lat="44.005083013" lon="10.103528984"><ele>2</ele><time>2020-02-23T09:05:11Z</time></trkpt>
<trkpt lat="44.005063986" lon="10.103558991"><ele>2</ele><time>2020-02-23T09:05:12Z</time></trkpt>
<trkpt lat="44.005044037" lon="10.103590004"><ele>2</ele><time>2020-02-23T09:05:13Z</time></trkpt>
<trkpt lat="44.005025011" lon="10.103620011"><ele>2</ele><time>2020-02-23T09:05:14Z</time></trkpt>
<trkpt lat="44.005004978" lon="10.103650019"><ele>2</ele><time>2020-02-23T09:05:15Z</time></trkpt>
<trkpt lat="44.004986035" lon="10.103680026"><ele>1</ele><time>2020-02-23T09:05:16Z</time></trkpt>
<trkpt lat="44.004966002" lon="10.103710033"><ele>1</ele><time>2020-02-23T09:05:17Z</time></trkpt>
<trkpt lat="44.004946975" lon="10.10374004"><ele>1</ele><time>2020-02-23T09:05:18Z</time></trkpt>
<trkpt lat="44.004927026" lon="10.103769964"><ele>3</ele><time>2020-02-23T09:05:19Z</time></trkpt>
<trkpt lat="44.004907999" lon="10.103799971"><ele>3</ele><time>2020-02-23T09:05:20Z</time></trkpt>
<trkpt lat="44.004887966" lon="10.103829978"><ele>3</ele><time>2020-02-23T09:05:21Z</time></trkpt>
<trkpt lat="44.004869023" lon="10.103860991"><ele>3</ele><time>2020-02-23T09:05:22Z</time></trkpt>
<trkpt lat="44.004848991" lon="10.103890998"><ele>3</ele><time>2020-02-23T09:05:23Z</time></trkpt>
<trkpt lat="44.004829964" lon="10.103922011"><ele>3</ele><time>2020-02-23T09:05:24Z</time></trkpt>
<trkpt lat="44.004811021" lon="10.10395403"><ele>3</ele><time>2020-02-23T09:05:25Z</time></trkpt>
<trkpt lat="44.004790988" lon="10.103984959"><ele>3</ele><time>2020-02-23T09:05:26Z</time></trkpt>
<trkpt lat="44.004771961" lon="10.104016978"><ele>3</ele><time>2020-02-23T09:05:27Z</time></trkpt>
<trkpt lat="44.004753018" lon="10.104048997"><ele>3</ele><time>2020-02-23T09:05:28Z</time></trkpt>
<trkpt lat="44.004733991" lon="10.104081016"><ele>3</ele><time>2020-02-23T09:05:29Z</time></trkpt>
<trkpt lat="44.004714964" lon="10.104113035"><ele>3</ele><time>2020-02-23T09:05:30Z</time></trkpt>
<trkpt lat="44.004696021" lon="10.10414497"><ele>3</ele><time>2020-02-23T09:05:31Z</time></trkpt>
<trkpt lat="44.004676994" lon="10.104176989"><ele>3</ele><time>2020-02-23T09:05:32Z</time></trkpt>
<trkpt lat="44.004657967" lon="10.104209008"><ele>3</ele><time>2020-02-23T09:05:33Z</time></trkpt>
<trkpt lat="44.004639024" lon="10.104241027"><ele>3</ele><time>2020-02-23T09:05:34Z</time></trkpt>
<trkpt lat="44.004619997" lon="10.10427204"><ele>3</ele><time>2020-02-23T09:05:35Z</time></trkpt>
<trkpt lat="44.00460097" lon="10.104303975"><ele>3</ele><time>2020-02-23T09:05:36Z</time></trkpt>
<trkpt lat="44.004583033" lon="10.104334988"><ele>3</ele><time>2020-02-23T09:05:37Z</time></trkpt>
<trkpt lat="44.004564006" lon="10.104366001"><ele>3</ele><time>2020-02-23T09:05:38Z</time></trkpt>
<trkpt lat="44.004544979" lon="10.104397014"><ele>3</ele><time>2020-02-23T09:05:39Z</time></trkpt>
<trkpt lat="44.004527042" lon="10.104427021"><ele>3</ele><time>2020-02-23T09:05:40Z</time></trkpt>
<trkpt lat="44.004508015" lon="10.104458034"><ele>3</ele><time>2020-02-23T09:05:41Z</time></trkpt>
<trkpt lat="44.004489994" lon="10.104488041"><ele>3</ele><time>2020-02-23T09:05:42Z</time></trkpt>
<trkpt lat="44.004470967" lon="10.104517965"><ele>0</ele><time>2020-02-23T09:05:43Z</time></trkpt>
<trkpt lat="44.004453029" lon="10.104547972"><ele>0</ele><time>2020-02-23T09:05:44Z</time></trkpt>
<trkpt lat="44.004434003" lon="10.104577979"><ele>0</ele><time>2020-02-23T09:05:45Z</time></trkpt>
<trkpt lat="44.004414976" lon="10.104608992"><ele>0</ele><time>2020-02-23T09:05:46Z</time></trkpt>
<trkpt lat="44.004397038" lon="10.104638999"><ele>0</ele><time>2020-02-23T09:05:47Z</time></trkpt>
<trkpt lat="44.004378011" lon="10.104669007"><ele>0</ele><time>2020-02-23T09:05:48Z</time></trkpt>
<trkpt lat="44.004358985" lon="10.104699014"><ele>0</ele><time>2020-02-23T09:05:49Z</time></trkpt>
<trkpt lat="44.004340041" lon="10.104729021"><ele>0</ele><time>2020-02-23T09:05:50Z</time></trkpt>
<trkpt lat="44.004321015" lon="10.104760034"><ele>0</ele><time>2020-02-23T09:05:51Z</time></trkpt>
<trkpt lat="44.004300982" lon="10.104790963"><ele>0</ele><time>2020-02-23T09:05:52Z</time></trkpt>
<trkpt lat="44.004282039" lon="10.10482097"><ele>0</ele><time>2020-02-23T09:05:53Z</time></trkpt>
<trkpt lat="44.004262006" lon="10.104852989"><ele>0</ele><time>2020-02-23T09:05:54Z</time></trkpt>
<trkpt lat="44.004241973" lon="10.104884002"><ele>0</ele><time>2020-02-23T09:05:55Z</time></trkpt>
<trkpt lat="44.004222024" lon="10.104915015"><ele>0</ele><time>2020-02-23T09:05:56Z</time></trkpt>
<trkpt lat="44.004201991" lon="10.104947034"><ele>0</ele><time>2020-02-23T09:05:57Z</time></trkpt>
<trkpt lat="44.004181959" lon="10.104979975"><ele>0</ele><time>2020-02-23T09:05:58Z</time></trkpt>
<trkpt lat="44.004161004" lon="10.105011994"><ele>0</ele><time>2020-02-23T09:05:59Z</time></trkpt>
<trkpt lat="44.004139965" lon="10.105045019"><ele>0</ele><time>2020-02-23T09:06:00Z</time></trkpt>
<trkpt lat="44.004119011" lon="10.105078965"><ele>0</ele><time>2020-02-23T09:06:01Z</time></trkpt>
<trkpt lat="44.004096966" lon="10.105112996"><ele>0</ele><time>2020-02-23T09:06:02Z</time></trkpt>
<trkpt lat="44.004076011" lon="10.105147026"><ele>0</ele><time>2020-02-23T09:06:03Z</time></trkpt>
<trkpt lat="44.004053967" lon="10.105180973"><ele>0</ele><time>2020-02-23T09:06:04Z</time></trkpt>
<trkpt lat="44.004032006" lon="10.10521601"><ele>0</ele><time>2020-02-23T09:06:05Z</time></trkpt>
<trkpt lat="44.004009962" lon="10.105250962"><ele>0</ele><time>2020-02-23T09:06:06Z</time></trkpt>
<trkpt lat="44.003988001" lon="10.105285998"><ele>0</ele><time>2020-02-23T09:06:07Z</time></trkpt>
<trkpt lat="44.003966963" lon="10.105321035"><ele>0</ele><time>2020-02-23T09:06:08Z</time></trkpt>
<trkpt lat="44.003945002" lon="10.105354981"><ele>0</ele><time>2020-02-23T09:06:09Z</time></trkpt>
<trkpt lat="44.003923964" lon="10.105389012"><ele>0</ele><time>2020-02-23T09:06:10Z</time></trkpt>
<trkpt lat="44.003904015" lon="10.105422959"><ele>2</ele><time>2020-02-23T09:06:11Z</time></trkpt>
<trkpt lat="44.003883982" lon="10.105456989"><ele>2</ele><time>2020-02-23T09:06:12Z</time></trkpt>
<trkpt lat="44.003864033" lon="10.105490014"><ele>2</ele><time>2020-02-23T09:06:13Z</time></trkpt>
<trkpt lat="44.003845006" lon="10.105523039"><ele>2</ele><time>2020-02-23T09:06:14Z</time></trkpt>
<trkpt lat="44.003826985" lon="10.105554974"><ele>2</ele><time>2020-02-23T09:06:15Z</time></trkpt>
<trkpt lat="44.003808964" lon="10.105585987"><ele>2</ele><time>2020-02-23T09:06:16Z</time></trkpt>
<trkpt lat="44.003792033" lon="10.105617"><ele>2</ele><time>2020-02-23T09:06:17Z</time></trkpt>
<trkpt lat="44.003774012" lon="10.105648013"><ele>2</ele><time>2020-02-23T09:06:18Z</time></trkpt>
<trkpt lat="44.003756996" lon="10.105679026"><ele>2</ele><time>2020-02-23T09:06:19Z</time></trkpt>
<trkpt lat="44.003739981" lon="10.105709033"><ele>1</ele><time>2020-02-23T09:06:20Z</time></trkpt>
<trkpt lat="44.003722966" lon="10.105739962"><ele>1</ele><time>2020-02-23T09:06:21Z</time></trkpt>
<trkpt lat="44.003706034" lon="10.10576997"><ele>1</ele><time>2020-02-23T09:06:22Z</time></trkpt>
<trkpt lat="44.003689019" lon="10.105800983"><ele>1</ele><time>2020-02-23T09:06:23Z</time></trkpt>
<trkpt lat="44.003672004" lon="10.105831996"><ele>1</ele><time>2020-02-23T09:06:24Z</time></trkpt>
<trkpt lat="44.003653983" lon="10.105863009"><ele>1</ele><time>2020-02-23T09:06:25Z</time></trkpt>
<trkpt lat="44.003635962" lon="10.105894022"><ele>1</ele><time>2020-02-23T09:06:26Z</time></trkpt>
<trkpt lat="44.003617018" lon="10.105925035"><ele>2</ele><time>2020-02-23T09:06:27Z</time></trkpt>
<trkpt lat="44.003597992" lon="10.10595697"><ele>2</ele><time>2020-02-23T09:06:28Z</time></trkpt>
<trkpt lat="44.003578965" lon="10.105988989"><ele>2</ele><time>2020-02-23T09:06:29Z</time></trkpt>
<trkpt lat="44.003559016" lon="10.106022013"><ele>2</ele><time>2020-02-23T09:06:30Z</time></trkpt>
<trkpt lat="44.003538983" lon="10.106054032"><ele>2</ele><time>2020-02-23T09:06:31Z</time></trkpt>
<trkpt lat="44.003519034" lon="10.106086973"><ele>2</ele><time>2020-02-23T09:06:32Z</time></trkpt>
<trkpt lat="44.003499001" lon="10.106119998"><ele>2</ele><time>2020-02-23T09:06:33Z</time></trkpt>
<trkpt lat="44.003477963" lon="10.106153022"><ele>2</ele><time>2020-02-23T09:06:34Z</time></trkpt>
<trkpt lat="44.003458014" lon="10.106185963"><ele>2</ele><time>2020-02-23T09:06:35Z</time></trkpt>
<trkpt lat="44.003436975" lon="10.106218988"><ele>2</ele><time>2020-02-23T09:06:36Z</time></trkpt>
<trkpt lat="44.00341602" lon="10.106252013"><ele>2</ele><time>2020-02-23T09:06:37Z</time></trkpt>
<trkpt lat="44.003395988" lon="10.106285959"><ele>2</ele><time>2020-02-23T09:06:38Z</time></trkpt>
<trkpt lat="44.003375033" lon="10.106318984"><ele>2</ele><time>2020-02-23T09:06:39Z</time></trkpt>
<trkpt lat="44.003353994" lon="10.106353015"><ele>2</ele><time>2020-02-23T09:06:40Z</time></trkpt>
<trkpt lat="44.003333962" lon="10.106386039"><ele>2</ele><time>2020-02-23T09:06:41Z</time></trkpt>
<trkpt lat="44.003313007" lon="10.10641898"><ele>2</ele><time>2020-02-23T09:06:42Z</time></trkpt>
<trkpt lat="44.003292974" lon="10.106452005"><ele>2</ele><time>2020-02-23T09:06:43Z</time></trkpt>
<trkpt lat="44.003273025" lon="10.106486036"><ele>2</ele><time>2020-02-23T09:06:44Z</time></trkpt>
<trkpt lat="44.003252992" lon="10.106518976"><ele>2</ele><time>2020-02-23T09:06:45Z</time></trkpt>
<trkpt lat="44.00323296" lon="10.106552001"><ele>2</ele><time>2020-02-23T09:06:46Z</time></trkpt>
<trkpt lat="44.003214017" lon="10.10658402"><ele>2</ele><time>2020-02-23T09:06:47Z</time></trkpt>
<trkpt lat="44.00319499" lon="10.106616961"><ele>2</ele><time>2020-02-23T09:06:48Z</time></trkpt>
<trkpt lat="44.003175963" lon="10.10664898"><ele>2</ele><time>2020-02-23T09:06:49Z</time></trkpt>
<trkpt lat="44.003158025" lon="10.106680999"><ele>2</ele><time>2020-02-23T09:06:50Z</time></trkpt>
<trkpt lat="44.003140004" lon="10.106713017"><ele>2</ele><time>2020-02-23T09:06:51Z</time></trkpt>
<trkpt lat="44.003121983" lon="10.106745036"><ele>2</ele><time>2020-02-23T09:06:52Z</time></trkpt>
<trkpt lat="44.003104968" lon="10.106776971"><ele>2</ele><time>2020-02-23T09:06:53Z</time></trkpt>
<trkpt lat="44.003087031" lon="10.106809996"><ele>2</ele><time>2020-02-23T09:06:54Z</time></trkpt>
<trkpt lat="44.00306901" lon="10.106843021"><ele>2</ele><time>2020-02-23T09:06:55Z</time></trkpt>
<trkpt lat="44.003050989" lon="10.106876967"><ele>2</ele><time>2020-02-23T09:06:56Z</time></trkpt>
<trkpt lat="44.003032967" lon="10.106910998"><ele>2</ele><time>2020-02-23T09:06:57Z</time></trkpt>
<trkpt lat="44.003014024" lon="10.10694704"><ele>2</ele><time>2020-02-23T09:06:58Z</time></trkpt>
<trkpt lat="44.002994997" lon="10.106981993"><ele>2</ele><time>2020-02-23T09:06:59Z</time></trkpt>
<trkpt lat="44.002975971" lon="10.107017029"><ele>2</ele><time>2020-02-23T09:07:00Z</time></trkpt>
<trkpt lat="44.002957027" lon="10.107051982"><ele>2</ele><time>2020-02-23T09:07:01Z</time></trkpt>
<trkpt lat="44.002939006" lon="10.107086012"><ele>2</ele><time>2020-02-23T09:07:02Z</time></trkpt>
<trkpt lat="44.002921991" lon="10.107119037"><ele>2</ele><time>2020-02-23T09:07:03Z</time></trkpt>
<trkpt lat="44.002905982" lon="10.107150972"><ele>2</ele><time>2020-02-23T09:07:04Z</time></trkpt>
<trkpt lat="44.002889972" lon="10.107183997"><ele>2</ele><time>2020-02-23T09:07:05Z</time></trkpt>
<trkpt lat="44.002874969" lon="10.107218027"><ele>2</ele><time>2020-02-23T09:07:06Z</time></trkpt>
<trkpt lat="44.002859965" lon="10.10725298"><ele>1</ele><time>2020-02-23T09:07:07Z</time></trkpt>
<trkpt lat="44.002845967" lon="10.107292039"><ele>1</ele><time>2020-02-23T09:07:08Z</time></trkpt>
<trkpt lat="44.002831969" lon="10.107333027"><ele>1</ele><time>2020-02-23T09:07:09Z</time></trkpt>
<trkpt lat="44.002817972" lon="10.107373009"><ele>1</ele><time>2020-02-23T09:07:10Z</time></trkpt>
<trkpt lat="44.002803974" lon="10.107408967"><ele>1</ele><time>2020-02-23T09:07:11Z</time></trkpt>
<trkpt lat="44.00278897" lon="10.107436962"><ele>1</ele><time>2020-02-23T09:07:12Z</time></trkpt>
<trkpt lat="44.002772961" lon="10.107451966"><ele>1</ele><time>2020-02-23T09:07:13Z</time></trkpt>
<trkpt lat="44.002754018" lon="10.107450038"><ele>1</ele><time>2020-02-23T09:07:14Z</time></trkpt>
<trkpt lat="44.002733985" lon="10.107429"><ele>1</ele><time>2020-02-23T09:07:15Z</time></trkpt>
<trkpt lat="44.002705989" lon="10.107354987"><ele>1</ele><time>2020-02-23T09:07:17Z</time></trkpt>
<trkpt lat="44.002704984" lon="10.107311988"><ele>1</ele><time>2020-02-23T09:07:18Z</time></trkpt>
<trkpt lat="44.002715964" lon="10.107271001"><ele>1</ele><time>2020-02-23T09:07:19Z</time></trkpt>
<trkpt lat="44.002734991" lon="10.107231019"><ele>1</ele><time>2020-02-23T09:07:20Z</time></trkpt>
<trkpt lat="44.002758041" lon="10.107191959"><ele>1</ele><time>2020-02-23T09:07:21Z</time></trkpt>
<trkpt lat="44.002782013" lon="10.107154995"><ele>1</ele><time>2020-02-23T09:07:22Z</time></trkpt>
<trkpt lat="44.00280498" lon="10.107119037"><ele>1</ele><time>2020-02-23T09:07:23Z</time></trkpt>
<trkpt lat="44.00282803" lon="10.107084"><ele>1</ele><time>2020-02-23T09:07:24Z</time></trkpt>
<trkpt lat="44.002850996" lon="10.10704997"><ele>1</ele><time>2020-02-23T09:07:25Z</time></trkpt>
<trkpt lat="44.002873041" lon="10.107017029"><ele>1</ele><time>2020-02-23T09:07:26Z</time></trkpt>
<trkpt lat="44.002895001" lon="10.10698501"><ele>2</ele><time>2020-02-23T09:07:27Z</time></trkpt>
<trkpt lat="44.00291604" lon="10.106952991"><ele>2</ele><time>2020-02-23T09:07:28Z</time></trkpt>
<trkpt lat="44.002938" lon="10.106921978"><ele>2</ele><time>2020-02-23T09:07:29Z</time></trkpt>
<trkpt lat="44.002959039" lon="10.106890965"><ele>2</ele><time>2020-02-23T09:07:30Z</time></trkpt>
<trkpt lat="44.002979994" lon="10.106860036"><ele>2</ele><time>2020-02-23T09:07:31Z</time></trkpt>
<trkpt lat="44.003000027" lon="10.106829023"><ele>2</ele><time>2020-02-23T09:07:32Z</time></trkpt>
<trkpt lat="44.003019975" lon="10.10679801"><ele>2</ele><time>2020-02-23T09:07:33Z</time></trkpt>
<trkpt lat="44.003040008" lon="10.106766997"><ele>2</ele><time>2020-02-23T09:07:34Z</time></trkpt>
<trkpt lat="44.003060041" lon="10.106735984"><ele>2</ele><time>2020-02-23T09:07:35Z</time></trkpt>
<trkpt lat="44.00307999" lon="10.106704971"><ele>2</ele><time>2020-02-23T09:07:36Z</time></trkpt>
<trkpt lat="44.003099017" lon="10.106673036"><ele>2</ele><time>2020-02-23T09:07:37Z</time></trkpt>
<trkpt lat="44.00311796" lon="10.106642023"><ele>2</ele><time>2020-02-23T09:07:38Z</time></trkpt>
<trkpt lat="44.003137993" lon="10.10661101"><ele>2</ele><time>2020-02-23T09:07:39Z</time></trkpt>
<trkpt lat="44.00315702" lon="10.106578991"><ele>2</ele><time>2020-02-23T09:07:40Z</time></trkpt>
<trkpt lat="44.003175963" lon="10.106547978"><ele>2</ele><time>2020-02-23T09:07:41Z</time></trkpt>
<trkpt lat="44.00319499" lon="10.106516965"><ele>2</ele><time>2020-02-23T09:07:42Z</time></trkpt>
<trkpt lat="44.003214017" lon="10.106486036"><ele>2</ele><time>2020-02-23T09:07:43Z</time></trkpt>
<trkpt lat="44.00323296" lon="10.106455022"><ele>2</ele><time>2020-02-23T09:07:44Z</time></trkpt>
<trkpt lat="44.003252992" lon="10.106424009"><ele>2</ele><time>2020-02-23T09:07:45Z</time></trkpt>
<trkpt lat="44.003272019" lon="10.106392996"><ele>2</ele><time>2020-02-23T09:07:46Z</time></trkpt>
<trkpt lat="44.003290962" lon="10.106361983"><ele>2</ele><time>2020-02-23T09:07:47Z</time></trkpt>
<trkpt lat="44.003309989" lon="10.10633097"><ele>2</ele><time>2020-02-23T09:07:48Z</time></trkpt>
<trkpt lat="44.003329016" lon="10.106300041"><ele>2</ele><time>2020-02-23T09:07:49Z</time></trkpt>
<trkpt lat="44.003347959" lon="10.106269028"><ele>2</ele><time>2020-02-23T09:07:50Z</time></trkpt>
<trkpt lat="44.003367992" lon="10.106238015"><ele>2</ele><time>2020-02-23T09:07:51Z</time></trkpt>
<trkpt lat="44.003424989" lon="10.10614397"><ele>2</ele><time>2020-02-23T09:07:54Z</time></trkpt>
<trkpt lat="44.003445022" lon="10.106113041"><ele>2</ele><time>2020-02-23T09:07:55Z</time></trkpt>
<trkpt lat="44.003463965" lon="10.106082028"><ele>2</ele><time>2020-02-23T09:07:56Z</time></trkpt>
<trkpt lat="44.003482992" lon="10.106051015"><ele>1</ele><time>2020-02-23T09:07:57Z</time></trkpt>
<trkpt lat="44.003503025" lon="10.106018996"><ele>1</ele><time>2020-02-23T09:07:58Z</time></trkpt>
<trkpt lat="44.003521968" lon="10.105987983"><ele>1</ele><time>2020-02-23T09:07:59Z</time></trkpt>
<trkpt lat="44.003542" lon="10.105955964"><ele>1</ele><time>2020-02-23T09:08:00Z</time></trkpt>
<trkpt lat="44.003562033" lon="10.105924029"><ele>1</ele><time>2020-02-23T09:08:01Z</time></trkpt>
<trkpt lat="44.003580976" lon="10.10589201"><ele>1</ele><time>2020-02-23T09:08:02Z</time></trkpt>
<trkpt lat="44.003601009" lon="10.105859991"><ele>1</ele><time>2020-02-23T09:08:03Z</time></trkpt>
<trkpt lat="44.003621042" lon="10.105827972"><ele>1</ele><time>2020-02-23T09:08:04Z</time></trkpt>
<trkpt lat="44.003640991" lon="10.105796037"><ele>1</ele><time>2020-02-23T09:08:05Z</time></trkpt>
<trkpt lat="44.003661023" lon="10.105764018"><ele>1</ele><time>2020-02-23T09:08:06Z</time></trkpt>
<trkpt lat="44.003680972" lon="10.105730994"><ele>1</ele><time>2020-02-23T09:08:07Z</time></trkpt>
<trkpt lat="44.003701005" lon="10.105698975"><ele>1</ele><time>2020-02-23T09:08:08Z</time></trkpt>
<trkpt lat="44.003720032" lon="10.105666034"><ele>1</ele><time>2020-02-23T09:08:09Z</time></trkpt>
<trkpt lat="44.003739981" lon="10.105634015"><ele>1</ele><time>2020-02-23T09:08:10Z</time></trkpt>
<trkpt lat="44.003760014" lon="10.105601996"><ele>2</ele><time>2020-02-23T09:08:11Z</time></trkpt>
<trkpt lat="44.003779041" lon="10.105569977"><ele>2</ele><time>2020-02-23T09:08:12Z</time></trkpt>
<trkpt lat="44.00379899" lon="10.105537958"><ele>2</ele><time>2020-02-23T09:08:13Z</time></trkpt>
<trkpt lat="44.003818016" lon="10.105506023"><ele>2</ele><time>2020-02-23T09:08:14Z</time></trkpt>
<trkpt lat="44.00383696" lon="10.105474005"><ele>2</ele><time>2020-02-23T09:08:15Z</time></trkpt>
<trkpt lat="44.003855987" lon="10.105442991"><ele>2</ele><time>2020-02-23T09:08:16Z</time></trkpt>
<trkpt lat="44.003875013" lon="10.105411978"><ele>0</ele><time>2020-02-23T09:08:17Z</time></trkpt>
<trkpt lat="44.00389404" lon="10.105380965"><ele>0</ele><time>2020-02-23T09:08:18Z</time></trkpt>
<trkpt lat="44.003911978" lon="10.105350036"><ele>0</ele><time>2020-02-23T09:08:19Z</time></trkpt>
<trkpt lat="44.003929999" lon="10.105319023"><ele>0</ele><time>2020-02-23T09:08:20Z</time></trkpt>
<trkpt lat="44.003949026" lon="10.105289016"><ele>0</ele><time>2020-02-23T09:08:21Z</time></trkpt>
<trkpt lat="44.003966963" lon="10.105259009"><ele>0</ele><time>2020-02-23T09:08:22Z</time></trkpt>
<trkpt lat="44.003984984" lon="10.105227996"><ele>0</ele><time>2020-02-23T09:08:23Z</time></trkpt>
<trkpt lat="44.004004011" lon="10.105197988"><ele>0</ele><time>2020-02-23T09:08:24Z</time></trkpt>
<trkpt lat="44.004022032" lon="10.105167981"><ele>0</ele><time>2020-02-23T09:08:25Z</time></trkpt>
<trkpt lat="44.004039969" lon="10.105137974"><ele>0</ele><time>2020-02-23T09:08:26Z</time></trkpt>
<trkpt lat="44.004058996" lon="10.105106961"><ele>0</ele><time>2020-02-23T09:08:27Z</time></trkpt>
<trkpt lat="44.004078023" lon="10.105077038"><ele>0</ele><time>2020-02-23T09:08:28Z</time></trkpt>
<trkpt lat="44.00409596" lon="10.10504703"><ele>0</ele><time>2020-02-23T09:08:29Z</time></trkpt>
<trkpt lat="44.004114987" lon="10.105016017"><ele>0</ele><time>2020-02-23T09:08:30Z</time></trkpt>
<trkpt lat="44.004134014" lon="10.10498601"><ele>0</ele><time>2020-02-23T09:08:31Z</time></trkpt>
<trkpt lat="44.004153963" lon="10.104954997"><ele>0</ele><time>2020-02-23T09:08:32Z</time></trkpt>
<trkpt lat="44.00417299" lon="10.10492499"><ele>0</ele><time>2020-02-23T09:08:33Z</time></trkpt>
<trkpt lat="44.004192017" lon="10.104893977"><ele>0</ele><time>2020-02-23T09:08:34Z</time></trkpt>
<trkpt lat="44.004211966" lon="10.104862042"><ele>0</ele><time>2020-02-23T09:08:35Z</time></trkpt>
<trkpt lat="44.004231999" lon="10.104831029"><ele>0</ele><time>2020-02-23T09:08:36Z</time></trkpt>
<trkpt lat="44.004251026" lon="10.10479901"><ele>0</ele><time>2020-02-23T09:08:37Z</time></trkpt>
<trkpt lat="44.004270975" lon="10.104767997"><ele>0</ele><time>2020-02-23T09:08:38Z</time></trkpt>
<trkpt lat="44.004291007" lon="10.104735978"><ele>0</ele><time>2020-02-23T09:08:39Z</time></trkpt>
<trkpt lat="44.00431104" lon="10.104703037"><ele>0</ele><time>2020-02-23T09:08:40Z</time></trkpt>
<trkpt lat="44.004330989" lon="10.104670012"><ele>0</ele><time>2020-02-23T09:08:41Z</time></trkpt>
<trkpt lat="44.004352028" lon="10.104637993"><ele>0</ele><time>2020-02-23T09:08:42Z</time></trkpt>
<trkpt lat="44.004371976" lon="10.104603963"><ele>0</ele><time>2020-02-23T09:08:43Z</time></trkpt>
<trkpt lat="44.004392009" lon="10.104571022"><ele>0</ele><time>2020-02-23T09:08:44Z</time></trkpt>
<trkpt lat="44.004412964" lon="10.104537997"><ele>0</ele><time>2020-02-23T09:08:45Z</time></trkpt>
<trkpt lat="44.004432997" lon="10.104503967"><ele>0</ele><time>2020-02-23T09:08:46Z</time></trkpt>
<trkpt lat="44.004454035" lon="10.10447002"><ele>0</ele><time>2020-02-23T09:08:47Z</time></trkpt>
<trkpt lat="44.00447499" lon="10.104436995"><ele>3</ele><time>2020-02-23T09:08:48Z</time></trkpt>
<trkpt lat="44.004495023" lon="10.104402965"><ele>3</ele><time>2020-02-23T09:08:49Z</time></trkpt>
<trkpt lat="44.004515978" lon="10.104369018"><ele>3</ele><time>2020-02-23T09:08:50Z</time></trkpt>
<trkpt lat="44.004537016" lon="10.104334988"><ele>3</ele><time>2020-02-23T09:08:51Z</time></trkpt>
<trkpt lat="44.004557971" lon="10.104301963"><ele>3</ele><time>2020-02-23T09:08:52Z</time></trkpt>
<trkpt lat="44.004579009" lon="10.104268016"><ele>3</ele><time>2020-02-23T09:08:53Z</time></trkpt>
<trkpt lat="44.004599964" lon="10.104233986"><ele>3</ele><time>2020-02-23T09:08:54Z</time></trkpt>
<trkpt lat="44.004621003" lon="10.104200039"><ele>3</ele><time>2020-02-23T09:08:55Z</time></trkpt>
<trkpt lat="44.004642041" lon="10.104167014"><ele>3</ele><time>2020-02-23T09:08:56Z</time></trkpt>
<trkpt lat="44.004662996" lon="10.104132984"><ele>3</ele><time>2020-02-23T09:08:57Z</time></trkpt>
<trkpt lat="44.004684035" lon="10.104099959"><ele>3</ele><time>2020-02-23T09:08:58Z</time></trkpt>
<trkpt lat="44.004705995" lon="10.104066012"><ele>3</ele><time>2020-02-23T09:08:59Z</time></trkpt>
<trkpt lat="44.004727034" lon="10.104032988"><ele>3</ele><time>2020-02-23T09:09:00Z</time></trkpt>
<trkpt lat="44.004747989" lon="10.103999041"><ele>3</ele><time>2020-02-23T09:09:01Z</time></trkpt>
<trkpt lat="44.004769027" lon="10.103966016"><ele>3</ele><time>2020-02-23T09:09:02Z</time></trkpt>
<trkpt lat="44.004789982" lon="10.103932992"><ele>3</ele><time>2020-02-23T09:09:03Z</time></trkpt>
<trkpt lat="44.004811021" lon="10.103899967"><ele>3</ele><time>2020-02-23T09:09:04Z</time></trkpt>
<trkpt lat="44.004831975" lon="10.103867026"><ele>3</ele><time>2020-02-23T09:09:05Z</time></trkpt>
<trkpt lat="44.004853014" lon="10.103834001"><ele>3</ele><time>2020-02-23T09:09:06Z</time></trkpt>
<trkpt lat="44.004873969" lon="10.103800977"><ele>3</ele><time>2020-02-23T09:09:07Z</time></trkpt>
<trkpt lat="44.004895007" lon="10.103768036"><ele>3</ele><time>2020-02-23T09:09:08Z</time></trkpt>
<trkpt lat="44.004915962" lon="10.103735011"><ele>1</ele><time>2020-02-23T09:09:09Z</time></trkpt>
<trkpt lat="44.004937001" lon="10.103702992"><ele>1</ele><time>2020-02-23T09:09:10Z</time></trkpt>
<trkpt lat="44.004957033" lon="10.103669968"><ele>1</ele><time>2020-02-23T09:09:11Z</time></trkpt>
<trkpt lat="44.004977988" lon="10.103638032"><ele>1</ele><time>2020-02-23T09:09:12Z</time></trkpt>
<trkpt lat="44.004999027" lon="10.103605008"><ele>1</ele><time>2020-02-23T09:09:13Z</time></trkpt>
<trkpt lat="44.005018976" lon="10.103572989"><ele>2</ele><time>2020-02-23T09:09:14Z</time></trkpt>
<trkpt lat="44.005039008" lon="10.10354097"><ele>2</ele><time>2020-02-23T09:09:15Z</time></trkpt>
<trkpt lat="44.005059963" lon="10.103509035"><ele>1</ele><time>2020-02-23T09:09:16Z</time></trkpt>
<trkpt lat="44.005079996" lon="10.103477016"><ele>1</ele><time>2020-02-23T09:09:17Z</time></trkpt>
<trkpt lat="44.005100029" lon="10.103444997"><ele>1</ele><time>2020-02-23T09:09:18Z</time></trkpt>
<trkpt lat="44.005119978" lon="10.103412978"><ele>1</ele><time>2020-02-23T09:09:19Z</time></trkpt>
<trkpt lat="44.00514001" lon="10.103381965"><ele>1</ele><time>2020-02-23T09:09:20Z</time></trkpt>
<trkpt lat="44.005159959" lon="10.10335003"><ele>1</ele><time>2020-02-23T09:09:21Z</time></trkpt>
<trkpt lat="44.005179992" lon="10.103319017"><ele>1</ele><time>2020-02-23T09:09:22Z</time></trkpt>
<trkpt lat="44.005199019" lon="10.103286998"><ele>1</ele><time>2020-02-23T09:09:23Z</time></trkpt>
<trkpt lat="44.005218968" lon="10.103255985"><ele>1</ele><time>2020-02-23T09:09:24Z</time></trkpt>
<trkpt lat="44.005239001" lon="10.103224972"><ele>1</ele><time>2020-02-23T09:09:25Z</time></trkpt>
<trkpt lat="44.005258027" lon="10.103193037"><ele>1</ele><time>2020-02-23T09:09:26Z</time></trkpt>
<trkpt lat="44.005277976" lon="10.103162024"><ele>1</ele><time>2020-02-23T09:09:27Z</time></trkpt>
<trkpt lat="44.005297003" lon="10.103131011"><ele>1</ele><time>2020-02-23T09:09:28Z</time></trkpt>
<trkpt lat="44.00531603" lon="10.103099998"><ele>1</ele><time>2020-02-23T09:09:29Z</time></trkpt>
<trkpt lat="44.005335979" lon="10.103068985"><ele>1</ele><time>2020-02-23T09:09:30Z</time></trkpt>
<trkpt lat="44.005355006" lon="10.103037972"><ele>1</ele><time>2020-02-23T09:09:31Z</time></trkpt>
<trkpt lat="44.005374033" lon="10.103006959"><ele>1</ele><time>2020-02-23T09:09:32Z</time></trkpt>
<trkpt lat="44.005393982" lon="10.10297603"><ele>1</ele><time>2020-02-23T09:09:33Z</time></trkpt>
<trkpt lat="44.005413009" lon="10.102945017"><ele>1</ele><time>2020-02-23T09:09:34Z</time></trkpt>
<trkpt lat="44.005432036" lon="10.102914004"><ele>2</ele><time>2020-02-23T09:09:35Z</time></trkpt>
<trkpt lat="44.005451985" lon="10.102882991"><ele>2</ele><time>2020-02-23T09:09:36Z</time></trkpt>
<trkpt lat="44.005471012" lon="10.102852983"><ele>2</ele><time>2020-02-23T09:09:37Z</time></trkpt>
<trkpt lat="44.005490039" lon="10.10282197"><ele>2</ele><time>2020-02-23T09:09:38Z</time></trkpt>
<trkpt lat="44.005509987" lon="10.102791041"><ele>2</ele><time>2020-02-23T09:09:39Z</time></trkpt>
<trkpt lat="44.005529014" lon="10.102760028"><ele>2</ele><time>2020-02-23T09:09:40Z</time></trkpt>
<trkpt lat="44.005548041" lon="10.102729015"><ele>2</ele><time>2020-02-23T09:09:41Z</time></trkpt>
<trkpt lat="44.00556799" lon="10.102698002"><ele>2</ele><time>2020-02-23T09:09:42Z</time></trkpt>
<trkpt lat="44.005587017" lon="10.102666989"><ele>2</ele><time>2020-02-23T09:09:43Z</time></trkpt>
<trkpt lat="44.005606966" lon="10.102635976"><ele>2</ele><time>2020-02-23T09:09:44Z</time></trkpt>
<trkpt lat="44.005625993" lon="10.102604963"><ele>2</ele><time>2020-02-23T09:09:45Z</time></trkpt>
<trkpt lat="44.005646026" lon="10.102574034"><ele>2</ele><time>2020-02-23T09:09:46Z</time></trkpt>
<trkpt lat="44.005664969" lon="10.102543021"><ele>2</ele><time>2020-02-23T09:09:47Z</time></trkpt>
<trkpt lat="44.005685002" lon="10.102512008"><ele>2</ele><time>2020-02-23T09:09:48Z</time></trkpt>
<trkpt lat="44.005704029" lon="10.102480995"><ele>2</ele><time>2020-02-23T09:09:49Z</time></trkpt>
<trkpt lat="44.005723977" lon="10.102449981"><ele>2</ele><time>2020-02-23T09:09:50Z</time></trkpt>
<trkpt lat="44.005743004" lon="10.102418968"><ele>2</ele><time>2020-02-23T09:09:51Z</time></trkpt>
<trkpt lat="44.005763037" lon="10.102388039"><ele>2</ele><time>2020-02-23T09:09:52Z</time></trkpt>
<trkpt lat="44.00578198" lon="10.10235602"><ele>2</ele><time>2020-02-23T09:09:53Z</time></trkpt>
<trkpt lat="44.005802013" lon="10.102325007"><ele>2</ele><time>2020-02-23T09:09:54Z</time></trkpt>
<trkpt lat="44.00582104" lon="10.102293994"><ele>2</ele><time>2020-02-23T09:09:55Z</time></trkpt>
<trkpt lat="44.005839983" lon="10.102262981"><ele>2</ele><time>2020-02-23T09:09:56Z</time></trkpt>
<trkpt lat="44.005860016" lon="10.102231968"><ele>2</ele><time>2020-02-23T09:09:57Z</time></trkpt>
<trkpt lat="44.005878959" lon="10.102201039"><ele>2</ele><time>2020-02-23T09:09:58Z</time></trkpt>
<trkpt lat="44.005897986" lon="10.102170026"><ele>2</ele><time>2020-02-23T09:09:59Z</time></trkpt>
<trkpt lat="44.005917013" lon="10.102139013"><ele>2</ele><time>2020-02-23T09:10:00Z</time></trkpt>
<trkpt lat="44.00593604" lon="10.102108"><ele>2</ele><time>2020-02-23T09:10:01Z</time></trkpt>
<trkpt lat="44.005954983" lon="10.102076987"><ele>2</ele><time>2020-02-23T09:10:02Z</time></trkpt>
<trkpt lat="44.00597401" lon="10.102045974"><ele>2</ele><time>2020-02-23T09:10:03Z</time></trkpt>
<trkpt lat="44.005993037" lon="10.102014961"><ele>2</ele><time>2020-02-23T09:10:04Z</time></trkpt>
<trkpt lat="44.00601198" lon="10.101984031"><ele>2</ele><time>2020-02-23T09:10:05Z</time></trkpt>
<trkpt lat="44.006030001" lon="10.101953018"><ele>2</ele><time>2020-02-23T09:10:06Z</time></trkpt>
<trkpt lat="44.006049028" lon="10.101922005"><ele>2</ele><time>2020-02-23T09:10:07Z</time></trkpt>
<trkpt lat="44.006067971" lon="10.101890992"><ele>2</ele><time>2020-02-23T09:10:08Z</time></trkpt>
<trkpt lat="44.006085992" lon="10.101859979"><ele>2</ele><time>2020-02-23T09:10:09Z</time></trkpt>
<trkpt lat="44.006105019" lon="10.101828966"><ele>3</ele><time>2020-02-23T09:10:10Z</time></trkpt>
<trkpt lat="44.00612304" lon="10.101798037"><ele>3</ele><time>2020-02-23T09:10:11Z</time></trkpt>
<trkpt lat="44.006141983" lon="10.101767024"><ele>3</ele><time>2020-02-23T09:10:12Z</time></trkpt>
<trkpt lat="44.006160004" lon="10.101735005"><ele>3</ele><time>2020-02-23T09:10:13Z</time></trkpt>
<trkpt lat="44.006179031" lon="10.101703992"><ele>3</ele><time>2020-02-23T09:10:14Z</time></trkpt>
<trkpt lat="44.006197974" lon="10.101671973"><ele>2</ele><time>2020-02-23T09:10:15Z</time></trkpt>
<trkpt lat="44.006217001" lon="10.10164096"><ele>2</ele><time>2020-02-23T09:10:16Z</time></trkpt>
<trkpt lat="44.006236028" lon="10.101609025"><ele>2</ele><time>2020-02-23T09:10:17Z</time></trkpt>
<trkpt lat="44.006254971" lon="10.101577006"><ele>3</ele><time>2020-02-23T09:10:18Z</time></trkpt>
<trkpt lat="44.006273998" lon="10.101543982"><ele>3</ele><time>2020-02-23T09:10:19Z</time></trkpt>
<trkpt lat="44.006293025" lon="10.101511963"><ele>3</ele><time>2020-02-23T09:10:20Z</time></trkpt>
<trkpt lat="44.006312974" lon="10.101480028"><ele>3</ele><time>2020-02-23T09:10:21Z</time></trkpt>
<trkpt lat="44.006332001" lon="10.101447003"><ele>3</ele><time>2020-02-23T09:10:22Z</time></trkpt>
<trkpt lat="44.006352033" lon="10.101414984"><ele>3</ele><time>2020-02-23T09:10:23Z</time></trkpt>
<trkpt lat="44.006370977" lon="10.101381959"><ele>3</ele><time>2020-02-23T09:10:24Z</time></trkpt>
<trkpt lat="44.006391009" lon="10.101350024"><ele>3</ele><time>2020-02-23T09:10:25Z</time></trkpt>
<trkpt lat="44.006410958" lon="10.101317"><ele>3</ele><time>2020-02-23T09:10:26Z</time></trkpt>
<trkpt lat="44.006429985" lon="10.101284981"><ele>3</ele><time>2020-02-23T09:10:27Z</time></trkpt>
<trkpt lat="44.006450018" lon="10.101252962"><ele>3</ele><time>2020-02-23T09:10:28Z</time></trkpt>
<trkpt lat="44.006469967" lon="10.101221027"><ele>2</ele><time>2020-02-23T09:10:29Z</time></trkpt>
<trkpt lat="44.00649" lon="10.101189008"><ele>2</ele><time>2020-02-23T09:10:30Z</time></trkpt>
<trkpt lat="44.006509027" lon="10.101157995"><ele>2</ele><time>2020-02-23T09:10:31Z</time></trkpt>
<trkpt lat="44.006528975" lon="10.101126982"><ele>2</ele><time>2020-02-23T09:10:32Z</time></trkpt>
<trkpt lat="44.006549008" lon="10.101095969"><ele>2</ele><time>2020-02-23T09:10:33Z</time></trkpt>
<trkpt lat="44.006568035" lon="10.10106504"><ele>2</ele><time>2020-02-23T09:10:34Z</time></trkpt>
<trkpt lat="44.006587984" lon="10.101034027"><ele>2</ele><time>2020-02-23T09:10:35Z</time></trkpt>
<trkpt lat="44.006607011" lon="10.101003014"><ele>2</ele><time>2020-02-23T09:10:36Z</time></trkpt>
<trkpt lat="44.00662696" lon="10.100973006"><ele>2</ele><time>2020-02-23T09:10:37Z</time></trkpt>
<trkpt lat="44.006646993" lon="10.100941993"><ele>2</ele><time>2020-02-23T09:10:38Z</time></trkpt>
<trkpt lat="44.00666602" lon="10.100911986"><ele>2</ele><time>2020-02-23T09:10:39Z</time></trkpt>
<trkpt lat="44.006685968" lon="10.100880973"><ele>2</ele><time>2020-02-23T09:10:40Z</time></trkpt>
<trkpt lat="44.006704995" lon="10.100850966"><ele>2</ele><time>2020-02-23T09:10:41Z</time></trkpt>
<trkpt lat="44.006725028" lon="10.100820037"><ele>2</ele><time>2020-02-23T09:10:42Z</time></trkpt>
<trkpt lat="44.006743971" lon="10.100790029"><ele>2</ele><time>2020-02-23T09:10:43Z</time></trkpt>
<trkpt lat="44.006764004" lon="10.100759016"><ele>2</ele><time>2020-02-23T09:10:44Z</time></trkpt>
<trkpt lat="44.006783031" lon="10.100728003"><ele>2</ele><time>2020-02-23T09:10:45Z</time></trkpt>
<trkpt lat="44.00680298" lon="10.100697996"><ele>2</ele><time>2020-02-23T09:10:46Z</time></trkpt>
<trkpt lat="44.006822007" lon="10.100666983"><ele>2</ele><time>2020-02-23T09:10:47Z</time></trkpt>
<trkpt lat="44.006841034" lon="10.10063597"><ele>2</ele><time>2020-02-23T09:10:48Z</time></trkpt>
<trkpt lat="44.006860983" lon="10.100604035"><ele>2</ele><time>2020-02-23T09:10:49Z</time></trkpt>
<trkpt lat="44.00688001" lon="10.100573022"><ele>2</ele><time>2020-02-23T09:10:50Z</time></trkpt>
<trkpt lat="44.006899036" lon="10.100541003"><ele>2</ele><time>2020-02-23T09:10:51Z</time></trkpt>
<trkpt lat="44.006918985" lon="10.10050999"><ele>2</ele><time>2020-02-23T09:10:52Z</time></trkpt>
<trkpt lat="44.006938012" lon="10.100476965"><ele>2</ele><time>2020-02-23T09:10:53Z</time></trkpt>
<trkpt lat="44.006957039" lon="10.10044503"><ele>2</ele><time>2020-02-23T09:10:54Z</time></trkpt>
<trkpt lat="44.006975982" lon="10.100412006"><ele>2</ele><time>2020-02-23T09:10:55Z</time></trkpt>
<trkpt lat="44.006996015" lon="10.100379987"><ele>2</ele><time>2020-02-23T09:10:56Z</time></trkpt>
<trkpt lat="44.007014958" lon="10.100346962"><ele>2</ele><time>2020-02-23T09:10:57Z</time></trkpt>
<trkpt lat="44.007033985" lon="10.100313015"><ele>2</ele><time>2020-02-23T09:10:58Z</time></trkpt>
<trkpt lat="44.007053012" lon="10.100279991"><ele>2</ele><time>2020-02-23T09:10:59Z</time></trkpt>
<trkpt lat="44.007072961" lon="10.100246966"><ele>2</ele><time>2020-02-23T09:11:00Z</time></trkpt>
<trkpt lat="44.007091988" lon="10.100215031"><ele>2</ele><time>2020-02-23T09:11:01Z</time></trkpt>
<trkpt lat="44.007111015" lon="10.100182006"><ele>2</ele><time>2020-02-23T09:11:02Z</time></trkpt>
<trkpt lat="44.007130964" lon="10.100149987"><ele>2</ele><time>2020-02-23T09:11:03Z</time></trkpt>
<trkpt lat="44.007149991" lon="10.100117968"><ele>2</ele><time>2020-02-23T09:11:04Z</time></trkpt>
<trkpt lat="44.007170023" lon="10.100086033"><ele>2</ele><time>2020-02-23T09:11:05Z</time></trkpt>
<trkpt lat="44.007189972" lon="10.10005502"><ele>2</ele><time>2020-02-23T09:11:06Z</time></trkpt>
<trkpt lat="44.007210005" lon="10.100025013"><ele>2</ele><time>2020-02-23T09:11:07Z</time></trkpt>
<trkpt lat="44.007229032" lon="10.099995006"><ele>2</ele><time>2020-02-23T09:11:08Z</time></trkpt>
<trkpt lat="44.007248981" lon="10.099966004"><ele>2</ele><time>2020-02-23T09:11:09Z</time></trkpt>
<trkpt lat="44.00727002" lon="10.099937003"><ele>2</ele><time>2020-02-23T09:11:10Z</time></trkpt>
<trkpt lat="44.007289968" lon="10.099908002"><ele>2</ele><time>2020-02-23T09:11:11Z</time></trkpt>
<trkpt lat="44.007310001" lon="10.099880006"><ele>2</ele><time>2020-02-23T09:11:12Z</time></trkpt>
<trkpt lat="44.007330034" lon="10.099851005"><ele>2</ele><time>2020-02-23T09:11:13Z</time></trkpt>
<trkpt lat="44.007349983" lon="10.099823009"><ele>2</ele><time>2020-02-23T09:11:14Z</time></trkpt>
<trkpt lat="44.007370016" lon="10.099794008"><ele>2</ele><time>2020-02-23T09:11:15Z</time></trkpt>
<trkpt lat="44.00739097" lon="10.099765006"><ele>2</ele><time>2020-02-23T09:11:16Z</time></trkpt>
<trkpt lat="44.007411003" lon="10.099736005"><ele>2</ele><time>2020-02-23T09:11:17Z</time></trkpt>
<trkpt lat="44.007431036" lon="10.099707004"><ele>2</ele><time>2020-02-23T09:11:18Z</time></trkpt>
<trkpt lat="44.007450985" lon="10.099676996"><ele>2</ele><time>2020-02-23T09:11:19Z</time></trkpt>
<trkpt lat="44.007471018" lon="10.099646989"><ele>2</ele><time>2020-02-23T09:11:20Z</time></trkpt>
<trkpt lat="44.007489961" lon="10.099616982"><ele>2</ele><time>2020-02-23T09:11:21Z</time></trkpt>
<trkpt lat="44.007509993" lon="10.099585969"><ele>2</ele><time>2020-02-23T09:11:22Z</time></trkpt>
<trkpt lat="44.007530026" lon="10.09955504"><ele>2</ele><time>2020-02-23T09:11:23Z</time></trkpt>
<trkpt lat="44.007548969" lon="10.099524027"><ele>2</ele><time>2020-02-23T09:11:24Z</time></trkpt>
<trkpt lat="44.007569002" lon="10.099493014"><ele>2</ele><time>2020-02-23T09:11:25Z</time></trkpt>
<trkpt lat="44.007588029" lon="10.099460995"><ele>2</ele><time>2020-02-23T09:11:26Z</time></trkpt>
<trkpt lat="44.007606972" lon="10.099428976"><ele>2</ele><time>2020-02-23T09:11:27Z</time></trkpt>
<trkpt lat="44.007625999" lon="10.099397963"><ele>2</ele><time>2020-02-23T09:11:28Z</time></trkpt>
<trkpt lat="44.007645026" lon="10.099366028"><ele>2</ele><time>2020-02-23T09:11:29Z</time></trkpt>
<trkpt lat="44.007663969" lon="10.099334009"><ele>2</ele><time>2020-02-23T09:11:30Z</time></trkpt>
<trkpt lat="44.007682996" lon="10.09930199"><ele>2</ele><time>2020-02-23T09:11:31Z</time></trkpt>
<trkpt lat="44.007701017" lon="10.099269971"><ele>2</ele><time>2020-02-23T09:11:32Z</time></trkpt>
<trkpt lat="44.00771996" lon="10.099238036"><ele>2</ele><time>2020-02-23T09:11:33Z</time></trkpt>
<trkpt lat="44.007737981" lon="10.099206017"><ele>2</ele><time>2020-02-23T09:11:34Z</time></trkpt>
<trkpt lat="44.007757008" lon="10.099173998"><ele>2</ele><time>2020-02-23T09:11:35Z</time></trkpt>
<trkpt lat="44.007775029" lon="10.09914198"><ele>2</ele><time>2020-02-23T09:11:36Z</time></trkpt>
<trkpt lat="44.007792966" lon="10.099109961"><ele>2</ele><time>2020-02-23T09:11:37Z</time></trkpt>
<trkpt lat="44.007810988" lon="10.09907702"><ele>2</ele><time>2020-02-23T09:11:38Z</time></trkpt>
<trkpt lat="44.007830014" lon="10.099045001"><ele>2</ele><time>2020-02-23T09:11:39Z</time></trkpt>
<trkpt lat="44.007848036" lon="10.099011976"><ele>2</ele><time>2020-02-23T09:11:40Z</time></trkpt>
<trkpt lat="44.007866979" lon="10.098979035"><ele>2</ele><time>2020-02-23T09:11:41Z</time></trkpt>
<trkpt lat="44.007885" lon="10.098946011"><ele>2</ele><time>2020-02-23T09:11:42Z</time></trkpt>
<trkpt lat="44.007904027" lon="10.09891198"><ele>2</ele><time>2020-02-23T09:11:43Z</time></trkpt>
<trkpt lat="44.00792297" lon="10.098878033"><ele>2</ele><time>2020-02-23T09:11:44Z</time></trkpt>
<trkpt lat="44.007940991" lon="10.098845009"><ele>2</ele><time>2020-02-23T09:11:45Z</time></trkpt>
<trkpt lat="44.007960018" lon="10.098810978"><ele>2</ele><time>2020-02-23T09:11:46Z</time></trkpt>
<trkpt lat="44.007979967" lon="10.098777032"><ele>2</ele><time>2020-02-23T09:11:47Z</time></trkpt>
<trkpt lat="44.007998994" lon="10.098743001"><ele>2</ele><time>2020-02-23T09:11:48Z</time></trkpt>
<trkpt lat="44.008018021" lon="10.09870897"><ele>2</ele><time>2020-02-23T09:11:49Z</time></trkpt>
<trkpt lat="44.008037969" lon="10.098675024"><ele>2</ele><time>2020-02-23T09:11:50Z</time></trkpt>
<trkpt lat="44.008056996" lon="10.098641999"><ele>2</ele><time>2020-02-23T09:11:51Z</time></trkpt>
<trkpt lat="44.008077029" lon="10.098607969"><ele>2</ele><time>2020-02-23T09:11:52Z</time></trkpt>
<trkpt lat="44.008096978" lon="10.098576033"><ele>2</ele><time>2020-02-23T09:11:53Z</time></trkpt>
<trkpt lat="44.008117011" lon="10.098543009"><ele>2</ele><time>2020-02-23T09:11:54Z</time></trkpt>
<trkpt lat="44.00813696" lon="10.09851099"><ele>2</ele><time>2020-02-23T09:11:55Z</time></trkpt>
<trkpt lat="44.008156992" lon="10.098479977"><ele>2</ele><time>2020-02-23T09:11:56Z</time></trkpt>
<trkpt lat="44.008177025" lon="10.098448964"><ele>2</ele><time>2020-02-23T09:11:57Z</time></trkpt>
<trkpt lat="44.008196974" lon="10.098418035"><ele>2</ele><time>2020-02-23T09:11:58Z</time></trkpt>
<trkpt lat="44.008217007" lon="10.098387022"><ele>2</ele><time>2020-02-23T09:11:59Z</time></trkpt>
<trkpt lat="44.008237962" lon="10.098356009"><ele>2</ele><time>2020-02-23T09:12:00Z</time></trkpt>
<trkpt lat="44.008257994" lon="10.098324995"><ele>2</ele><time>2020-02-23T09:12:01Z</time></trkpt>
<trkpt lat="44.008278027" lon="10.098294988"><ele>2</ele><time>2020-02-23T09:12:02Z</time></trkpt>
<trkpt lat="44.008297976" lon="10.098263975"><ele>2</ele><time>2020-02-23T09:12:03Z</time></trkpt>
<trkpt lat="44.008318009" lon="10.09823204"><ele>2</ele><time>2020-02-23T09:12:04Z</time></trkpt>
<trkpt lat="44.008338042" lon="10.098201027"><ele>2</ele><time>2020-02-23T09:12:05Z</time></trkpt>
<trkpt lat="44.008356985" lon="10.098169008"><ele>2</ele><time>2020-02-23T09:12:06Z</time></trkpt>
<trkpt lat="44.008377017" lon="10.098136989"><ele>2</ele><time>2020-02-23T09:12:07Z</time></trkpt>
<trkpt lat="44.008395961" lon="10.098103965"><ele>2</ele><time>2020-02-23T09:12:08Z</time></trkpt>
<trkpt lat="44.008414987" lon="10.098071024"><ele>2</ele><time>2020-02-23T09:12:09Z</time></trkpt>
<trkpt lat="44.008434014" lon="10.098036993"><ele>2</ele><time>2020-02-23T09:12:10Z</time></trkpt>
<trkpt lat="44.008453041" lon="10.098003969"><ele>2</ele><time>2020-02-23T09:12:11Z</time></trkpt>
<trkpt lat="44.008471984" lon="10.097970022"><ele>2</ele><time>2020-02-23T09:12:12Z</time></trkpt>
<trkpt lat="44.008491011" lon="10.097935991"><ele>2</ele><time>2020-02-23T09:12:13Z</time></trkpt>
<trkpt lat="44.008510038" lon="10.097902967"><ele>2</ele><time>2020-02-23T09:12:14Z</time></trkpt>
<trkpt lat="44.008528981" lon="10.09786902"><ele>2</ele><time>2020-02-23T09:12:15Z</time></trkpt>
<trkpt lat="44.008547002" lon="10.097835995"><ele>2</ele><time>2020-02-23T09:12:16Z</time></trkpt>
<trkpt lat="44.008566029" lon="10.097802971"><ele>2</ele><time>2020-02-23T09:12:17Z</time></trkpt>
<trkpt lat="44.008584972" lon="10.09777003"><ele>2</ele><time>2020-02-23T09:12:18Z</time></trkpt>
<trkpt lat="44.008602994" lon="10.097738011"><ele>4</ele><time>2020-02-23T09:12:19Z</time></trkpt>
<trkpt lat="44.00862202" lon="10.097705992"><ele>4</ele><time>2020-02-23T09:12:20Z</time></trkpt>
<trkpt lat="44.008640964" lon="10.097673973"><ele>4</ele><time>2020-02-23T09:12:21Z</time></trkpt>
<trkpt lat="44.008659991" lon="10.09764296"><ele>4</ele><time>2020-02-23T09:12:22Z</time></trkpt>
<trkpt lat="44.008679017" lon="10.097613037"><ele>4</ele><time>2020-02-23T09:12:23Z</time></trkpt>
<trkpt lat="44.008697961" lon="10.097582024"><ele>4</ele><time>2020-02-23T09:12:24Z</time></trkpt>
<trkpt lat="44.008716987" lon="10.097552016"><ele>4</ele><time>2020-02-23T09:12:25Z</time></trkpt>
<trkpt lat="44.00873702" lon="10.097522009"><ele>4</ele><time>2020-02-23T09:12:26Z</time></trkpt>
<trkpt lat="44.008755963" lon="10.097492002"><ele>4</ele><time>2020-02-23T09:12:27Z</time></trkpt>
<trkpt lat="44.00877499" lon="10.097461995"><ele>4</ele><time>2020-02-23T09:12:28Z</time></trkpt>
<trkpt lat="44.008795023" lon="10.097431988"><ele>4</ele><time>2020-02-23T09:12:29Z</time></trkpt>
<trkpt lat="44.008813966" lon="10.09740198"><ele>4</ele><time>2020-02-23T09:12:30Z</time></trkpt>
<trkpt lat="44.008833999" lon="10.097371973"><ele>4</ele><time>2020-02-23T09:12:31Z</time></trkpt>
<trkpt lat="44.008854032" lon="10.097341966"><ele>4</ele><time>2020-02-23T09:12:32Z</time></trkpt>
<trkpt lat="44.008872975" lon="10.097311959"><ele>4</ele><time>2020-02-23T09:12:33Z</time></trkpt>
<trkpt lat="44.008893007" lon="10.097281029"><ele>4</ele><time>2020-02-23T09:12:34Z</time></trkpt>
<trkpt lat="44.00891304" lon="10.097251022"><ele>4</ele><time>2020-02-23T09:12:35Z</time></trkpt>
<trkpt lat="44.008932989" lon="10.097220009"><ele>4</ele><time>2020-02-23T09:12:36Z</time></trkpt>
<trkpt lat="44.008953022" lon="10.097188996"><ele>4</ele><time>2020-02-23T09:12:37Z</time></trkpt>
<trkpt lat="44.008972971" lon="10.097158989"><ele>4</ele><time>2020-02-23T09:12:38Z</time></trkpt>
<trkpt lat="44.008993004" lon="10.097127976"><ele>4</ele><time>2020-02-23T09:12:39Z</time></trkpt>
<trkpt lat="44.009013036" lon="10.097096963"><ele>4</ele><time>2020-02-23T09:12:40Z</time></trkpt>
<trkpt lat="44.009032985" lon="10.097066034"><ele>1</ele><time>2020-02-23T09:12:41Z</time></trkpt>
<trkpt lat="44.009054024" lon="10.097035021"><ele>1</ele><time>2020-02-23T09:12:42Z</time></trkpt>
<trkpt lat="44.009073973" lon="10.097004008"><ele>1</ele><time>2020-02-23T09:12:43Z</time></trkpt>
<trkpt lat="44.009094005" lon="10.096972995"><ele>1</ele><time>2020-02-23T09:12:44Z</time></trkpt>
<trkpt lat="44.009114038" lon="10.096941981"><ele>1</ele><time>2020-02-23T09:12:45Z</time></trkpt>
<trkpt lat="44.009133987" lon="10.096910968"><ele>1</ele><time>2020-02-23T09:12:46Z</time></trkpt>
<trkpt lat="44.00915402" lon="10.096880039"><ele>1</ele><time>2020-02-23T09:12:47Z</time></trkpt>
<trkpt lat="44.009173969" lon="10.096849026"><ele>2</ele><time>2020-02-23T09:12:48Z</time></trkpt>
<trkpt lat="44.009192996" lon="10.096818013"><ele>2</ele><time>2020-02-23T09:12:49Z</time></trkpt>
<trkpt lat="44.009213028" lon="10.096787"><ele>2</ele><time>2020-02-23T09:12:50Z</time></trkpt>
<trkpt lat="44.009232977" lon="10.096755987"><ele>1</ele><time>2020-02-23T09:12:51Z</time></trkpt>
<trkpt lat="44.009252004" lon="10.09672598"><ele>1</ele><time>2020-02-23T09:12:52Z</time></trkpt>
<trkpt lat="44.009272037" lon="10.096694967"><ele>1</ele><time>2020-02-23T09:12:53Z</time></trkpt>
<trkpt lat="44.00929098" lon="10.09666496"><ele>1</ele><time>2020-02-23T09:12:54Z</time></trkpt>
<trkpt lat="44.009310007" lon="10.09663403"><ele>1</ele><time>2020-02-23T09:12:55Z</time></trkpt>
<trkpt lat="44.009329034" lon="10.096604023"><ele>1</ele><time>2020-02-23T09:12:56Z</time></trkpt>
<trkpt lat="44.009347977" lon="10.096574016"><ele>1</ele><time>2020-02-23T09:12:57Z</time></trkpt>
<trkpt lat="44.009367004" lon="10.096544009"><ele>1</ele><time>2020-02-23T09:12:58Z</time></trkpt>
<trkpt lat="44.009385025" lon="10.096515007"><ele>1</ele><time>2020-02-23T09:12:59Z</time></trkpt>
<trkpt lat="44.009403968" lon="10.096485"><ele>1</ele><time>2020-02-23T09:13:00Z</time></trkpt>
<trkpt lat="44.009421989" lon="10.096454993"><ele>1</ele><time>2020-02-23T09:13:01Z</time></trkpt>
<trkpt lat="44.009441016" lon="10.096425992"><ele>1</ele><time>2020-02-23T09:13:02Z</time></trkpt>
<trkpt lat="44.009459037" lon="10.09639699"><ele>1</ele><time>2020-02-23T09:13:03Z</time></trkpt>
<trkpt lat="44.00947798" lon="10.096366983"><ele>1</ele><time>2020-02-23T09:13:04Z</time></trkpt>
<trkpt lat="44.009496002" lon="10.096337982"><ele>1</ele><time>2020-02-23T09:13:05Z</time></trkpt>
<trkpt lat="44.009514023" lon="10.09630898"><ele>1</ele><time>2020-02-23T09:13:06Z</time></trkpt>
<trkpt lat="44.009532966" lon="10.096278973"><ele>1</ele><time>2020-02-23T09:13:07Z</time></trkpt>
<trkpt lat="44.009550987" lon="10.096249972"><ele>1</ele><time>2020-02-23T09:13:08Z</time></trkpt>
<trkpt lat="44.009569008" lon="10.09622097"><ele>3</ele><time>2020-02-23T09:13:09Z</time></trkpt>
<trkpt lat="44.009588035" lon="10.096191969"><ele>3</ele><time>2020-02-23T09:13:10Z</time></trkpt>
<trkpt lat="44.009605972" lon="10.096162967"><ele>3</ele><time>2020-02-23T09:13:11Z</time></trkpt>
<trkpt lat="44.009624999" lon="10.09613296"><ele>3</ele><time>2020-02-23T09:13:12Z</time></trkpt>
<trkpt lat="44.009644026" lon="10.096103959"><ele>3</ele><time>2020-02-23T09:13:13Z</time></trkpt>
<trkpt lat="44.009662969" lon="10.096075041"><ele>3</ele><time>2020-02-23T09:13:14Z</time></trkpt>
<trkpt lat="44.009681996" lon="10.096045034"><ele>3</ele><time>2020-02-23T09:13:15Z</time></trkpt>
<trkpt lat="44.009701023" lon="10.096016033"><ele>3</ele><time>2020-02-23T09:13:16Z</time></trkpt>
<trkpt lat="44.009719966" lon="10.095987031"><ele>3</ele><time>2020-02-23T09:13:17Z</time></trkpt>
<trkpt lat="44.009738993" lon="10.095957024"><ele>3</ele><time>2020-02-23T09:13:18Z</time></trkpt>
<trkpt lat="44.009759026" lon="10.095927017"><ele>3</ele><time>2020-02-23T09:13:19Z</time></trkpt>
<trkpt lat="44.009778975" lon="10.09589701"><ele>3</ele><time>2020-02-23T09:13:20Z</time></trkpt>
<trkpt lat="44.009798001" lon="10.095867002"><ele>3</ele><time>2020-02-23T09:13:21Z</time></trkpt>
<trkpt lat="44.00981904" lon="10.095836995"><ele>3</ele><time>2020-02-23T09:13:22Z</time></trkpt>
<trkpt lat="44.009838989" lon="10.095806988"><ele>3</ele><time>2020-02-23T09:13:23Z</time></trkpt>
<trkpt lat="44.009859022" lon="10.095776981"><ele>3</ele><time>2020-02-23T09:13:24Z</time></trkpt>
<trkpt lat="44.009879977" lon="10.095746974"><ele>3</ele><time>2020-02-23T09:13:25Z</time></trkpt>
<trkpt lat="44.009901015" lon="10.09571596"><ele>3</ele><time>2020-02-23T09:13:26Z</time></trkpt>
<trkpt lat="44.00992197" lon="10.095686037"><ele>3</ele><time>2020-02-23T09:13:27Z</time></trkpt>
<trkpt lat="44.009942003" lon="10.095655024"><ele>3</ele><time>2020-02-23T09:13:28Z</time></trkpt>
<trkpt lat="44.009963041" lon="10.095624011"><ele>3</ele><time>2020-02-23T09:13:29Z</time></trkpt>
<trkpt lat="44.009983996" lon="10.095594004"><ele>3</ele><time>2020-02-23T09:13:30Z</time></trkpt>
<trkpt lat="44.01000604" lon="10.095562991"><ele>2</ele><time>2020-02-23T09:13:31Z</time></trkpt>
<trkpt lat="44.010026995" lon="10.095531978"><ele>2</ele><time>2020-02-23T09:13:32Z</time></trkpt>
<trkpt lat="44.010048034" lon="10.095500965"><ele>2</ele><time>2020-02-23T09:13:33Z</time></trkpt>
<trkpt lat="44.010068988" lon="10.095470035"><ele>2</ele><time>2020-02-23T09:13:34Z</time></trkpt>
<trkpt lat="44.010090027" lon="10.095439022"><ele>2</ele><time>2020-02-23T09:13:35Z</time></trkpt>
<trkpt lat="44.010110982" lon="10.095408009"><ele>2</ele><time>2020-02-23T09:13:36Z</time></trkpt>
<trkpt lat="44.01013202" lon="10.095376996"><ele>2</ele><time>2020-02-23T09:13:37Z</time></trkpt>
<trkpt lat="44.010152975" lon="10.095344977"><ele>2</ele><time>2020-02-23T09:13:38Z</time></trkpt>
<trkpt lat="44.010173008" lon="10.095313964"><ele>2</ele><time>2020-02-23T09:13:39Z</time></trkpt>
<trkpt lat="44.010193963" lon="10.095283035"><ele>2</ele><time>2020-02-23T09:13:40Z</time></trkpt>
<trkpt lat="44.010215001" lon="10.095252022"><ele>2</ele><time>2020-02-23T09:13:41Z</time></trkpt>
<trkpt lat="44.010235034" lon="10.095221009"><ele>2</ele><time>2020-02-23T09:13:42Z</time></trkpt>
<trkpt lat="44.010254983" lon="10.09518899"><ele>2</ele><time>2020-02-23T09:13:43Z</time></trkpt>
<trkpt lat="44.010275016" lon="10.095157977"><ele>1</ele><time>2020-02-23T09:13:44Z</time></trkpt>
<trkpt lat="44.010294965" lon="10.095126964"><ele>1</ele><time>2020-02-23T09:13:45Z</time></trkpt>
<trkpt lat="44.010314997" lon="10.095096035"><ele>1</ele><time>2020-02-23T09:13:46Z</time></trkpt>
<trkpt lat="44.010334024" lon="10.095065022"><ele>1</ele><time>2020-02-23T09:13:47Z</time></trkpt>
<trkpt lat="44.010353973" lon="10.095033003"><ele>1</ele><time>2020-02-23T09:13:48Z</time></trkpt>
<trkpt lat="44.010373" lon="10.09500199"><ele>1</ele><time>2020-02-23T09:13:49Z</time></trkpt>
<trkpt lat="44.010392027" lon="10.094970977"><ele>1</ele><time>2020-02-23T09:13:50Z</time></trkpt>
<trkpt lat="44.01041097" lon="10.094939964"><ele>1</ele><time>2020-02-23T09:13:51Z</time></trkpt>
<trkpt lat="44.010429997" lon="10.094909035"><ele>1</ele><time>2020-02-23T09:13:52Z</time></trkpt>
<trkpt lat="44.010449024" lon="10.094878022"><ele>1</ele><time>2020-02-23T09:13:53Z</time></trkpt>
<trkpt lat="44.010467967" lon="10.094846003"><ele>1</ele><time>2020-02-23T09:13:54Z</time></trkpt>
<trkpt lat="44.010485988" lon="10.09481499"><ele>1</ele><time>2020-02-23T09:13:55Z</time></trkpt>
<trkpt lat="44.010505015" lon="10.094783977"><ele>1</ele><time>2020-02-23T09:13:56Z</time></trkpt>
<trkpt lat="44.010523036" lon="10.094752964"><ele>1</ele><time>2020-02-23T09:13:57Z</time></trkpt>
<trkpt lat="44.010541979" lon="10.094722034"><ele>1</ele><time>2020-02-23T09:13:58Z</time></trkpt>
<trkpt lat="44.01056" lon="10.094691021"><ele>1</ele><time>2020-02-23T09:13:59Z</time></trkpt>
<trkpt lat="44.010579027" lon="10.094660008"><ele>1</ele><time>2020-02-23T09:14:00Z</time></trkpt>
<trkpt lat="44.010596965" lon="10.094628995"><ele>1</ele><time>2020-02-23T09:14:01Z</time></trkpt>
<trkpt lat="44.010615991" lon="10.094597982"><ele>1</ele><time>2020-02-23T09:14:02Z</time></trkpt>
<trkpt lat="44.010635018" lon="10.094566969"><ele>1</ele><time>2020-02-23T09:14:03Z</time></trkpt>
<trkpt lat="44.010653039" lon="10.09453604"><ele>1</ele><time>2020-02-23T09:14:04Z</time></trkpt>
<trkpt lat="44.010671983" lon="10.094505027"><ele>1</ele><time>2020-02-23T09:14:05Z</time></trkpt>
<trkpt lat="44.010691009" lon="10.094474014"><ele>1</ele><time>2020-02-23T09:14:06Z</time></trkpt>
<trkpt lat="44.010710036" lon="10.094443001"><ele>1</ele><time>2020-02-23T09:14:07Z</time></trkpt>
<trkpt lat="44.010728979" lon="10.094412994"><ele>1</ele><time>2020-02-23T09:14:08Z</time></trkpt>
<trkpt lat="44.010748006" lon="10.094381981"><ele>1</ele><time>2020-02-23T09:14:09Z</time></trkpt>
<trkpt lat="44.010767033" lon="10.094350968"><ele>1</ele><time>2020-02-23T09:14:10Z</time></trkpt>
<trkpt lat="44.010785976" lon="10.094320038"><ele>1</ele><time>2020-02-23T09:14:11Z</time></trkpt>
<trkpt lat="44.010806009" lon="10.094290031"><ele>1</ele><time>2020-02-23T09:14:12Z</time></trkpt>
<trkpt lat="44.010825036" lon="10.094259018"><ele>1</ele><time>2020-02-23T09:14:13Z</time></trkpt>
<trkpt lat="44.010844985" lon="10.094228005"><ele>1</ele><time>2020-02-23T09:14:14Z</time></trkpt>
<trkpt lat="44.010864012" lon="10.094196992"><ele>1</ele><time>2020-02-23T09:14:15Z</time></trkpt>
<trkpt lat="44.010883961" lon="10.094166985"><ele>1</ele><time>2020-02-23T09:14:16Z</time></trkpt>
<trkpt lat="44.010903994" lon="10.094135972"><ele>1</ele><time>2020-02-23T09:14:17Z</time></trkpt>
<trkpt lat="44.010923021" lon="10.094104959"><ele>1</ele><time>2020-02-23T09:14:18Z</time></trkpt>
<trkpt lat="44.010942969" lon="10.094075035"><ele>1</ele><time>2020-02-23T09:14:19Z</time></trkpt>
<trkpt lat="44.010963002" lon="10.094044022"><ele>1</ele><time>2020-02-23T09:14:20Z</time></trkpt>
<trkpt lat="44.010983035" lon="10.094013009"><ele>1</ele><time>2020-02-23T09:14:21Z</time></trkpt>
<trkpt lat="44.011001978" lon="10.093981996"><ele>1</ele><time>2020-02-23T09:14:22Z</time></trkpt>
<trkpt lat="44.011022011" lon="10.093951989"><ele>1</ele><time>2020-02-23T09:14:23Z</time></trkpt>
<trkpt lat="44.011041038" lon="10.093920976"><ele>1</ele><time>2020-02-23T09:14:24Z</time></trkpt>
<trkpt lat="44.011060987" lon="10.093889963"><ele>1</ele><time>2020-02-23T09:14:25Z</time></trkpt>
<trkpt lat="44.011081019" lon="10.093859034"><ele>1</ele><time>2020-02-23T09:14:26Z</time></trkpt>
<trkpt lat="44.011099963" lon="10.093828021"><ele>1</ele><time>2020-02-23T09:14:27Z</time></trkpt>
<trkpt lat="44.011119995" lon="10.093796002"><ele>1</ele><time>2020-02-23T09:14:28Z</time></trkpt>
<trkpt lat="44.011139022" lon="10.093764989"><ele>1</ele><time>2020-02-23T09:14:29Z</time></trkpt>
<trkpt lat="44.011158971" lon="10.09373297"><ele>1</ele><time>2020-02-23T09:14:30Z</time></trkpt>
<trkpt lat="44.011179004" lon="10.093701035"><ele>1</ele><time>2020-02-23T09:14:31Z</time></trkpt>
<trkpt lat="44.011199037" lon="10.09366801"><ele>1</ele><time>2020-02-23T09:14:32Z</time></trkpt>
<trkpt lat="44.01121798" lon="10.093635991"><ele>1</ele><time>2020-02-23T09:14:33Z</time></trkpt>
<trkpt lat="44.011238012" lon="10.093602967"><ele>1</ele><time>2020-02-23T09:14:34Z</time></trkpt>
<trkpt lat="44.011257961" lon="10.093570026"><ele>1</ele><time>2020-02-23T09:14:35Z</time></trkpt>
<trkpt lat="44.011279" lon="10.093538007"><ele>1</ele><time>2020-02-23T09:14:36Z</time></trkpt>
<trkpt lat="44.011299033" lon="10.093505988"><ele>1</ele><time>2020-02-23T09:14:37Z</time></trkpt>
<trkpt lat="44.011319987" lon="10.093474975"><ele>1</ele><time>2020-02-23T09:14:38Z</time></trkpt>
<trkpt lat="44.011341026" lon="10.093444968"><ele>1</ele><time>2020-02-23T09:14:39Z</time></trkpt>
<trkpt lat="44.011362987" lon="10.093416972"><ele>1</ele><time>2020-02-23T09:14:40Z</time></trkpt>
<trkpt lat="44.011385031" lon="10.093389982"><ele>1</ele><time>2020-02-23T09:14:41Z</time></trkpt>
<trkpt lat="44.011406992" lon="10.093363998"><ele>1</ele><time>2020-02-23T09:14:42Z</time></trkpt>
<trkpt lat="44.011429036" lon="10.09333902"><ele>1</ele><time>2020-02-23T09:14:43Z</time></trkpt>
<trkpt lat="44.011450997" lon="10.093313036"><ele>1</ele><time>2020-02-23T09:14:44Z</time></trkpt>
<trkpt lat="44.011472035" lon="10.093285963"><ele>1</ele><time>2020-02-23T09:14:45Z</time></trkpt>
<trkpt lat="44.011491984" lon="10.093258973"><ele>1</ele><time>2020-02-23T09:14:46Z</time></trkpt>
<trkpt lat="44.011511011" lon="10.093229972"><ele>1</ele><time>2020-02-23T09:14:47Z</time></trkpt>
<trkpt lat="44.011529032" lon="10.09320097"><ele>1</ele><time>2020-02-23T09:14:48Z</time></trkpt>
<trkpt lat="44.011546969" lon="10.093170963"><ele>1</ele><time>2020-02-23T09:14:49Z</time></trkpt>
<trkpt lat="44.011564991" lon="10.09314104"><ele>1</ele><time>2020-02-23T09:14:50Z</time></trkpt>
<trkpt lat="44.011582006" lon="10.093110027"><ele>1</ele><time>2020-02-23T09:14:51Z</time></trkpt>
<trkpt lat="44.011599021" lon="10.093079014"><ele>1</ele><time>2020-02-23T09:14:52Z</time></trkpt>
<trkpt lat="44.01161503" lon="10.093048001"><ele>1</ele><time>2020-02-23T09:14:53Z</time></trkpt>
<trkpt lat="44.01163104" lon="10.093016988"><ele>1</ele><time>2020-02-23T09:14:54Z</time></trkpt>
<trkpt lat="44.011646966" lon="10.092985975"><ele>1</ele><time>2020-02-23T09:14:55Z</time></trkpt>
<trkpt lat="44.011662975" lon="10.092954962"><ele>1</ele><time>2020-02-23T09:14:56Z</time></trkpt>
<trkpt lat="44.011678984" lon="10.092925038"><ele>1</ele><time>2020-02-23T09:14:57Z</time></trkpt>
<trkpt lat="44.011694994" lon="10.092895031"><ele>1</ele><time>2020-02-23T09:14:58Z</time></trkpt>
<trkpt lat="44.011711003" lon="10.092867035"><ele>1</ele><time>2020-02-23T09:14:59Z</time></trkpt>
<trkpt lat="44.011726007" lon="10.09283904"><ele>1</ele><time>2020-02-23T09:15:00Z</time></trkpt>
<trkpt lat="44.011740005" lon="10.092813978"><ele>1</ele><time>2020-02-23T09:15:01Z</time></trkpt>
<trkpt lat="44.011752997" lon="10.092791012"><ele>1</ele><time>2020-02-23T09:15:02Z</time></trkpt>
<trkpt lat="44.011763977" lon="10.092770979"><ele>1</ele><time>2020-02-23T09:15:03Z</time></trkpt>
<trkpt lat="44.011773029" lon="10.092753042"><ele>1</ele><time>2020-02-23T09:15:04Z</time></trkpt>
<trkpt lat="44.011780992" lon="10.092737032"><ele>1</ele><time>2020-02-23T09:15:05Z</time></trkpt>
<trkpt lat="44.011788033" lon="10.092723034"><ele>1</ele><time>2020-02-23T09:15:06Z</time></trkpt>
<trkpt lat="44.01179499" lon="10.092708031"><ele>1</ele><time>2020-02-23T09:15:07Z</time></trkpt>
<trkpt lat="44.011803037" lon="10.092692021"><ele>1</ele><time>2020-02-23T09:15:08Z</time></trkpt>
<trkpt lat="44.011813011" lon="10.092675006"><ele>1</ele><time>2020-02-23T09:15:09Z</time></trkpt>
<trkpt lat="44.011837989" lon="10.092629995"><ele>1</ele><time>2020-02-23T09:15:11Z</time></trkpt>
<trkpt lat="44.011852993" lon="10.092603005"><ele>1</ele><time>2020-02-23T09:15:12Z</time></trkpt>
<trkpt lat="44.011869002" lon="10.09257501"><ele>1</ele><time>2020-02-23T09:15:13Z</time></trkpt>
<trkpt lat="44.011887023" lon="10.092545003"><ele>1</ele><time>2020-02-23T09:15:14Z</time></trkpt>
<trkpt lat="44.011905966" lon="10.092512984"><ele>1</ele><time>2020-02-23T09:15:15Z</time></trkpt>
<trkpt lat="44.011925999" lon="10.092480965"><ele>1</ele><time>2020-02-23T09:15:16Z</time></trkpt>
<trkpt lat="44.011947038" lon="10.092448024"><ele>1</ele><time>2020-02-23T09:15:17Z</time></trkpt>
<trkpt lat="44.011967992" lon="10.092413994"><ele>1</ele><time>2020-02-23T09:15:18Z</time></trkpt>
<trkpt lat="44.011990037" lon="10.092380969"><ele>1</ele><time>2020-02-23T09:15:19Z</time></trkpt>
<trkpt lat="44.012010992" lon="10.092349034"><ele>1</ele><time>2020-02-23T09:15:20Z</time></trkpt>
<trkpt lat="44.01203203" lon="10.092317015"><ele>1</ele><time>2020-02-23T09:15:21Z</time></trkpt>
<trkpt lat="44.012052985" lon="10.092287008"><ele>1</ele><time>2020-02-23T09:15:22Z</time></trkpt>
<trkpt lat="44.012074023" lon="10.092258006"><ele>1</ele><time>2020-02-23T09:15:23Z</time></trkpt>
<trkpt lat="44.012093972" lon="10.092230011"><ele>1</ele><time>2020-02-23T09:15:24Z</time></trkpt>
<trkpt lat="44.012115011" lon="10.092203021"><ele>1</ele><time>2020-02-23T09:15:25Z</time></trkpt>
<trkpt lat="44.01213496" lon="10.092177037"><ele>1</ele><time>2020-02-23T09:15:26Z</time></trkpt>
<trkpt lat="44.012154993" lon="10.092151975"><ele>1</ele><time>2020-02-23T09:15:27Z</time></trkpt>
<trkpt lat="44.012175025" lon="10.092126997"><ele>1</ele><time>2020-02-23T09:15:28Z</time></trkpt>
<trkpt lat="44.012194974" lon="10.092103025"><ele>1</ele><time>2020-02-23T09:15:29Z</time></trkpt>
<trkpt lat="44.012215007" lon="10.092077963"><ele>1</ele><time>2020-02-23T09:15:30Z</time></trkpt>
<trkpt lat="44.01223504" lon="10.092053991"><ele>1</ele><time>2020-02-23T09:15:31Z</time></trkpt>
<trkpt lat="44.012255995" lon="10.092029013"><ele>1</ele><time>2020-02-23T09:15:32Z</time></trkpt>
<trkpt lat="44.012277033" lon="10.092004035"><ele>1</ele><time>2020-02-23T09:15:33Z</time></trkpt>
<trkpt lat="44.012297988" lon="10.091976961"><ele>1</ele><time>2020-02-23T09:15:34Z</time></trkpt>
<trkpt lat="44.012319027" lon="10.091949971"><ele>1</ele><time>2020-02-23T09:15:35Z</time></trkpt>
<trkpt lat="44.012339981" lon="10.09192097"><ele>1</ele><time>2020-02-23T09:15:36Z</time></trkpt>
<trkpt lat="44.01236102" lon="10.091891969"><ele>1</ele><time>2020-02-23T09:15:37Z</time></trkpt>
<trkpt lat="44.012381975" lon="10.091861961"><ele>1</ele><time>2020-02-23T09:15:38Z</time></trkpt>
<trkpt lat="44.012402007" lon="10.091831032"><ele>1</ele><time>2020-02-23T09:15:39Z</time></trkpt>
<trkpt lat="44.01242204" lon="10.091799013"><ele>1</ele><time>2020-02-23T09:15:40Z</time></trkpt>
<trkpt lat="44.012440983" lon="10.091766994"><ele>1</ele><time>2020-02-23T09:15:41Z</time></trkpt>
<trkpt lat="44.01246001" lon="10.091734976"><ele>1</ele><time>2020-02-23T09:15:42Z</time></trkpt>
<trkpt lat="44.012478031" lon="10.091703041"><ele>1</ele><time>2020-02-23T09:15:43Z</time></trkpt>
<trkpt lat="44.012495968" lon="10.091670016"><ele>1</ele><time>2020-02-23T09:15:44Z</time></trkpt>
<trkpt lat="44.01251399" lon="10.091636991"><ele>1</ele><time>2020-02-23T09:15:45Z</time></trkpt>
<trkpt lat="44.012532011" lon="10.091604972"><ele>1</ele><time>2020-02-23T09:15:46Z</time></trkpt>
<trkpt lat="44.012550032" lon="10.091572031"><ele>1</ele><time>2020-02-23T09:15:47Z</time></trkpt>
<trkpt lat="44.012567969" lon="10.091540013"><ele>1</ele><time>2020-02-23T09:15:48Z</time></trkpt>
<trkpt lat="44.01258599" lon="10.091506988"><ele>1</ele><time>2020-02-23T09:15:49Z</time></trkpt>
<trkpt lat="44.012605017" lon="10.091474969"><ele>1</ele><time>2020-02-23T09:15:50Z</time></trkpt>
<trkpt lat="44.012623038" lon="10.091443034"><ele>1</ele><time>2020-02-23T09:15:51Z</time></trkpt>
<trkpt lat="44.012641981" lon="10.091411015"><ele>1</ele><time>2020-02-23T09:15:52Z</time></trkpt>
<trkpt lat="44.012661008" lon="10.09137799"><ele>1</ele><time>2020-02-23T09:15:53Z</time></trkpt>
<trkpt lat="44.012680035" lon="10.091345971"><ele>1</ele><time>2020-02-23T09:15:54Z</time></trkpt>
<trkpt lat="44.012697972" lon="10.091314036"><ele>1</ele><time>2020-02-23T09:15:55Z</time></trkpt>
<trkpt lat="44.012718005" lon="10.091282018"><ele>1</ele><time>2020-02-23T09:15:56Z</time></trkpt>
<trkpt lat="44.012737032" lon="10.091251004"><ele>1</ele><time>2020-02-23T09:15:57Z</time></trkpt>
<trkpt lat="44.012755975" lon="10.091218986"><ele>1</ele><time>2020-02-23T09:15:58Z</time></trkpt>
<trkpt lat="44.012775002" lon="10.091186967"><ele>1</ele><time>2020-02-23T09:15:59Z</time></trkpt>
<trkpt lat="44.012794029" lon="10.091155032"><ele>1</ele><time>2020-02-23T09:16:00Z</time></trkpt>
<trkpt lat="44.012812972" lon="10.091123013"><ele>4</ele><time>2020-02-23T09:16:01Z</time></trkpt>
<trkpt lat="44.012833005" lon="10.091090994"><ele>4</ele><time>2020-02-23T09:16:02Z</time></trkpt>
<trkpt lat="44.012852032" lon="10.091058975"><ele>4</ele><time>2020-02-23T09:16:03Z</time></trkpt>
<trkpt lat="44.012870975" lon="10.09102704"><ele>4</ele><time>2020-02-23T09:16:04Z</time></trkpt>
<trkpt lat="44.012890002" lon="10.090996027"><ele>4</ele><time>2020-02-23T09:16:05Z</time></trkpt>
<trkpt lat="44.012909029" lon="10.090964008"><ele>4</ele><time>2020-02-23T09:16:06Z</time></trkpt>
<trkpt lat="44.012928978" lon="10.090931989"><ele>4</ele><time>2020-02-23T09:16:07Z</time></trkpt>
<trkpt lat="44.012948005" lon="10.09089997"><ele>4</ele><time>2020-02-23T09:16:08Z</time></trkpt>
<trkpt lat="44.012967031" lon="10.090868035"><ele>4</ele><time>2020-02-23T09:16:09Z</time></trkpt>
<trkpt lat="44.012984969" lon="10.090836016"><ele>4</ele><time>2020-02-23T09:16:10Z</time></trkpt>
<trkpt lat="44.013003996" lon="10.090803998"><ele>4</ele><time>2020-02-23T09:16:11Z</time></trkpt>
<trkpt lat="44.013023023" lon="10.090771979"><ele>4</ele><time>2020-02-23T09:16:12Z</time></trkpt>
<trkpt lat="44.01304096" lon="10.09073996"><ele>4</ele><time>2020-02-23T09:16:13Z</time></trkpt>
<trkpt lat="44.013059987" lon="10.090708025"><ele>4</ele><time>2020-02-23T09:16:14Z</time></trkpt>
<trkpt lat="44.013078008" lon="10.090675"><ele>4</ele><time>2020-02-23T09:16:15Z</time></trkpt>
<trkpt lat="44.013097035" lon="10.090642981"><ele>4</ele><time>2020-02-23T09:16:16Z</time></trkpt>
<trkpt lat="44.013114972" lon="10.090610962"><ele>4</ele><time>2020-02-23T09:16:17Z</time></trkpt>
<trkpt lat="44.013132993" lon="10.090579027"><ele>4</ele><time>2020-02-23T09:16:18Z</time></trkpt>
<trkpt lat="44.01315202" lon="10.090547008"><ele>4</ele><time>2020-02-23T09:16:19Z</time></trkpt>
<trkpt lat="44.013170041" lon="10.090513984"><ele>4</ele><time>2020-02-23T09:16:20Z</time></trkpt>
<trkpt lat="44.013187978" lon="10.090481965"><ele>4</ele><time>2020-02-23T09:16:21Z</time></trkpt>
<trkpt lat="44.013206" lon="10.09045003"><ele>4</ele><time>2020-02-23T09:16:22Z</time></trkpt>
<trkpt lat="44.013224021" lon="10.090418011"><ele>4</ele><time>2020-02-23T09:16:23Z</time></trkpt>
<trkpt lat="44.013242042" lon="10.090385992"><ele>3</ele><time>2020-02-23T09:16:24Z</time></trkpt>
<trkpt lat="44.013259979" lon="10.090352967"><ele>3</ele><time>2020-02-23T09:16:25Z</time></trkpt>
<trkpt lat="44.013278" lon="10.090321032"><ele>3</ele><time>2020-02-23T09:16:26Z</time></trkpt>
<trkpt lat="44.013296021" lon="10.090289013"><ele>3</ele><time>2020-02-23T09:16:27Z</time></trkpt>
<trkpt lat="44.013313958" lon="10.090256995"><ele>3</ele><time>2020-02-23T09:16:28Z</time></trkpt>
<trkpt lat="44.01333198" lon="10.090224976"><ele>3</ele><time>2020-02-23T09:16:29Z</time></trkpt>
<trkpt lat="44.013348995" lon="10.090193041"><ele>3</ele><time>2020-02-23T09:16:30Z</time></trkpt>
<trkpt lat="44.013367016" lon="10.090161022"><ele>3</ele><time>2020-02-23T09:16:31Z</time></trkpt>
<trkpt lat="44.013385037" lon="10.090129003"><ele>3</ele><time>2020-02-23T09:16:32Z</time></trkpt>
<trkpt lat="44.013402974" lon="10.090096984"><ele>3</ele><time>2020-02-23T09:16:33Z</time></trkpt>
<trkpt lat="44.013420995" lon="10.090064965"><ele>3</ele><time>2020-02-23T09:16:34Z</time></trkpt>
<trkpt lat="44.013439016" lon="10.090034036"><ele>3</ele><time>2020-02-23T09:16:35Z</time></trkpt>
<trkpt lat="44.01345796" lon="10.090002017"><ele>3</ele><time>2020-02-23T09:16:36Z</time></trkpt>
<trkpt lat="44.013475981" lon="10.089969998"><ele>3</ele><time>2020-02-23T09:16:37Z</time></trkpt>
<trkpt lat="44.013494002" lon="10.089938985"><ele>3</ele><time>2020-02-23T09:16:38Z</time></trkpt>
<trkpt lat="44.013512023" lon="10.089906966"><ele>3</ele><time>2020-02-23T09:16:39Z</time></trkpt>
<trkpt lat="44.01352996" lon="10.089876037"><ele>2</ele><time>2020-02-23T09:16:40Z</time></trkpt>
<trkpt lat="44.013547981" lon="10.089845024"><ele>2</ele><time>2020-02-23T09:16:41Z</time></trkpt>
<trkpt lat="44.013567008" lon="10.089813005"><ele>2</ele><time>2020-02-23T09:16:42Z</time></trkpt>
<trkpt lat="44.013585029" lon="10.089781992"><ele>2</ele><time>2020-02-23T09:16:43Z</time></trkpt>
<trkpt lat="44.013603972" lon="10.089750979"><ele>2</ele><time>2020-02-23T09:16:44Z</time></trkpt>
<trkpt lat="44.013621993" lon="10.089719966"><ele>2</ele><time>2020-02-23T09:16:45Z</time></trkpt>
<trkpt lat="44.01364102" lon="10.089689037"><ele>2</ele><time>2020-02-23T09:16:46Z</time></trkpt>
<trkpt lat="44.013659041" lon="10.089657018"><ele>2</ele><time>2020-02-23T09:16:47Z</time></trkpt>
<trkpt lat="44.013677984" lon="10.089626005"><ele>2</ele><time>2020-02-23T09:16:48Z</time></trkpt>
<trkpt lat="44.013697011" lon="10.089594992"><ele>2</ele><time>2020-02-23T09:16:49Z</time></trkpt>
<trkpt lat="44.013715032" lon="10.089563979"><ele>2</ele><time>2020-02-23T09:16:50Z</time></trkpt>
<trkpt lat="44.013733976" lon="10.089532966"><ele>2</ele><time>2020-02-23T09:16:51Z</time></trkpt>
<trkpt lat="44.013753003" lon="10.089502037"><ele>2</ele><time>2020-02-23T09:16:52Z</time></trkpt>
<trkpt lat="44.013772029" lon="10.089471024"><ele>2</ele><time>2020-02-23T09:16:53Z</time></trkpt>
<trkpt lat="44.013790973" lon="10.089441016"><ele>2</ele><time>2020-02-23T09:16:54Z</time></trkpt>
<trkpt lat="44.013809999" lon="10.089410003"><ele>2</ele><time>2020-02-23T09:16:55Z</time></trkpt>
<trkpt lat="44.013830032" lon="10.08937899"><ele>2</ele><time>2020-02-23T09:16:56Z</time></trkpt>
<trkpt lat="44.013848975" lon="10.089347977"><ele>2</ele><time>2020-02-23T09:16:57Z</time></trkpt>
<trkpt lat="44.013868002" lon="10.089316964"><ele>2</ele><time>2020-02-23T09:16:58Z</time></trkpt>
<trkpt lat="44.013888035" lon="10.089286035"><ele>2</ele><time>2020-02-23T09:16:59Z</time></trkpt>
<trkpt lat="44.013906978" lon="10.089255022"><ele>2</ele><time>2020-02-23T09:17:00Z</time></trkpt>
<trkpt lat="44.013927011" lon="10.089224009"><ele>2</ele><time>2020-02-23T09:17:01Z</time></trkpt>
<trkpt lat="44.013946038" lon="10.089192996"><ele>2</ele><time>2020-02-23T09:17:02Z</time></trkpt>
<trkpt lat="44.013965987" lon="10.089161983"><ele>2</ele><time>2020-02-23T09:17:03Z</time></trkpt>
<trkpt lat="44.013986019" lon="10.08913097"><ele>2</ele><time>2020-02-23T09:17:04Z</time></trkpt>
<trkpt lat="44.014005968" lon="10.08910004"><ele>2</ele><time>2020-02-23T09:17:05Z</time></trkpt>
<trkpt lat="44.014026001" lon="10.089069027"><ele>2</ele><time>2020-02-23T09:17:06Z</time></trkpt>
<trkpt lat="44.014046034" lon="10.089038014"><ele>2</ele><time>2020-02-23T09:17:07Z</time></trkpt>
<trkpt lat="44.014065983" lon="10.089007001"><ele>2</ele><time>2020-02-23T09:17:08Z</time></trkpt>
<trkpt lat="44.014086016" lon="10.088975988"><ele>2</ele><time>2020-02-23T09:17:09Z</time></trkpt>
<trkpt lat="44.014105964" lon="10.088944975"><ele>2</ele><time>2020-02-23T09:17:10Z</time></trkpt>
<trkpt lat="44.014124991" lon="10.088913962"><ele>2</ele><time>2020-02-23T09:17:11Z</time></trkpt>
<trkpt lat="44.014145024" lon="10.088883033"><ele>2</ele><time>2020-02-23T09:17:12Z</time></trkpt>
<trkpt lat="44.014164973" lon="10.08885202"><ele>2</ele><time>2020-02-23T09:17:13Z</time></trkpt>
<trkpt lat="44.014185006" lon="10.088821007"><ele>1</ele><time>2020-02-23T09:17:14Z</time></trkpt>
<trkpt lat="44.014205039" lon="10.088789994"><ele>1</ele><time>2020-02-23T09:17:15Z</time></trkpt>
<trkpt lat="44.014224987" lon="10.088757975"><ele>1</ele><time>2020-02-23T09:17:16Z</time></trkpt>
<trkpt lat="44.01424502" lon="10.088726962"><ele>2</ele><time>2020-02-23T09:17:17Z</time></trkpt>
<trkpt lat="44.014264969" lon="10.088696033"><ele>2</ele><time>2020-02-23T09:17:18Z</time></trkpt>
<trkpt lat="44.014285002" lon="10.088664014"><ele>2</ele><time>2020-02-23T09:17:19Z</time></trkpt>
<trkpt lat="44.014304029" lon="10.088633001"><ele>2</ele><time>2020-02-23T09:17:20Z</time></trkpt>
<trkpt lat="44.014323978" lon="10.088601988"><ele>2</ele><time>2020-02-23T09:17:21Z</time></trkpt>
<trkpt lat="44.014344011" lon="10.088569969"><ele>2</ele><time>2020-02-23T09:17:22Z</time></trkpt>
<trkpt lat="44.014363037" lon="10.08853904"><ele>2</ele><time>2020-02-23T09:17:23Z</time></trkpt>
<trkpt lat="44.014381981" lon="10.088507021"><ele>2</ele><time>2020-02-23T09:17:24Z</time></trkpt>
<trkpt lat="44.014402013" lon="10.088475002"><ele>2</ele><time>2020-02-23T09:17:25Z</time></trkpt>
<trkpt lat="44.01442104" lon="10.088443989"><ele>2</ele><time>2020-02-23T09:17:26Z</time></trkpt>
<trkpt lat="44.014439983" lon="10.08841197"><ele>2</ele><time>2020-02-23T09:17:27Z</time></trkpt>
<trkpt lat="44.01445901" lon="10.088380035"><ele>2</ele><time>2020-02-23T09:17:28Z</time></trkpt>
<trkpt lat="44.014478037" lon="10.088348016"><ele>2</ele><time>2020-02-23T09:17:29Z</time></trkpt>
<trkpt lat="44.01449698" lon="10.088315997"><ele>0</ele><time>2020-02-23T09:17:30Z</time></trkpt>
<trkpt lat="44.014516007" lon="10.088283978"><ele>0</ele><time>2020-02-23T09:17:31Z</time></trkpt>
<trkpt lat="44.014535034" lon="10.088252965"><ele>0</ele><time>2020-02-23T09:17:32Z</time></trkpt>
<trkpt lat="44.014552971" lon="10.08822103"><ele>0</ele><time>2020-02-23T09:17:33Z</time></trkpt>
<trkpt lat="44.014571998" lon="10.088189011"><ele>0</ele><time>2020-02-23T09:17:34Z</time></trkpt>
<trkpt lat="44.014591025" lon="10.088156993"><ele>6</ele><time>2020-02-23T09:17:35Z</time></trkpt>
<trkpt lat="44.014608962" lon="10.088124974"><ele>6</ele><time>2020-02-23T09:17:36Z</time></trkpt>
<trkpt lat="44.014627989" lon="10.088093039"><ele>6</ele><time>2020-02-23T09:17:37Z</time></trkpt>
<trkpt lat="44.014647016" lon="10.08806102"><ele>6</ele><time>2020-02-23T09:17:38Z</time></trkpt>
<trkpt lat="44.014665037" lon="10.088029001"><ele>6</ele><time>2020-02-23T09:17:39Z</time></trkpt>
<trkpt lat="44.01468398" lon="10.087996982"><ele>6</ele><time>2020-02-23T09:17:40Z</time></trkpt>
<trkpt lat="44.014703007" lon="10.087964041"><ele>6</ele><time>2020-02-23T09:17:41Z</time></trkpt>
<trkpt lat="44.014721029" lon="10.087932022"><ele>6</ele><time>2020-02-23T09:17:42Z</time></trkpt>
<trkpt lat="44.014739972" lon="10.087900003"><ele>2</ele><time>2020-02-23T09:17:43Z</time></trkpt>
<trkpt lat="44.014758999" lon="10.087867985"><ele>2</ele><time>2020-02-23T09:17:44Z</time></trkpt>
<trkpt lat="44.01477702" lon="10.087835966"><ele>2</ele><time>2020-02-23T09:17:45Z</time></trkpt>
<trkpt lat="44.014795963" lon="10.087805036"><ele>2</ele><time>2020-02-23T09:17:46Z</time></trkpt>
<trkpt lat="44.01481499" lon="10.087773018"><ele>2</ele><time>2020-02-23T09:17:47Z</time></trkpt>
<trkpt lat="44.014834017" lon="10.087740999"><ele>2</ele><time>2020-02-23T09:17:48Z</time></trkpt>
<trkpt lat="44.01485296" lon="10.08770898"><ele>2</ele><time>2020-02-23T09:17:49Z</time></trkpt>
<trkpt lat="44.014871987" lon="10.087676961"><ele>2</ele><time>2020-02-23T09:17:50Z</time></trkpt>
<trkpt lat="44.014890008" lon="10.087645026"><ele>2</ele><time>2020-02-23T09:17:51Z</time></trkpt>
<trkpt lat="44.01491004" lon="10.087614013"><ele>2</ele><time>2020-02-23T09:17:52Z</time></trkpt>
<trkpt lat="44.014928984" lon="10.087581994"><ele>2</ele><time>2020-02-23T09:17:53Z</time></trkpt>
<trkpt lat="44.01494801" lon="10.087549975"><ele>2</ele><time>2020-02-23T09:17:54Z</time></trkpt>
<trkpt lat="44.014967037" lon="10.087518962"><ele>2</ele><time>2020-02-23T09:17:55Z</time></trkpt>
<trkpt lat="44.01498598" lon="10.087487027"><ele>2</ele><time>2020-02-23T09:17:56Z</time></trkpt>
<trkpt lat="44.015005007" lon="10.087456014"><ele>2</ele><time>2020-02-23T09:17:57Z</time></trkpt>
<trkpt lat="44.015024034" lon="10.087425001"><ele>2</ele><time>2020-02-23T09:17:58Z</time></trkpt>
<trkpt lat="44.015042977" lon="10.087393988"><ele>2</ele><time>2020-02-23T09:17:59Z</time></trkpt>
<trkpt lat="44.015060998" lon="10.087362975"><ele>2</ele><time>2020-02-23T09:18:00Z</time></trkpt>
<trkpt lat="44.015080025" lon="10.087331962"><ele>2</ele><time>2020-02-23T09:18:01Z</time></trkpt>
<trkpt lat="44.015098969" lon="10.087301033"><ele>2</ele><time>2020-02-23T09:18:02Z</time></trkpt>
<trkpt lat="44.015117995" lon="10.087271025"><ele>2</ele><time>2020-02-23T09:18:03Z</time></trkpt>
<trkpt lat="44.015136017" lon="10.087240012"><ele>2</ele><time>2020-02-23T09:18:04Z</time></trkpt>
<trkpt lat="44.01515496" lon="10.087208999"><ele>2</ele><time>2020-02-23T09:18:05Z</time></trkpt>
<trkpt lat="44.015172981" lon="10.087177986"><ele>2</ele><time>2020-02-23T09:18:06Z</time></trkpt>
<trkpt lat="44.015191002" lon="10.087146973"><ele>2</ele><time>2020-02-23T09:18:07Z</time></trkpt>
<trkpt lat="44.015210029" lon="10.08711596"><ele>2</ele><time>2020-02-23T09:18:08Z</time></trkpt>
<trkpt lat="44.015227966" lon="10.087084025"><ele>2</ele><time>2020-02-23T09:18:09Z</time></trkpt>
<trkpt lat="44.015245987" lon="10.087052006"><ele>2</ele><time>2020-02-23T09:18:10Z</time></trkpt>
<trkpt lat="44.015264008" lon="10.087018982"><ele>2</ele><time>2020-02-23T09:18:11Z</time></trkpt>
<trkpt lat="44.015281023" lon="10.086986041"><ele>2</ele><time>2020-02-23T09:18:12Z</time></trkpt>
<trkpt lat="44.015298961" lon="10.086953016"><ele>2</ele><time>2020-02-23T09:18:13Z</time></trkpt>
<trkpt lat="44.015316982" lon="10.086918985"><ele>2</ele><time>2020-02-23T09:18:14Z</time></trkpt>
<trkpt lat="44.015335003" lon="10.086885039"><ele>2</ele><time>2020-02-23T09:18:15Z</time></trkpt>
<trkpt lat="44.015352018" lon="10.086850002"><ele>2</ele><time>2020-02-23T09:18:16Z</time></trkpt>
<trkpt lat="44.015370039" lon="10.086815972"><ele>2</ele><time>2020-02-23T09:18:17Z</time></trkpt>
<trkpt lat="44.015387977" lon="10.086781019"><ele>2</ele><time>2020-02-23T09:18:18Z</time></trkpt>
<trkpt lat="44.015405998" lon="10.086746989"><ele>2</ele><time>2020-02-23T09:18:19Z</time></trkpt>
<trkpt lat="44.015424019" lon="10.086712958"><ele>2</ele><time>2020-02-23T09:18:20Z</time></trkpt>
<trkpt lat="44.01544204" lon="10.086679012"><ele>2</ele><time>2020-02-23T09:18:21Z</time></trkpt>
<trkpt lat="44.015460983" lon="10.086645987"><ele>3</ele><time>2020-02-23T09:18:22Z</time></trkpt>
<trkpt lat="44.01548001" lon="10.086612962"><ele>3</ele><time>2020-02-23T09:18:23Z</time></trkpt>
<trkpt lat="44.015499959" lon="10.086582033"><ele>3</ele><time>2020-02-23T09:18:24Z</time></trkpt>
<trkpt lat="44.015518986" lon="10.08655102"><ele>3</ele><time>2020-02-23T09:18:25Z</time></trkpt>
<trkpt lat="44.015539018" lon="10.086520007"><ele>3</ele><time>2020-02-23T09:18:26Z</time></trkpt>
<trkpt lat="44.015559973" lon="10.086491005"><ele>3</ele><time>2020-02-23T09:18:27Z</time></trkpt>
<trkpt lat="44.015581012" lon="10.086462004"><ele>3</ele><time>2020-02-23T09:18:28Z</time></trkpt>
<trkpt lat="44.015600961" lon="10.086433003"><ele>3</ele><time>2020-02-23T09:18:29Z</time></trkpt>
<trkpt lat="44.015621999" lon="10.086405007"><ele>3</ele><time>2020-02-23T09:18:30Z</time></trkpt>
<trkpt lat="44.015643038" lon="10.086378017"><ele>3</ele><time>2020-02-23T09:18:31Z</time></trkpt>
<trkpt lat="44.015663993" lon="10.086350022"><ele>3</ele><time>2020-02-23T09:18:32Z</time></trkpt>
<trkpt lat="44.015685031" lon="10.086322026"><ele>3</ele><time>2020-02-23T09:18:33Z</time></trkpt>
<trkpt lat="44.01570498" lon="10.086295037"><ele>3</ele><time>2020-02-23T09:18:34Z</time></trkpt>
<trkpt lat="44.015726019" lon="10.086267041"><ele>3</ele><time>2020-02-23T09:18:35Z</time></trkpt>
<trkpt lat="44.015745968" lon="10.086239967"><ele>2</ele><time>2020-02-23T09:18:36Z</time></trkpt>
<trkpt lat="44.015766" lon="10.086211972"><ele>2</ele><time>2020-02-23T09:18:37Z</time></trkpt>
<trkpt lat="44.015785027" lon="10.086182971"><ele>2</ele><time>2020-02-23T09:18:38Z</time></trkpt>
<trkpt lat="44.01580397" lon="10.086154975"><ele>2</ele><time>2020-02-23T09:18:39Z</time></trkpt>
<trkpt lat="44.015822997" lon="10.086125974"><ele>2</ele><time>2020-02-23T09:18:40Z</time></trkpt>
<trkpt lat="44.015842024" lon="10.086097978"><ele>2</ele><time>2020-02-23T09:18:41Z</time></trkpt>
<trkpt lat="44.015859962" lon="10.086068977"><ele>2</ele><time>2020-02-23T09:18:42Z</time></trkpt>
<trkpt lat="44.015878988" lon="10.086039975"><ele>2</ele><time>2020-02-23T09:18:43Z</time></trkpt>
<trkpt lat="44.01589701" lon="10.086010974"><ele>2</ele><time>2020-02-23T09:18:44Z</time></trkpt>
<trkpt lat="44.015916036" lon="10.085981973"><ele>2</ele><time>2020-02-23T09:18:45Z</time></trkpt>
<trkpt lat="44.015933974" lon="10.085952971"><ele>2</ele><time>2020-02-23T09:18:46Z</time></trkpt>
<trkpt lat="44.015953001" lon="10.085922964"><ele>2</ele><time>2020-02-23T09:18:47Z</time></trkpt>
<trkpt lat="44.015972028" lon="10.085893963"><ele>2</ele><time>2020-02-23T09:18:48Z</time></trkpt>
<trkpt lat="44.015990971" lon="10.085865967"><ele>2</ele><time>2020-02-23T09:18:49Z</time></trkpt>
<trkpt lat="44.016009998" lon="10.085836966"><ele>2</ele><time>2020-02-23T09:18:50Z</time></trkpt>
<trkpt lat="44.01603003" lon="10.085807964"><ele>2</ele><time>2020-02-23T09:18:51Z</time></trkpt>
<trkpt lat="44.016049979" lon="10.085778963"><ele>2</ele><time>2020-02-23T09:18:52Z</time></trkpt>
<trkpt lat="44.016069006" lon="10.085749961"><ele>2</ele><time>2020-02-23T09:18:53Z</time></trkpt>
<trkpt lat="44.016089039" lon="10.085721966"><ele>2</ele><time>2020-02-23T09:18:54Z</time></trkpt>
<trkpt lat="44.016107982" lon="10.085692964"><ele>2</ele><time>2020-02-23T09:18:55Z</time></trkpt>
<trkpt lat="44.016128015" lon="10.085663041"><ele>2</ele><time>2020-02-23T09:18:56Z</time></trkpt>
<trkpt lat="44.016147042" lon="10.08563404"><ele>2</ele><time>2020-02-23T09:18:57Z</time></trkpt>
<trkpt lat="44.016165985" lon="10.085604033"><ele>2</ele><time>2020-02-23T09:18:58Z</time></trkpt>
<trkpt lat="44.016185012" lon="10.085574025"><ele>2</ele><time>2020-02-23T09:18:59Z</time></trkpt>
<trkpt lat="44.016203033" lon="10.085544018"><ele>2</ele><time>2020-02-23T09:19:00Z</time></trkpt>
<trkpt lat="44.016219964" lon="10.085513005"><ele>2</ele><time>2020-02-23T09:19:01Z</time></trkpt>
<trkpt lat="44.016237985" lon="10.085481992"><ele>2</ele><time>2020-02-23T09:19:02Z</time></trkpt>
<trkpt lat="44.016255001" lon="10.085452991"><ele>4</ele><time>2020-02-23T09:19:03Z</time></trkpt>
<trkpt lat="44.016272016" lon="10.085424995"><ele>4</ele><time>2020-02-23T09:19:04Z</time></trkpt>
<trkpt lat="44.016290037" lon="10.085402029"><ele>5</ele><time>2020-02-23T09:19:05Z</time></trkpt>
<trkpt lat="44.016309986" lon="10.085383002"><ele>5</ele><time>2020-02-23T09:19:06Z</time></trkpt>
<trkpt lat="44.016331024" lon="10.085372021"><ele>5</ele><time>2020-02-23T09:19:07Z</time></trkpt>
<trkpt lat="44.016353991" lon="10.085369004"><ele>5</ele><time>2020-02-23T09:19:08Z</time></trkpt>
<trkpt lat="44.016377963" lon="10.085373027"><ele>5</ele><time>2020-02-23T09:19:09Z</time></trkpt>
<trkpt lat="44.016404031" lon="10.085383002"><ele>5</ele><time>2020-02-23T09:19:10Z</time></trkpt>
<trkpt lat="44.016430015" lon="10.085399011"><ele>5</ele><time>2020-02-23T09:19:11Z</time></trkpt>
<trkpt lat="44.016455999" lon="10.085418038"><ele>4</ele><time>2020-02-23T09:19:12Z</time></trkpt>
<trkpt lat="44.016481983" lon="10.085441004"><ele>4</ele><time>2020-02-23T09:19:13Z</time></trkpt>
<trkpt lat="44.016506961" lon="10.085465983"><ele>4</ele><time>2020-02-23T09:19:14Z</time></trkpt>
<trkpt lat="44.016531017" lon="10.085492972"><ele>4</ele><time>2020-02-23T09:19:15Z</time></trkpt>
<trkpt lat="44.016553983" lon="10.085520968"><ele>4</ele><time>2020-02-23T09:19:16Z</time></trkpt>
<trkpt lat="44.016577033" lon="10.085549969"><ele>4</ele><time>2020-02-23T09:19:17Z</time></trkpt>
<trkpt lat="44.0166" lon="10.085577965"><ele>4</ele><time>2020-02-23T09:19:18Z</time></trkpt>
<trkpt lat="44.01662196" lon="10.085606966"><ele>4</ele><time>2020-02-23T09:19:19Z</time></trkpt>
<trkpt lat="44.016644005" lon="10.08563404"><ele>4</ele><time>2020-02-23T09:19:20Z</time></trkpt>
<trkpt lat="44.016665965" lon="10.085661029"><ele>4</ele><time>2020-02-23T09:19:21Z</time></trkpt>
<trkpt lat="44.016687004" lon="10.085688019"><ele>4</ele><time>2020-02-23T09:19:22Z</time></trkpt>
<trkpt lat="44.016708964" lon="10.085712997"><ele>4</ele><time>2020-02-23T09:19:23Z</time></trkpt>
<trkpt lat="44.016731009" lon="10.085738981"><ele>4</ele><time>2020-02-23T09:19:24Z</time></trkpt>
<trkpt lat="44.016751964" lon="10.085764965"><ele>4</ele><time>2020-02-23T09:19:25Z</time></trkpt>
<trkpt lat="44.016774008" lon="10.085790027"><ele>4</ele><time>2020-02-23T09:19:26Z</time></trkpt>
<trkpt lat="44.016795969" lon="10.085816011"><ele>4</ele><time>2020-02-23T09:19:27Z</time></trkpt>
<trkpt lat="44.016818013" lon="10.085841995"><ele>4</ele><time>2020-02-23T09:19:28Z</time></trkpt>
<trkpt lat="44.016839974" lon="10.085867979"><ele>4</ele><time>2020-02-23T09:19:29Z</time></trkpt>
<trkpt lat="44.016862018" lon="10.085893963"><ele>4</ele><time>2020-02-23T09:19:30Z</time></trkpt>
<trkpt lat="44.016883979" lon="10.08592003"><ele>4</ele><time>2020-02-23T09:19:31Z</time></trkpt>
<trkpt lat="44.016906023" lon="10.08594702"><ele>4</ele><time>2020-02-23T09:19:32Z</time></trkpt>
<trkpt lat="44.016927984" lon="10.085973004"><ele>4</ele><time>2020-02-23T09:19:33Z</time></trkpt>
<trkpt lat="44.016951034" lon="10.085999994"><ele>4</ele><time>2020-02-23T09:19:34Z</time></trkpt>
<trkpt lat="44.016972994" lon="10.086026983"><ele>4</ele><time>2020-02-23T09:19:35Z</time></trkpt>
<trkpt lat="44.016995039" lon="10.086053973"><ele>4</ele><time>2020-02-23T09:19:36Z</time></trkpt>
<trkpt lat="44.017016999" lon="10.086080963"><ele>4</ele><time>2020-02-23T09:19:37Z</time></trkpt>
<trkpt lat="44.01703896" lon="10.086108036"><ele>4</ele><time>2020-02-23T09:19:38Z</time></trkpt>
<trkpt lat="44.017061004" lon="10.086135026"><ele>4</ele><time>2020-02-23T09:19:39Z</time></trkpt>
<trkpt lat="44.017082965" lon="10.086162016"><ele>4</ele><time>2020-02-23T09:19:40Z</time></trkpt>
<trkpt lat="44.017105009" lon="10.086190011"><ele>4</ele><time>2020-02-23T09:19:41Z</time></trkpt>
<trkpt lat="44.01712697" lon="10.086217001"><ele>4</ele><time>2020-02-23T09:19:42Z</time></trkpt>
<trkpt lat="44.017149014" lon="10.086244997"><ele>4</ele><time>2020-02-23T09:19:43Z</time></trkpt>
<trkpt lat="44.017170975" lon="10.086272992"><ele>4</ele><time>2020-02-23T09:19:44Z</time></trkpt>
<trkpt lat="44.017193019" lon="10.086299982"><ele>4</ele><time>2020-02-23T09:19:45Z</time></trkpt>
<trkpt lat="44.01721498" lon="10.086326972"><ele>4</ele><time>2020-02-23T09:19:46Z</time></trkpt>
<trkpt lat="44.017237024" lon="10.086354967"><ele>4</ele><time>2020-02-23T09:19:47Z</time></trkpt>
<trkpt lat="44.01730299" lon="10.08643602"><ele>4</ele><time>2020-02-23T09:19:50Z</time></trkpt>
<trkpt lat="44.017325034" lon="10.08646301"><ele>4</ele><time>2020-02-23T09:19:51Z</time></trkpt>
<trkpt lat="44.017346995" lon="10.086488994"><ele>4</ele><time>2020-02-23T09:19:52Z</time></trkpt>
<trkpt lat="44.017369039" lon="10.086514978"><ele>4</ele><time>2020-02-23T09:19:53Z</time></trkpt>
<trkpt lat="44.017392006" lon="10.086540962"><ele>4</ele><time>2020-02-23T09:19:54Z</time></trkpt>
<trkpt lat="44.017413966" lon="10.086568035"><ele>4</ele><time>2020-02-23T09:19:55Z</time></trkpt>
<trkpt lat="44.017436011" lon="10.086594019"><ele>4</ele><time>2020-02-23T09:19:56Z</time></trkpt>
<trkpt lat="44.017457971" lon="10.086618997"><ele>4</ele><time>2020-02-23T09:19:57Z</time></trkpt>
<trkpt lat="44.017480016" lon="10.086644981"><ele>4</ele><time>2020-02-23T09:19:58Z</time></trkpt>
<trkpt lat="44.017501976" lon="10.086670965"><ele>4</ele><time>2020-02-23T09:19:59Z</time></trkpt>
<trkpt lat="44.017524021" lon="10.086697033"><ele>4</ele><time>2020-02-23T09:20:00Z</time></trkpt>
<trkpt lat="44.017545981" lon="10.086723017"><ele>4</ele><time>2020-02-23T09:20:01Z</time></trkpt>
<trkpt lat="44.017568026" lon="10.086749"><ele>4</ele><time>2020-02-23T09:20:02Z</time></trkpt>
<trkpt lat="44.017589986" lon="10.086774984"><ele>4</ele><time>2020-02-23T09:20:03Z</time></trkpt>
<trkpt lat="44.017613037" lon="10.086800968"><ele>4</ele><time>2020-02-23T09:20:04Z</time></trkpt>
<trkpt lat="44.017634997" lon="10.086827036"><ele>4</ele><time>2020-02-23T09:20:05Z</time></trkpt>
<trkpt lat="44.017657042" lon="10.086852014"><ele>4</ele><time>2020-02-23T09:20:06Z</time></trkpt>
<trkpt lat="44.017679002" lon="10.086876992"><ele>4</ele><time>2020-02-23T09:20:07Z</time></trkpt>
<trkpt lat="44.017700963" lon="10.08690197"><ele>4</ele><time>2020-02-23T09:20:08Z</time></trkpt>
<trkpt lat="44.017724013" lon="10.08692502"><ele>4</ele><time>2020-02-23T09:20:09Z</time></trkpt>
<trkpt lat="44.017745974" lon="10.086947987"><ele>4</ele><time>2020-02-23T09:20:10Z</time></trkpt>
<trkpt lat="44.017769024" lon="10.086969025"><ele>4</ele><time>2020-02-23T09:20:11Z</time></trkpt>
<trkpt lat="44.01779199" lon="10.08698998"><ele>4</ele><time>2020-02-23T09:20:12Z</time></trkpt>
<trkpt lat="44.017815962" lon="10.087009007"><ele>4</ele><time>2020-02-23T09:20:13Z</time></trkpt>
<trkpt lat="44.017839013" lon="10.087026022"><ele>4</ele><time>2020-02-23T09:20:14Z</time></trkpt>
<trkpt lat="44.017863991" lon="10.087042032"><ele>4</ele><time>2020-02-23T09:20:15Z</time></trkpt>
<trkpt lat="44.017887963" lon="10.087053012"><ele>4</ele><time>2020-02-23T09:20:16Z</time></trkpt>
<trkpt lat="44.017913025" lon="10.087058041"><ele>4</ele><time>2020-02-23T09:20:17Z</time></trkpt>
<trkpt lat="44.017938003" lon="10.087053012"><ele>4</ele><time>2020-02-23T09:20:18Z</time></trkpt>
<trkpt lat="44.017962981" lon="10.087037003"><ele>4</ele><time>2020-02-23T09:20:19Z</time></trkpt>
<trkpt lat="44.017987959" lon="10.087012025"><ele>4</ele><time>2020-02-23T09:20:20Z</time></trkpt>
<trkpt lat="44.018012015" lon="10.086982017"><ele>4</ele><time>2020-02-23T09:20:21Z</time></trkpt>
<trkpt lat="44.018033976" lon="10.086951004"><ele>4</ele><time>2020-02-23T09:20:22Z</time></trkpt>
<trkpt lat="44.018054008" lon="10.08691798"><ele>4</ele><time>2020-02-23T09:20:23Z</time></trkpt>
<trkpt lat="44.018073035" lon="10.086884033"><ele>4</ele><time>2020-02-23T09:20:24Z</time></trkpt>
<trkpt lat="44.018090973" lon="10.086848997"><ele>4</ele><time>2020-02-23T09:20:25Z</time></trkpt>
<trkpt lat="44.018108994" lon="10.08681396"><ele>4</ele><time>2020-02-23T09:20:26Z</time></trkpt>
<trkpt lat="44.018126009" lon="10.086779008"><ele>3</ele><time>2020-02-23T09:20:27Z</time></trkpt>
<trkpt lat="44.01814403" lon="10.086743971"><ele>3</ele><time>2020-02-23T09:20:28Z</time></trkpt>
<trkpt lat="44.018161967" lon="10.086710025"><ele>3</ele><time>2020-02-23T09:20:29Z</time></trkpt>
<trkpt lat="44.018179988" lon="10.086674988"><ele>3</ele><time>2020-02-23T09:20:30Z</time></trkpt>
<trkpt lat="44.018199015" lon="10.086641964"><ele>3</ele><time>2020-02-23T09:20:31Z</time></trkpt>
<trkpt lat="44.018217037" lon="10.086608017"><ele>3</ele><time>2020-02-23T09:20:32Z</time></trkpt>
<trkpt lat="44.01823598" lon="10.086574992"><ele>3</ele><time>2020-02-23T09:20:33Z</time></trkpt>
<trkpt lat="44.018255007" lon="10.086541967"><ele>3</ele><time>2020-02-23T09:20:34Z</time></trkpt>
<trkpt lat="44.018274033" lon="10.086509027"><ele>3</ele><time>2020-02-23T09:20:35Z</time></trkpt>
<trkpt lat="44.018292977" lon="10.086477008"><ele>3</ele><time>2020-02-23T09:20:36Z</time></trkpt>
<trkpt lat="44.018312003" lon="10.086444989"><ele>3</ele><time>2020-02-23T09:20:37Z</time></trkpt>
<trkpt lat="44.018332036" lon="10.08641297"><ele>3</ele><time>2020-02-23T09:20:38Z</time></trkpt>
<trkpt lat="44.018350979" lon="10.086381035"><ele>3</ele><time>2020-02-23T09:20:39Z</time></trkpt>
<trkpt lat="44.018370006" lon="10.086350022"><ele>3</ele><time>2020-02-23T09:20:40Z</time></trkpt>
<trkpt lat="44.018390039" lon="10.086319009"><ele>3</ele><time>2020-02-23T09:20:41Z</time></trkpt>
<trkpt lat="44.018408982" lon="10.086287996"><ele>3</ele><time>2020-02-23T09:20:42Z</time></trkpt>
<trkpt lat="44.018428009" lon="10.086256983"><ele>3</ele><time>2020-02-23T09:20:43Z</time></trkpt>
<trkpt lat="44.018447036" lon="10.086224964"><ele>3</ele><time>2020-02-23T09:20:44Z</time></trkpt>
<trkpt lat="44.018465979" lon="10.086194035"><ele>3</ele><time>2020-02-23T09:20:45Z</time></trkpt>
<trkpt lat="44.018485006" lon="10.086163022"><ele>3</ele><time>2020-02-23T09:20:46Z</time></trkpt>
<trkpt lat="44.018503027" lon="10.086131003"><ele>3</ele><time>2020-02-23T09:20:47Z</time></trkpt>
<trkpt lat="44.01852197" lon="10.086098984"><ele>3</ele><time>2020-02-23T09:20:48Z</time></trkpt>
<trkpt lat="44.018539991" lon="10.086066965"><ele>3</ele><time>2020-02-23T09:20:49Z</time></trkpt>
<trkpt lat="44.018557006" lon="10.08603503"><ele>3</ele><time>2020-02-23T09:20:50Z</time></trkpt>
<trkpt lat="44.018575028" lon="10.086000999"><ele>3</ele><time>2020-02-23T09:20:51Z</time></trkpt>
<trkpt lat="44.018591959" lon="10.085967975"><ele>3</ele><time>2020-02-23T09:20:52Z</time></trkpt>
<trkpt lat="44.018608974" lon="10.085934028"><ele>3</ele><time>2020-02-23T09:20:53Z</time></trkpt>
<trkpt lat="44.018624984" lon="10.085898992"><ele>3</ele><time>2020-02-23T09:20:54Z</time></trkpt>
<trkpt lat="44.018640993" lon="10.085864039"><ele>3</ele><time>2020-02-23T09:20:55Z</time></trkpt>
<trkpt lat="44.018689021" lon="10.085758008"><ele>3</ele><time>2020-02-23T09:20:58Z</time></trkpt>
<trkpt lat="44.018705031" lon="10.085722972"><ele>3</ele><time>2020-02-23T09:20:59Z</time></trkpt>
<trkpt lat="44.01872104" lon="10.085687013"><ele>3</ele><time>2020-02-23T09:21:00Z</time></trkpt>
<trkpt lat="44.01873596" lon="10.085651977"><ele>3</ele><time>2020-02-23T09:21:01Z</time></trkpt>
<trkpt lat="44.01875197" lon="10.085616019"><ele>3</ele><time>2020-02-23T09:21:02Z</time></trkpt>
<trkpt lat="44.018767979" lon="10.085580982"><ele>3</ele><time>2020-02-23T09:21:03Z</time></trkpt>
<trkpt lat="44.018784994" lon="10.08554603"><ele>3</ele><time>2020-02-23T09:21:04Z</time></trkpt>
<trkpt lat="44.018801004" lon="10.085511999"><ele>3</ele><time>2020-02-23T09:21:05Z</time></trkpt>
<trkpt lat="44.018818019" lon="10.085476963"><ele>3</ele><time>2020-02-23T09:21:06Z</time></trkpt>
<trkpt lat="44.018834028" lon="10.085443016"><ele>3</ele><time>2020-02-23T09:21:07Z</time></trkpt>
<trkpt lat="44.01885096" lon="10.085408986"><ele>3</ele><time>2020-02-23T09:21:08Z</time></trkpt>
<trkpt lat="44.018867975" lon="10.085375039"><ele>3</ele><time>2020-02-23T09:21:09Z</time></trkpt>
<trkpt lat="44.01888499" lon="10.085342014"><ele>3</ele><time>2020-02-23T09:21:10Z</time></trkpt>
<trkpt lat="44.018902006" lon="10.085307984"><ele>3</ele><time>2020-02-23T09:21:11Z</time></trkpt>
<trkpt lat="44.018920027" lon="10.085274959"><ele>3</ele><time>2020-02-23T09:21:12Z</time></trkpt>
<trkpt lat="44.018936958" lon="10.085242018"><ele>3</ele><time>2020-02-23T09:21:13Z</time></trkpt>
<trkpt lat="44.018953973" lon="10.085207988"><ele>3</ele><time>2020-02-23T09:21:14Z</time></trkpt>
<trkpt lat="44.018970989" lon="10.085174963"><ele>3</ele><time>2020-02-23T09:21:15Z</time></trkpt>
<trkpt lat="44.01898901" lon="10.085142022"><ele>3</ele><time>2020-02-23T09:21:16Z</time></trkpt>
<trkpt lat="44.019006025" lon="10.085108997"><ele>3</ele><time>2020-02-23T09:21:17Z</time></trkpt>
<trkpt lat="44.01902304" lon="10.085075973"><ele>3</ele><time>2020-02-23T09:21:18Z</time></trkpt>
<trkpt lat="44.019039972" lon="10.085044038"><ele>3</ele><time>2020-02-23T09:21:19Z</time></trkpt>
<trkpt lat="44.019056987" lon="10.085011013"><ele>3</ele><time>2020-02-23T09:21:20Z</time></trkpt>
<trkpt lat="44.019074002" lon="10.084977988"><ele>3</ele><time>2020-02-23T09:21:21Z</time></trkpt>
<trkpt lat="44.019091018" lon="10.084944963"><ele>3</ele><time>2020-02-23T09:21:22Z</time></trkpt>
<trkpt lat="44.019108033" lon="10.084912023"><ele>3</ele><time>2020-02-23T09:21:23Z</time></trkpt>
<trkpt lat="44.019124964" lon="10.084877992"><ele>3</ele><time>2020-02-23T09:21:24Z</time></trkpt>
<trkpt lat="44.019140974" lon="10.084844967"><ele>3</ele><time>2020-02-23T09:21:25Z</time></trkpt>
<trkpt lat="44.019157989" lon="10.084812026"><ele>3</ele><time>2020-02-23T09:21:26Z</time></trkpt>
<trkpt lat="44.019173998" lon="10.084777996"><ele>3</ele><time>2020-02-23T09:21:27Z</time></trkpt>
<trkpt lat="44.019190008" lon="10.084744971"><ele>3</ele><time>2020-02-23T09:21:28Z</time></trkpt>
<trkpt lat="44.019206017" lon="10.084711025"><ele>3</ele><time>2020-02-23T09:21:29Z</time></trkpt>
<trkpt lat="44.019221021" lon="10.084676994"><ele>3</ele><time>2020-02-23T09:21:30Z</time></trkpt>
<trkpt lat="44.01923703" lon="10.084642963"><ele>3</ele><time>2020-02-23T09:21:31Z</time></trkpt>
<trkpt lat="44.01925304" lon="10.084609017"><ele>3</ele><time>2020-02-23T09:21:32Z</time></trkpt>
<trkpt lat="44.01926796" lon="10.084574986"><ele>3</ele><time>2020-02-23T09:21:33Z</time></trkpt>
<trkpt lat="44.019284975" lon="10.084541962"><ele>3</ele><time>2020-02-23T09:21:34Z</time></trkpt>
<trkpt lat="44.019300984" lon="10.084508015"><ele>3</ele><time>2020-02-23T09:21:35Z</time></trkpt>
<trkpt lat="44.019317999" lon="10.08447499"><ele>3</ele><time>2020-02-23T09:21:36Z</time></trkpt>
<trkpt lat="44.019335015" lon="10.084442971"><ele>3</ele><time>2020-02-23T09:21:37Z</time></trkpt>
<trkpt lat="44.019353036" lon="10.08441003"><ele>3</ele><time>2020-02-23T09:21:38Z</time></trkpt>
<trkpt lat="44.019371979" lon="10.084378012"><ele>2</ele><time>2020-02-23T09:21:39Z</time></trkpt>
<trkpt lat="44.019392012" lon="10.084346998"><ele>2</ele><time>2020-02-23T09:21:40Z</time></trkpt>
<trkpt lat="44.019411961" lon="10.084316991"><ele>2</ele><time>2020-02-23T09:21:41Z</time></trkpt>
<trkpt lat="44.019431993" lon="10.084285978"><ele>2</ele><time>2020-02-23T09:21:42Z</time></trkpt>
<trkpt lat="44.019450014" lon="10.084256977"><ele>2</ele><time>2020-02-23T09:21:43Z</time></trkpt>
<trkpt lat="44.019465018" lon="10.08422697"><ele>2</ele><time>2020-02-23T09:21:44Z</time></trkpt>
<trkpt lat="44.019475998" lon="10.084196962"><ele>2</ele><time>2020-02-23T09:21:45Z</time></trkpt>
<trkpt lat="44.019482033" lon="10.084167961"><ele>2</ele><time>2020-02-23T09:21:46Z</time></trkpt>
<trkpt lat="44.019482033" lon="10.084138038"><ele>2</ele><time>2020-02-23T09:21:47Z</time></trkpt>
<trkpt lat="44.019475998" lon="10.08410803"><ele>2</ele><time>2020-02-23T09:21:48Z</time></trkpt>
<trkpt lat="44.019465018" lon="10.084079029"><ele>2</ele><time>2020-02-23T09:21:49Z</time></trkpt>
<trkpt lat="44.019429982" lon="10.084022032"><ele>2</ele><time>2020-02-23T09:21:51Z</time></trkpt>
<trkpt lat="44.019409027" lon="10.083995964"><ele>2</ele><time>2020-02-23T09:21:52Z</time></trkpt>
<trkpt lat="44.019384971" lon="10.08396998"><ele>2</ele><time>2020-02-23T09:21:53Z</time></trkpt>
<trkpt lat="44.019358987" lon="10.083947014"><ele>2</ele><time>2020-02-23T09:21:54Z</time></trkpt>
<trkpt lat="44.019331997" lon="10.083923042"><ele>2</ele><time>2020-02-23T09:21:55Z</time></trkpt>
<trkpt lat="44.019305008" lon="10.083900997"><ele>2</ele><time>2020-02-23T09:21:56Z</time></trkpt>
<trkpt lat="44.019277012" lon="10.083878031"><ele>2</ele><time>2020-02-23T09:21:57Z</time></trkpt>
<trkpt lat="44.019248011" lon="10.083854981"><ele>2</ele><time>2020-02-23T09:21:58Z</time></trkpt>
<trkpt lat="44.019220015" lon="10.083831009"><ele>1</ele><time>2020-02-23T09:21:59Z</time></trkpt>
<trkpt lat="44.019193025" lon="10.08380603"><ele>1</ele><time>2020-02-23T09:22:00Z</time></trkpt>
<trkpt lat="44.019166036" lon="10.083779963"><ele>1</ele><time>2020-02-23T09:22:01Z</time></trkpt>
<trkpt lat="44.019139968" lon="10.083753979"><ele>1</ele><time>2020-02-23T09:22:02Z</time></trkpt>
<trkpt lat="44.01911499" lon="10.083727995"><ele>1</ele><time>2020-02-23T09:22:03Z</time></trkpt>
<trkpt lat="44.019089006" lon="10.083701005"><ele>1</ele><time>2020-02-23T09:22:04Z</time></trkpt>
<trkpt lat="44.019064028" lon="10.083675021"><ele>1</ele><time>2020-02-23T09:22:05Z</time></trkpt>
<trkpt lat="44.019038966" lon="10.083649959"><ele>1</ele><time>2020-02-23T09:22:06Z</time></trkpt>
<trkpt lat="44.019013988" lon="10.083624981"><ele>1</ele><time>2020-02-23T09:22:07Z</time></trkpt>
<trkpt lat="44.01898901" lon="10.083601009"><ele>1</ele><time>2020-02-23T09:22:08Z</time></trkpt>
<trkpt lat="44.018965038" lon="10.083577037"><ele>1</ele><time>2020-02-23T09:22:09Z</time></trkpt>
<trkpt lat="44.018939976" lon="10.083552981"><ele>1</ele><time>2020-02-23T09:22:10Z</time></trkpt>
<trkpt lat="44.018914998" lon="10.083530014"><ele>1</ele><time>2020-02-23T09:22:11Z</time></trkpt>
<trkpt lat="44.018891025" lon="10.083506964"><ele>1</ele><time>2020-02-23T09:22:12Z</time></trkpt>
<trkpt lat="44.018866969" lon="10.083483998"><ele>1</ele><time>2020-02-23T09:22:13Z</time></trkpt>
<trkpt lat="44.018841991" lon="10.083461031"><ele>1</ele><time>2020-02-23T09:22:14Z</time></trkpt>
<trkpt lat="44.018818019" lon="10.083437981"><ele>1</ele><time>2020-02-23T09:22:15Z</time></trkpt>
<trkpt lat="44.018793963" lon="10.083415015"><ele>1</ele><time>2020-02-23T09:22:16Z</time></trkpt>
<trkpt lat="44.018769991" lon="10.083390959"><ele>1</ele><time>2020-02-23T09:22:17Z</time></trkpt>
<trkpt lat="44.018745013" lon="10.083367992"><ele>1</ele><time>2020-02-23T09:22:18Z</time></trkpt>
<trkpt lat="44.018673012" lon="10.083295992"><ele>1</ele><time>2020-02-23T09:22:21Z</time></trkpt>
<trkpt lat="44.018648034" lon="10.083272019"><ele>1</ele><time>2020-02-23T09:22:22Z</time></trkpt>
<trkpt lat="44.018623978" lon="10.083247963"><ele>1</ele><time>2020-02-23T09:22:23Z</time></trkpt>
<trkpt lat="44.018600006" lon="10.083223991"><ele>1</ele><time>2020-02-23T09:22:24Z</time></trkpt>
<trkpt lat="44.018576033" lon="10.083200019"><ele>1</ele><time>2020-02-23T09:22:25Z</time></trkpt>
<trkpt lat="44.018550972" lon="10.083175963"><ele>1</ele><time>2020-02-23T09:22:26Z</time></trkpt>
<trkpt lat="44.018526999" lon="10.083151991"><ele>1</ele><time>2020-02-23T09:22:27Z</time></trkpt>
<trkpt lat="44.018503027" lon="10.083129024"><ele>1</ele><time>2020-02-23T09:22:28Z</time></trkpt>
<trkpt lat="44.018478971" lon="10.083105974"><ele>1</ele><time>2020-02-23T09:22:29Z</time></trkpt>
<trkpt lat="44.018453993" lon="10.083083007"><ele>1</ele><time>2020-02-23T09:22:30Z</time></trkpt>
<trkpt lat="44.018430021" lon="10.083060963"><ele>1</ele><time>2020-02-23T09:22:31Z</time></trkpt>
<trkpt lat="44.018405965" lon="10.083039002"><ele>1</ele><time>2020-02-23T09:22:32Z</time></trkpt>
<trkpt lat="44.018380987" lon="10.083017042"><ele>1</ele><time>2020-02-23T09:22:33Z</time></trkpt>
<trkpt lat="44.018357014" lon="10.082994998"><ele>1</ele><time>2020-02-23T09:22:34Z</time></trkpt>
<trkpt lat="44.018332958" lon="10.082973037"><ele>2</ele><time>2020-02-23T09:22:35Z</time></trkpt>
<trkpt lat="44.01830798" lon="10.082950993"><ele>2</ele><time>2020-02-23T09:22:36Z</time></trkpt>
<trkpt lat="44.018284008" lon="10.082929032"><ele>2</ele><time>2020-02-23T09:22:37Z</time></trkpt>
<trkpt lat="44.018260036" lon="10.082906988"><ele>0</ele><time>2020-02-23T09:22:38Z</time></trkpt>
<trkpt lat="44.018234974" lon="10.082884021"><ele>0</ele><time>2020-02-23T09:22:39Z</time></trkpt>
<trkpt lat="44.018209996" lon="10.082860971"><ele>0</ele><time>2020-02-23T09:22:40Z</time></trkpt>
<trkpt lat="44.018186023" lon="10.082836999"><ele>0</ele><time>2020-02-23T09:22:41Z</time></trkpt>
<trkpt lat="44.018160962" lon="10.082813026"><ele>0</ele><time>2020-02-23T09:22:42Z</time></trkpt>
<trkpt lat="44.018135983" lon="10.08278897"><ele>0</ele><time>2020-02-23T09:22:43Z</time></trkpt>
<trkpt lat="44.018112011" lon="10.082764998"><ele>0</ele><time>2020-02-23T09:22:44Z</time></trkpt>
<trkpt lat="44.018087033" lon="10.082741026"><ele>0</ele><time>2020-02-23T09:22:45Z</time></trkpt>
<trkpt lat="44.018062977" lon="10.08271697"><ele>0</ele><time>2020-02-23T09:22:46Z</time></trkpt>
<trkpt lat="44.018037999" lon="10.082695009"><ele>0</ele><time>2020-02-23T09:22:47Z</time></trkpt>
<trkpt lat="44.018014027" lon="10.082672965"><ele>0</ele><time>2020-02-23T09:22:48Z</time></trkpt>
<trkpt lat="44.017989971" lon="10.082653016"><ele>0</ele><time>2020-02-23T09:22:49Z</time></trkpt>
<trkpt lat="44.017967004" lon="10.082633989"><ele>0</ele><time>2020-02-23T09:22:50Z</time></trkpt>
<trkpt lat="44.017945966" lon="10.08261404"><ele>0</ele><time>2020-02-23T09:22:51Z</time></trkpt>
<trkpt lat="44.017928028" lon="10.082593001"><ele>0</ele><time>2020-02-23T09:22:52Z</time></trkpt>
<trkpt lat="44.017912019" lon="10.082570035"><ele>0</ele><time>2020-02-23T09:22:53Z</time></trkpt>
<trkpt lat="44.017900033" lon="10.082543967"><ele>0</ele><time>2020-02-23T09:22:54Z</time></trkpt>
<trkpt lat="44.017892992" lon="10.082514966"><ele>0</ele><time>2020-02-23T09:22:55Z</time></trkpt>
<trkpt lat="44.017891986" lon="10.082482025"><ele>0</ele><time>2020-02-23T09:22:56Z</time></trkpt>
<trkpt lat="44.01793398" lon="10.082377"><ele>0</ele><time>2020-02-23T09:22:59Z</time></trkpt>
<trkpt lat="44.017958036" lon="10.082341963"><ele>0</ele><time>2020-02-23T09:23:00Z</time></trkpt>
<trkpt lat="44.017982008" lon="10.082306005"><ele>0</ele><time>2020-02-23T09:23:01Z</time></trkpt>
<trkpt lat="44.01800598" lon="10.082271975"><ele>0</ele><time>2020-02-23T09:23:02Z</time></trkpt>
<trkpt lat="44.018030958" lon="10.082238028"><ele>0</ele><time>2020-02-23T09:23:03Z</time></trkpt>
<trkpt lat="44.018054008" lon="10.082203997"><ele>0</ele><time>2020-02-23T09:23:04Z</time></trkpt>
<trkpt lat="44.018077981" lon="10.082169967"><ele>0</ele><time>2020-02-23T09:23:05Z</time></trkpt>
<trkpt lat="44.018100025" lon="10.082137026"><ele>0</ele><time>2020-02-23T09:23:06Z</time></trkpt>
<trkpt lat="44.018121986" lon="10.082104001"><ele>0</ele><time>2020-02-23T09:23:07Z</time></trkpt>
<trkpt lat="44.018143024" lon="10.082070976"><ele>0</ele><time>2020-02-23T09:23:08Z</time></trkpt>
<trkpt lat="44.018162973" lon="10.082039041"><ele>0</ele><time>2020-02-23T09:23:09Z</time></trkpt>
<trkpt lat="44.018183006" lon="10.082006017"><ele>0</ele><time>2020-02-23T09:23:10Z</time></trkpt>
<trkpt lat="44.018203039" lon="10.081973998"><ele>0</ele><time>2020-02-23T09:23:11Z</time></trkpt>
<trkpt lat="44.018220976" lon="10.081941979"><ele>0</ele><time>2020-02-23T09:23:12Z</time></trkpt>
<trkpt lat="44.018240003" lon="10.08190996"><ele>0</ele><time>2020-02-23T09:23:13Z</time></trkpt>
<trkpt lat="44.018258024" lon="10.081879031"><ele>0</ele><time>2020-02-23T09:23:14Z</time></trkpt>
<trkpt lat="44.018276967" lon="10.081847012"><ele>0</ele><time>2020-02-23T09:23:15Z</time></trkpt>
<trkpt lat="44.018294988" lon="10.081815999"><ele>0</ele><time>2020-02-23T09:23:16Z</time></trkpt>
<trkpt lat="44.018313009" lon="10.081784986"><ele>0</ele><time>2020-02-23T09:23:17Z</time></trkpt>
<trkpt lat="44.01833103" lon="10.081754979"><ele>0</ele><time>2020-02-23T09:23:18Z</time></trkpt>
<trkpt lat="44.018349973" lon="10.081724972"><ele>0</ele><time>2020-02-23T09:23:19Z</time></trkpt>
<trkpt lat="44.018369" lon="10.081694964"><ele>0</ele><time>2020-02-23T09:23:20Z</time></trkpt>
<trkpt lat="44.018387021" lon="10.081665041"><ele>0</ele><time>2020-02-23T09:23:21Z</time></trkpt>
<trkpt lat="44.018405965" lon="10.081635034"><ele>0</ele><time>2020-02-23T09:23:22Z</time></trkpt>
<trkpt lat="44.018424992" lon="10.081605026"><ele>0</ele><time>2020-02-23T09:23:23Z</time></trkpt>
<trkpt lat="44.018444018" lon="10.081576025"><ele>0</ele><time>2020-02-23T09:23:24Z</time></trkpt>
<trkpt lat="44.018463967" lon="10.081546018"><ele>0</ele><time>2020-02-23T09:23:25Z</time></trkpt>
<trkpt lat="44.018482994" lon="10.081516011"><ele>0</ele><time>2020-02-23T09:23:26Z</time></trkpt>
<trkpt lat="44.018539991" lon="10.081424983"><ele>0</ele><time>2020-02-23T09:23:29Z</time></trkpt>
<trkpt lat="44.018560024" lon="10.08139397"><ele>0</ele><time>2020-02-23T09:23:30Z</time></trkpt>
<trkpt lat="44.018578967" lon="10.081362035"><ele>0</ele><time>2020-02-23T09:23:31Z</time></trkpt>
<trkpt lat="44.018597994" lon="10.081330016"><ele>0</ele><time>2020-02-23T09:23:32Z</time></trkpt>
<trkpt lat="44.018617021" lon="10.081297997"><ele>0</ele><time>2020-02-23T09:23:33Z</time></trkpt>
<trkpt lat="44.018635964" lon="10.081265979"><ele>0</ele><time>2020-02-23T09:23:34Z</time></trkpt>
<trkpt lat="44.018654991" lon="10.081233038"><ele>0</ele><time>2020-02-23T09:23:35Z</time></trkpt>
<trkpt lat="44.018674018" lon="10.081200013"><ele>0</ele><time>2020-02-23T09:23:36Z</time></trkpt>
<trkpt lat="44.018692961" lon="10.081166988"><ele>3</ele><time>2020-02-23T09:23:37Z</time></trkpt>
<trkpt lat="44.018711988" lon="10.081133964"><ele>3</ele><time>2020-02-23T09:23:38Z</time></trkpt>
<trkpt lat="44.018731015" lon="10.081100017"><ele>3</ele><time>2020-02-23T09:23:39Z</time></trkpt>
<trkpt lat="44.018750042" lon="10.081066992"><ele>3</ele><time>2020-02-23T09:23:40Z</time></trkpt>
<trkpt lat="44.018768985" lon="10.081032962"><ele>3</ele><time>2020-02-23T09:23:41Z</time></trkpt>
<trkpt lat="44.018789018" lon="10.081000021"><ele>3</ele><time>2020-02-23T09:23:42Z</time></trkpt>
<trkpt lat="44.018807961" lon="10.080966996"><ele>3</ele><time>2020-02-23T09:23:43Z</time></trkpt>
<trkpt lat="44.018827993" lon="10.080933971"><ele>3</ele><time>2020-02-23T09:23:44Z</time></trkpt>
<trkpt lat="44.01884702" lon="10.08090103"><ele>3</ele><time>2020-02-23T09:23:45Z</time></trkpt>
<trkpt lat="44.018866969" lon="10.080868006"><ele>3</ele><time>2020-02-23T09:23:46Z</time></trkpt>
<trkpt lat="44.018885996" lon="10.080835987"><ele>3</ele><time>2020-02-23T09:23:47Z</time></trkpt>
<trkpt lat="44.018906029" lon="10.080802962"><ele>3</ele><time>2020-02-23T09:23:48Z</time></trkpt>
<trkpt lat="44.018925978" lon="10.080771027"><ele>3</ele><time>2020-02-23T09:23:49Z</time></trkpt>
<trkpt lat="44.018945005" lon="10.080739008"><ele>3</ele><time>2020-02-23T09:23:50Z</time></trkpt>
<trkpt lat="44.018964032" lon="10.080706989"><ele>3</ele><time>2020-02-23T09:23:51Z</time></trkpt>
<trkpt lat="44.018982975" lon="10.080674971"><ele>3</ele><time>2020-02-23T09:23:52Z</time></trkpt>
<trkpt lat="44.019002002" lon="10.080643035"><ele>3</ele><time>2020-02-23T09:23:53Z</time></trkpt>
<trkpt lat="44.019020023" lon="10.080611017"><ele>3</ele><time>2020-02-23T09:23:54Z</time></trkpt>
<trkpt lat="44.019038966" lon="10.080580004"><ele>3</ele><time>2020-02-23T09:23:55Z</time></trkpt>
<trkpt lat="44.019055981" lon="10.080548991"><ele>3</ele><time>2020-02-23T09:23:56Z</time></trkpt>
<trkpt lat="44.019074002" lon="10.080517977"><ele>3</ele><time>2020-02-23T09:23:57Z</time></trkpt>
<trkpt lat="44.019091018" lon="10.080485959"><ele>3</ele><time>2020-02-23T09:23:58Z</time></trkpt>
<trkpt lat="44.019108033" lon="10.080455029"><ele>3</ele><time>2020-02-23T09:23:59Z</time></trkpt>
<trkpt lat="44.019124964" lon="10.080424016"><ele>3</ele><time>2020-02-23T09:24:00Z</time></trkpt>
<trkpt lat="44.01914198" lon="10.080393003"><ele>1</ele><time>2020-02-23T09:24:01Z</time></trkpt>
<trkpt lat="44.019158995" lon="10.08036199"><ele>1</ele><time>2020-02-23T09:24:02Z</time></trkpt>
<trkpt lat="44.01917601" lon="10.080329971"><ele>2</ele><time>2020-02-23T09:24:03Z</time></trkpt>
<trkpt lat="44.019193025" lon="10.080298958"><ele>2</ele><time>2020-02-23T09:24:04Z</time></trkpt>
<trkpt lat="44.019210963" lon="10.080267023"><ele>2</ele><time>2020-02-23T09:24:05Z</time></trkpt>
<trkpt lat="44.019228984" lon="10.080235004"><ele>2</ele><time>2020-02-23T09:24:06Z</time></trkpt>
<trkpt lat="44.019247005" lon="10.080202986"><ele>2</ele><time>2020-02-23T09:24:07Z</time></trkpt>
<trkpt lat="44.019265026" lon="10.080169961"><ele>2</ele><time>2020-02-23T09:24:08Z</time></trkpt>
<trkpt lat="44.019283969" lon="10.08013702"><ele>1</ele><time>2020-02-23T09:24:09Z</time></trkpt>
<trkpt lat="44.019304002" lon="10.080103995"><ele>1</ele><time>2020-02-23T09:24:10Z</time></trkpt>
<trkpt lat="44.019323029" lon="10.080070971"><ele>1</ele><time>2020-02-23T09:24:11Z</time></trkpt>
<trkpt lat="44.019342978" lon="10.08003803"><ele>1</ele><time>2020-02-23T09:24:12Z</time></trkpt>
<trkpt lat="44.01936301" lon="10.080005005"><ele>1</ele><time>2020-02-23T09:24:13Z</time></trkpt>
<trkpt lat="44.019382959" lon="10.07997198"><ele>1</ele><time>2020-02-23T09:24:14Z</time></trkpt>
<trkpt lat="44.019402992" lon="10.079939039"><ele>1</ele><time>2020-02-23T09:24:15Z</time></trkpt>
<trkpt lat="44.019423025" lon="10.079907021"><ele>1</ele><time>2020-02-23T09:24:16Z</time></trkpt>
<trkpt lat="44.019442974" lon="10.079875002"><ele>1</ele><time>2020-02-23T09:24:17Z</time></trkpt>
<trkpt lat="44.019463006" lon="10.079842983"><ele>1</ele><time>2020-02-23T09:24:18Z</time></trkpt>
<trkpt lat="44.019483039" lon="10.07981197"><ele>1</ele><time>2020-02-23T09:24:19Z</time></trkpt>
<trkpt lat="44.019501982" lon="10.079781963"><ele>1</ele><time>2020-02-23T09:24:20Z</time></trkpt>
<trkpt lat="44.019521009" lon="10.079752039"><ele>1</ele><time>2020-02-23T09:24:21Z</time></trkpt>
<trkpt lat="44.019540036" lon="10.079722032"><ele>1</ele><time>2020-02-23T09:24:22Z</time></trkpt>
<trkpt lat="44.019557973" lon="10.079693031"><ele>1</ele><time>2020-02-23T09:24:23Z</time></trkpt>
<trkpt lat="44.019577" lon="10.079664029"><ele>1</ele><time>2020-02-23T09:24:24Z</time></trkpt>
<trkpt lat="44.019595021" lon="10.079635028"><ele>2</ele><time>2020-02-23T09:24:25Z</time></trkpt>
<trkpt lat="44.019612037" lon="10.079605021"><ele>2</ele><time>2020-02-23T09:24:26Z</time></trkpt>
<trkpt lat="44.019629974" lon="10.079576019"><ele>3</ele><time>2020-02-23T09:24:27Z</time></trkpt>
<trkpt lat="44.019646989" lon="10.079546012"><ele>3</ele><time>2020-02-23T09:24:28Z</time></trkpt>
<trkpt lat="44.019664004" lon="10.079516005"><ele>3</ele><time>2020-02-23T09:24:29Z</time></trkpt>
<trkpt lat="44.019680014" lon="10.079484992"><ele>3</ele><time>2020-02-23T09:24:30Z</time></trkpt>
<trkpt lat="44.019697029" lon="10.079452973"><ele>3</ele><time>2020-02-23T09:24:31Z</time></trkpt>
<trkpt lat="44.019713039" lon="10.079420032"><ele>3</ele><time>2020-02-23T09:24:32Z</time></trkpt>
<trkpt lat="44.019728964" lon="10.079387007"><ele>3</ele><time>2020-02-23T09:24:33Z</time></trkpt>
<trkpt lat="44.019744974" lon="10.079352977"><ele>3</ele><time>2020-02-23T09:24:34Z</time></trkpt>
<trkpt lat="44.019759977" lon="10.07931903"><ele>3</ele><time>2020-02-23T09:24:35Z</time></trkpt>
<trkpt lat="44.019775987" lon="10.079283994"><ele>3</ele><time>2020-02-23T09:24:36Z</time></trkpt>
<trkpt lat="44.01979099" lon="10.079249041"><ele>3</ele><time>2020-02-23T09:24:37Z</time></trkpt>
<trkpt lat="44.019805994" lon="10.079212999"><ele>3</ele><time>2020-02-23T09:24:38Z</time></trkpt>
<trkpt lat="44.019820997" lon="10.079177041"><ele>3</ele><time>2020-02-23T09:24:39Z</time></trkpt>
<trkpt lat="44.019837007" lon="10.079142004"><ele>3</ele><time>2020-02-23T09:24:40Z</time></trkpt>
<trkpt lat="44.019852011" lon="10.079105962"><ele>3</ele><time>2020-02-23T09:24:41Z</time></trkpt>
<trkpt lat="44.019867014" lon="10.079070004"><ele>3</ele><time>2020-02-23T09:24:42Z</time></trkpt>
<trkpt lat="44.019883024" lon="10.079034967"><ele>3</ele><time>2020-02-23T09:24:43Z</time></trkpt>
<trkpt lat="44.019899033" lon="10.079000015"><ele>3</ele><time>2020-02-23T09:24:44Z</time></trkpt>
<trkpt lat="44.019914959" lon="10.078964978"><ele>3</ele><time>2020-02-23T09:24:45Z</time></trkpt>
<trkpt lat="44.019930968" lon="10.078931032"><ele>3</ele><time>2020-02-23T09:24:46Z</time></trkpt>
<trkpt lat="44.019946977" lon="10.078895995"><ele>3</ele><time>2020-02-23T09:24:47Z</time></trkpt>
<trkpt lat="44.019962987" lon="10.078862971"><ele>3</ele><time>2020-02-23T09:24:48Z</time></trkpt>
<trkpt lat="44.019980002" lon="10.078829024"><ele>3</ele><time>2020-02-23T09:24:49Z</time></trkpt>
<trkpt lat="44.019997017" lon="10.078795999"><ele>3</ele><time>2020-02-23T09:24:50Z</time></trkpt>
<trkpt lat="44.020014033" lon="10.07876398"><ele>3</ele><time>2020-02-23T09:24:51Z</time></trkpt>
<trkpt lat="44.020030964" lon="10.078731962"><ele>3</ele><time>2020-02-23T09:24:52Z</time></trkpt>
<trkpt lat="44.020048985" lon="10.078700026"><ele>3</ele><time>2020-02-23T09:24:53Z</time></trkpt>
<trkpt lat="44.020067006" lon="10.078668008"><ele>3</ele><time>2020-02-23T09:24:54Z</time></trkpt>
<trkpt lat="44.020085027" lon="10.078638"><ele>3</ele><time>2020-02-23T09:24:55Z</time></trkpt>
<trkpt lat="44.020102965" lon="10.078606987"><ele>3</ele><time>2020-02-23T09:24:56Z</time></trkpt>
<trkpt lat="44.020121992" lon="10.07857698"><ele>3</ele><time>2020-02-23T09:24:57Z</time></trkpt>
<trkpt lat="44.020140013" lon="10.078545967"><ele>3</ele><time>2020-02-23T09:24:58Z</time></trkpt>
<trkpt lat="44.02015904" lon="10.07851596"><ele>3</ele><time>2020-02-23T09:24:59Z</time></trkpt>
<trkpt lat="44.020176977" lon="10.078484025"><ele>4</ele><time>2020-02-23T09:25:00Z</time></trkpt>
<trkpt lat="44.020194998" lon="10.078452006"><ele>4</ele><time>2020-02-23T09:25:01Z</time></trkpt>
<trkpt lat="44.020213019" lon="10.078418981"><ele>4</ele><time>2020-02-23T09:25:02Z</time></trkpt>
<trkpt lat="44.020230034" lon="10.078384029"><ele>4</ele><time>2020-02-23T09:25:03Z</time></trkpt>
<trkpt lat="44.020246966" lon="10.078348992"><ele>4</ele><time>2020-02-23T09:25:04Z</time></trkpt>
<trkpt lat="44.020263981" lon="10.078313034"><ele>4</ele><time>2020-02-23T09:25:05Z</time></trkpt>
<trkpt lat="44.020279991" lon="10.078276992"><ele>4</ele><time>2020-02-23T09:25:06Z</time></trkpt>
<trkpt lat="44.020296" lon="10.078241033"><ele>4</ele><time>2020-02-23T09:25:07Z</time></trkpt>
<trkpt lat="44.020312009" lon="10.078203985"><ele>4</ele><time>2020-02-23T09:25:08Z</time></trkpt>
<trkpt lat="44.020327013" lon="10.078167021"><ele>4</ele><time>2020-02-23T09:25:09Z</time></trkpt>
<trkpt lat="44.020342017" lon="10.078130979"><ele>4</ele><time>2020-02-23T09:25:10Z</time></trkpt>
<trkpt lat="44.02035702" lon="10.078094015"><ele>4</ele><time>2020-02-23T09:25:11Z</time></trkpt>
<trkpt lat="44.020372024" lon="10.078056967"><ele>4</ele><time>2020-02-23T09:25:12Z</time></trkpt>
<trkpt lat="44.020387027" lon="10.078020003"><ele>4</ele><time>2020-02-23T09:25:13Z</time></trkpt>
<trkpt lat="44.020401025" lon="10.077983961"><ele>4</ele><time>2020-02-23T09:25:14Z</time></trkpt>
<trkpt lat="44.020416029" lon="10.077946996"><ele>4</ele><time>2020-02-23T09:25:15Z</time></trkpt>
<trkpt lat="44.020430027" lon="10.077910032"><ele>4</ele><time>2020-02-23T09:25:16Z</time></trkpt>
<trkpt lat="44.020444024" lon="10.077872984"><ele>4</ele><time>2020-02-23T09:25:17Z</time></trkpt>
<trkpt lat="44.020458022" lon="10.07783602"><ele>4</ele><time>2020-02-23T09:25:18Z</time></trkpt>
<trkpt lat="44.02047202" lon="10.077799978"><ele>4</ele><time>2020-02-23T09:25:19Z</time></trkpt>
<trkpt lat="44.020487024" lon="10.077763014"><ele>4</ele><time>2020-02-23T09:25:20Z</time></trkpt>
<trkpt lat="44.020501021" lon="10.077726971"><ele>4</ele><time>2020-02-23T09:25:21Z</time></trkpt>
<trkpt lat="44.020515019" lon="10.077690007"><ele>4</ele><time>2020-02-23T09:25:22Z</time></trkpt>
<trkpt lat="44.020530023" lon="10.077653965"><ele>4</ele><time>2020-02-23T09:25:23Z</time></trkpt>
<trkpt lat="44.02054402" lon="10.077618007"><ele>4</ele><time>2020-02-23T09:25:24Z</time></trkpt>
<trkpt lat="44.020559024" lon="10.077581964"><ele>4</ele><time>2020-02-23T09:25:25Z</time></trkpt>
<trkpt lat="44.020573022" lon="10.077546006"><ele>4</ele><time>2020-02-23T09:25:26Z</time></trkpt>
<trkpt lat="44.020588025" lon="10.077509964"><ele>4</ele><time>2020-02-23T09:25:27Z</time></trkpt>
<trkpt lat="44.020603029" lon="10.077475011"><ele>4</ele><time>2020-02-23T09:25:28Z</time></trkpt>
<trkpt lat="44.020618033" lon="10.077438969"><ele>4</ele><time>2020-02-23T09:25:29Z</time></trkpt>
<trkpt lat="44.020633958" lon="10.077404017"><ele>4</ele><time>2020-02-23T09:25:30Z</time></trkpt>
<trkpt lat="44.020649968" lon="10.07736898"><ele>4</ele><time>2020-02-23T09:25:31Z</time></trkpt>
<trkpt lat="44.020665977" lon="10.077335034"><ele>4</ele><time>2020-02-23T09:25:32Z</time></trkpt>
<trkpt lat="44.020681987" lon="10.077299997"><ele>4</ele><time>2020-02-23T09:25:33Z</time></trkpt>
<trkpt lat="44.020699002" lon="10.077265967"><ele>4</ele><time>2020-02-23T09:25:34Z</time></trkpt>
<trkpt lat="44.020715011" lon="10.07723202"><ele>4</ele><time>2020-02-23T09:25:35Z</time></trkpt>
<trkpt lat="44.020732027" lon="10.077197989"><ele>4</ele><time>2020-02-23T09:25:36Z</time></trkpt>
<trkpt lat="44.020749042" lon="10.077163959"><ele>4</ele><time>2020-02-23T09:25:37Z</time></trkpt>
<trkpt lat="44.020766979" lon="10.077131018"><ele>4</ele><time>2020-02-23T09:25:38Z</time></trkpt>
<trkpt lat="44.020783994" lon="10.077096988"><ele>4</ele><time>2020-02-23T09:25:39Z</time></trkpt>
<trkpt lat="44.02080101" lon="10.077063963"><ele>6</ele><time>2020-02-23T09:25:40Z</time></trkpt>
<trkpt lat="44.020819031" lon="10.077031022"><ele>6</ele><time>2020-02-23T09:25:41Z</time></trkpt>
<trkpt lat="44.020835962" lon="10.076997997"><ele>5</ele><time>2020-02-23T09:25:42Z</time></trkpt>
<trkpt lat="44.020852977" lon="10.076964973"><ele>5</ele><time>2020-02-23T09:25:43Z</time></trkpt>
<trkpt lat="44.020869993" lon="10.076931026"><ele>5</ele><time>2020-02-23T09:25:44Z</time></trkpt>
<trkpt lat="44.020887008" lon="10.076898001"><ele>5</ele><time>2020-02-23T09:25:45Z</time></trkpt>
<trkpt lat="44.020904023" lon="10.076864976"><ele>6</ele><time>2020-02-23T09:25:46Z</time></trkpt>
<trkpt lat="44.020921038" lon="10.076832036"><ele>6</ele><time>2020-02-23T09:25:47Z</time></trkpt>
<trkpt lat="44.020936964" lon="10.076799011"><ele>6</ele><time>2020-02-23T09:25:48Z</time></trkpt>
<trkpt lat="44.020953979" lon="10.076765986"><ele>6</ele><time>2020-02-23T09:25:49Z</time></trkpt>
<trkpt lat="44.020969989" lon="10.076732039"><ele>6</ele><time>2020-02-23T09:25:50Z</time></trkpt>
<trkpt lat="44.020987004" lon="10.076699015"><ele>6</ele><time>2020-02-23T09:25:51Z</time></trkpt>
<trkpt lat="44.021003013" lon="10.07666599"><ele>6</ele><time>2020-02-23T09:25:52Z</time></trkpt>
<trkpt lat="44.021019023" lon="10.07663196"><ele>6</ele><time>2020-02-23T09:25:53Z</time></trkpt>
<trkpt lat="44.021036038" lon="10.076599019"><ele>6</ele><time>2020-02-23T09:25:54Z</time></trkpt>
<trkpt lat="44.021051964" lon="10.076564988"><ele>6</ele><time>2020-02-23T09:25:55Z</time></trkpt>
<trkpt lat="44.021068979" lon="10.076531963"><ele>5</ele><time>2020-02-23T09:25:56Z</time></trkpt>
<trkpt lat="44.021084988" lon="10.076498017"><ele>5</ele><time>2020-02-23T09:25:57Z</time></trkpt>
<trkpt lat="44.021102004" lon="10.076463986"><ele>5</ele><time>2020-02-23T09:25:58Z</time></trkpt>
<trkpt lat="44.021118013" lon="10.076430039"><ele>5</ele><time>2020-02-23T09:25:59Z</time></trkpt>
<trkpt lat="44.021135028" lon="10.076396009"><ele>5</ele><time>2020-02-23T09:26:00Z</time></trkpt>
<trkpt lat="44.02115196" lon="10.076361978"><ele>5</ele><time>2020-02-23T09:26:01Z</time></trkpt>
<trkpt lat="44.021168975" lon="10.076329038"><ele>5</ele><time>2020-02-23T09:26:02Z</time></trkpt>
<trkpt lat="44.02118599" lon="10.076295007"><ele>5</ele><time>2020-02-23T09:26:03Z</time></trkpt>
<trkpt lat="44.021203006" lon="10.076260976"><ele>5</ele><time>2020-02-23T09:26:04Z</time></trkpt>
<trkpt lat="44.021220021" lon="10.07622703"><ele>5</ele><time>2020-02-23T09:26:05Z</time></trkpt>
<trkpt lat="44.021237958" lon="10.076194005"><ele>4</ele><time>2020-02-23T09:26:06Z</time></trkpt>
<trkpt lat="44.021254973" lon="10.076159975"><ele>4</ele><time>2020-02-23T09:26:07Z</time></trkpt>
<trkpt lat="44.021271989" lon="10.076127034"><ele>4</ele><time>2020-02-23T09:26:08Z</time></trkpt>
<trkpt lat="44.02129001" lon="10.076094009"><ele>4</ele><time>2020-02-23T09:26:09Z</time></trkpt>
<trkpt lat="44.021308031" lon="10.076060984"><ele>4</ele><time>2020-02-23T09:26:10Z</time></trkpt>
<trkpt lat="44.021324962" lon="10.07602796"><ele>4</ele><time>2020-02-23T09:26:11Z</time></trkpt>
<trkpt lat="44.021342983" lon="10.075996025"><ele>4</ele><time>2020-02-23T09:26:12Z</time></trkpt>
<trkpt lat="44.021361005" lon="10.075963"><ele>4</ele><time>2020-02-23T09:26:13Z</time></trkpt>
<trkpt lat="44.021379026" lon="10.075930981"><ele>4</ele><time>2020-02-23T09:26:14Z</time></trkpt>
<trkpt lat="44.021396963" lon="10.075898962"><ele>4</ele><time>2020-02-23T09:26:15Z</time></trkpt>
<trkpt lat="44.021414984" lon="10.075867027"><ele>3</ele><time>2020-02-23T09:26:16Z</time></trkpt>
<trkpt lat="44.021433005" lon="10.075835008"><ele>3</ele><time>2020-02-23T09:26:17Z</time></trkpt>
<trkpt lat="44.021452032" lon="10.075802989"><ele>3</ele><time>2020-02-23T09:26:18Z</time></trkpt>
<trkpt lat="44.021469969" lon="10.07577097"><ele>3</ele><time>2020-02-23T09:26:19Z</time></trkpt>
<trkpt lat="44.021488996" lon="10.075740041"><ele>3</ele><time>2020-02-23T09:26:20Z</time></trkpt>
<trkpt lat="44.021507017" lon="10.075708022"><ele>3</ele><time>2020-02-23T09:26:21Z</time></trkpt>
<trkpt lat="44.02152596" lon="10.075676003"><ele>3</ele><time>2020-02-23T09:26:22Z</time></trkpt>
<trkpt lat="44.021544987" lon="10.075643985"><ele>3</ele><time>2020-02-23T09:26:23Z</time></trkpt>
<trkpt lat="44.021564014" lon="10.075611966"><ele>3</ele><time>2020-02-23T09:26:24Z</time></trkpt>
<trkpt lat="44.021583041" lon="10.075581037"><ele>3</ele><time>2020-02-23T09:26:25Z</time></trkpt>
<trkpt lat="44.021601984" lon="10.075549018"><ele>3</ele><time>2020-02-23T09:26:26Z</time></trkpt>
<trkpt lat="44.021621011" lon="10.075516999"><ele>3</ele><time>2020-02-23T09:26:27Z</time></trkpt>
<trkpt lat="44.02164096" lon="10.075485986"><ele>3</ele><time>2020-02-23T09:26:28Z</time></trkpt>
<trkpt lat="44.021659987" lon="10.075453967"><ele>3</ele><time>2020-02-23T09:26:29Z</time></trkpt>
<trkpt lat="44.021679014" lon="10.075422032"><ele>3</ele><time>2020-02-23T09:26:30Z</time></trkpt>
<trkpt lat="44.021698963" lon="10.075391019"><ele>3</ele><time>2020-02-23T09:26:31Z</time></trkpt>
<trkpt lat="44.02171799" lon="10.075359"><ele>3</ele><time>2020-02-23T09:26:32Z</time></trkpt>
<trkpt lat="44.021738023" lon="10.075327987"><ele>3</ele><time>2020-02-23T09:26:33Z</time></trkpt>
<trkpt lat="44.021756966" lon="10.075296974"><ele>3</ele><time>2020-02-23T09:26:34Z</time></trkpt>
<trkpt lat="44.021776998" lon="10.075265961"><ele>3</ele><time>2020-02-23T09:26:35Z</time></trkpt>
<trkpt lat="44.021797031" lon="10.075235032"><ele>3</ele><time>2020-02-23T09:26:36Z</time></trkpt>
<trkpt lat="44.02181698" lon="10.075204019"><ele>3</ele><time>2020-02-23T09:26:37Z</time></trkpt>
<trkpt lat="44.021836007" lon="10.075173005"><ele>3</ele><time>2020-02-23T09:26:38Z</time></trkpt>
<trkpt lat="44.02185604" lon="10.075141992"><ele>5</ele><time>2020-02-23T09:26:39Z</time></trkpt>
<trkpt lat="44.021875989" lon="10.075111985"><ele>5</ele><time>2020-02-23T09:26:40Z</time></trkpt>
<trkpt lat="44.021896021" lon="10.075081978"><ele>5</ele><time>2020-02-23T09:26:41Z</time></trkpt>
<trkpt lat="44.02191597" lon="10.075050965"><ele>5</ele><time>2020-02-23T09:26:42Z</time></trkpt>
<trkpt lat="44.021934997" lon="10.075021042"><ele>5</ele><time>2020-02-23T09:26:43Z</time></trkpt>
<trkpt lat="44.02195503" lon="10.074991034"><ele>5</ele><time>2020-02-23T09:26:44Z</time></trkpt>
<trkpt lat="44.021974979" lon="10.074962033"><ele>5</ele><time>2020-02-23T09:26:45Z</time></trkpt>
<trkpt lat="44.021995012" lon="10.074932026"><ele>5</ele><time>2020-02-23T09:26:46Z</time></trkpt>
<trkpt lat="44.022014961" lon="10.074903024"><ele>5</ele><time>2020-02-23T09:26:47Z</time></trkpt>
<trkpt lat="44.022033988" lon="10.074873017"><ele>5</ele><time>2020-02-23T09:26:48Z</time></trkpt>
<trkpt lat="44.02205402" lon="10.07484301"><ele>5</ele><time>2020-02-23T09:26:49Z</time></trkpt>
<trkpt lat="44.022073969" lon="10.074813003"><ele>5</ele><time>2020-02-23T09:26:50Z</time></trkpt>
<trkpt lat="44.022092996" lon="10.07478199"><ele>5</ele><time>2020-02-23T09:26:51Z</time></trkpt>
<trkpt lat="44.022112023" lon="10.074749971"><ele>5</ele><time>2020-02-23T09:26:52Z</time></trkpt>
<trkpt lat="44.022130966" lon="10.074718036"><ele>5</ele><time>2020-02-23T09:26:53Z</time></trkpt>
<trkpt lat="44.022149993" lon="10.074686017"><ele>5</ele><time>2020-02-23T09:26:54Z</time></trkpt>
<trkpt lat="44.02216902" lon="10.074655004"><ele>5</ele><time>2020-02-23T09:26:55Z</time></trkpt>
<trkpt lat="44.022188969" lon="10.074626002"><ele>5</ele><time>2020-02-23T09:26:56Z</time></trkpt>
<trkpt lat="44.022210008" lon="10.074601024"><ele>5</ele><time>2020-02-23T09:26:57Z</time></trkpt>
<trkpt lat="44.022232974" lon="10.074579986"><ele>5</ele><time>2020-02-23T09:26:58Z</time></trkpt>
<trkpt lat="44.02225703" lon="10.074563976"><ele>5</ele><time>2020-02-23T09:26:59Z</time></trkpt>
<trkpt lat="44.022283014" lon="10.074554002"><ele>5</ele><time>2020-02-23T09:27:00Z</time></trkpt>
<trkpt lat="44.022310004" lon="10.074549979"><ele>5</ele><time>2020-02-23T09:27:01Z</time></trkpt>
<trkpt lat="44.022336993" lon="10.07455199"><ele>5</ele><time>2020-02-23T09:27:02Z</time></trkpt>
<trkpt lat="44.022364989" lon="10.074559031"><ele>5</ele><time>2020-02-23T09:27:03Z</time></trkpt>
<trkpt lat="44.022392984" lon="10.074573029"><ele>5</ele><time>2020-02-23T09:27:04Z</time></trkpt>
<trkpt lat="44.022419974" lon="10.074591972"><ele>5</ele><time>2020-02-23T09:27:05Z</time></trkpt>
<trkpt lat="44.022446964" lon="10.074616028"><ele>5</ele><time>2020-02-23T09:27:06Z</time></trkpt>
<trkpt lat="44.022473032" lon="10.074644024"><ele>5</ele><time>2020-02-23T09:27:07Z</time></trkpt>
<trkpt lat="44.022500021" lon="10.074673025"><ele>5</ele><time>2020-02-23T09:27:08Z</time></trkpt>
<trkpt lat="44.022524999" lon="10.074704038"><ele>5</ele><time>2020-02-23T09:27:09Z</time></trkpt>
<trkpt lat="44.022550983" lon="10.074733961"><ele>5</ele><time>2020-02-23T09:27:10Z</time></trkpt>
<trkpt lat="44.022575961" lon="10.074762963"><ele>5</ele><time>2020-02-23T09:27:11Z</time></trkpt>
<trkpt lat="44.022650979" lon="10.074842004"><ele>5</ele><time>2020-02-23T09:27:14Z</time></trkpt>
<trkpt lat="44.022676041" lon="10.074865976"><ele>5</ele><time>2020-02-23T09:27:15Z</time></trkpt>
<trkpt lat="44.022700014" lon="10.074890032"><ele>5</ele><time>2020-02-23T09:27:16Z</time></trkpt>
<trkpt lat="44.022723986" lon="10.074912999"><ele>5</ele><time>2020-02-23T09:27:17Z</time></trkpt>
<trkpt lat="44.022747036" lon="10.074934959"><ele>4</ele><time>2020-02-23T09:27:18Z</time></trkpt>
<trkpt lat="44.022771008" lon="10.07495801"><ele>4</ele><time>2020-02-23T09:27:19Z</time></trkpt>
<trkpt lat="44.022793975" lon="10.07497997"><ele>4</ele><time>2020-02-23T09:27:20Z</time></trkpt>
<trkpt lat="44.022816019" lon="10.07500302"><ele>4</ele><time>2020-02-23T09:27:21Z</time></trkpt>
<trkpt lat="44.022838986" lon="10.075025987"><ele>4</ele><time>2020-02-23T09:27:22Z</time></trkpt>
<trkpt lat="44.02286103" lon="10.075049959"><ele>4</ele><time>2020-02-23T09:27:23Z</time></trkpt>
<trkpt lat="44.022882991" lon="10.075074015"><ele>4</ele><time>2020-02-23T09:27:24Z</time></trkpt>
<trkpt lat="44.022904029" lon="10.075097987"><ele>4</ele><time>2020-02-23T09:27:25Z</time></trkpt>
<trkpt lat="44.02292599" lon="10.075122965"><ele>4</ele><time>2020-02-23T09:27:26Z</time></trkpt>
<trkpt lat="44.022947028" lon="10.075148027"><ele>5</ele><time>2020-02-23T09:27:27Z</time></trkpt>
<trkpt lat="44.022968989" lon="10.075173005"><ele>5</ele><time>2020-02-23T09:27:28Z</time></trkpt>
<trkpt lat="44.022990027" lon="10.075197984"><ele>5</ele><time>2020-02-23T09:27:29Z</time></trkpt>
<trkpt lat="44.023011988" lon="10.075222962"><ele>5</ele><time>2020-02-23T09:27:30Z</time></trkpt>
<trkpt lat="44.023033027" lon="10.075248023"><ele>5</ele><time>2020-02-23T09:27:31Z</time></trkpt>
<trkpt lat="44.023054987" lon="10.075273002"><ele>5</ele><time>2020-02-23T09:27:32Z</time></trkpt>
<trkpt lat="44.023078037" lon="10.07529798"><ele>5</ele><time>2020-02-23T09:27:33Z</time></trkpt>
<trkpt lat="44.023099998" lon="10.075322036"><ele>5</ele><time>2020-02-23T09:27:34Z</time></trkpt>
<trkpt lat="44.023122964" lon="10.075346008"><ele>5</ele><time>2020-02-23T09:27:35Z</time></trkpt>
<trkpt lat="44.02314702" lon="10.075368974"><ele>5</ele><time>2020-02-23T09:27:36Z</time></trkpt>
<trkpt lat="44.023169987" lon="10.075392025"><ele>5</ele><time>2020-02-23T09:27:37Z</time></trkpt>
<trkpt lat="44.023193959" lon="10.075414991"><ele>6</ele><time>2020-02-23T09:27:38Z</time></trkpt>
<trkpt lat="44.023218015" lon="10.075438041"><ele>6</ele><time>2020-02-23T09:27:39Z</time></trkpt>
<trkpt lat="44.023242993" lon="10.075460002"><ele>6</ele><time>2020-02-23T09:27:40Z</time></trkpt>
<trkpt lat="44.023267971" lon="10.075481962"><ele>6</ele><time>2020-02-23T09:27:41Z</time></trkpt>
<trkpt lat="44.023341984" lon="10.075548012"><ele>6</ele><time>2020-02-23T09:27:44Z</time></trkpt>
<trkpt lat="44.023366962" lon="10.075569972"><ele>6</ele><time>2020-02-23T09:27:45Z</time></trkpt>
<trkpt lat="44.023392024" lon="10.075592017"><ele>6</ele><time>2020-02-23T09:27:46Z</time></trkpt>
<trkpt lat="44.023417002" lon="10.075613977"><ele>7</ele><time>2020-02-23T09:27:47Z</time></trkpt>
<trkpt lat="44.02344198" lon="10.075636022"><ele>7</ele><time>2020-02-23T09:27:48Z</time></trkpt>
<trkpt lat="44.023467042" lon="10.075658988"><ele>7</ele><time>2020-02-23T09:27:49Z</time></trkpt>
<trkpt lat="44.02349202" lon="10.075682038"><ele>7</ele><time>2020-02-23T09:27:50Z</time></trkpt>
<trkpt lat="44.023516998" lon="10.075705005"><ele>7</ele><time>2020-02-23T09:27:51Z</time></trkpt>
<trkpt lat="44.023541976" lon="10.075727971"><ele>7</ele><time>2020-02-23T09:27:52Z</time></trkpt>
<trkpt lat="44.023566032" lon="10.075751022"><ele>7</ele><time>2020-02-23T09:27:53Z</time></trkpt>
<trkpt lat="44.02359101" lon="10.075773988"><ele>7</ele><time>2020-02-23T09:27:54Z</time></trkpt>
<trkpt lat="44.023615988" lon="10.07579796"><ele>7</ele><time>2020-02-23T09:27:55Z</time></trkpt>
<trkpt lat="44.023640966" lon="10.075822016"><ele>7</ele><time>2020-02-23T09:27:56Z</time></trkpt>
<trkpt lat="44.023666028" lon="10.075845988"><ele>7</ele><time>2020-02-23T09:27:57Z</time></trkpt>
<trkpt lat="44.023691006" lon="10.075870967"><ele>7</ele><time>2020-02-23T09:27:58Z</time></trkpt>
<trkpt lat="44.023715984" lon="10.075895023"><ele>7</ele><time>2020-02-23T09:27:59Z</time></trkpt>
<trkpt lat="44.023740962" lon="10.075918995"><ele>7</ele><time>2020-02-23T09:28:00Z</time></trkpt>
<trkpt lat="44.023765018" lon="10.075940033"><ele>6</ele><time>2020-02-23T09:28:01Z</time></trkpt>
<trkpt lat="44.023789996" lon="10.075958977"><ele>6</ele><time>2020-02-23T09:28:02Z</time></trkpt>
<trkpt lat="44.023814974" lon="10.075971968"><ele>6</ele><time>2020-02-23T09:28:03Z</time></trkpt>
<trkpt lat="44.02383903" lon="10.075980015"><ele>6</ele><time>2020-02-23T09:28:04Z</time></trkpt>
<trkpt lat="44.023864008" lon="10.075982027"><ele>6</ele><time>2020-02-23T09:28:05Z</time></trkpt>
<trkpt lat="44.023886975" lon="10.075978003"><ele>6</ele><time>2020-02-23T09:28:06Z</time></trkpt>
<trkpt lat="44.023910025" lon="10.075968029"><ele>6</ele><time>2020-02-23T09:28:07Z</time></trkpt>
<trkpt lat="44.023929974" lon="10.075954031"><ele>6</ele><time>2020-02-23T09:28:08Z</time></trkpt>
<trkpt lat="44.023947995" lon="10.075935004"><ele>6</ele><time>2020-02-23T09:28:09Z</time></trkpt>
<trkpt lat="44.023962999" lon="10.075913966"><ele>6</ele><time>2020-02-23T09:28:10Z</time></trkpt>
<trkpt lat="44.023974985" lon="10.075890999"><ele>6</ele><time>2020-02-23T09:28:11Z</time></trkpt>
<trkpt lat="44.023984959" lon="10.075865015"><ele>6</ele><time>2020-02-23T09:28:12Z</time></trkpt>
<trkpt lat="44.023992" lon="10.075838026"><ele>6</ele><time>2020-02-23T09:28:13Z</time></trkpt>
<trkpt lat="44.023999963" lon="10.075808018"><ele>6</ele><time>2020-02-23T09:28:14Z</time></trkpt>
<trkpt lat="44.024007004" lon="10.075778011"><ele>6</ele><time>2020-02-23T09:28:15Z</time></trkpt>
<trkpt lat="44.024015972" lon="10.075745992"><ele>5</ele><time>2020-02-23T09:28:16Z</time></trkpt>
<trkpt lat="44.024027037" lon="10.075712968"><ele>5</ele><time>2020-02-23T09:28:17Z</time></trkpt>
<trkpt lat="44.024040028" lon="10.075679021"><ele>5</ele><time>2020-02-23T09:28:18Z</time></trkpt>
<trkpt lat="44.024054026" lon="10.075643985"><ele>5</ele><time>2020-02-23T09:28:19Z</time></trkpt>
<trkpt lat="44.024070036" lon="10.075609032"><ele>5</ele><time>2020-02-23T09:28:20Z</time></trkpt>
<trkpt lat="44.024085961" lon="10.07557299"><ele>5</ele><time>2020-02-23T09:28:21Z</time></trkpt>
<trkpt lat="44.024101971" lon="10.075538037"><ele>5</ele><time>2020-02-23T09:28:22Z</time></trkpt>
<trkpt lat="44.024118986" lon="10.075501995"><ele>5</ele><time>2020-02-23T09:28:23Z</time></trkpt>
<trkpt lat="44.024136001" lon="10.075466037"><ele>5</ele><time>2020-02-23T09:28:24Z</time></trkpt>
<trkpt lat="44.024153017" lon="10.075431"><ele>5</ele><time>2020-02-23T09:28:25Z</time></trkpt>
<trkpt lat="44.024169026" lon="10.075395964"><ele>5</ele><time>2020-02-23T09:28:26Z</time></trkpt>
<trkpt lat="44.024186041" lon="10.075360006"><ele>5</ele><time>2020-02-23T09:28:27Z</time></trkpt>
<trkpt lat="44.024202973" lon="10.075324969"><ele>5</ele><time>2020-02-23T09:28:28Z</time></trkpt>
<trkpt lat="44.024219988" lon="10.075290017"><ele>5</ele><time>2020-02-23T09:28:29Z</time></trkpt>
<trkpt lat="44.024237003" lon="10.07525498"><ele>5</ele><time>2020-02-23T09:28:30Z</time></trkpt>
<trkpt lat="44.024254018" lon="10.075219022"><ele>5</ele><time>2020-02-23T09:28:31Z</time></trkpt>
<trkpt lat="44.024270028" lon="10.075183986"><ele>5</ele><time>2020-02-23T09:28:32Z</time></trkpt>
<trkpt lat="44.024286959" lon="10.075149033"><ele>5</ele><time>2020-02-23T09:28:33Z</time></trkpt>
<trkpt lat="44.024303975" lon="10.075115003"><ele>5</ele><time>2020-02-23T09:28:34Z</time></trkpt>
<trkpt lat="44.02432099" lon="10.075079966"><ele>5</ele><time>2020-02-23T09:28:35Z</time></trkpt>
<trkpt lat="44.024338005" lon="10.075045014"><ele>5</ele><time>2020-02-23T09:28:36Z</time></trkpt>
<trkpt lat="44.02435502" lon="10.075009977"><ele>5</ele><time>2020-02-23T09:28:37Z</time></trkpt>
<trkpt lat="44.024372036" lon="10.074976031"><ele>5</ele><time>2020-02-23T09:28:38Z</time></trkpt>
<trkpt lat="44.024388967" lon="10.074940994"><ele>5</ele><time>2020-02-23T09:28:39Z</time></trkpt>
<trkpt lat="44.024405982" lon="10.074906964"><ele>5</ele><time>2020-02-23T09:28:40Z</time></trkpt>
<trkpt lat="44.024422998" lon="10.074872011"><ele>5</ele><time>2020-02-23T09:28:41Z</time></trkpt>
<trkpt lat="44.024439007" lon="10.074837981"><ele>5</ele><time>2020-02-23T09:28:42Z</time></trkpt>
<trkpt lat="44.024456022" lon="10.074804034"><ele>5</ele><time>2020-02-23T09:28:43Z</time></trkpt>
<trkpt lat="44.024473038" lon="10.074770004"><ele>4</ele><time>2020-02-23T09:28:44Z</time></trkpt>
<trkpt lat="44.024489969" lon="10.074734967"><ele>4</ele><time>2020-02-23T09:28:45Z</time></trkpt>
<trkpt lat="44.024506984" lon="10.07470102"><ele>4</ele><time>2020-02-23T09:28:46Z</time></trkpt>
<trkpt lat="44.02455803" lon="10.074600019"><ele>4</ele><time>2020-02-23T09:28:49Z</time></trkpt>
<trkpt lat="44.02457404" lon="10.074565988"><ele>4</ele><time>2020-02-23T09:28:50Z</time></trkpt>
<trkpt lat="44.024590971" lon="10.074532041"><ele>4</ele><time>2020-02-23T09:28:51Z</time></trkpt>
<trkpt lat="44.024607986" lon="10.074498011"><ele>4</ele><time>2020-02-23T09:28:52Z</time></trkpt>
<trkpt lat="44.024625001" lon="10.074464986"><ele>4</ele><time>2020-02-23T09:28:53Z</time></trkpt>
<trkpt lat="44.024641011" lon="10.074431039"><ele>4</ele><time>2020-02-23T09:28:54Z</time></trkpt>
<trkpt lat="44.024658026" lon="10.074397009"><ele>4</ele><time>2020-02-23T09:28:55Z</time></trkpt>
<trkpt lat="44.024675041" lon="10.074362978"><ele>4</ele><time>2020-02-23T09:28:56Z</time></trkpt>
<trkpt lat="44.024690967" lon="10.074330037"><ele>4</ele><time>2020-02-23T09:28:57Z</time></trkpt>
<trkpt lat="44.024707982" lon="10.074296007"><ele>4</ele><time>2020-02-23T09:28:58Z</time></trkpt>
<trkpt lat="44.024724998" lon="10.074261976"><ele>4</ele><time>2020-02-23T09:28:59Z</time></trkpt>
<trkpt lat="44.024741007" lon="10.074229036"><ele>4</ele><time>2020-02-23T09:29:00Z</time></trkpt>
<trkpt lat="44.024758022" lon="10.074195005"><ele>4</ele><time>2020-02-23T09:29:01Z</time></trkpt>
<trkpt lat="44.024774032" lon="10.074160974"><ele>4</ele><time>2020-02-23T09:29:02Z</time></trkpt>
<trkpt lat="44.024790041" lon="10.074127028"><ele>4</ele><time>2020-02-23T09:29:03Z</time></trkpt>
<trkpt lat="44.024806973" lon="10.074092997"><ele>4</ele><time>2020-02-23T09:29:04Z</time></trkpt>
<trkpt lat="44.024822982" lon="10.074058967"><ele>4</ele><time>2020-02-23T09:29:05Z</time></trkpt>
<trkpt lat="44.024838991" lon="10.074024014"><ele>4</ele><time>2020-02-23T09:29:06Z</time></trkpt>
<trkpt lat="44.024856007" lon="10.073989984"><ele>4</ele><time>2020-02-23T09:29:07Z</time></trkpt>
<trkpt lat="44.024872016" lon="10.073956037"><ele>4</ele><time>2020-02-23T09:29:08Z</time></trkpt>
<trkpt lat="44.024888026" lon="10.073921001"><ele>4</ele><time>2020-02-23T09:29:09Z</time></trkpt>
<trkpt lat="44.024904035" lon="10.073885964"><ele>4</ele><time>2020-02-23T09:29:10Z</time></trkpt>
<trkpt lat="44.024919961" lon="10.073851012"><ele>4</ele><time>2020-02-23T09:29:11Z</time></trkpt>
<trkpt lat="44.02493597" lon="10.073815975"><ele>4</ele><time>2020-02-23T09:29:12Z</time></trkpt>
<trkpt lat="44.024950974" lon="10.073781023"><ele>4</ele><time>2020-02-23T09:29:13Z</time></trkpt>
<trkpt lat="44.024966983" lon="10.073745986"><ele>4</ele><time>2020-02-23T09:29:14Z</time></trkpt>
<trkpt lat="44.024982993" lon="10.073711034"><ele>4</ele><time>2020-02-23T09:29:15Z</time></trkpt>
<trkpt lat="44.024999002" lon="10.073674992"><ele>4</ele><time>2020-02-23T09:29:16Z</time></trkpt>
<trkpt lat="44.025014006" lon="10.073640039"><ele>4</ele><time>2020-02-23T09:29:17Z</time></trkpt>
<trkpt lat="44.025030015" lon="10.073605003"><ele>4</ele><time>2020-02-23T09:29:18Z</time></trkpt>
<trkpt lat="44.025046024" lon="10.073569966"><ele>5</ele><time>2020-02-23T09:29:19Z</time></trkpt>
<trkpt lat="44.025062034" lon="10.073535014"><ele>5</ele><time>2020-02-23T09:29:20Z</time></trkpt>
<trkpt lat="44.025077038" lon="10.073499978"><ele>5</ele><time>2020-02-23T09:29:21Z</time></trkpt>
<trkpt lat="44.025092963" lon="10.073465025"><ele>5</ele><time>2020-02-23T09:29:22Z</time></trkpt>
<trkpt lat="44.025108973" lon="10.073429989"><ele>5</ele><time>2020-02-23T09:29:23Z</time></trkpt>
<trkpt lat="44.025124982" lon="10.073395958"><ele>5</ele><time>2020-02-23T09:29:24Z</time></trkpt>
<trkpt lat="44.025140991" lon="10.073362011"><ele>5</ele><time>2020-02-23T09:29:25Z</time></trkpt>
<trkpt lat="44.025158007" lon="10.073327981"><ele>5</ele><time>2020-02-23T09:29:26Z</time></trkpt>
<trkpt lat="44.025174016" lon="10.073294034"><ele>5</ele><time>2020-02-23T09:29:27Z</time></trkpt>
<trkpt lat="44.025190026" lon="10.073260004"><ele>5</ele><time>2020-02-23T09:29:28Z</time></trkpt>
<trkpt lat="44.025206035" lon="10.073226979"><ele>5</ele><time>2020-02-23T09:29:29Z</time></trkpt>
<trkpt lat="44.025222966" lon="10.073194038"><ele>5</ele><time>2020-02-23T09:29:30Z</time></trkpt>
<trkpt lat="44.025238976" lon="10.073160008"><ele>5</ele><time>2020-02-23T09:29:31Z</time></trkpt>
<trkpt lat="44.025255991" lon="10.073126983"><ele>5</ele><time>2020-02-23T09:29:32Z</time></trkpt>
<trkpt lat="44.025273006" lon="10.073093958"><ele>5</ele><time>2020-02-23T09:29:33Z</time></trkpt>
<trkpt lat="44.025289016" lon="10.073061017"><ele>5</ele><time>2020-02-23T09:29:34Z</time></trkpt>
<trkpt lat="44.025306031" lon="10.073027993"><ele>5</ele><time>2020-02-23T09:29:35Z</time></trkpt>
<trkpt lat="44.025322963" lon="10.072994968"><ele>5</ele><time>2020-02-23T09:29:36Z</time></trkpt>
<trkpt lat="44.025339978" lon="10.072962027"><ele>5</ele><time>2020-02-23T09:29:37Z</time></trkpt>
<trkpt lat="44.025356993" lon="10.072929002"><ele>5</ele><time>2020-02-23T09:29:38Z</time></trkpt>
<trkpt lat="44.025373003" lon="10.072894972"><ele>5</ele><time>2020-02-23T09:29:39Z</time></trkpt>
<trkpt lat="44.025390018" lon="10.072862031"><ele>5</ele><time>2020-02-23T09:29:40Z</time></trkpt>
<trkpt lat="44.025407033" lon="10.072829006"><ele>5</ele><time>2020-02-23T09:29:41Z</time></trkpt>
<trkpt lat="44.025423964" lon="10.072794976"><ele>5</ele><time>2020-02-23T09:29:42Z</time></trkpt>
<trkpt lat="44.025439974" lon="10.072761029"><ele>5</ele><time>2020-02-23T09:29:43Z</time></trkpt>
<trkpt lat="44.025456989" lon="10.072726998"><ele>5</ele><time>2020-02-23T09:29:44Z</time></trkpt>
<trkpt lat="44.025472999" lon="10.072692968"><ele>5</ele><time>2020-02-23T09:29:45Z</time></trkpt>
<trkpt lat="44.025490014" lon="10.072658015"><ele>5</ele><time>2020-02-23T09:29:46Z</time></trkpt>
<trkpt lat="44.025506023" lon="10.072623985"><ele>5</ele><time>2020-02-23T09:29:47Z</time></trkpt>
<trkpt lat="44.025522033" lon="10.072589032"><ele>5</ele><time>2020-02-23T09:29:48Z</time></trkpt>
<trkpt lat="44.025537958" lon="10.07255299"><ele>4</ele><time>2020-02-23T09:29:49Z</time></trkpt>
<trkpt lat="44.025552962" lon="10.072518038"><ele>4</ele><time>2020-02-23T09:29:50Z</time></trkpt>
<trkpt lat="44.025568971" lon="10.072481995"><ele>4</ele><time>2020-02-23T09:29:51Z</time></trkpt>
<trkpt lat="44.025583975" lon="10.072446037"><ele>4</ele><time>2020-02-23T09:29:52Z</time></trkpt>
<trkpt lat="44.025598979" lon="10.072409995"><ele>4</ele><time>2020-02-23T09:29:53Z</time></trkpt>
<trkpt lat="44.025613982" lon="10.072374037"><ele>4</ele><time>2020-02-23T09:29:54Z</time></trkpt>
<trkpt lat="44.025628986" lon="10.072336989"><ele>4</ele><time>2020-02-23T09:29:55Z</time></trkpt>
<trkpt lat="44.025644995" lon="10.07230103"><ele>4</ele><time>2020-02-23T09:29:56Z</time></trkpt>
<trkpt lat="44.025659999" lon="10.072264988"><ele>4</ele><time>2020-02-23T09:29:57Z</time></trkpt>
<trkpt lat="44.025675002" lon="10.07222903"><ele>4</ele><time>2020-02-23T09:29:58Z</time></trkpt>
<trkpt lat="44.025690006" lon="10.072192987"><ele>4</ele><time>2020-02-23T09:29:59Z</time></trkpt>
<trkpt lat="44.025706016" lon="10.072157029"><ele>4</ele><time>2020-02-23T09:30:00Z</time></trkpt>
<trkpt lat="44.025721019" lon="10.072121993"><ele>4</ele><time>2020-02-23T09:30:01Z</time></trkpt>
<trkpt lat="44.025737029" lon="10.07208704"><ele>4</ele><time>2020-02-23T09:30:02Z</time></trkpt>
<trkpt lat="44.025753038" lon="10.072052004"><ele>4</ele><time>2020-02-23T09:30:03Z</time></trkpt>
<trkpt lat="44.025768964" lon="10.072016967"><ele>4</ele><time>2020-02-23T09:30:04Z</time></trkpt>
<trkpt lat="44.025784973" lon="10.071982015"><ele>4</ele><time>2020-02-23T09:30:05Z</time></trkpt>
<trkpt lat="44.025800982" lon="10.071946979"><ele>4</ele><time>2020-02-23T09:30:06Z</time></trkpt>
<trkpt lat="44.025816992" lon="10.071913032"><ele>4</ele><time>2020-02-23T09:30:07Z</time></trkpt>
<trkpt lat="44.025834007" lon="10.071879001"><ele>4</ele><time>2020-02-23T09:30:08Z</time></trkpt>
<trkpt lat="44.025850017" lon="10.071843965"><ele>4</ele><time>2020-02-23T09:30:09Z</time></trkpt>
<trkpt lat="44.025866026" lon="10.071810018"><ele>4</ele><time>2020-02-23T09:30:10Z</time></trkpt>
<trkpt lat="44.025883041" lon="10.071775988"><ele>4</ele><time>2020-02-23T09:30:11Z</time></trkpt>
<trkpt lat="44.025899973" lon="10.071742041"><ele>4</ele><time>2020-02-23T09:30:12Z</time></trkpt>
<trkpt lat="44.025915982" lon="10.071709016"><ele>4</ele><time>2020-02-23T09:30:13Z</time></trkpt>
<trkpt lat="44.025932997" lon="10.071674986"><ele>4</ele><time>2020-02-23T09:30:14Z</time></trkpt>
<trkpt lat="44.025950013" lon="10.071641039"><ele>4</ele><time>2020-02-23T09:30:15Z</time></trkpt>
<trkpt lat="44.025967028" lon="10.071607009"><ele>4</ele><time>2020-02-23T09:30:16Z</time></trkpt>
<trkpt lat="44.025983959" lon="10.071572978"><ele>4</ele><time>2020-02-23T09:30:17Z</time></trkpt>
<trkpt lat="44.026000975" lon="10.071540037"><ele>4</ele><time>2020-02-23T09:30:18Z</time></trkpt>
<trkpt lat="44.02601799" lon="10.071506007"><ele>4</ele><time>2020-02-23T09:30:19Z</time></trkpt>
<trkpt lat="44.026035005" lon="10.071471976"><ele>4</ele><time>2020-02-23T09:30:20Z</time></trkpt>
<trkpt lat="44.02605202" lon="10.071438029"><ele>4</ele><time>2020-02-23T09:30:21Z</time></trkpt>
<trkpt lat="44.026069036" lon="10.071403999"><ele>4</ele><time>2020-02-23T09:30:22Z</time></trkpt>
<trkpt lat="44.026085967" lon="10.071369968"><ele>3</ele><time>2020-02-23T09:30:23Z</time></trkpt>
<trkpt lat="44.026102982" lon="10.071336022"><ele>3</ele><time>2020-02-23T09:30:24Z</time></trkpt>
<trkpt lat="44.026119998" lon="10.071300985"><ele>3</ele><time>2020-02-23T09:30:25Z</time></trkpt>
<trkpt lat="44.026137013" lon="10.071267039"><ele>3</ele><time>2020-02-23T09:30:26Z</time></trkpt>
<trkpt lat="44.026154028" lon="10.071232002"><ele>3</ele><time>2020-02-23T09:30:27Z</time></trkpt>
<trkpt lat="44.02617096" lon="10.071196966"><ele>3</ele><time>2020-02-23T09:30:28Z</time></trkpt>
<trkpt lat="44.026187975" lon="10.071163019"><ele>3</ele><time>2020-02-23T09:30:29Z</time></trkpt>
<trkpt lat="44.02620499" lon="10.071127983"><ele>3</ele><time>2020-02-23T09:30:30Z</time></trkpt>
<trkpt lat="44.026222005" lon="10.07109303"><ele>3</ele><time>2020-02-23T09:30:31Z</time></trkpt>
<trkpt lat="44.026239021" lon="10.071057994"><ele>3</ele><time>2020-02-23T09:30:32Z</time></trkpt>
<trkpt lat="44.026256036" lon="10.071022036"><ele>3</ele><time>2020-02-23T09:30:33Z</time></trkpt>
<trkpt lat="44.026272967" lon="10.070986999"><ele>3</ele><time>2020-02-23T09:30:34Z</time></trkpt>
<trkpt lat="44.026288977" lon="10.070951963"><ele>3</ele><time>2020-02-23T09:30:35Z</time></trkpt>
<trkpt lat="44.026305992" lon="10.070916004"><ele>3</ele><time>2020-02-23T09:30:36Z</time></trkpt>
<trkpt lat="44.026323007" lon="10.070880968"><ele>3</ele><time>2020-02-23T09:30:37Z</time></trkpt>
<trkpt lat="44.026340023" lon="10.07084501"><ele>3</ele><time>2020-02-23T09:30:38Z</time></trkpt>
<trkpt lat="44.026357038" lon="10.070809973"><ele>3</ele><time>2020-02-23T09:30:39Z</time></trkpt>
<trkpt lat="44.026373969" lon="10.070774015"><ele>3</ele><time>2020-02-23T09:30:40Z</time></trkpt>
<trkpt lat="44.026389979" lon="10.070738979"><ele>3</ele><time>2020-02-23T09:30:41Z</time></trkpt>
<trkpt lat="44.026406994" lon="10.07070302"><ele>3</ele><time>2020-02-23T09:30:42Z</time></trkpt>
<trkpt lat="44.026424009" lon="10.070666978"><ele>3</ele><time>2020-02-23T09:30:43Z</time></trkpt>
<trkpt lat="44.026441025" lon="10.07063102"><ele>3</ele><time>2020-02-23T09:30:44Z</time></trkpt>
<trkpt lat="44.026457034" lon="10.070595983"><ele>3</ele><time>2020-02-23T09:30:45Z</time></trkpt>
<trkpt lat="44.026473965" lon="10.070560025"><ele>3</ele><time>2020-02-23T09:30:46Z</time></trkpt>
<trkpt lat="44.026490981" lon="10.070523983"><ele>3</ele><time>2020-02-23T09:30:47Z</time></trkpt>
<trkpt lat="44.02650699" lon="10.07048903"><ele>3</ele><time>2020-02-23T09:30:48Z</time></trkpt>
<trkpt lat="44.026524005" lon="10.070452988"><ele>3</ele><time>2020-02-23T09:30:49Z</time></trkpt>
<trkpt lat="44.026540015" lon="10.07041703"><ele>3</ele><time>2020-02-23T09:30:50Z</time></trkpt>
<trkpt lat="44.02655703" lon="10.070380988"><ele>3</ele><time>2020-02-23T09:30:51Z</time></trkpt>
<trkpt lat="44.02657304" lon="10.070346035"><ele>4</ele><time>2020-02-23T09:30:52Z</time></trkpt>
<trkpt lat="44.026589971" lon="10.070309993"><ele>4</ele><time>2020-02-23T09:30:53Z</time></trkpt>
<trkpt lat="44.02660598" lon="10.070274035"><ele>4</ele><time>2020-02-23T09:30:54Z</time></trkpt>
<trkpt lat="44.026622996" lon="10.070238998"><ele>4</ele><time>2020-02-23T09:30:55Z</time></trkpt>
<trkpt lat="44.026639005" lon="10.07020304"><ele>4</ele><time>2020-02-23T09:30:56Z</time></trkpt>
<trkpt lat="44.02665602" lon="10.070168003"><ele>4</ele><time>2020-02-23T09:30:57Z</time></trkpt>
<trkpt lat="44.02667203" lon="10.070131961"><ele>4</ele><time>2020-02-23T09:30:58Z</time></trkpt>
<trkpt lat="44.026688961" lon="10.070097009"><ele>4</ele><time>2020-02-23T09:30:59Z</time></trkpt>
<trkpt lat="44.026704971" lon="10.070060967"><ele>4</ele><time>2020-02-23T09:31:00Z</time></trkpt>
<trkpt lat="44.02672098" lon="10.070026014"><ele>4</ele><time>2020-02-23T09:31:01Z</time></trkpt>
<trkpt lat="44.026737995" lon="10.069989972"><ele>4</ele><time>2020-02-23T09:31:02Z</time></trkpt>
<trkpt lat="44.026754005" lon="10.069955019"><ele>4</ele><time>2020-02-23T09:31:03Z</time></trkpt>
<trkpt lat="44.026770014" lon="10.069919983"><ele>4</ele><time>2020-02-23T09:31:04Z</time></trkpt>
<trkpt lat="44.02678703" lon="10.069884025"><ele>4</ele><time>2020-02-23T09:31:05Z</time></trkpt>
<trkpt lat="44.026803039" lon="10.069848988"><ele>4</ele><time>2020-02-23T09:31:06Z</time></trkpt>
<trkpt lat="44.026818965" lon="10.069814036"><ele>4</ele><time>2020-02-23T09:31:07Z</time></trkpt>
<trkpt lat="44.02683598" lon="10.069778999"><ele>4</ele><time>2020-02-23T09:31:08Z</time></trkpt>
<trkpt lat="44.026851989" lon="10.069743963"><ele>4</ele><time>2020-02-23T09:31:09Z</time></trkpt>
<trkpt lat="44.026867999" lon="10.069708005"><ele>4</ele><time>2020-02-23T09:31:10Z</time></trkpt>
<trkpt lat="44.026884008" lon="10.069672968"><ele>4</ele><time>2020-02-23T09:31:11Z</time></trkpt>
<trkpt lat="44.026901023" lon="10.069638016"><ele>4</ele><time>2020-02-23T09:31:12Z</time></trkpt>
<trkpt lat="44.026917033" lon="10.069602979"><ele>4</ele><time>2020-02-23T09:31:13Z</time></trkpt>
<trkpt lat="44.026932959" lon="10.069568027"><ele>3</ele><time>2020-02-23T09:31:14Z</time></trkpt>
<trkpt lat="44.026948968" lon="10.06953299"><ele>3</ele><time>2020-02-23T09:31:15Z</time></trkpt>
<trkpt lat="44.026965983" lon="10.069498038"><ele>3</ele><time>2020-02-23T09:31:16Z</time></trkpt>
<trkpt lat="44.026981993" lon="10.069464007"><ele>3</ele><time>2020-02-23T09:31:17Z</time></trkpt>
<trkpt lat="44.026998002" lon="10.069428971"><ele>3</ele><time>2020-02-23T09:31:18Z</time></trkpt>
<trkpt lat="44.027014012" lon="10.069394019"><ele>3</ele><time>2020-02-23T09:31:19Z</time></trkpt>
<trkpt lat="44.027030021" lon="10.069358982"><ele>3</ele><time>2020-02-23T09:31:20Z</time></trkpt>
<trkpt lat="44.027047036" lon="10.06932403"><ele>3</ele><time>2020-02-23T09:31:21Z</time></trkpt>
<trkpt lat="44.027062962" lon="10.069288993"><ele>3</ele><time>2020-02-23T09:31:22Z</time></trkpt>
<trkpt lat="44.027078971" lon="10.069254963"><ele>3</ele><time>2020-02-23T09:31:23Z</time></trkpt>
<trkpt lat="44.027094981" lon="10.06922001"><ele>3</ele><time>2020-02-23T09:31:24Z</time></trkpt>
<trkpt lat="44.027111996" lon="10.069184974"><ele>3</ele><time>2020-02-23T09:31:25Z</time></trkpt>
<trkpt lat="44.027128005" lon="10.069150021"><ele>3</ele><time>2020-02-23T09:31:26Z</time></trkpt>
<trkpt lat="44.027144015" lon="10.069115991"><ele>3</ele><time>2020-02-23T09:31:27Z</time></trkpt>
<trkpt lat="44.027160024" lon="10.069081038"><ele>3</ele><time>2020-02-23T09:31:28Z</time></trkpt>
<trkpt lat="44.02717704" lon="10.069046002"><ele>3</ele><time>2020-02-23T09:31:29Z</time></trkpt>
<trkpt lat="44.027192965" lon="10.069011971"><ele>3</ele><time>2020-02-23T09:31:30Z</time></trkpt>
<trkpt lat="44.027208975" lon="10.068977019"><ele>3</ele><time>2020-02-23T09:31:31Z</time></trkpt>
<trkpt lat="44.02722599" lon="10.068941982"><ele>3</ele><time>2020-02-23T09:31:32Z</time></trkpt>
<trkpt lat="44.027241999" lon="10.06890703"><ele>4</ele><time>2020-02-23T09:31:33Z</time></trkpt>
<trkpt lat="44.027259015" lon="10.068871994"><ele>4</ele><time>2020-02-23T09:31:34Z</time></trkpt>
<trkpt lat="44.027275024" lon="10.068837963"><ele>4</ele><time>2020-02-23T09:31:35Z</time></trkpt>
<trkpt lat="44.027291033" lon="10.068803011"><ele>4</ele><time>2020-02-23T09:31:36Z</time></trkpt>
<trkpt lat="44.027307965" lon="10.068767974"><ele>4</ele><time>2020-02-23T09:31:37Z</time></trkpt>
<trkpt lat="44.027323974" lon="10.068733022"><ele>4</ele><time>2020-02-23T09:31:38Z</time></trkpt>
<trkpt lat="44.02734099" lon="10.068697985"><ele>4</ele><time>2020-02-23T09:31:39Z</time></trkpt>
<trkpt lat="44.027358005" lon="10.068663033"><ele>4</ele><time>2020-02-23T09:31:40Z</time></trkpt>
<trkpt lat="44.027374014" lon="10.068627996"><ele>4</ele><time>2020-02-23T09:31:41Z</time></trkpt>
<trkpt lat="44.02739103" lon="10.06859296"><ele>4</ele><time>2020-02-23T09:31:42Z</time></trkpt>
<trkpt lat="44.027407961" lon="10.068558007"><ele>4</ele><time>2020-02-23T09:31:43Z</time></trkpt>
<trkpt lat="44.02742397" lon="10.068522971"><ele>4</ele><time>2020-02-23T09:31:44Z</time></trkpt>
<trkpt lat="44.027440986" lon="10.068488019"><ele>4</ele><time>2020-02-23T09:31:45Z</time></trkpt>
<trkpt lat="44.027458001" lon="10.068452982"><ele>4</ele><time>2020-02-23T09:31:46Z</time></trkpt>
<trkpt lat="44.02747401" lon="10.06841803"><ele>4</ele><time>2020-02-23T09:31:47Z</time></trkpt>
<trkpt lat="44.027491026" lon="10.068382993"><ele>4</ele><time>2020-02-23T09:31:48Z</time></trkpt>
<trkpt lat="44.027508041" lon="10.068347035"><ele>4</ele><time>2020-02-23T09:31:49Z</time></trkpt>
<trkpt lat="44.027524972" lon="10.068311999"><ele>4</ele><time>2020-02-23T09:31:50Z</time></trkpt>
<trkpt lat="44.027540982" lon="10.068276962"><ele>4</ele><time>2020-02-23T09:31:51Z</time></trkpt>
<trkpt lat="44.027557997" lon="10.06824201"><ele>4</ele><time>2020-02-23T09:31:52Z</time></trkpt>
<trkpt lat="44.027575012" lon="10.068205968"><ele>4</ele><time>2020-02-23T09:31:53Z</time></trkpt>
<trkpt lat="44.027592028" lon="10.068171015"><ele>4</ele><time>2020-02-23T09:31:54Z</time></trkpt>
<trkpt lat="44.027608037" lon="10.068135979"><ele>4</ele><time>2020-02-23T09:31:55Z</time></trkpt>
<trkpt lat="44.027624968" lon="10.068101026"><ele>4</ele><time>2020-02-23T09:31:56Z</time></trkpt>
<trkpt lat="44.027641984" lon="10.068064984"><ele>4</ele><time>2020-02-23T09:31:57Z</time></trkpt>
<trkpt lat="44.027657993" lon="10.068030031"><ele>4</ele><time>2020-02-23T09:31:58Z</time></trkpt>
<trkpt lat="44.027675008" lon="10.067993989"><ele>4</ele><time>2020-02-23T09:31:59Z</time></trkpt>
<trkpt lat="44.027692024" lon="10.067959037"><ele>4</ele><time>2020-02-23T09:32:00Z</time></trkpt>
<trkpt lat="44.027708033" lon="10.067924"><ele>4</ele><time>2020-02-23T09:32:01Z</time></trkpt>
<trkpt lat="44.027724965" lon="10.067887958"><ele>4</ele><time>2020-02-23T09:32:02Z</time></trkpt>
<trkpt lat="44.02774198" lon="10.067853006"><ele>4</ele><time>2020-02-23T09:32:03Z</time></trkpt>
<trkpt lat="44.027757989" lon="10.067816963"><ele>4</ele><time>2020-02-23T09:32:04Z</time></trkpt>
<trkpt lat="44.027775005" lon="10.067782011"><ele>4</ele><time>2020-02-23T09:32:05Z</time></trkpt>
<trkpt lat="44.027791014" lon="10.067745969"><ele>5</ele><time>2020-02-23T09:32:06Z</time></trkpt>
<trkpt lat="44.027808029" lon="10.067711016"><ele>5</ele><time>2020-02-23T09:32:07Z</time></trkpt>
<trkpt lat="44.027824039" lon="10.067674974"><ele>5</ele><time>2020-02-23T09:32:08Z</time></trkpt>
<trkpt lat="44.027839964" lon="10.067640021"><ele>5</ele><time>2020-02-23T09:32:09Z</time></trkpt>
<trkpt lat="44.02785698" lon="10.067603979"><ele>5</ele><time>2020-02-23T09:32:10Z</time></trkpt>
<trkpt lat="44.027872989" lon="10.067569027"><ele>5</ele><time>2020-02-23T09:32:11Z</time></trkpt>
<trkpt lat="44.027890004" lon="10.067532985"><ele>5</ele><time>2020-02-23T09:32:12Z</time></trkpt>
<trkpt lat="44.027906014" lon="10.067498032"><ele>5</ele><time>2020-02-23T09:32:13Z</time></trkpt>
<trkpt lat="44.027922023" lon="10.06746199"><ele>5</ele><time>2020-02-23T09:32:14Z</time></trkpt>
<trkpt lat="44.027939038" lon="10.067427037"><ele>5</ele><time>2020-02-23T09:32:15Z</time></trkpt>
<trkpt lat="44.027954964" lon="10.067392001"><ele>5</ele><time>2020-02-23T09:32:16Z</time></trkpt>
<trkpt lat="44.027970973" lon="10.067355959"><ele>5</ele><time>2020-02-23T09:32:17Z</time></trkpt>
<trkpt lat="44.027987989" lon="10.067321006"><ele>5</ele><time>2020-02-23T09:32:18Z</time></trkpt>
<trkpt lat="44.028003998" lon="10.067284964"><ele>6</ele><time>2020-02-23T09:32:19Z</time></trkpt>
<trkpt lat="44.028020008" lon="10.067250011"><ele>6</ele><time>2020-02-23T09:32:20Z</time></trkpt>
<trkpt lat="44.028036017" lon="10.067214975"><ele>6</ele><time>2020-02-23T09:32:21Z</time></trkpt>
<trkpt lat="44.028053032" lon="10.067179017"><ele>6</ele><time>2020-02-23T09:32:22Z</time></trkpt>
<trkpt lat="44.028069042" lon="10.06714398"><ele>6</ele><time>2020-02-23T09:32:23Z</time></trkpt>
<trkpt lat="44.028084967" lon="10.067109028"><ele>6</ele><time>2020-02-23T09:32:24Z</time></trkpt>
<trkpt lat="44.028100977" lon="10.067073992"><ele>6</ele><time>2020-02-23T09:32:25Z</time></trkpt>
<trkpt lat="44.028117992" lon="10.067039039"><ele>6</ele><time>2020-02-23T09:32:26Z</time></trkpt>
<trkpt lat="44.028134001" lon="10.067002997"><ele>6</ele><time>2020-02-23T09:32:27Z</time></trkpt>
<trkpt lat="44.028150011" lon="10.06696796"><ele>6</ele><time>2020-02-23T09:32:28Z</time></trkpt>
<trkpt lat="44.02816602" lon="10.066933008"><ele>6</ele><time>2020-02-23T09:32:29Z</time></trkpt>
<trkpt lat="44.028183036" lon="10.066897972"><ele>6</ele><time>2020-02-23T09:32:30Z</time></trkpt>
<trkpt lat="44.028198961" lon="10.066863019"><ele>6</ele><time>2020-02-23T09:32:31Z</time></trkpt>
<trkpt lat="44.028214971" lon="10.066827983"><ele>7</ele><time>2020-02-23T09:32:32Z</time></trkpt>
<trkpt lat="44.02823098" lon="10.06679303"><ele>7</ele><time>2020-02-23T09:32:33Z</time></trkpt>
<trkpt lat="44.028246989" lon="10.066757994"><ele>7</ele><time>2020-02-23T09:32:34Z</time></trkpt>
<trkpt lat="44.028262999" lon="10.066723041"><ele>7</ele><time>2020-02-23T09:32:35Z</time></trkpt>
<trkpt lat="44.028280014" lon="10.066688005"><ele>7</ele><time>2020-02-23T09:32:36Z</time></trkpt>
<trkpt lat="44.028296024" lon="10.066652969"><ele>7</ele><time>2020-02-23T09:32:37Z</time></trkpt>
<trkpt lat="44.028312033" lon="10.066618016"><ele>7</ele><time>2020-02-23T09:32:38Z</time></trkpt>
<trkpt lat="44.028327959" lon="10.06658298"><ele>7</ele><time>2020-02-23T09:32:39Z</time></trkpt>
<trkpt lat="44.028343968" lon="10.066547021"><ele>7</ele><time>2020-02-23T09:32:40Z</time></trkpt>
<trkpt lat="44.028359978" lon="10.066511985"><ele>7</ele><time>2020-02-23T09:32:41Z</time></trkpt>
<trkpt lat="44.028374981" lon="10.066477032"><ele>7</ele><time>2020-02-23T09:32:42Z</time></trkpt>
<trkpt lat="44.028390991" lon="10.06644099"><ele>7</ele><time>2020-02-23T09:32:43Z</time></trkpt>
<trkpt lat="44.028407" lon="10.066406038"><ele>7</ele><time>2020-02-23T09:32:44Z</time></trkpt>
<trkpt lat="44.028423009" lon="10.066369995"><ele>7</ele><time>2020-02-23T09:32:45Z</time></trkpt>
<trkpt lat="44.028438013" lon="10.066334959"><ele>7</ele><time>2020-02-23T09:32:46Z</time></trkpt>
<trkpt lat="44.028454022" lon="10.066299001"><ele>7</ele><time>2020-02-23T09:32:47Z</time></trkpt>
<trkpt lat="44.028470032" lon="10.066262959"><ele>7</ele><time>2020-02-23T09:32:48Z</time></trkpt>
<trkpt lat="44.028485036" lon="10.066227"><ele>7</ele><time>2020-02-23T09:32:49Z</time></trkpt>
<trkpt lat="44.028500961" lon="10.066191042"><ele>7</ele><time>2020-02-23T09:32:50Z</time></trkpt>
<trkpt lat="44.028515965" lon="10.066155"><ele>7</ele><time>2020-02-23T09:32:51Z</time></trkpt>
<trkpt lat="44.028530968" lon="10.066119041"><ele>8</ele><time>2020-02-23T09:32:52Z</time></trkpt>
<trkpt lat="44.028546978" lon="10.066081993"><ele>8</ele><time>2020-02-23T09:32:53Z</time></trkpt>
<trkpt lat="44.028561981" lon="10.066047041"><ele>8</ele><time>2020-02-23T09:32:54Z</time></trkpt>
<trkpt lat="44.028577991" lon="10.066012004"><ele>8</ele><time>2020-02-23T09:32:55Z</time></trkpt>
<trkpt lat="44.028595006" lon="10.065977974"><ele>8</ele><time>2020-02-23T09:32:56Z</time></trkpt>
<trkpt lat="44.028612021" lon="10.065945033"><ele>8</ele><time>2020-02-23T09:32:57Z</time></trkpt>
<trkpt lat="44.028630964" lon="10.06591402"><ele>8</ele><time>2020-02-23T09:32:58Z</time></trkpt>
<trkpt lat="44.028649991" lon="10.065884013"><ele>8</ele><time>2020-02-23T09:32:59Z</time></trkpt>
<trkpt lat="44.028669018" lon="10.065854006"><ele>8</ele><time>2020-02-23T09:33:00Z</time></trkpt>
<trkpt lat="44.028687961" lon="10.065825004"><ele>9</ele><time>2020-02-23T09:33:01Z</time></trkpt>
<trkpt lat="44.028706988" lon="10.065796003"><ele>9</ele><time>2020-02-23T09:33:02Z</time></trkpt>
<trkpt lat="44.028726015" lon="10.065765996"><ele>9</ele><time>2020-02-23T09:33:03Z</time></trkpt>
<trkpt lat="44.028744036" lon="10.065734982"><ele>9</ele><time>2020-02-23T09:33:04Z</time></trkpt>
<trkpt lat="44.028761974" lon="10.065702964"><ele>9</ele><time>2020-02-23T09:33:05Z</time></trkpt>
<trkpt lat="44.028778989" lon="10.065671029"><ele>8</ele><time>2020-02-23T09:33:06Z</time></trkpt>
<trkpt lat="44.028796004" lon="10.065636998"><ele>8</ele><time>2020-02-23T09:33:07Z</time></trkpt>
<trkpt lat="44.028812014" lon="10.065602968"><ele>8</ele><time>2020-02-23T09:33:08Z</time></trkpt>
<trkpt lat="44.028828023" lon="10.065569021"><ele>8</ele><time>2020-02-23T09:33:09Z</time></trkpt>
<trkpt lat="44.028844032" lon="10.065533984"><ele>8</ele><time>2020-02-23T09:33:10Z</time></trkpt>
<trkpt lat="44.028859036" lon="10.065498026"><ele>8</ele><time>2020-02-23T09:33:11Z</time></trkpt>
<trkpt lat="44.02887404" lon="10.065461984"><ele>8</ele><time>2020-02-23T09:33:12Z</time></trkpt>
<trkpt lat="44.028888959" lon="10.065426026"><ele>8</ele><time>2020-02-23T09:33:13Z</time></trkpt>
<trkpt lat="44.028904969" lon="10.065389983"><ele>8</ele><time>2020-02-23T09:33:14Z</time></trkpt>
<trkpt lat="44.028919972" lon="10.065353019"><ele>8</ele><time>2020-02-23T09:33:15Z</time></trkpt>
<trkpt lat="44.028934976" lon="10.065316977"><ele>8</ele><time>2020-02-23T09:33:16Z</time></trkpt>
<trkpt lat="44.028950986" lon="10.065281019"><ele>8</ele><time>2020-02-23T09:33:17Z</time></trkpt>
<trkpt lat="44.028965989" lon="10.065243971"><ele>7</ele><time>2020-02-23T09:33:18Z</time></trkpt>
<trkpt lat="44.028981999" lon="10.065208012"><ele>7</ele><time>2020-02-23T09:33:19Z</time></trkpt>
<trkpt lat="44.028998008" lon="10.06517197"><ele>7</ele><time>2020-02-23T09:33:20Z</time></trkpt>
<trkpt lat="44.029014017" lon="10.065136012"><ele>7</ele><time>2020-02-23T09:33:21Z</time></trkpt>
<trkpt lat="44.029030027" lon="10.065098964"><ele>7</ele><time>2020-02-23T09:33:22Z</time></trkpt>
<trkpt lat="44.029046036" lon="10.065063005"><ele>7</ele><time>2020-02-23T09:33:23Z</time></trkpt>
<trkpt lat="44.029061962" lon="10.065026963"><ele>7</ele><time>2020-02-23T09:33:24Z</time></trkpt>
<trkpt lat="44.029077971" lon="10.064991005"><ele>7</ele><time>2020-02-23T09:33:25Z</time></trkpt>
<trkpt lat="44.029093981" lon="10.064954963"><ele>7</ele><time>2020-02-23T09:33:26Z</time></trkpt>
<trkpt lat="44.02910999" lon="10.064919004"><ele>7</ele><time>2020-02-23T09:33:27Z</time></trkpt>
<trkpt lat="44.029126" lon="10.064882962"><ele>6</ele><time>2020-02-23T09:33:28Z</time></trkpt>
<trkpt lat="44.029143015" lon="10.064847004"><ele>6</ele><time>2020-02-23T09:33:29Z</time></trkpt>
<trkpt lat="44.029159024" lon="10.064810961"><ele>6</ele><time>2020-02-23T09:33:30Z</time></trkpt>
<trkpt lat="44.029175034" lon="10.064775003"><ele>6</ele><time>2020-02-23T09:33:31Z</time></trkpt>
<trkpt lat="44.029190959" lon="10.064738961"><ele>6</ele><time>2020-02-23T09:33:32Z</time></trkpt>
<trkpt lat="44.029207975" lon="10.064703003"><ele>6</ele><time>2020-02-23T09:33:33Z</time></trkpt>
<trkpt lat="44.029223984" lon="10.064667966"><ele>6</ele><time>2020-02-23T09:33:34Z</time></trkpt>
<trkpt lat="44.029239994" lon="10.064632008"><ele>6</ele><time>2020-02-23T09:33:35Z</time></trkpt>
<trkpt lat="44.029256003" lon="10.064596971"><ele>6</ele><time>2020-02-23T09:33:36Z</time></trkpt>
<trkpt lat="44.029304031" lon="10.064491024"><ele>6</ele><time>2020-02-23T09:33:39Z</time></trkpt>
<trkpt lat="44.029320041" lon="10.064454982"><ele>6</ele><time>2020-02-23T09:33:40Z</time></trkpt>
<trkpt lat="44.029335966" lon="10.06442003"><ele>6</ele><time>2020-02-23T09:33:41Z</time></trkpt>
<trkpt lat="44.029351976" lon="10.064384993"><ele>6</ele><time>2020-02-23T09:33:42Z</time></trkpt>
<trkpt lat="44.029367985" lon="10.064350041"><ele>6</ele><time>2020-02-23T09:33:43Z</time></trkpt>
<trkpt lat="44.029382989" lon="10.064315004"><ele>6</ele><time>2020-02-23T09:33:44Z</time></trkpt>
<trkpt lat="44.029398998" lon="10.064279968"><ele>6</ele><time>2020-02-23T09:33:45Z</time></trkpt>
<trkpt lat="44.029414002" lon="10.064245015"><ele>5</ele><time>2020-02-23T09:33:46Z</time></trkpt>
<trkpt lat="44.029429005" lon="10.064210985"><ele>5</ele><time>2020-02-23T09:33:47Z</time></trkpt>
<trkpt lat="44.029445015" lon="10.064176032"><ele>5</ele><time>2020-02-23T09:33:48Z</time></trkpt>
<trkpt lat="44.029460019" lon="10.064140996"><ele>5</ele><time>2020-02-23T09:33:49Z</time></trkpt>
<trkpt lat="44.029475022" lon="10.06410596"><ele>5</ele><time>2020-02-23T09:33:50Z</time></trkpt>
<trkpt lat="44.029490026" lon="10.064071007"><ele>5</ele><time>2020-02-23T09:33:51Z</time></trkpt>
<trkpt lat="44.029505029" lon="10.064035971"><ele>5</ele><time>2020-02-23T09:33:52Z</time></trkpt>
<trkpt lat="44.029520033" lon="10.064000012"><ele>5</ele><time>2020-02-23T09:33:53Z</time></trkpt>
<trkpt lat="44.029535037" lon="10.063964976"><ele>5</ele><time>2020-02-23T09:33:54Z</time></trkpt>
<trkpt lat="44.02955004" lon="10.063930023"><ele>5</ele><time>2020-02-23T09:33:55Z</time></trkpt>
<trkpt lat="44.029564038" lon="10.063893981"><ele>5</ele><time>2020-02-23T09:33:56Z</time></trkpt>
<trkpt lat="44.029579042" lon="10.063859029"><ele>5</ele><time>2020-02-23T09:33:57Z</time></trkpt>
<trkpt lat="44.029593961" lon="10.063822987"><ele>5</ele><time>2020-02-23T09:33:58Z</time></trkpt>
<trkpt lat="44.029607959" lon="10.063787028"><ele>5</ele><time>2020-02-23T09:33:59Z</time></trkpt>
<trkpt lat="44.029622041" lon="10.063750986"><ele>5</ele><time>2020-02-23T09:34:00Z</time></trkpt>
<trkpt lat="44.02963696" lon="10.063714022"><ele>5</ele><time>2020-02-23T09:34:01Z</time></trkpt>
<trkpt lat="44.029650958" lon="10.06367798"><ele>5</ele><time>2020-02-23T09:34:02Z</time></trkpt>
<trkpt lat="44.02966504" lon="10.063641015"><ele>5</ele><time>2020-02-23T09:34:03Z</time></trkpt>
<trkpt lat="44.02967996" lon="10.063603967"><ele>5</ele><time>2020-02-23T09:34:04Z</time></trkpt>
<trkpt lat="44.029694041" lon="10.063565997"><ele>5</ele><time>2020-02-23T09:34:05Z</time></trkpt>
<trkpt lat="44.029708039" lon="10.063529033"><ele>5</ele><time>2020-02-23T09:34:06Z</time></trkpt>
<trkpt lat="44.029722037" lon="10.063490979"><ele>5</ele><time>2020-02-23T09:34:07Z</time></trkpt>
<trkpt lat="44.029736035" lon="10.063453009"><ele>5</ele><time>2020-02-23T09:34:08Z</time></trkpt>
<trkpt lat="44.029750032" lon="10.063415961"><ele>5</ele><time>2020-02-23T09:34:09Z</time></trkpt>
<trkpt lat="44.02976403" lon="10.063377991"><ele>5</ele><time>2020-02-23T09:34:10Z</time></trkpt>
<trkpt lat="44.029778028" lon="10.063340021"><ele>5</ele><time>2020-02-23T09:34:11Z</time></trkpt>
<trkpt lat="44.029792026" lon="10.063302973"><ele>4</ele><time>2020-02-23T09:34:12Z</time></trkpt>
<trkpt lat="44.029807029" lon="10.063266009"><ele>4</ele><time>2020-02-23T09:34:13Z</time></trkpt>
<trkpt lat="44.029821027" lon="10.063228961"><ele>4</ele><time>2020-02-23T09:34:14Z</time></trkpt>
<trkpt lat="44.029836031" lon="10.063191997"><ele>4</ele><time>2020-02-23T09:34:15Z</time></trkpt>
<trkpt lat="44.029850028" lon="10.063156039"><ele>4</ele><time>2020-02-23T09:34:16Z</time></trkpt>
<trkpt lat="44.029865032" lon="10.063119996"><ele>4</ele><time>2020-02-23T09:34:17Z</time></trkpt>
<trkpt lat="44.029880036" lon="10.06308496"><ele>4</ele><time>2020-02-23T09:34:18Z</time></trkpt>
<trkpt lat="44.029895961" lon="10.063050007"><ele>4</ele><time>2020-02-23T09:34:19Z</time></trkpt>
<trkpt lat="44.029910965" lon="10.063014971"><ele>4</ele><time>2020-02-23T09:34:20Z</time></trkpt>
<trkpt lat="44.029925968" lon="10.062980019"><ele>4</ele><time>2020-02-23T09:34:21Z</time></trkpt>
<trkpt lat="44.029941978" lon="10.062945988"><ele>4</ele><time>2020-02-23T09:34:22Z</time></trkpt>
<trkpt lat="44.029956982" lon="10.062912041"><ele>4</ele><time>2020-02-23T09:34:23Z</time></trkpt>
<trkpt lat="44.029971985" lon="10.062878011"><ele>4</ele><time>2020-02-23T09:34:24Z</time></trkpt>
<trkpt lat="44.029987995" lon="10.06284398"><ele>4</ele><time>2020-02-23T09:34:25Z</time></trkpt>
<trkpt lat="44.030002998" lon="10.062810034"><ele>4</ele><time>2020-02-23T09:34:26Z</time></trkpt>
<trkpt lat="44.030018002" lon="10.062776003"><ele>4</ele><time>2020-02-23T09:34:27Z</time></trkpt>
<trkpt lat="44.030034011" lon="10.062741973"><ele>4</ele><time>2020-02-23T09:34:28Z</time></trkpt>
<trkpt lat="44.030049015" lon="10.06270702"><ele>4</ele><time>2020-02-23T09:34:29Z</time></trkpt>
<trkpt lat="44.030064018" lon="10.062672989"><ele>4</ele><time>2020-02-23T09:34:30Z</time></trkpt>
<trkpt lat="44.030078016" lon="10.062638037"><ele>4</ele><time>2020-02-23T09:34:31Z</time></trkpt>
<trkpt lat="44.03009302" lon="10.062603001"><ele>4</ele><time>2020-02-23T09:34:32Z</time></trkpt>
<trkpt lat="44.030108023" lon="10.062567964"><ele>4</ele><time>2020-02-23T09:34:33Z</time></trkpt>
<trkpt lat="44.030122021" lon="10.062533012"><ele>4</ele><time>2020-02-23T09:34:34Z</time></trkpt>
<trkpt lat="44.030137025" lon="10.062497975"><ele>4</ele><time>2020-02-23T09:34:35Z</time></trkpt>
<trkpt lat="44.030151023" lon="10.062463023"><ele>4</ele><time>2020-02-23T09:34:36Z</time></trkpt>
<trkpt lat="44.03016502" lon="10.062426981"><ele>3</ele><time>2020-02-23T09:34:37Z</time></trkpt>
<trkpt lat="44.030179018" lon="10.062392028"><ele>3</ele><time>2020-02-23T09:34:38Z</time></trkpt>
<trkpt lat="44.030194022" lon="10.062355986"><ele>3</ele><time>2020-02-23T09:34:39Z</time></trkpt>
<trkpt lat="44.03020802" lon="10.062320028"><ele>3</ele><time>2020-02-23T09:34:40Z</time></trkpt>
<trkpt lat="44.030222017" lon="10.062283985"><ele>3</ele><time>2020-02-23T09:34:41Z</time></trkpt>
<trkpt lat="44.030236015" lon="10.062248027"><ele>3</ele><time>2020-02-23T09:34:42Z</time></trkpt>
<trkpt lat="44.030250013" lon="10.062211985"><ele>3</ele><time>2020-02-23T09:34:43Z</time></trkpt>
<trkpt lat="44.030264011" lon="10.062176026"><ele>3</ele><time>2020-02-23T09:34:44Z</time></trkpt>
<trkpt lat="44.030278008" lon="10.062139984"><ele>3</ele><time>2020-02-23T09:34:45Z</time></trkpt>
<trkpt lat="44.030292006" lon="10.062104026"><ele>3</ele><time>2020-02-23T09:34:46Z</time></trkpt>
<trkpt lat="44.030306004" lon="10.062067984"><ele>3</ele><time>2020-02-23T09:34:47Z</time></trkpt>
<trkpt lat="44.030320002" lon="10.062032025"><ele>3</ele><time>2020-02-23T09:34:48Z</time></trkpt>
<trkpt lat="44.030334" lon="10.061994977"><ele>3</ele><time>2020-02-23T09:34:49Z</time></trkpt>
<trkpt lat="44.030347997" lon="10.061959019"><ele>3</ele><time>2020-02-23T09:34:50Z</time></trkpt>
<trkpt lat="44.030361995" lon="10.061922977"><ele>3</ele><time>2020-02-23T09:34:51Z</time></trkpt>
<trkpt lat="44.030375993" lon="10.061887018"><ele>3</ele><time>2020-02-23T09:34:52Z</time></trkpt>
<trkpt lat="44.030390996" lon="10.06184997"><ele>3</ele><time>2020-02-23T09:34:53Z</time></trkpt>
<trkpt lat="44.030404994" lon="10.061814012"><ele>3</ele><time>2020-02-23T09:34:54Z</time></trkpt>
<trkpt lat="44.030418992" lon="10.06177797"><ele>3</ele><time>2020-02-23T09:34:55Z</time></trkpt>
<trkpt lat="44.030433996" lon="10.061742011"><ele>3</ele><time>2020-02-23T09:34:56Z</time></trkpt>
<trkpt lat="44.030447993" lon="10.061704963"><ele>3</ele><time>2020-02-23T09:34:57Z</time></trkpt>
<trkpt lat="44.030462997" lon="10.061669005"><ele>3</ele><time>2020-02-23T09:34:58Z</time></trkpt>
<trkpt lat="44.030476995" lon="10.061632963"><ele>3</ele><time>2020-02-23T09:34:59Z</time></trkpt>
<trkpt lat="44.030491998" lon="10.061597005"><ele>3</ele><time>2020-02-23T09:35:00Z</time></trkpt>
<trkpt lat="44.030507002" lon="10.06156004"><ele>3</ele><time>2020-02-23T09:35:01Z</time></trkpt>
<trkpt lat="44.030521" lon="10.061523998"><ele>4</ele><time>2020-02-23T09:35:02Z</time></trkpt>
<trkpt lat="44.030536003" lon="10.06148804"><ele>4</ele><time>2020-02-23T09:35:03Z</time></trkpt>
<trkpt lat="44.030551007" lon="10.061451998"><ele>4</ele><time>2020-02-23T09:35:04Z</time></trkpt>
<trkpt lat="44.030566011" lon="10.061415033"><ele>4</ele><time>2020-02-23T09:35:05Z</time></trkpt>
<trkpt lat="44.030580008" lon="10.061378991"><ele>4</ele><time>2020-02-23T09:35:06Z</time></trkpt>
<trkpt lat="44.030595012" lon="10.061343033"><ele>4</ele><time>2020-02-23T09:35:07Z</time></trkpt>
<trkpt lat="44.030610016" lon="10.061305985"><ele>4</ele><time>2020-02-23T09:35:08Z</time></trkpt>
<trkpt lat="44.030625019" lon="10.061270026"><ele>4</ele><time>2020-02-23T09:35:09Z</time></trkpt>
<trkpt lat="44.030640023" lon="10.061232978"><ele>4</ele><time>2020-02-23T09:35:10Z</time></trkpt>
<trkpt lat="44.030655026" lon="10.06119702"><ele>4</ele><time>2020-02-23T09:35:11Z</time></trkpt>
<trkpt lat="44.03067003" lon="10.061160978"><ele>4</ele><time>2020-02-23T09:35:12Z</time></trkpt>
<trkpt lat="44.030685034" lon="10.061124014"><ele>4</ele><time>2020-02-23T09:35:13Z</time></trkpt>
<trkpt lat="44.030700037" lon="10.061087972"><ele>4</ele><time>2020-02-23T09:35:14Z</time></trkpt>
<trkpt lat="44.030715041" lon="10.061051007"><ele>4</ele><time>2020-02-23T09:35:15Z</time></trkpt>
<trkpt lat="44.030729961" lon="10.061013959"><ele>4</ele><time>2020-02-23T09:35:16Z</time></trkpt>
<trkpt lat="44.030744964" lon="10.060978001"><ele>4</ele><time>2020-02-23T09:35:17Z</time></trkpt>
<trkpt lat="44.030759968" lon="10.060941037"><ele>4</ele><time>2020-02-23T09:35:18Z</time></trkpt>
<trkpt lat="44.030773966" lon="10.060904995"><ele>4</ele><time>2020-02-23T09:35:19Z</time></trkpt>
<trkpt lat="44.030788969" lon="10.06086803"><ele>4</ele><time>2020-02-23T09:35:20Z</time></trkpt>
<trkpt lat="44.030803973" lon="10.060830982"><ele>4</ele><time>2020-02-23T09:35:21Z</time></trkpt>
<trkpt lat="44.030818976" lon="10.060794018"><ele>4</ele><time>2020-02-23T09:35:22Z</time></trkpt>
<trkpt lat="44.03083398" lon="10.060757976"><ele>4</ele><time>2020-02-23T09:35:23Z</time></trkpt>
<trkpt lat="44.030848984" lon="10.060721012"><ele>4</ele><time>2020-02-23T09:35:24Z</time></trkpt>
<trkpt lat="44.030863987" lon="10.060683964"><ele>4</ele><time>2020-02-23T09:35:25Z</time></trkpt>
<trkpt lat="44.030877985" lon="10.060648005"><ele>4</ele><time>2020-02-23T09:35:26Z</time></trkpt>
<trkpt lat="44.030892989" lon="10.060611041"><ele>4</ele><time>2020-02-23T09:35:27Z</time></trkpt>
<trkpt lat="44.030907992" lon="10.060573993"><ele>4</ele><time>2020-02-23T09:35:28Z</time></trkpt>
<trkpt lat="44.03092199" lon="10.060537029"><ele>4</ele><time>2020-02-23T09:35:29Z</time></trkpt>
<trkpt lat="44.030936994" lon="10.060500987"><ele>4</ele><time>2020-02-23T09:35:30Z</time></trkpt>
<trkpt lat="44.030950991" lon="10.060464023"><ele>4</ele><time>2020-02-23T09:35:31Z</time></trkpt>
<trkpt lat="44.030965995" lon="10.06042798"><ele>4</ele><time>2020-02-23T09:35:32Z</time></trkpt>
<trkpt lat="44.030979993" lon="10.060391016"><ele>4</ele><time>2020-02-23T09:35:33Z</time></trkpt>
<trkpt lat="44.030994996" lon="10.060354974"><ele>4</ele><time>2020-02-23T09:35:34Z</time></trkpt>
<trkpt lat="44.031008994" lon="10.06031801"><ele>4</ele><time>2020-02-23T09:35:35Z</time></trkpt>
<trkpt lat="44.031022992" lon="10.060280962"><ele>4</ele><time>2020-02-23T09:35:36Z</time></trkpt>
<trkpt lat="44.031037996" lon="10.060245004"><ele>4</ele><time>2020-02-23T09:35:37Z</time></trkpt>
<trkpt lat="44.031051993" lon="10.060208039"><ele>4</ele><time>2020-02-23T09:35:38Z</time></trkpt>
<trkpt lat="44.031066997" lon="10.060171997"><ele>4</ele><time>2020-02-23T09:35:39Z</time></trkpt>
<trkpt lat="44.031080995" lon="10.060135033"><ele>4</ele><time>2020-02-23T09:35:40Z</time></trkpt>
<trkpt lat="44.031095998" lon="10.060097985"><ele>4</ele><time>2020-02-23T09:35:41Z</time></trkpt>
<trkpt lat="44.031109996" lon="10.060061021"><ele>4</ele><time>2020-02-23T09:35:42Z</time></trkpt>
<trkpt lat="44.031125" lon="10.060023973"><ele>4</ele><time>2020-02-23T09:35:43Z</time></trkpt>
<trkpt lat="44.031140003" lon="10.059988014"><ele>4</ele><time>2020-02-23T09:35:44Z</time></trkpt>
<trkpt lat="44.031155007" lon="10.059950966"><ele>4</ele><time>2020-02-23T09:35:45Z</time></trkpt>
<trkpt lat="44.031169005" lon="10.059914002"><ele>4</ele><time>2020-02-23T09:35:46Z</time></trkpt>
<trkpt lat="44.031184008" lon="10.059877038"><ele>4</ele><time>2020-02-23T09:35:47Z</time></trkpt>
<trkpt lat="44.031199012" lon="10.05983999"><ele>4</ele><time>2020-02-23T09:35:48Z</time></trkpt>
<trkpt lat="44.031214016" lon="10.05980202"><ele>4</ele><time>2020-02-23T09:35:49Z</time></trkpt>
<trkpt lat="44.031229019" lon="10.059764972"><ele>4</ele><time>2020-02-23T09:35:50Z</time></trkpt>
<trkpt lat="44.031244023" lon="10.059728008"><ele>4</ele><time>2020-02-23T09:35:51Z</time></trkpt>
<trkpt lat="44.031260032" lon="10.05969096"><ele>4</ele><time>2020-02-23T09:35:52Z</time></trkpt>
<trkpt lat="44.031275036" lon="10.059653996"><ele>4</ele><time>2020-02-23T09:35:53Z</time></trkpt>
<trkpt lat="44.031290039" lon="10.059617031"><ele>4</ele><time>2020-02-23T09:35:54Z</time></trkpt>
<trkpt lat="44.031334966" lon="10.059505971"><ele>4</ele><time>2020-02-23T09:35:57Z</time></trkpt>
<trkpt lat="44.031350976" lon="10.059469007"><ele>4</ele><time>2020-02-23T09:35:58Z</time></trkpt>
<trkpt lat="44.031365979" lon="10.059431959"><ele>4</ele><time>2020-02-23T09:35:59Z</time></trkpt>
<trkpt lat="44.031380983" lon="10.059394995"><ele>4</ele><time>2020-02-23T09:36:00Z</time></trkpt>
<trkpt lat="44.031395987" lon="10.059359036"><ele>4</ele><time>2020-02-23T09:36:01Z</time></trkpt>
<trkpt lat="44.03141099" lon="10.059321988"><ele>4</ele><time>2020-02-23T09:36:02Z</time></trkpt>
<trkpt lat="44.031425994" lon="10.059285024"><ele>4</ele><time>2020-02-23T09:36:03Z</time></trkpt>
<trkpt lat="44.031440997" lon="10.059248982"><ele>4</ele><time>2020-02-23T09:36:04Z</time></trkpt>
<trkpt lat="44.031456001" lon="10.059212018"><ele>4</ele><time>2020-02-23T09:36:05Z</time></trkpt>
<trkpt lat="44.031471005" lon="10.059175976"><ele>4</ele><time>2020-02-23T09:36:06Z</time></trkpt>
<trkpt lat="44.031486008" lon="10.059140017"><ele>4</ele><time>2020-02-23T09:36:07Z</time></trkpt>
<trkpt lat="44.031501012" lon="10.059102969"><ele>4</ele><time>2020-02-23T09:36:08Z</time></trkpt>
<trkpt lat="44.031516016" lon="10.059067011"><ele>4</ele><time>2020-02-23T09:36:09Z</time></trkpt>
<trkpt lat="44.031531019" lon="10.059030969"><ele>4</ele><time>2020-02-23T09:36:10Z</time></trkpt>
<trkpt lat="44.031546023" lon="10.05899501"><ele>4</ele><time>2020-02-23T09:36:11Z</time></trkpt>
<trkpt lat="44.031560021" lon="10.058958968"><ele>4</ele><time>2020-02-23T09:36:12Z</time></trkpt>
<trkpt lat="44.031575024" lon="10.058924016"><ele>4</ele><time>2020-02-23T09:36:13Z</time></trkpt>
<trkpt lat="44.031590028" lon="10.058887973"><ele>4</ele><time>2020-02-23T09:36:14Z</time></trkpt>
<trkpt lat="44.031604026" lon="10.058852015"><ele>4</ele><time>2020-02-23T09:36:15Z</time></trkpt>
<trkpt lat="44.031619029" lon="10.058815973"><ele>4</ele><time>2020-02-23T09:36:16Z</time></trkpt>
<trkpt lat="44.031634033" lon="10.05878102"><ele>4</ele><time>2020-02-23T09:36:17Z</time></trkpt>
<trkpt lat="44.031648031" lon="10.058744978"><ele>5</ele><time>2020-02-23T09:36:18Z</time></trkpt>
<trkpt lat="44.031663034" lon="10.05870902"><ele>5</ele><time>2020-02-23T09:36:19Z</time></trkpt>
<trkpt lat="44.031677032" lon="10.058673983"><ele>5</ele><time>2020-02-23T09:36:20Z</time></trkpt>
<trkpt lat="44.031692035" lon="10.058638025"><ele>5</ele><time>2020-02-23T09:36:21Z</time></trkpt>
<trkpt lat="44.031706033" lon="10.058601983"><ele>5</ele><time>2020-02-23T09:36:22Z</time></trkpt>
<trkpt lat="44.031721037" lon="10.05856703"><ele>5</ele><time>2020-02-23T09:36:23Z</time></trkpt>
<trkpt lat="44.031735035" lon="10.058530988"><ele>5</ele><time>2020-02-23T09:36:24Z</time></trkpt>
<trkpt lat="44.031750038" lon="10.05849503"><ele>5</ele><time>2020-02-23T09:36:25Z</time></trkpt>
<trkpt lat="44.031764036" lon="10.058458988"><ele>5</ele><time>2020-02-23T09:36:26Z</time></trkpt>
<trkpt lat="44.031808041" lon="10.058352035"><ele>5</ele><time>2020-02-23T09:36:29Z</time></trkpt>
<trkpt lat="44.031822039" lon="10.058315992"><ele>5</ele><time>2020-02-23T09:36:30Z</time></trkpt>
<trkpt lat="44.031836037" lon="10.058279028"><ele>5</ele><time>2020-02-23T09:36:31Z</time></trkpt>
<trkpt lat="44.03185104" lon="10.058242986"><ele>5</ele><time>2020-02-23T09:36:32Z</time></trkpt>
<trkpt lat="44.031865038" lon="10.058207028"><ele>5</ele><time>2020-02-23T09:36:33Z</time></trkpt>
<trkpt lat="44.031880042" lon="10.058170985"><ele>5</ele><time>2020-02-23T09:36:34Z</time></trkpt>
<trkpt lat="44.031894039" lon="10.058134021"><ele>5</ele><time>2020-02-23T09:36:35Z</time></trkpt>
<trkpt lat="44.031908959" lon="10.058097979"><ele>5</ele><time>2020-02-23T09:36:36Z</time></trkpt>
<trkpt lat="44.031923041" lon="10.058061015"><ele>5</ele><time>2020-02-23T09:36:37Z</time></trkpt>
<trkpt lat="44.031937961" lon="10.058024973"><ele>4</ele><time>2020-02-23T09:36:38Z</time></trkpt>
<trkpt lat="44.031951958" lon="10.057988008"><ele>4</ele><time>2020-02-23T09:36:39Z</time></trkpt>
<trkpt lat="44.031966962" lon="10.057951966"><ele>4</ele><time>2020-02-23T09:36:40Z</time></trkpt>
<trkpt lat="44.03198096" lon="10.057915002"><ele>4</ele><time>2020-02-23T09:36:41Z</time></trkpt>
<trkpt lat="44.031995963" lon="10.057878038"><ele>4</ele><time>2020-02-23T09:36:42Z</time></trkpt>
<trkpt lat="44.032009961" lon="10.05784099"><ele>4</ele><time>2020-02-23T09:36:43Z</time></trkpt>
<trkpt lat="44.032024965" lon="10.057804026"><ele>4</ele><time>2020-02-23T09:36:44Z</time></trkpt>
<trkpt lat="44.032039968" lon="10.057767984"><ele>4</ele><time>2020-02-23T09:36:45Z</time></trkpt>
<trkpt lat="44.032053966" lon="10.057731019"><ele>4</ele><time>2020-02-23T09:36:46Z</time></trkpt>
<trkpt lat="44.03206897" lon="10.057693971"><ele>4</ele><time>2020-02-23T09:36:47Z</time></trkpt>
<trkpt lat="44.032082967" lon="10.057657007"><ele>4</ele><time>2020-02-23T09:36:48Z</time></trkpt>
<trkpt lat="44.032097971" lon="10.057619959"><ele>4</ele><time>2020-02-23T09:36:49Z</time></trkpt>
<trkpt lat="44.032112975" lon="10.057582995"><ele>4</ele><time>2020-02-23T09:36:50Z</time></trkpt>
<trkpt lat="44.032127978" lon="10.057546031"><ele>4</ele><time>2020-02-23T09:36:51Z</time></trkpt>
<trkpt lat="44.032141976" lon="10.057508983"><ele>4</ele><time>2020-02-23T09:36:52Z</time></trkpt>
<trkpt lat="44.03215698" lon="10.057472019"><ele>4</ele><time>2020-02-23T09:36:53Z</time></trkpt>
<trkpt lat="44.032171983" lon="10.057434971"><ele>4</ele><time>2020-02-23T09:36:54Z</time></trkpt>
<trkpt lat="44.032186987" lon="10.057397"><ele>4</ele><time>2020-02-23T09:36:55Z</time></trkpt>
<trkpt lat="44.03220199" lon="10.057360036"><ele>4</ele><time>2020-02-23T09:36:56Z</time></trkpt>
<trkpt lat="44.032216994" lon="10.057322988"><ele>4</ele><time>2020-02-23T09:36:57Z</time></trkpt>
<trkpt lat="44.032230992" lon="10.057286024"><ele>4</ele><time>2020-02-23T09:36:58Z</time></trkpt>
<trkpt lat="44.032245995" lon="10.057248976"><ele>4</ele><time>2020-02-23T09:36:59Z</time></trkpt>
<trkpt lat="44.032260999" lon="10.057212012"><ele>4</ele><time>2020-02-23T09:37:00Z</time></trkpt>
<trkpt lat="44.032276003" lon="10.057174964"><ele>4</ele><time>2020-02-23T09:37:01Z</time></trkpt>
<trkpt lat="44.032291006" lon="10.057138"><ele>4</ele><time>2020-02-23T09:37:02Z</time></trkpt>
<trkpt lat="44.03230601" lon="10.057101035"><ele>4</ele><time>2020-02-23T09:37:03Z</time></trkpt>
<trkpt lat="44.032321014" lon="10.057063987"><ele>4</ele><time>2020-02-23T09:37:04Z</time></trkpt>
<trkpt lat="44.032336017" lon="10.057027023"><ele>4</ele><time>2020-02-23T09:37:05Z</time></trkpt>
<trkpt lat="44.032351021" lon="10.056989975"><ele>4</ele><time>2020-02-23T09:37:06Z</time></trkpt>
<trkpt lat="44.032366024" lon="10.056953011"><ele>4</ele><time>2020-02-23T09:37:07Z</time></trkpt>
<trkpt lat="44.032381028" lon="10.056915963"><ele>4</ele><time>2020-02-23T09:37:08Z</time></trkpt>
<trkpt lat="44.032396032" lon="10.056878999"><ele>4</ele><time>2020-02-23T09:37:09Z</time></trkpt>
<trkpt lat="44.032411035" lon="10.056843041"><ele>4</ele><time>2020-02-23T09:37:10Z</time></trkpt>
<trkpt lat="44.032426039" lon="10.056805992"><ele>4</ele><time>2020-02-23T09:37:11Z</time></trkpt>
<trkpt lat="44.032440037" lon="10.056769028"><ele>4</ele><time>2020-02-23T09:37:12Z</time></trkpt>
<trkpt lat="44.03245504" lon="10.05673198"><ele>4</ele><time>2020-02-23T09:37:13Z</time></trkpt>
<trkpt lat="44.03246996" lon="10.056696022"><ele>4</ele><time>2020-02-23T09:37:14Z</time></trkpt>
<trkpt lat="44.032484964" lon="10.056658974"><ele>4</ele><time>2020-02-23T09:37:15Z</time></trkpt>
<trkpt lat="44.032498961" lon="10.056623016"><ele>4</ele><time>2020-02-23T09:37:16Z</time></trkpt>
<trkpt lat="44.032513965" lon="10.056585968"><ele>4</ele><time>2020-02-23T09:37:17Z</time></trkpt>
<trkpt lat="44.032527963" lon="10.056550009"><ele>4</ele><time>2020-02-23T09:37:18Z</time></trkpt>
<trkpt lat="44.032542966" lon="10.056512961"><ele>4</ele><time>2020-02-23T09:37:19Z</time></trkpt>
<trkpt lat="44.032556964" lon="10.056477003"><ele>4</ele><time>2020-02-23T09:37:20Z</time></trkpt>
<trkpt lat="44.032571968" lon="10.056440961"><ele>4</ele><time>2020-02-23T09:37:21Z</time></trkpt>
<trkpt lat="44.032585965" lon="10.056403996"><ele>4</ele><time>2020-02-23T09:37:22Z</time></trkpt>
<trkpt lat="44.032599963" lon="10.056368038"><ele>4</ele><time>2020-02-23T09:37:23Z</time></trkpt>
<trkpt lat="44.032613961" lon="10.056331996"><ele>4</ele><time>2020-02-23T09:37:24Z</time></trkpt>
<trkpt lat="44.032627959" lon="10.056296038"><ele>4</ele><time>2020-02-23T09:37:25Z</time></trkpt>
<trkpt lat="44.03264204" lon="10.056259995"><ele>4</ele><time>2020-02-23T09:37:26Z</time></trkpt>
<trkpt lat="44.032656038" lon="10.056223031"><ele>4</ele><time>2020-02-23T09:37:27Z</time></trkpt>
<trkpt lat="44.032670036" lon="10.056186989"><ele>4</ele><time>2020-02-23T09:37:28Z</time></trkpt>
<trkpt lat="44.032684034" lon="10.056151031"><ele>4</ele><time>2020-02-23T09:37:29Z</time></trkpt>
<trkpt lat="44.032697026" lon="10.056113983"><ele>4</ele><time>2020-02-23T09:37:30Z</time></trkpt>
<trkpt lat="44.032711023" lon="10.056078024"><ele>4</ele><time>2020-02-23T09:37:31Z</time></trkpt>
<trkpt lat="44.032724015" lon="10.056040976"><ele>4</ele><time>2020-02-23T09:37:32Z</time></trkpt>
<trkpt lat="44.032737007" lon="10.056004012"><ele>4</ele><time>2020-02-23T09:37:33Z</time></trkpt>
<trkpt lat="44.032749999" lon="10.05596797"><ele>4</ele><time>2020-02-23T09:37:34Z</time></trkpt>
<trkpt lat="44.032762991" lon="10.055931006"><ele>4</ele><time>2020-02-23T09:37:35Z</time></trkpt>
<trkpt lat="44.032775983" lon="10.055893036"><ele>4</ele><time>2020-02-23T09:37:36Z</time></trkpt>
<trkpt lat="44.032787969" lon="10.055855988"><ele>4</ele><time>2020-02-23T09:37:37Z</time></trkpt>
<trkpt lat="44.032800961" lon="10.055819023"><ele>4</ele><time>2020-02-23T09:37:38Z</time></trkpt>
<trkpt lat="44.032813031" lon="10.05578097"><ele>4</ele><time>2020-02-23T09:37:39Z</time></trkpt>
<trkpt lat="44.032825017" lon="10.055743"><ele>4</ele><time>2020-02-23T09:37:40Z</time></trkpt>
<trkpt lat="44.032837003" lon="10.05570503"><ele>4</ele><time>2020-02-23T09:37:41Z</time></trkpt>
<trkpt lat="44.03284899" lon="10.055666976"><ele>5</ele><time>2020-02-23T09:37:42Z</time></trkpt>
<trkpt lat="44.03285997" lon="10.055628"><ele>5</ele><time>2020-02-23T09:37:43Z</time></trkpt>
<trkpt lat="44.03287204" lon="10.055589024"><ele>5</ele><time>2020-02-23T09:37:44Z</time></trkpt>
<trkpt lat="44.03288302" lon="10.055549964"><ele>5</ele><time>2020-02-23T09:37:45Z</time></trkpt>
<trkpt lat="44.032894" lon="10.055510988"><ele>5</ele><time>2020-02-23T09:37:46Z</time></trkpt>
<trkpt lat="44.032903975" lon="10.055471007"><ele>5</ele><time>2020-02-23T09:37:47Z</time></trkpt>
<trkpt lat="44.032913027" lon="10.055432031"><ele>5</ele><time>2020-02-23T09:37:48Z</time></trkpt>
<trkpt lat="44.032921996" lon="10.055391965"><ele>5</ele><time>2020-02-23T09:37:49Z</time></trkpt>
<trkpt lat="44.032930965" lon="10.05535299"><ele>5</ele><time>2020-02-23T09:37:50Z</time></trkpt>
<trkpt lat="44.032938005" lon="10.055313008"><ele>5</ele><time>2020-02-23T09:37:51Z</time></trkpt>
<trkpt lat="44.03294404" lon="10.055274032"><ele>5</ele><time>2020-02-23T09:37:52Z</time></trkpt>
<trkpt lat="44.032949992" lon="10.055233967"><ele>5</ele><time>2020-02-23T09:37:53Z</time></trkpt>
<trkpt lat="44.032954015" lon="10.055194991"><ele>5</ele><time>2020-02-23T09:37:54Z</time></trkpt>
<trkpt lat="44.032957032" lon="10.055155009"><ele>5</ele><time>2020-02-23T09:37:55Z</time></trkpt>
<trkpt lat="44.03295896" lon="10.055116033"><ele>5</ele><time>2020-02-23T09:37:56Z</time></trkpt>
<trkpt lat="44.03295896" lon="10.055077979"><ele>5</ele><time>2020-02-23T09:37:57Z</time></trkpt>
<trkpt lat="44.032958038" lon="10.055039003"><ele>5</ele><time>2020-02-23T09:37:58Z</time></trkpt>
<trkpt lat="44.032956026" lon="10.055000028"><ele>5</ele><time>2020-02-23T09:37:59Z</time></trkpt>
<trkpt lat="44.032953009" lon="10.054961974"><ele>4</ele><time>2020-02-23T09:38:00Z</time></trkpt>
<trkpt lat="44.032948986" lon="10.054922998"><ele>4</ele><time>2020-02-23T09:38:01Z</time></trkpt>
<trkpt lat="44.032943035" lon="10.054885028"><ele>4</ele><time>2020-02-23T09:38:02Z</time></trkpt>
<trkpt lat="44.032937" lon="10.054846974"><ele>4</ele><time>2020-02-23T09:38:03Z</time></trkpt>
<trkpt lat="44.032929959" lon="10.054807998"><ele>4</ele><time>2020-02-23T09:38:04Z</time></trkpt>
<trkpt lat="44.032921996" lon="10.054770028"><ele>4</ele><time>2020-02-23T09:38:05Z</time></trkpt>
<trkpt lat="44.032914033" lon="10.054731974"><ele>4</ele><time>2020-02-23T09:38:06Z</time></trkpt>
<trkpt lat="44.032903975" lon="10.054692999"><ele>4</ele><time>2020-02-23T09:38:07Z</time></trkpt>
<trkpt lat="44.032894" lon="10.054655029"><ele>4</ele><time>2020-02-23T09:38:08Z</time></trkpt>
<trkpt lat="44.032884026" lon="10.054615969"><ele>4</ele><time>2020-02-23T09:38:09Z</time></trkpt>
<trkpt lat="44.03287204" lon="10.054577999"><ele>4</ele><time>2020-02-23T09:38:10Z</time></trkpt>
<trkpt lat="44.032860976" lon="10.054539023"><ele>4</ele><time>2020-02-23T09:38:11Z</time></trkpt>
<trkpt lat="44.032847984" lon="10.054500969"><ele>4</ele><time>2020-02-23T09:38:12Z</time></trkpt>
<trkpt lat="44.032835998" lon="10.054461993"><ele>4</ele><time>2020-02-23T09:38:13Z</time></trkpt>
<trkpt lat="44.032823006" lon="10.054424023"><ele>4</ele><time>2020-02-23T09:38:14Z</time></trkpt>
<trkpt lat="44.032809008" lon="10.054385969"><ele>4</ele><time>2020-02-23T09:38:15Z</time></trkpt>
<trkpt lat="44.03279501" lon="10.054347999"><ele>4</ele><time>2020-02-23T09:38:16Z</time></trkpt>
<trkpt lat="44.032781012" lon="10.054309024"><ele>4</ele><time>2020-02-23T09:38:17Z</time></trkpt>
<trkpt lat="44.032767015" lon="10.054271976"><ele>4</ele><time>2020-02-23T09:38:18Z</time></trkpt>
<trkpt lat="44.032752011" lon="10.054234006"><ele>4</ele><time>2020-02-23T09:38:19Z</time></trkpt>
<trkpt lat="44.032737007" lon="10.054197041"><ele>4</ele><time>2020-02-23T09:38:20Z</time></trkpt>
<trkpt lat="44.032693002" lon="10.054084975"><ele>4</ele><time>2020-02-23T09:38:23Z</time></trkpt>
<trkpt lat="44.032677999" lon="10.054048011"><ele>4</ele><time>2020-02-23T09:38:24Z</time></trkpt>
<trkpt lat="44.032664001" lon="10.054010963"><ele>4</ele><time>2020-02-23T09:38:25Z</time></trkpt>
<trkpt lat="44.032651009" lon="10.053972993"><ele>4</ele><time>2020-02-23T09:38:26Z</time></trkpt>
<trkpt lat="44.032639023" lon="10.053936029"><ele>4</ele><time>2020-02-23T09:38:27Z</time></trkpt>
<trkpt lat="44.032627037" lon="10.053896969"><ele>4</ele><time>2020-02-23T09:38:28Z</time></trkpt>
<trkpt lat="44.032616979" lon="10.053858999"><ele>4</ele><time>2020-02-23T09:38:29Z</time></trkpt>
<trkpt lat="44.03260801" lon="10.053820023"><ele>4</ele><time>2020-02-23T09:38:30Z</time></trkpt>
<trkpt lat="44.032600969" lon="10.053780042"><ele>3</ele><time>2020-02-23T09:38:31Z</time></trkpt>
<trkpt lat="44.032595018" lon="10.05373897"><ele>3</ele><time>2020-02-23T09:38:32Z</time></trkpt>
<trkpt lat="44.032590995" lon="10.053697983"><ele>3</ele><time>2020-02-23T09:38:33Z</time></trkpt>
<trkpt lat="44.032587977" lon="10.053655989"><ele>3</ele><time>2020-02-23T09:38:34Z</time></trkpt>
<trkpt lat="44.032586971" lon="10.053613996"><ele>3</ele><time>2020-02-23T09:38:35Z</time></trkpt>
<trkpt lat="44.032585965" lon="10.053572003"><ele>3</ele><time>2020-02-23T09:38:36Z</time></trkpt>
<trkpt lat="44.032585965" lon="10.053531015"><ele>3</ele><time>2020-02-23T09:38:37Z</time></trkpt>
<trkpt lat="44.032585965" lon="10.053490028"><ele>3</ele><time>2020-02-23T09:38:38Z</time></trkpt>
<trkpt lat="44.032585965" lon="10.053450968"><ele>3</ele><time>2020-02-23T09:38:39Z</time></trkpt>
<trkpt lat="44.032585965" lon="10.053411992"><ele>3</ele><time>2020-02-23T09:38:40Z</time></trkpt>
<trkpt lat="44.032586971" lon="10.053374022"><ele>3</ele><time>2020-02-23T09:38:41Z</time></trkpt>
<trkpt lat="44.032586971" lon="10.053336974"><ele>3</ele><time>2020-02-23T09:38:42Z</time></trkpt>
<trkpt lat="44.032588983" lon="10.053299004"><ele>3</ele><time>2020-02-23T09:38:43Z</time></trkpt>
<trkpt lat="44.032590995" lon="10.053261034"><ele>3</ele><time>2020-02-23T09:38:44Z</time></trkpt>
<trkpt lat="44.032594012" lon="10.05322298"><ele>3</ele><time>2020-02-23T09:38:45Z</time></trkpt>
<trkpt lat="44.032598035" lon="10.053184005"><ele>3</ele><time>2020-02-23T09:38:46Z</time></trkpt>
<trkpt lat="44.032602981" lon="10.053145029"><ele>3</ele><time>2020-02-23T09:38:47Z</time></trkpt>
<trkpt lat="44.032609016" lon="10.053104963"><ele>2</ele><time>2020-02-23T09:38:48Z</time></trkpt>
<trkpt lat="44.032615973" lon="10.053065987"><ele>2</ele><time>2020-02-23T09:38:49Z</time></trkpt>
<trkpt lat="44.032624019" lon="10.053026006"><ele>2</ele><time>2020-02-23T09:38:50Z</time></trkpt>
<trkpt lat="44.032631982" lon="10.052986024"><ele>2</ele><time>2020-02-23T09:38:51Z</time></trkpt>
<trkpt lat="44.03264204" lon="10.052946964"><ele>2</ele><time>2020-02-23T09:38:52Z</time></trkpt>
<trkpt lat="44.032652015" lon="10.052907988"><ele>2</ele><time>2020-02-23T09:38:53Z</time></trkpt>
<trkpt lat="44.032661989" lon="10.052869013"><ele>2</ele><time>2020-02-23T09:38:54Z</time></trkpt>
<trkpt lat="44.032673975" lon="10.052830959"><ele>2</ele><time>2020-02-23T09:38:55Z</time></trkpt>
<trkpt lat="44.03268504" lon="10.052792989"><ele>2</ele><time>2020-02-23T09:38:56Z</time></trkpt>
<trkpt lat="44.032698032" lon="10.052756025"><ele>2</ele><time>2020-02-23T09:38:57Z</time></trkpt>
<trkpt lat="44.032710018" lon="10.052718977"><ele>2</ele><time>2020-02-23T09:38:58Z</time></trkpt>
<trkpt lat="44.032724015" lon="10.052683018"><ele>2</ele><time>2020-02-23T09:38:59Z</time></trkpt>
<trkpt lat="44.032737007" lon="10.052646976"><ele>2</ele><time>2020-02-23T09:39:00Z</time></trkpt>
<trkpt lat="44.032751005" lon="10.052612023"><ele>2</ele><time>2020-02-23T09:39:01Z</time></trkpt>
<trkpt lat="44.032765003" lon="10.052576987"><ele>2</ele><time>2020-02-23T09:39:02Z</time></trkpt>
<trkpt lat="44.032780007" lon="10.052542035"><ele>2</ele><time>2020-02-23T09:39:03Z</time></trkpt>
<trkpt lat="44.032794004" lon="10.052506998"><ele>2</ele><time>2020-02-23T09:39:04Z</time></trkpt>
<trkpt lat="44.032809008" lon="10.052471962"><ele>2</ele><time>2020-02-23T09:39:05Z</time></trkpt>
<trkpt lat="44.032824012" lon="10.052437009"><ele>2</ele><time>2020-02-23T09:39:06Z</time></trkpt>
<trkpt lat="44.032838009" lon="10.052400967"><ele>2</ele><time>2020-02-23T09:39:07Z</time></trkpt>
<trkpt lat="44.032853013" lon="10.052366015"><ele>2</ele><time>2020-02-23T09:39:08Z</time></trkpt>
<trkpt lat="44.032868017" lon="10.052329972"><ele>2</ele><time>2020-02-23T09:39:09Z</time></trkpt>
<trkpt lat="44.032882014" lon="10.052293008"><ele>2</ele><time>2020-02-23T09:39:10Z</time></trkpt>
<trkpt lat="44.032896012" lon="10.052256966"><ele>2</ele><time>2020-02-23T09:39:11Z</time></trkpt>
<trkpt lat="44.03291001" lon="10.052220002"><ele>2</ele><time>2020-02-23T09:39:12Z</time></trkpt>
<trkpt lat="44.032924008" lon="10.052182032"><ele>2</ele><time>2020-02-23T09:39:13Z</time></trkpt>
<trkpt lat="44.032938005" lon="10.052143978"><ele>3</ele><time>2020-02-23T09:39:14Z</time></trkpt>
<trkpt lat="44.032952003" lon="10.052106008"><ele>3</ele><time>2020-02-23T09:39:15Z</time></trkpt>
<trkpt lat="44.032966001" lon="10.052068038"><ele>3</ele><time>2020-02-23T09:39:16Z</time></trkpt>
<trkpt lat="44.032979999" lon="10.052028978"><ele>3</ele><time>2020-02-23T09:39:17Z</time></trkpt>
<trkpt lat="44.032992991" lon="10.051991008"><ele>3</ele><time>2020-02-23T09:39:18Z</time></trkpt>
<trkpt lat="44.033006988" lon="10.051952032"><ele>3</ele><time>2020-02-23T09:39:19Z</time></trkpt>
<trkpt lat="44.03301998" lon="10.051912973"><ele>3</ele><time>2020-02-23T09:39:20Z</time></trkpt>
<trkpt lat="44.033033978" lon="10.051873997"><ele>3</ele><time>2020-02-23T09:39:21Z</time></trkpt>
<trkpt lat="44.033047976" lon="10.051835021"><ele>3</ele><time>2020-02-23T09:39:22Z</time></trkpt>
<trkpt lat="44.033060968" lon="10.051795961"><ele>3</ele><time>2020-02-23T09:39:23Z</time></trkpt>
<trkpt lat="44.033074966" lon="10.051756985"><ele>3</ele><time>2020-02-23T09:39:24Z</time></trkpt>
<trkpt lat="44.033088041" lon="10.05171801"><ele>3</ele><time>2020-02-23T09:39:25Z</time></trkpt>
<trkpt lat="44.033102039" lon="10.051679034"><ele>3</ele><time>2020-02-23T09:39:26Z</time></trkpt>
<trkpt lat="44.033115031" lon="10.051639974"><ele>3</ele><time>2020-02-23T09:39:27Z</time></trkpt>
<trkpt lat="44.033129029" lon="10.051600998"><ele>3</ele><time>2020-02-23T09:39:28Z</time></trkpt>
<trkpt lat="44.033142021" lon="10.051563028"><ele>3</ele><time>2020-02-23T09:39:29Z</time></trkpt>
<trkpt lat="44.033156019" lon="10.051523969"><ele>3</ele><time>2020-02-23T09:39:30Z</time></trkpt>
<trkpt lat="44.033169011" lon="10.051484993"><ele>3</ele><time>2020-02-23T09:39:31Z</time></trkpt>
<trkpt lat="44.033183008" lon="10.051446017"><ele>3</ele><time>2020-02-23T09:39:32Z</time></trkpt>
<trkpt lat="44.033196" lon="10.051407041"><ele>3</ele><time>2020-02-23T09:39:33Z</time></trkpt>
<trkpt lat="44.033208992" lon="10.051367981"><ele>3</ele><time>2020-02-23T09:39:34Z</time></trkpt>
<trkpt lat="44.03322299" lon="10.051330011"><ele>3</ele><time>2020-02-23T09:39:35Z</time></trkpt>
<trkpt lat="44.033235982" lon="10.051291035"><ele>3</ele><time>2020-02-23T09:39:36Z</time></trkpt>
<trkpt lat="44.033248974" lon="10.051252982"><ele>3</ele><time>2020-02-23T09:39:37Z</time></trkpt>
<trkpt lat="44.033261966" lon="10.051214006"><ele>3</ele><time>2020-02-23T09:39:38Z</time></trkpt>
<trkpt lat="44.033275964" lon="10.051176036"><ele>3</ele><time>2020-02-23T09:39:39Z</time></trkpt>
<trkpt lat="44.03328904" lon="10.051137982"><ele>3</ele><time>2020-02-23T09:39:40Z</time></trkpt>
<trkpt lat="44.033329021" lon="10.051024994"><ele>3</ele><time>2020-02-23T09:39:43Z</time></trkpt>
<trkpt lat="44.033343019" lon="10.050987024"><ele>2</ele><time>2020-02-23T09:39:44Z</time></trkpt>
<trkpt lat="44.033356011" lon="10.050949976"><ele>2</ele><time>2020-02-23T09:39:45Z</time></trkpt>
<trkpt lat="44.033370009" lon="10.050913012"><ele>2</ele><time>2020-02-23T09:39:46Z</time></trkpt>
<trkpt lat="44.033384006" lon="10.050875964"><ele>2</ele><time>2020-02-23T09:39:47Z</time></trkpt>
<trkpt lat="44.033398004" lon="10.050838999"><ele>2</ele><time>2020-02-23T09:39:48Z</time></trkpt>
<trkpt lat="44.033412002" lon="10.050802035"><ele>2</ele><time>2020-02-23T09:39:49Z</time></trkpt>
<trkpt lat="44.033426" lon="10.050765993"><ele>2</ele><time>2020-02-23T09:39:50Z</time></trkpt>
<trkpt lat="44.033439998" lon="10.050730035"><ele>2</ele><time>2020-02-23T09:39:51Z</time></trkpt>
<trkpt lat="44.033453995" lon="10.050692987"><ele>3</ele><time>2020-02-23T09:39:52Z</time></trkpt>
<trkpt lat="44.033467993" lon="10.050657028"><ele>3</ele><time>2020-02-23T09:39:53Z</time></trkpt>
<trkpt lat="44.033482997" lon="10.050620986"><ele>3</ele><time>2020-02-23T09:39:54Z</time></trkpt>
<trkpt lat="44.033496995" lon="10.050585028"><ele>3</ele><time>2020-02-23T09:39:55Z</time></trkpt>
<trkpt lat="44.033511998" lon="10.050548986"><ele>3</ele><time>2020-02-23T09:39:56Z</time></trkpt>
<trkpt lat="44.033525996" lon="10.050513027"><ele>3</ele><time>2020-02-23T09:39:57Z</time></trkpt>
<trkpt lat="44.033539994" lon="10.050476985"><ele>3</ele><time>2020-02-23T09:39:58Z</time></trkpt>
<trkpt lat="44.033554997" lon="10.050441027"><ele>3</ele><time>2020-02-23T09:39:59Z</time></trkpt>
<trkpt lat="44.033568995" lon="10.050404985"><ele>3</ele><time>2020-02-23T09:40:00Z</time></trkpt>
<trkpt lat="44.033583999" lon="10.050369026"><ele>3</ele><time>2020-02-23T09:40:01Z</time></trkpt>
<trkpt lat="44.033597996" lon="10.050331978"><ele>3</ele><time>2020-02-23T09:40:02Z</time></trkpt>
<trkpt lat="44.033613" lon="10.05029602"><ele>3</ele><time>2020-02-23T09:40:03Z</time></trkpt>
<trkpt lat="44.033626998" lon="10.050259978"><ele>3</ele><time>2020-02-23T09:40:04Z</time></trkpt>
<trkpt lat="44.033640996" lon="10.050223013"><ele>4</ele><time>2020-02-23T09:40:05Z</time></trkpt>
<trkpt lat="44.033655999" lon="10.050185965"><ele>4</ele><time>2020-02-23T09:40:06Z</time></trkpt>
<trkpt lat="44.033669997" lon="10.050150007"><ele>4</ele><time>2020-02-23T09:40:07Z</time></trkpt>
<trkpt lat="44.033683995" lon="10.050112959"><ele>4</ele><time>2020-02-23T09:40:08Z</time></trkpt>
<trkpt lat="44.033697993" lon="10.050075995"><ele>4</ele><time>2020-02-23T09:40:09Z</time></trkpt>
<trkpt lat="44.03371199" lon="10.050038025"><ele>4</ele><time>2020-02-23T09:40:10Z</time></trkpt>
<trkpt lat="44.033725988" lon="10.050000977"><ele>4</ele><time>2020-02-23T09:40:11Z</time></trkpt>
<trkpt lat="44.033739986" lon="10.049963007"><ele>4</ele><time>2020-02-23T09:40:12Z</time></trkpt>
<trkpt lat="44.033753984" lon="10.049925037"><ele>4</ele><time>2020-02-23T09:40:13Z</time></trkpt>
<trkpt lat="44.033766976" lon="10.049886983"><ele>4</ele><time>2020-02-23T09:40:14Z</time></trkpt>
<trkpt lat="44.033780973" lon="10.049849013"><ele>4</ele><time>2020-02-23T09:40:15Z</time></trkpt>
<trkpt lat="44.033793965" lon="10.049810959"><ele>4</ele><time>2020-02-23T09:40:16Z</time></trkpt>
<trkpt lat="44.033807963" lon="10.049772989"><ele>4</ele><time>2020-02-23T09:40:17Z</time></trkpt>
<trkpt lat="44.033821039" lon="10.049735019"><ele>4</ele><time>2020-02-23T09:40:18Z</time></trkpt>
<trkpt lat="44.033861021" lon="10.049621025"><ele>4</ele><time>2020-02-23T09:40:21Z</time></trkpt>
<trkpt lat="44.033874013" lon="10.049582971"><ele>4</ele><time>2020-02-23T09:40:22Z</time></trkpt>
<trkpt lat="44.033887004" lon="10.049545001"><ele>4</ele><time>2020-02-23T09:40:23Z</time></trkpt>
<trkpt lat="44.033899996" lon="10.049508037"><ele>4</ele><time>2020-02-23T09:40:24Z</time></trkpt>
<trkpt lat="44.033912988" lon="10.049470989"><ele>4</ele><time>2020-02-23T09:40:25Z</time></trkpt>
<trkpt lat="44.03392598" lon="10.049433019"><ele>4</ele><time>2020-02-23T09:40:26Z</time></trkpt>
<trkpt lat="44.033938972" lon="10.049395971"><ele>4</ele><time>2020-02-23T09:40:27Z</time></trkpt>
<trkpt lat="44.033951964" lon="10.049359007"><ele>4</ele><time>2020-02-23T09:40:28Z</time></trkpt>
<trkpt lat="44.03396504" lon="10.049321959"><ele>4</ele><time>2020-02-23T09:40:29Z</time></trkpt>
<trkpt lat="44.033978032" lon="10.049284995"><ele>4</ele><time>2020-02-23T09:40:30Z</time></trkpt>
<trkpt lat="44.03399203" lon="10.04924803"><ele>4</ele><time>2020-02-23T09:40:31Z</time></trkpt>
<trkpt lat="44.034005022" lon="10.049210982"><ele>4</ele><time>2020-02-23T09:40:32Z</time></trkpt>
<trkpt lat="44.034018014" lon="10.049174018"><ele>4</ele><time>2020-02-23T09:40:33Z</time></trkpt>
<trkpt lat="44.034032011" lon="10.04913697"><ele>4</ele><time>2020-02-23T09:40:34Z</time></trkpt>
<trkpt lat="44.034045003" lon="10.049099"><ele>4</ele><time>2020-02-23T09:40:35Z</time></trkpt>
<trkpt lat="44.034059001" lon="10.049062036"><ele>4</ele><time>2020-02-23T09:40:36Z</time></trkpt>
<trkpt lat="44.034072999" lon="10.049023982"><ele>4</ele><time>2020-02-23T09:40:37Z</time></trkpt>
<trkpt lat="44.034086997" lon="10.048987018"><ele>4</ele><time>2020-02-23T09:40:38Z</time></trkpt>
<trkpt lat="44.034100994" lon="10.048948964"><ele>4</ele><time>2020-02-23T09:40:39Z</time></trkpt>
<trkpt lat="44.034114992" lon="10.048910994"><ele>3</ele><time>2020-02-23T09:40:40Z</time></trkpt>
<trkpt lat="44.03412899" lon="10.048873024"><ele>3</ele><time>2020-02-23T09:40:41Z</time></trkpt>
<trkpt lat="44.034142988" lon="10.048835976"><ele>3</ele><time>2020-02-23T09:40:42Z</time></trkpt>
<trkpt lat="44.034157991" lon="10.048798006"><ele>3</ele><time>2020-02-23T09:40:43Z</time></trkpt>
<trkpt lat="44.034171989" lon="10.048760036"><ele>3</ele><time>2020-02-23T09:40:44Z</time></trkpt>
<trkpt lat="44.034186993" lon="10.048721982"><ele>3</ele><time>2020-02-23T09:40:45Z</time></trkpt>
<trkpt lat="44.034200991" lon="10.048684012"><ele>3</ele><time>2020-02-23T09:40:46Z</time></trkpt>
<trkpt lat="44.034214988" lon="10.048645958"><ele>3</ele><time>2020-02-23T09:40:47Z</time></trkpt>
<trkpt lat="44.034229992" lon="10.048607988"><ele>3</ele><time>2020-02-23T09:40:48Z</time></trkpt>
<trkpt lat="44.03424399" lon="10.048570018"><ele>3</ele><time>2020-02-23T09:40:49Z</time></trkpt>
<trkpt lat="44.034258993" lon="10.04853297"><ele>3</ele><time>2020-02-23T09:40:50Z</time></trkpt>
<trkpt lat="44.034272991" lon="10.048495"><ele>3</ele><time>2020-02-23T09:40:51Z</time></trkpt>
<trkpt lat="44.034287995" lon="10.04845703"><ele>3</ele><time>2020-02-23T09:40:52Z</time></trkpt>
<trkpt lat="44.034301993" lon="10.048419982"><ele>3</ele><time>2020-02-23T09:40:53Z</time></trkpt>
<trkpt lat="44.03431599" lon="10.048382012"><ele>3</ele><time>2020-02-23T09:40:54Z</time></trkpt>
<trkpt lat="44.034330994" lon="10.048344964"><ele>3</ele><time>2020-02-23T09:40:55Z</time></trkpt>
<trkpt lat="44.034344992" lon="10.048308"><ele>3</ele><time>2020-02-23T09:40:56Z</time></trkpt>
<trkpt lat="44.034358989" lon="10.048271036"><ele>3</ele><time>2020-02-23T09:40:57Z</time></trkpt>
<trkpt lat="44.034372987" lon="10.048233988"><ele>3</ele><time>2020-02-23T09:40:58Z</time></trkpt>
<trkpt lat="44.034386985" lon="10.048197024"><ele>4</ele><time>2020-02-23T09:40:59Z</time></trkpt>
<trkpt lat="44.034400983" lon="10.048160981"><ele>4</ele><time>2020-02-23T09:41:00Z</time></trkpt>
<trkpt lat="44.034414981" lon="10.048124017"><ele>4</ele><time>2020-02-23T09:41:01Z</time></trkpt>
<trkpt lat="44.034428978" lon="10.048087975"><ele>4</ele><time>2020-02-23T09:41:02Z</time></trkpt>
<trkpt lat="44.034442976" lon="10.048051011"><ele>4</ele><time>2020-02-23T09:41:03Z</time></trkpt>
<trkpt lat="44.034456974" lon="10.048014969"><ele>4</ele><time>2020-02-23T09:41:04Z</time></trkpt>
<trkpt lat="44.034470972" lon="10.04797901"><ele>4</ele><time>2020-02-23T09:41:05Z</time></trkpt>
<trkpt lat="44.034483964" lon="10.047942968"><ele>4</ele><time>2020-02-23T09:41:06Z</time></trkpt>
<trkpt lat="44.034497961" lon="10.04790701"><ele>4</ele><time>2020-02-23T09:41:07Z</time></trkpt>
<trkpt lat="44.034511959" lon="10.047870968"><ele>4</ele><time>2020-02-23T09:41:08Z</time></trkpt>
<trkpt lat="44.034526041" lon="10.047835009"><ele>4</ele><time>2020-02-23T09:41:09Z</time></trkpt>
<trkpt lat="44.034539033" lon="10.047798967"><ele>4</ele><time>2020-02-23T09:41:10Z</time></trkpt>
<trkpt lat="44.034553031" lon="10.047763009"><ele>4</ele><time>2020-02-23T09:41:11Z</time></trkpt>
<trkpt lat="44.034567028" lon="10.047726966"><ele>4</ele><time>2020-02-23T09:41:12Z</time></trkpt>
<trkpt lat="44.034581026" lon="10.047691008"><ele>4</ele><time>2020-02-23T09:41:13Z</time></trkpt>
<trkpt lat="44.034595024" lon="10.047654966"><ele>3</ele><time>2020-02-23T09:41:14Z</time></trkpt>
<trkpt lat="44.034609022" lon="10.047619008"><ele>3</ele><time>2020-02-23T09:41:15Z</time></trkpt>
<trkpt lat="44.034624025" lon="10.047582965"><ele>3</ele><time>2020-02-23T09:41:16Z</time></trkpt>
<trkpt lat="44.034638023" lon="10.047546001"><ele>3</ele><time>2020-02-23T09:41:17Z</time></trkpt>
<trkpt lat="44.034653027" lon="10.047509959"><ele>3</ele><time>2020-02-23T09:41:18Z</time></trkpt>
<trkpt lat="44.034667024" lon="10.047474001"><ele>3</ele><time>2020-02-23T09:41:19Z</time></trkpt>
<trkpt lat="44.034682028" lon="10.047437036"><ele>3</ele><time>2020-02-23T09:41:20Z</time></trkpt>
<trkpt lat="44.034697032" lon="10.047399988"><ele>3</ele><time>2020-02-23T09:41:21Z</time></trkpt>
<trkpt lat="44.034712035" lon="10.047363024"><ele>3</ele><time>2020-02-23T09:41:22Z</time></trkpt>
<trkpt lat="44.034727039" lon="10.047325976"><ele>3</ele><time>2020-02-23T09:41:23Z</time></trkpt>
<trkpt lat="44.034741959" lon="10.047289012"><ele>3</ele><time>2020-02-23T09:41:24Z</time></trkpt>
<trkpt lat="44.034757968" lon="10.047251964"><ele>3</ele><time>2020-02-23T09:41:25Z</time></trkpt>
<trkpt lat="44.034772972" lon="10.047213994"><ele>3</ele><time>2020-02-23T09:41:26Z</time></trkpt>
<trkpt lat="44.034787975" lon="10.04717703"><ele>3</ele><time>2020-02-23T09:41:27Z</time></trkpt>
<trkpt lat="44.034801973" lon="10.047138976"><ele>3</ele><time>2020-02-23T09:41:28Z</time></trkpt>
<trkpt lat="44.034815971" lon="10.047102012"><ele>3</ele><time>2020-02-23T09:41:29Z</time></trkpt>
<trkpt lat="44.034829969" lon="10.047064964"><ele>3</ele><time>2020-02-23T09:41:30Z</time></trkpt>
<trkpt lat="44.034842961" lon="10.047026994"><ele>3</ele><time>2020-02-23T09:41:31Z</time></trkpt>
<trkpt lat="44.03485503" lon="10.04699003"><ele>3</ele><time>2020-02-23T09:41:32Z</time></trkpt>
<trkpt lat="44.034868022" lon="10.046952982"><ele>3</ele><time>2020-02-23T09:41:33Z</time></trkpt>
<trkpt lat="44.034880009" lon="10.046916017"><ele>3</ele><time>2020-02-23T09:41:34Z</time></trkpt>
<trkpt lat="44.034891995" lon="10.046878969"><ele>3</ele><time>2020-02-23T09:41:35Z</time></trkpt>
<trkpt lat="44.034903981" lon="10.046840999"><ele>3</ele><time>2020-02-23T09:41:36Z</time></trkpt>
<trkpt lat="44.034915967" lon="10.046804035"><ele>3</ele><time>2020-02-23T09:41:37Z</time></trkpt>
<trkpt lat="44.034928959" lon="10.046766987"><ele>3</ele><time>2020-02-23T09:41:38Z</time></trkpt>
<trkpt lat="44.034941029" lon="10.046730023"><ele>3</ele><time>2020-02-23T09:41:39Z</time></trkpt>
<trkpt lat="44.034953015" lon="10.046691969"><ele>3</ele><time>2020-02-23T09:41:40Z</time></trkpt>
<trkpt lat="44.034965001" lon="10.046655005"><ele>3</ele><time>2020-02-23T09:41:41Z</time></trkpt>
<trkpt lat="44.034977993" lon="10.046618041"><ele>3</ele><time>2020-02-23T09:41:42Z</time></trkpt>
<trkpt lat="44.034989979" lon="10.046580993"><ele>3</ele><time>2020-02-23T09:41:43Z</time></trkpt>
<trkpt lat="44.035002971" lon="10.046543023"><ele>3</ele><time>2020-02-23T09:41:44Z</time></trkpt>
<trkpt lat="44.035015041" lon="10.046505975"><ele>3</ele><time>2020-02-23T09:41:45Z</time></trkpt>
<trkpt lat="44.035028033" lon="10.04646901"><ele>3</ele><time>2020-02-23T09:41:46Z</time></trkpt>
<trkpt lat="44.035041025" lon="10.046431962"><ele>3</ele><time>2020-02-23T09:41:47Z</time></trkpt>
<trkpt lat="44.035054017" lon="10.046394998"><ele>2</ele><time>2020-02-23T09:41:48Z</time></trkpt>
<trkpt lat="44.035067009" lon="10.046358034"><ele>2</ele><time>2020-02-23T09:41:49Z</time></trkpt>
<trkpt lat="44.035080001" lon="10.046320986"><ele>2</ele><time>2020-02-23T09:41:50Z</time></trkpt>
<trkpt lat="44.035092993" lon="10.046284022"><ele>2</ele><time>2020-02-23T09:41:51Z</time></trkpt>
<trkpt lat="44.03510699" lon="10.046246974"><ele>2</ele><time>2020-02-23T09:41:52Z</time></trkpt>
<trkpt lat="44.035119982" lon="10.04621001"><ele>2</ele><time>2020-02-23T09:41:53Z</time></trkpt>
<trkpt lat="44.03513398" lon="10.046173967"><ele>2</ele><time>2020-02-23T09:41:54Z</time></trkpt>
<trkpt lat="44.035146972" lon="10.046137003"><ele>2</ele><time>2020-02-23T09:41:55Z</time></trkpt>
<trkpt lat="44.03516097" lon="10.046100039"><ele>2</ele><time>2020-02-23T09:41:56Z</time></trkpt>
<trkpt lat="44.035173962" lon="10.046062991"><ele>2</ele><time>2020-02-23T09:41:57Z</time></trkpt>
<trkpt lat="44.03518796" lon="10.046026027"><ele>2</ele><time>2020-02-23T09:41:58Z</time></trkpt>
<trkpt lat="44.035202041" lon="10.045989985"><ele>2</ele><time>2020-02-23T09:41:59Z</time></trkpt>
<trkpt lat="44.035215033" lon="10.04595302"><ele>2</ele><time>2020-02-23T09:42:00Z</time></trkpt>
<trkpt lat="44.035229031" lon="10.045915972"><ele>1</ele><time>2020-02-23T09:42:01Z</time></trkpt>
<trkpt lat="44.035243029" lon="10.045879008"><ele>1</ele><time>2020-02-23T09:42:02Z</time></trkpt>
<trkpt lat="44.035257027" lon="10.04584196"><ele>1</ele><time>2020-02-23T09:42:03Z</time></trkpt>
<trkpt lat="44.035271024" lon="10.045804996"><ele>1</ele><time>2020-02-23T09:42:04Z</time></trkpt>
<trkpt lat="44.035285022" lon="10.045768032"><ele>1</ele><time>2020-02-23T09:42:05Z</time></trkpt>
<trkpt lat="44.03529902" lon="10.045729978"><ele>1</ele><time>2020-02-23T09:42:06Z</time></trkpt>
<trkpt lat="44.035313018" lon="10.045693014"><ele>1</ele><time>2020-02-23T09:42:07Z</time></trkpt>
<trkpt lat="44.03532601" lon="10.045655966"><ele>1</ele><time>2020-02-23T09:42:08Z</time></trkpt>
<trkpt lat="44.035340007" lon="10.045617996"><ele>1</ele><time>2020-02-23T09:42:09Z</time></trkpt>
<trkpt lat="44.035354005" lon="10.045580026"><ele>1</ele><time>2020-02-23T09:42:10Z</time></trkpt>
<trkpt lat="44.035368003" lon="10.045542978"><ele>1</ele><time>2020-02-23T09:42:11Z</time></trkpt>
<trkpt lat="44.035382001" lon="10.045505008"><ele>2</ele><time>2020-02-23T09:42:12Z</time></trkpt>
<trkpt lat="44.035395999" lon="10.045467038"><ele>2</ele><time>2020-02-23T09:42:13Z</time></trkpt>
<trkpt lat="44.03540899" lon="10.045428984"><ele>2</ele><time>2020-02-23T09:42:14Z</time></trkpt>
<trkpt lat="44.035422988" lon="10.045391014"><ele>2</ele><time>2020-02-23T09:42:15Z</time></trkpt>
<trkpt lat="44.035436986" lon="10.04535296"><ele>2</ele><time>2020-02-23T09:42:16Z</time></trkpt>
<trkpt lat="44.035450984" lon="10.045313984"><ele>2</ele><time>2020-02-23T09:42:17Z</time></trkpt>
<trkpt lat="44.035464982" lon="10.045276014"><ele>2</ele><time>2020-02-23T09:42:18Z</time></trkpt>
<trkpt lat="44.035478979" lon="10.04523796"><ele>2</ele><time>2020-02-23T09:42:19Z</time></trkpt>
<trkpt lat="44.035492977" lon="10.045198984"><ele>2</ele><time>2020-02-23T09:42:20Z</time></trkpt>
<trkpt lat="44.035506975" lon="10.045161014"><ele>2</ele><time>2020-02-23T09:42:21Z</time></trkpt>
<trkpt lat="44.035520973" lon="10.045122039"><ele>2</ele><time>2020-02-23T09:42:22Z</time></trkpt>
<trkpt lat="44.03553497" lon="10.045083985"><ele>2</ele><time>2020-02-23T09:42:23Z</time></trkpt>
<trkpt lat="44.035548968" lon="10.045046015"><ele>2</ele><time>2020-02-23T09:42:24Z</time></trkpt>
<trkpt lat="44.035563972" lon="10.045007039"><ele>2</ele><time>2020-02-23T09:42:25Z</time></trkpt>
<trkpt lat="44.035578975" lon="10.044968985"><ele>2</ele><time>2020-02-23T09:42:26Z</time></trkpt>
<trkpt lat="44.035592973" lon="10.044931015"><ele>2</ele><time>2020-02-23T09:42:27Z</time></trkpt>
<trkpt lat="44.035607977" lon="10.044892961"><ele>2</ele><time>2020-02-23T09:42:28Z</time></trkpt>
<trkpt lat="44.03562298" lon="10.044854991"><ele>2</ele><time>2020-02-23T09:42:29Z</time></trkpt>
<trkpt lat="44.035637984" lon="10.044817021"><ele>2</ele><time>2020-02-23T09:42:30Z</time></trkpt>
<trkpt lat="44.035653993" lon="10.044778967"><ele>2</ele><time>2020-02-23T09:42:31Z</time></trkpt>
<trkpt lat="44.035668997" lon="10.044740997"><ele>2</ele><time>2020-02-23T09:42:32Z</time></trkpt>
<trkpt lat="44.035685007" lon="10.044703027"><ele>2</ele><time>2020-02-23T09:42:33Z</time></trkpt>
<trkpt lat="44.035701016" lon="10.044665979"><ele>2</ele><time>2020-02-23T09:42:34Z</time></trkpt>
<trkpt lat="44.035718031" lon="10.044628009"><ele>2</ele><time>2020-02-23T09:42:35Z</time></trkpt>
<trkpt lat="44.035734041" lon="10.044590961"><ele>2</ele><time>2020-02-23T09:42:36Z</time></trkpt>
<trkpt lat="44.035750972" lon="10.044553997"><ele>3</ele><time>2020-02-23T09:42:37Z</time></trkpt>
<trkpt lat="44.035767987" lon="10.044517033"><ele>3</ele><time>2020-02-23T09:42:38Z</time></trkpt>
<trkpt lat="44.035785003" lon="10.044480991"><ele>3</ele><time>2020-02-23T09:42:39Z</time></trkpt>
<trkpt lat="44.035834037" lon="10.044375965"><ele>3</ele><time>2020-02-23T09:42:42Z</time></trkpt>
<trkpt lat="44.03584904" lon="10.044343024"><ele>3</ele><time>2020-02-23T09:42:43Z</time></trkpt>
<trkpt lat="44.03586396" lon="10.04431"><ele>3</ele><time>2020-02-23T09:42:44Z</time></trkpt>
<trkpt lat="44.03587997" lon="10.044277981"><ele>3</ele><time>2020-02-23T09:42:45Z</time></trkpt>
<trkpt lat="44.035894973" lon="10.044245962"><ele>3</ele><time>2020-02-23T09:42:46Z</time></trkpt>
<trkpt lat="44.035910983" lon="10.044215033"><ele>3</ele><time>2020-02-23T09:42:47Z</time></trkpt>
<trkpt lat="44.035927998" lon="10.044183014"><ele>3</ele><time>2020-02-23T09:42:48Z</time></trkpt>
<trkpt lat="44.035946019" lon="10.044150995"><ele>3</ele><time>2020-02-23T09:42:49Z</time></trkpt>
<trkpt lat="44.035964962" lon="10.044119982"><ele>3</ele><time>2020-02-23T09:42:50Z</time></trkpt>
<trkpt lat="44.035986001" lon="10.044091986"><ele>3</ele><time>2020-02-23T09:42:51Z</time></trkpt>
<trkpt lat="44.036007961" lon="10.044067008"><ele>3</ele><time>2020-02-23T09:42:52Z</time></trkpt>
<trkpt lat="44.036082979" lon="10.044029038"><ele>3</ele><time>2020-02-23T09:42:55Z</time></trkpt>
<trkpt lat="44.036111981" lon="10.04402996"><ele>3</ele><time>2020-02-23T09:42:56Z</time></trkpt>
<trkpt lat="44.036140982" lon="10.044035995"><ele>3</ele><time>2020-02-23T09:42:57Z</time></trkpt>
<trkpt lat="44.036170989" lon="10.044046976"><ele>3</ele><time>2020-02-23T09:42:58Z</time></trkpt>
<trkpt lat="44.036200996" lon="10.044059968"><ele>3</ele><time>2020-02-23T09:42:59Z</time></trkpt>
<trkpt lat="44.036231004" lon="10.044074971"><ele>3</ele><time>2020-02-23T09:43:00Z</time></trkpt>
<trkpt lat="44.036261011" lon="10.044089975"><ele>4</ele><time>2020-02-23T09:43:01Z</time></trkpt>
<trkpt lat="44.036290012" lon="10.044105984"><ele>4</ele><time>2020-02-23T09:43:02Z</time></trkpt>
<trkpt lat="44.036319014" lon="10.044120988"><ele>4</ele><time>2020-02-23T09:43:03Z</time></trkpt>
<trkpt lat="44.036347009" lon="10.044136997"><ele>4</ele><time>2020-02-23T09:43:04Z</time></trkpt>
<trkpt lat="44.036376011" lon="10.044153007"><ele>4</ele><time>2020-02-23T09:43:05Z</time></trkpt>
<trkpt lat="44.036404006" lon="10.044170022"><ele>4</ele><time>2020-02-23T09:43:06Z</time></trkpt>
<trkpt lat="44.036432002" lon="10.044186031"><ele>4</ele><time>2020-02-23T09:43:07Z</time></trkpt>
<trkpt lat="44.036458991" lon="10.044202963"><ele>4</ele><time>2020-02-23T09:43:08Z</time></trkpt>
<trkpt lat="44.036486987" lon="10.044219978"><ele>4</ele><time>2020-02-23T09:43:09Z</time></trkpt>
<trkpt lat="44.036514983" lon="10.044236993"><ele>4</ele><time>2020-02-23T09:43:10Z</time></trkpt>
<trkpt lat="44.036541972" lon="10.044254009"><ele>4</ele><time>2020-02-23T09:43:11Z</time></trkpt>
<trkpt lat="44.036569968" lon="10.044271024"><ele>4</ele><time>2020-02-23T09:43:12Z</time></trkpt>
<trkpt lat="44.036597963" lon="10.044288961"><ele>4</ele><time>2020-02-23T09:43:13Z</time></trkpt>
<trkpt lat="44.036625959" lon="10.044306982"><ele>4</ele><time>2020-02-23T09:43:14Z</time></trkpt>
<trkpt lat="44.036654038" lon="10.044325003"><ele>4</ele><time>2020-02-23T09:43:15Z</time></trkpt>
<trkpt lat="44.036682034" lon="10.044343024"><ele>4</ele><time>2020-02-23T09:43:16Z</time></trkpt>
<trkpt lat="44.036710029" lon="10.044360962"><ele>4</ele><time>2020-02-23T09:43:17Z</time></trkpt>
<trkpt lat="44.036738025" lon="10.044378983"><ele>4</ele><time>2020-02-23T09:43:18Z</time></trkpt>
<trkpt lat="44.036767026" lon="10.044397004"><ele>5</ele><time>2020-02-23T09:43:19Z</time></trkpt>
<trkpt lat="44.036795022" lon="10.044416031"><ele>5</ele><time>2020-02-23T09:43:20Z</time></trkpt>
<trkpt lat="44.036823018" lon="10.044433968"><ele>5</ele><time>2020-02-23T09:43:21Z</time></trkpt>
<trkpt lat="44.036851013" lon="10.044452995"><ele>5</ele><time>2020-02-23T09:43:22Z</time></trkpt>
<trkpt lat="44.036878003" lon="10.044471016"><ele>5</ele><time>2020-02-23T09:43:23Z</time></trkpt>
<trkpt lat="44.036905998" lon="10.044489037"><ele>5</ele><time>2020-02-23T09:43:24Z</time></trkpt>
<trkpt lat="44.036932988" lon="10.04450798"><ele>5</ele><time>2020-02-23T09:43:25Z</time></trkpt>
<trkpt lat="44.036958972" lon="10.044526001"><ele>5</ele><time>2020-02-23T09:43:26Z</time></trkpt>
<trkpt lat="44.036985962" lon="10.044544023"><ele>5</ele><time>2020-02-23T09:43:27Z</time></trkpt>
<trkpt lat="44.037012029" lon="10.044562966"><ele>5</ele><time>2020-02-23T09:43:28Z</time></trkpt>
<trkpt lat="44.037038013" lon="10.044580987"><ele>5</ele><time>2020-02-23T09:43:29Z</time></trkpt>
<trkpt lat="44.037063997" lon="10.044599008"><ele>5</ele><time>2020-02-23T09:43:30Z</time></trkpt>
<trkpt lat="44.037089981" lon="10.044617029"><ele>5</ele><time>2020-02-23T09:43:31Z</time></trkpt>
<trkpt lat="44.037114959" lon="10.044634966"><ele>5</ele><time>2020-02-23T09:43:32Z</time></trkpt>
<trkpt lat="44.037141027" lon="10.044652987"><ele>5</ele><time>2020-02-23T09:43:33Z</time></trkpt>
<trkpt lat="44.037167011" lon="10.044670003"><ele>5</ele><time>2020-02-23T09:43:34Z</time></trkpt>
<trkpt lat="44.037245968" lon="10.044722976"><ele>6</ele><time>2020-02-23T09:43:37Z</time></trkpt>
<trkpt lat="44.037273042" lon="10.044740997"><ele>6</ele><time>2020-02-23T09:43:38Z</time></trkpt>
<trkpt lat="44.037300032" lon="10.044758013"><ele>6</ele><time>2020-02-23T09:43:39Z</time></trkpt>
<trkpt lat="44.037327021" lon="10.044776034"><ele>6</ele><time>2020-02-23T09:43:40Z</time></trkpt>
<trkpt lat="44.037355017" lon="10.044793971"><ele>6</ele><time>2020-02-23T09:43:41Z</time></trkpt>
<trkpt lat="44.037383012" lon="10.044812998"><ele>6</ele><time>2020-02-23T09:43:42Z</time></trkpt>
<trkpt lat="44.037411008" lon="10.044833031"><ele>6</ele><time>2020-02-23T09:43:43Z</time></trkpt>
<trkpt lat="44.037440009" lon="10.044852979"><ele>6</ele><time>2020-02-23T09:43:44Z</time></trkpt>
<trkpt lat="44.037469011" lon="10.044872006"><ele>6</ele><time>2020-02-23T09:43:45Z</time></trkpt>
<trkpt lat="44.037548974" lon="10.044902014"><ele>6</ele><time>2020-02-23T09:43:48Z</time></trkpt>
<trkpt lat="44.03757303" lon="10.044895979"><ele>6</ele><time>2020-02-23T09:43:49Z</time></trkpt>
<trkpt lat="44.037593985" lon="10.044878963"><ele>6</ele><time>2020-02-23T09:43:50Z</time></trkpt>
<trkpt lat="44.037614018" lon="10.044851974"><ele>6</ele><time>2020-02-23T09:43:51Z</time></trkpt>
<trkpt lat="44.037631033" lon="10.044818027"><ele>6</ele><time>2020-02-23T09:43:52Z</time></trkpt>
<trkpt lat="44.037647964" lon="10.044778967"><ele>6</ele><time>2020-02-23T09:43:53Z</time></trkpt>
<trkpt lat="44.037662968" lon="10.044735968"><ele>6</ele><time>2020-02-23T09:43:54Z</time></trkpt>
<trkpt lat="44.037678977" lon="10.044691963"><ele>6</ele><time>2020-02-23T09:43:55Z</time></trkpt>
<trkpt lat="44.037693981" lon="10.044648964"><ele>6</ele><time>2020-02-23T09:43:56Z</time></trkpt>
<trkpt lat="44.037708985" lon="10.044606971"><ele>6</ele><time>2020-02-23T09:43:57Z</time></trkpt>
<trkpt lat="44.037723988" lon="10.044565983"><ele>6</ele><time>2020-02-23T09:43:58Z</time></trkpt>
<trkpt lat="44.037738992" lon="10.044527007"><ele>6</ele><time>2020-02-23T09:43:59Z</time></trkpt>
<trkpt lat="44.037755001" lon="10.044489959"><ele>6</ele><time>2020-02-23T09:44:00Z</time></trkpt>
<trkpt lat="44.037772017" lon="10.044455007"><ele>6</ele><time>2020-02-23T09:44:01Z</time></trkpt>
<trkpt lat="44.037789032" lon="10.044421982"><ele>6</ele><time>2020-02-23T09:44:02Z</time></trkpt>
<trkpt lat="44.037805963" lon="10.044390969"><ele>6</ele><time>2020-02-23T09:44:03Z</time></trkpt>
<trkpt lat="44.037823984" lon="10.044360962"><ele>6</ele><time>2020-02-23T09:44:04Z</time></trkpt>
<trkpt lat="44.037841" lon="10.044331038"><ele>6</ele><time>2020-02-23T09:44:05Z</time></trkpt>
<trkpt lat="44.037858015" lon="10.044302037"><ele>6</ele><time>2020-02-23T09:44:06Z</time></trkpt>
<trkpt lat="44.03787503" lon="10.044271024"><ele>6</ele><time>2020-02-23T09:44:07Z</time></trkpt>
<trkpt lat="44.037890034" lon="10.044240011"><ele>6</ele><time>2020-02-23T09:44:08Z</time></trkpt>
<trkpt lat="44.037905037" lon="10.044206986"><ele>6</ele><time>2020-02-23T09:44:09Z</time></trkpt>
<trkpt lat="44.037919035" lon="10.044173962"><ele>7</ele><time>2020-02-23T09:44:10Z</time></trkpt>
<trkpt lat="44.037933033" lon="10.044140015"><ele>7</ele><time>2020-02-23T09:44:11Z</time></trkpt>
<trkpt lat="44.037947031" lon="10.044104978"><ele>7</ele><time>2020-02-23T09:44:12Z</time></trkpt>
<trkpt lat="44.037960023" lon="10.044071032"><ele>7</ele><time>2020-02-23T09:44:13Z</time></trkpt>
<trkpt lat="44.03797402" lon="10.044037001"><ele>7</ele><time>2020-02-23T09:44:14Z</time></trkpt>
<trkpt lat="44.037988018" lon="10.044002971"><ele>7</ele><time>2020-02-23T09:44:15Z</time></trkpt>
<trkpt lat="44.038002016" lon="10.043969024"><ele>7</ele><time>2020-02-23T09:44:16Z</time></trkpt>
<trkpt lat="44.03801702" lon="10.043935999"><ele>7</ele><time>2020-02-23T09:44:17Z</time></trkpt>
<trkpt lat="44.038031017" lon="10.043901969"><ele>7</ele><time>2020-02-23T09:44:18Z</time></trkpt>
<trkpt lat="44.038046021" lon="10.043870034"><ele>7</ele><time>2020-02-23T09:44:19Z</time></trkpt>
<trkpt lat="44.038061025" lon="10.043837009"><ele>7</ele><time>2020-02-23T09:44:20Z</time></trkpt>
<trkpt lat="44.038077034" lon="10.043803984"><ele>7</ele><time>2020-02-23T09:44:21Z</time></trkpt>
<trkpt lat="44.03809296" lon="10.043771965"><ele>7</ele><time>2020-02-23T09:44:22Z</time></trkpt>
<trkpt lat="44.038108969" lon="10.04374003"><ele>7</ele><time>2020-02-23T09:44:23Z</time></trkpt>
<trkpt lat="44.038125984" lon="10.043708012"><ele>7</ele><time>2020-02-23T09:44:24Z</time></trkpt>
<trkpt lat="44.038141994" lon="10.043675993"><ele>7</ele><time>2020-02-23T09:44:25Z</time></trkpt>
<trkpt lat="44.038160015" lon="10.043643974"><ele>7</ele><time>2020-02-23T09:44:26Z</time></trkpt>
<trkpt lat="44.03817703" lon="10.043612039"><ele>7</ele><time>2020-02-23T09:44:27Z</time></trkpt>
<trkpt lat="44.038232015" lon="10.043520005"><ele>7</ele><time>2020-02-23T09:44:30Z</time></trkpt>
<trkpt lat="44.038250959" lon="10.043491004"><ele>7</ele><time>2020-02-23T09:44:31Z</time></trkpt>
<trkpt lat="44.038269985" lon="10.043462003"><ele>7</ele><time>2020-02-23T09:44:32Z</time></trkpt>
<trkpt lat="44.038328994" lon="10.043380028"><ele>7</ele><time>2020-02-23T09:44:35Z</time></trkpt>
<trkpt lat="44.038349027" lon="10.043354966"><ele>7</ele><time>2020-02-23T09:44:36Z</time></trkpt>
<trkpt lat="44.03836797" lon="10.043330994"><ele>7</ele><time>2020-02-23T09:44:37Z</time></trkpt></trkseg></trk><wpt lat="44.03836797" lon="10.043330994"><name>Finish km:21.012, Lat:44.0384, Lon:10.0433</name><sym>Finish</sym><ele>7</ele></wpt><wpt lat="44.043894997" lon="10.05053197"><name>km:1, Lat:44.0439, Lon:10.0505</name><ele>5</ele></wpt><wpt lat="44.050692972" lon="10.054016998"><name>km:2, Lat:44.0507, Lon:10.054</name><ele>5</ele></wpt><wpt lat="44.050661037" lon="10.053000022"><name>km:3, Lat:44.0507, Lon:10.053</name><ele>6</ele></wpt><wpt lat="44.044003962" lon="10.048570018"><name>km:4, Lat:44.044, Lon:10.0486</name><ele>5</ele></wpt><wpt lat="44.041588968" lon="10.038684988"><name>km:5, Lat:44.0416, Lon:10.0387</name><ele>6</ele></wpt><wpt lat="44.040276026" lon="10.032212986"><name>km:6, Lat:44.0403, Lon:10.0322</name><ele>5</ele></wpt><wpt lat="44.036160009" lon="10.043294029"><name>km:7, Lat:44.0362, Lon:10.0433</name><ele>3</ele></wpt><wpt lat="44.032960972" lon="10.054546986"><name>km:8, Lat:44.033, Lon:10.0545</name><ele>4</ele></wpt><wpt lat="44.028866999" lon="10.065471958"><name>km:9, Lat:44.0289, Lon:10.0655</name><ele>8</ele></wpt><wpt lat="44.023984037" lon="10.075931987"><name>km:10, Lat:44.024, Lon:10.0759</name><ele>6</ele></wpt><wpt lat="44.018592965" lon="10.085961018"><name>km:11, Lat:44.0186, Lon:10.086</name><ele>3</ele></wpt><wpt lat="44.012602" lon="10.094357003"><name>km:12, Lat:44.0126, Lon:10.0944</name><ele>2</ele></wpt><wpt lat="44.006351028" lon="10.101461001"><name>km:13, Lat:44.0064, Lon:10.1015</name><ele>3</ele></wpt><wpt lat="44.004831975" lon="10.103867026"><name>km:14, Lat:44.0048, Lon:10.1039</name><ele>3</ele></wpt><wpt lat="44.010710036" lon="10.094443001"><name>km:15, Lat:44.0107, Lon:10.0944</name><ele>1</ele></wpt><wpt lat="44.016577033" lon="10.085549969"><name>km:16, Lat:44.0166, Lon:10.0855</name><ele>4</ele></wpt><wpt lat="44.019595021" lon="10.079635028"><name>km:17, Lat:44.0196, Lon:10.0796</name><ele>2</ele></wpt><wpt lat="44.025255991" lon="10.073126983"><name>km:18, Lat:44.0253, Lon:10.0731</name><ele>5</ele></wpt><wpt lat="44.03009302" lon="10.062603001"><name>km:19, Lat:44.0301, Lon:10.0626</name><ele>4</ele></wpt><wpt lat="44.033196" lon="10.051407041"><name>km:20, Lat:44.0332, Lon:10.0514</name><ele>3</ele></wpt><wpt lat="44.038250959" lon="10.043491004"><name>km:21, Lat:44.0383, Lon:10.0435</name><ele>7</ele></wpt></gpx>
